# Wetter Temperatur Luftdruck Luftfeuchtigkeit Sichtweite Windgeschwindigkeit Windrichtung Zeit
1 Clouds 12 1017 76 6000 2.1 230 21:58 02.04.2020
2 Clouds 12 1017 76 6000 2.1 230 21:37 02.04.2020
3 Clear 12 1017 76 6000 2.1 230 21:18 02.04.2020
4 Clouds 13 1017 76 6000 2.1 340 20:44 02.04.2020
5 Clouds 13 1017 76 6000 2.1 340 20:24 02.04.2020
6 Clouds 13 1017 71 6000 2.1 340 19:57 02.04.2020
7 Clouds 13 1017 71 6000 2.1 340 19:39 02.04.2020
8 Clouds 13 1017 71 6000 2.1 340 19:20 02.04.2020
9 Clouds 14 1016 62 6000 3.1 240 18:54 02.04.2020
10 Clouds 14 1016 62 6000 3.1 240 18:36 02.04.2020
11 Clouds 14 1016 62 6000 3.1 240 18:18 02.04.2020
12 Clouds 16 1016 51 6000 2.6 280 17:42 02.04.2020
13 Clouds 16 1016 51 6000 2.6 280 17:24 02.04.2020
14 Clouds 17 1016 48 6000 4.1 260 16:58 02.04.2020
15 Clouds 17 1016 48 6000 4.1 260 16:40 02.04.2020
16 Clouds 17 1016 48 6000 4.1 260 16:21 02.04.2020
17 Clouds 17 1016 48 6000 3.6 270 15:56 02.04.2020
18 Clouds 17 1016 48 6000 3.6 270 15:38 02.04.2020
19 Clouds 17 1016 48 6000 3.6 270 15:18 02.04.2020
20 Clouds 17 1016 45 6000 5.7 270 14:57 02.04.2020
21 Clouds 17 1016 45 6000 5.7 270 14:38 02.04.2020
22 Clouds 17 1016 45 6000 5.7 270 14:18 02.04.2020
23 Clouds 16 1016 48 7000 3.6 280 13:54 02.04.2020
24 Clouds 16 1016 48 7000 3.6 280 13:54 02.04.2020
25 Clouds 16 1016 48 7000 3.6 280 13:36 02.04.2020
26 Clouds 16 1016 48 7000 3.6 280 13:18 02.04.2020
27 Haze 16 1017 55 5000 3.6 240 12:44 02.04.2020
28 Haze 16 1017 55 5000 3.6 240 12:19 02.04.2020
29 Haze 15 1017 58 5000 2.6 240 11:57 02.04.2020
30 Haze 15 1017 58 5000 2.6 240 11:39 02.04.2020
31 Haze 15 1017 58 5000 2.6 240 11:39 02.04.2020
32 Haze 15 1017 58 5000 2.6 240 11:20 02.04.2020
33 Haze 14 1017 58 5000 2.1 220 10:56 02.04.2020
34 Haze 14 1017 58 5000 2.1 220 10:38 02.04.2020
35 Haze 14 1017 58 5000 2.1 220 10:38 02.04.2020
36 Haze 14 1017 58 5000 2.1 220 10:20 02.04.2020
37 Haze 14 1017 58 5000 2.1 220 10:20 02.04.2020
38 Clouds 13 1017 82 7000 4.6 280 09:58 02.04.2020
39 Clouds 13 1017 82 7000 4.6 280 09:58 02.04.2020
40 Clouds 13 1017 82 7000 4.6 280 09:40 02.04.2020
41 Clouds 13 1017 82 7000 4.6 280 09:20 02.04.2020
42 Clouds 11 1016 81 6000 4.6 280 08:47 02.04.2020
43 Clouds 11 1016 81 6000 4.6 280 08:28 02.04.2020
44 Clouds 10 1015 81 7000 3.6 250 07:57 02.04.2020
45 Clouds 10 1015 81 7000 3.6 250 07:38 02.04.2020
46 Clouds 10 1015 81 7000 3.6 250 07:19 02.04.2020
47 Clouds 10 1015 76 7000 2.6 250 06:24 02.04.2020
48 Clouds 9 1015 81 6000 1.5 230 05:46 02.04.2020
49 Clouds 8 1014 87 6000 2.1 240 04:55 02.04.2020
50 Clouds 9 1015 87 7000 2.1 240 02:19 02.04.2020
51 Clouds 8 1015 87 7000 2.1 280 01:27 02.04.2020
52 Clouds 9 1016 87 7000 1 290 00:41 02.04.2020
53 Clouds 9 1016 87 7000 1 290 00:19 02.04.2020
54 Clear 9 1016 87 8000 1 290 23:39 01.04.2020
55 Clear 9 1016 87 8000 1 290 23:19 01.04.2020
56 Clouds 11 1016 81 7000 2.1 280 22:57 01.04.2020
57 Clouds 11 1016 81 7000 2.1 280 22:38 01.04.2020
58 Clouds 11 1016 81 7000 2.1 280 22:19 01.04.2020
59 Clouds 11 1016 81 7000 5.1 270 21:41 01.04.2020
60 Clouds 11 1016 81 7000 5.1 270 21:19 01.04.2020
61 Clouds 12 1015 76 7000 6.2 280 20:56 01.04.2020
62 Clouds 12 1015 76 7000 6.2 280 20:38 01.04.2020
63 Clouds 12 1015 76 7000 6.2 280 20:19 01.04.2020
64 Clouds 13 1015 76 7000 5.1 280 19:58 01.04.2020
65 Clouds 13 1015 76 7000 5.1 280 19:38 01.04.2020
66 Clouds 13 1015 76 7000 5.1 280 19:19 01.04.2020
67 Clouds 13 1015 76 7000 5.1 280 18:42 01.04.2020
68 Clouds 13 1015 76 7000 5.1 280 18:42 01.04.2020
69 Clouds 13 1015 76 7000 5.1 280 18:23 01.04.2020
70 Clouds 14 1014 76 6000 5.1 270 17:57 01.04.2020
71 Clouds 14 1014 76 6000 5.1 270 17:38 01.04.2020
72 Clouds 14 1014 76 6000 5.1 270 17:19 01.04.2020
73 Clouds 14 1014 76 6000 5.1 270 17:19 01.04.2020
74 Clouds 14 1014 71 6000 6.2 280 16:58 01.04.2020
75 Clouds 14 1014 71 6000 6.2 280 16:39 01.04.2020
76 Clouds 14 1014 71 6000 6.2 280 16:21 01.04.2020
77 Dust 14 1013 71 5000 12.9 270 15:57 01.04.2020
78 Dust 14 1013 71 5000 12.9 270 15:37 01.04.2020
79 Clouds 14 1013 71 6000 7.2 250 15:18 01.04.2020
80 Clouds 14 1013 71 6000 7.2 250 14:55 01.04.2020
81 Clouds 14 1013 71 6000 7.2 250 14:55 01.04.2020
82 Clouds 14 1013 71 6000 7.2 250 14:36 01.04.2020
83 Clouds 14 1013 71 6000 7.2 250 14:18 01.04.2020
84 Drizzle 14 1012 76 6000 10.3 260 13:55 01.04.2020
85 Drizzle 14 1012 76 6000 10.3 260 13:36 01.04.2020
86 Drizzle 14 1012 76 6000 10.3 260 13:18 01.04.2020
87 Drizzle 14 1012 76 6000 12.3 260 12:42 01.04.2020
88 Drizzle 14 1012 76 6000 12.3 260 12:23 01.04.2020
89 Drizzle 13 1012 76 6000 12.9 260 11:59 01.04.2020
90 Drizzle 13 1012 76 6000 12.9 260 11:39 01.04.2020
91 Drizzle 13 1012 76 6000 12.9 260 11:20 01.04.2020
92 Drizzle 13 1012 81 6000 10.3 260 10:56 01.04.2020
93 Drizzle 13 1012 81 6000 10.3 260 10:37 01.04.2020
94 Drizzle 13 1012 81 6000 10.3 260 10:18 01.04.2020
95 Dust 13 1011 76 5000 10.3 260 09:40 01.04.2020
96 Dust 13 1011 76 5000 10.3 260 09:22 01.04.2020
97 Dust 12 1011 76 5000 8.2 250 08:59 01.04.2020
98 Dust 12 1011 76 5000 8.2 250 08:40 01.04.2020
99 Dust 12 1011 76 5000 8.2 250 08:18 01.04.2020
100 Haze 12 1011 71 5000 6.7 250 07:42 01.04.2020
101 Haze 12 1011 71 5000 6.7 250 07:20 01.04.2020
102 Dust 12 1009 71 4000 12.9 250 06:47 01.04.2020
103 Dust 12 1009 71 4000 12.9 250 06:22 01.04.2020
104 Dust 12 1010 71 4000 7.7 250 05:55 01.04.2020
105 Dust 12 1011 81 4000 5.7 240 04:30 01.04.2020
106 Dust 12 1011 81 4000 5.1 250 03:28 01.04.2020
107 Dust 12 1011 66 4000 4.1 250 02:49 01.04.2020
108 Dust 12 1012 71 4000 2.6 290 01:56 01.04.2020
109 Dust 12 1012 71 4000 2.6 290 01:37 01.04.2020
110 Dust 12 1012 71 4000 2.6 290 01:18 01.04.2020
111 Dust 13 1012 62 4000 3.1 270 00:43 01.04.2020
112 Dust 13 1012 62 4000 3.1 270 00:18 01.04.2020
113 Dust 13 1012 62 4000 4.1 270 23:42 31.03.2020
114 Dust 13 1012 62 4000 4.1 270 23:23 31.03.2020
115 Dust 13 1012 62 4000 4.1 270 22:58 31.03.2020
116 Dust 14 1012 54 3000 5.74 286 22:37 31.03.2020
117 Dust 14 1012 54 3000 5.74 286 22:19 31.03.2020
118 Dust 15 1011 45 3000 1.5 200 21:56 31.03.2020
119 Dust 15 1011 45 3000 1.5 200 21:37 31.03.2020
120 Dust 15 1011 45 3000 1.5 200 21:19 31.03.2020
121 Dust 16 1010 45 3000 1.5 120 20:55 31.03.2020
122 Dust 16 1010 45 3000 1.5 120 20:36 31.03.2020
123 Dust 16 1010 45 3000 1.5 120 20:18 31.03.2020
124 Dust 16 1010 45 3000 1.5 120 20:18 31.03.2020
125 Dust 17 1010 36 3000 3.1 260 19:41 31.03.2020
126 Dust 17 1010 36 3000 3.1 260 19:22 31.03.2020
127 Dust 20 1010 30 3000 5.1 270 18:58 31.03.2020
128 Dust 20 1010 30 3000 5.1 270 18:39 31.03.2020
129 Dust 20 1010 30 3000 5.1 270 18:18 31.03.2020
130 Dust 21 1010 26 4000 7.2 280 17:55 31.03.2020
131 Dust 22 1010 26 4000 7.2 280 17:37 31.03.2020
132 Dust 22 1010 26 4000 7.2 280 17:18 31.03.2020
133 Dust 23 1009 20 4000 5.1 250 16:40 31.03.2020
134 Haze 25 1009 18 5000 6.2 240 16:19 31.03.2020
135 Haze 25 1009 18 5000 6.2 240 15:57 31.03.2020
136 Haze 25 1009 18 5000 6.2 240 15:39 31.03.2020
137 Haze 25 1009 18 5000 6.2 240 15:21 31.03.2020
138 Haze 25 1010 17 5000 5.1 210 14:57 31.03.2020
139 Haze 25 1010 17 5000 5.1 210 14:39 31.03.2020
140 Haze 25 1010 17 5000 5.1 210 14:20 31.03.2020
141 Clouds 24 1011 22 8000 3.1 200 13:43 31.03.2020
142 Clouds 24 1011 22 8000 3.1 200 13:20 31.03.2020
143 Clouds 23 1012 15 8000 3.6 180 12:59 31.03.2020
144 Clouds 23 1012 15 8000 3.6 180 12:40 31.03.2020
145 Clouds 23 1012 18 8000 3.6 180 12:19 31.03.2020
146 Clouds 22 1013 28 8000 5.7 160 11:41 31.03.2020
147 Clouds 22 1013 28 8000 5.7 160 11:20 31.03.2020
148 Clouds 22 1013 28 8000 5.7 160 11:20 31.03.2020
149 Rain 19 1013 34 10000 5.7 170 10:59 31.03.2020
150 Rain 19 1013 34 10000 5.7 170 10:41 31.03.2020
151 Rain 19 1013 34 10000 5.7 170 10:22 31.03.2020
152 Haze 17 1014 39 5000 6.42 160 09:59 31.03.2020
153 Haze 17 1014 39 5000 6.42 160 09:41 31.03.2020
154 Haze 17 1014 39 5000 6.42 160 09:22 31.03.2020
155 Haze 17 1014 39 5000 7.73 126 08:57 31.03.2020
156 Haze 17 1014 39 5000 7.73 126 08:39 31.03.2020
157 Haze 17 1014 39 5000 7.73 126 08:19 31.03.2020
158 Haze 15 1014 44 5000 2.1 260 07:56 31.03.2020
159 Haze 15 1014 44 5000 2.1 260 07:38 31.03.2020
160 Haze 15 1014 44 5000 2.1 260 07:19 31.03.2020
161 Haze 14 1014 41 5000 3.1 260 06:47 31.03.2020
162 Haze 14 1014 41 5000 3.1 260 06:22 31.03.2020
163 Haze 15 1013 41 5000 2.6 260 05:39 31.03.2020
164 Clouds 13 1014 54 6000 2.6 140 03:34 31.03.2020
165 Clouds 12 1014 58 7000 3.18 125 02:19 31.03.2020
166 Clouds 13 1015 62 7000 3.18 125 01:45 31.03.2020
167 Clouds 13 1015 66 7000 3.18 125 00:49 31.03.2020
168 Clouds 13 1015 66 7000 3.18 125 00:25 31.03.2020
169 Clouds 14 1015 58 7000 2.66 18 23:58 30.03.2020
170 Clouds 14 1015 58 7000 2.66 18 23:38 30.03.2020
171 Clouds 14 1015 58 7000 2.66 18 23:18 30.03.2020
172 Haze 14 1015 58 5000 2.66 18 22:55 30.03.2020
173 Haze 14 1015 58 5000 2.66 18 22:36 30.03.2020
174 Haze 14 1015 58 5000 2.66 18 22:18 30.03.2020
175 Haze 15 1015 54 5000 2.66 18 21:55 30.03.2020
176 Haze 15 1015 54 5000 2.66 18 21:36 30.03.2020
177 Haze 15 1015 54 5000 2.69 342 21:18 30.03.2020
178 Haze 15 1015 51 5000 2.69 342 20:42 30.03.2020
179 Haze 15 1015 51 5000 2.69 342 20:24 30.03.2020
180 Haze 15 1015 51 5000 2.69 342 20:24 30.03.2020
181 Haze 15 1015 51 5000 2.69 342 20:24 30.03.2020
182 Haze 16 1014 51 5000 2.69 342 19:59 30.03.2020
183 Haze 16 1014 51 5000 2.69 342 19:40 30.03.2020
184 Haze 16 1014 51 5000 2.69 342 19:21 30.03.2020
185 Haze 18 1014 42 5000 2.69 342 18:57 30.03.2020
186 Haze 18 1014 42 5000 2.69 342 18:38 30.03.2020
187 Haze 18 1014 42 5000 5.68 282 18:20 30.03.2020
188 Haze 20 1013 39 5000 5.1 260 17:57 30.03.2020
189 Haze 20 1013 39 5000 5.1 260 17:38 30.03.2020
190 Haze 20 1013 39 5000 5.1 260 17:18 30.03.2020
191 Clouds 20 1014 29 6000 5.1 260 16:55 30.03.2020
192 Clouds 20 1014 29 6000 5.1 260 16:36 30.03.2020
193 Clouds 20 1014 29 6000 5.1 260 16:18 30.03.2020
194 Clouds 20 1014 28 6000 6.2 260 15:54 30.03.2020
195 Clouds 20 1014 28 6000 6.2 260 15:36 30.03.2020
196 Clear 20 1014 28 6000 6.2 260 15:18 30.03.2020
197 Clear 20 1014 32 8000 6.2 240 14:39 30.03.2020
198 Clear 20 1014 32 8000 6.2 240 14:19 30.03.2020
199 Clear 19 1015 31 10000 5.1 270 13:59 30.03.2020
200 Clear 19 1015 31 10000 5.1 270 13:40 30.03.2020
201 Clear 19 1015 31 10000 5.1 270 13:21 30.03.2020
202 Clear 19 1015 36 10000 5.1 270 12:57 30.03.2020
203 Clear 19 1015 36 10000 5.1 270 12:38 30.03.2020
204 Clear 19 1015 36 10000 5.1 270 12:38 30.03.2020
205 Clear 19 1015 36 10000 5.1 270 12:19 30.03.2020
206 Clear 18 1016 36 10000 2.6 230 11:56 30.03.2020
207 Clear 18 1016 36 10000 2.6 230 11:38 30.03.2020
208 Clear 18 1016 36 10000 2.6 230 11:20 30.03.2020
209 Clear 16 1016 41 0 8.2 260 10:39 30.03.2020
210 Clear 16 1016 41 0 8.2 260 10:21 30.03.2020
211 Clear 15 1016 41 10000 5.1 240 09:56 30.03.2020
212 Clear 15 1016 41 10000 5.1 240 09:37 30.03.2020
213 Clear 15 1016 41 10000 5.1 240 09:18 30.03.2020
214 Clear 13 1015 47 10000 5.1 240 08:41 30.03.2020
215 Clear 13 1015 47 10000 5.1 240 08:22 30.03.2020
216 Clear 10 1014 46 10000 2.6 240 07:49 30.03.2020
217 Clear 10 1014 46 10000 2.6 240 07:27 30.03.2020
218 Clear 9 1014 50 10000 2.6 240 06:54 30.03.2020
219 Clear 9 1014 50 10000 2.6 240 06:31 30.03.2020
220 Clear 9 1014 50 10000 2.6 240 06:31 30.03.2020
221 Clear 9 1014 50 10000 2.6 250 05:52 30.03.2020
222 Clear 9 1014 50 10000 2.6 250 05:18 30.03.2020
223 Clear 7 1014 70 6000 3.1 270 04:22 30.03.2020
224 Clear 8 1014 61 6000 3.1 270 03:38 30.03.2020
225 Clear 8 1015 61 6000 3.1 270 02:37 30.03.2020
226 Clear 13 1014 43 10000 9.3 270 01:35 30.03.2020
227 Clear 13 1014 43 10000 9.3 270 00:49 30.03.2020
228 Clear 12 1014 43 10000 9.3 270 00:22 30.03.2020
229 Clear 12 1014 43 10000 9.3 270 23:42 29.03.2020
230 Clear 12 1014 43 10000 9.3 270 23:23 29.03.2020
231 Clear 13 1014 33 10000 9.8 270 22:57 29.03.2020
232 Clear 13 1014 33 10000 9.8 270 22:38 29.03.2020
233 Clear 13 1014 33 10000 9.8 270 22:19 29.03.2020
234 Squall 14 1014 33 10000 12.9 270 21:56 29.03.2020
235 Squall 14 1014 33 10000 12.9 270 21:36 29.03.2020
236 Squall 14 1014 33 10000 12.9 270 21:18 29.03.2020
237 Clear 14 1014 33 0 12.9 270 20:55 29.03.2020
238 Clear 14 1014 33 0 12.9 270 20:36 29.03.2020
239 Clear 14 1014 33 0 12.9 270 20:18 29.03.2020
240 Clear 14 1013 33 0 12.9 270 19:42 29.03.2020
241 Clear 14 1013 33 0 12.9 270 19:42 29.03.2020
242 Clear 14 1013 33 0 12.9 270 19:24 29.03.2020
243 Clear 14 1013 33 0 12.9 270 18:58 29.03.2020
244 Clear 14 1014 35 7000 10.3 250 18:40 29.03.2020
245 Clear 14 1014 35 7000 10.3 250 18:20 29.03.2020
246 Dust 16 1014 29 5000 10.3 260 17:59 29.03.2020
247 Dust 16 1014 29 5000 10.3 260 17:41 29.03.2020
248 Dust 16 1014 29 5000 10.3 260 17:22 29.03.2020
249 Dust 16 1014 29 5000 10.3 260 17:22 29.03.2020
250 Haze 16 1014 31 5000 7.2 250 16:58 29.03.2020
251 Haze 16 1014 31 5000 7.2 250 16:39 29.03.2020
252 Haze 16 1014 31 5000 7.2 250 16:21 29.03.2020
253 Clouds 16 1014 44 7000 8.2 260 15:58 29.03.2020
254 Clouds 16 1014 44 7000 8.2 260 15:39 29.03.2020
255 Clouds 16 1014 44 7000 8.2 260 15:19 29.03.2020
256 Clouds 16 1014 48 8000 8.7 270 14:56 29.03.2020
257 Clouds 16 1014 48 8000 8.7 270 14:37 29.03.2020
258 Clouds 16 1014 48 8000 8.7 270 14:18 29.03.2020
259 Clouds 16 1015 54 8000 8.2 250 13:55 29.03.2020
260 Clouds 16 1015 54 8000 8.2 250 13:36 29.03.2020
261 Clouds 16 1015 54 8000 8.2 250 13:18 29.03.2020
262 Clouds 15 1015 54 7000 5.7 250 12:54 29.03.2020
263 Clouds 15 1015 54 7000 5.7 250 12:36 29.03.2020
264 Clouds 15 1015 54 7000 5.7 250 12:18 29.03.2020
265 Clouds 15 1015 54 7000 5.7 250 12:18 29.03.2020
266 Clouds 14 1015 66 7000 6.2 260 11:38 29.03.2020
267 Clouds 14 1015 66 7000 6.2 260 11:20 29.03.2020
268 Clouds 13 1015 71 7000 5.1 250 10:40 29.03.2020
269 Clouds 13 1015 71 7000 5.1 250 10:21 29.03.2020
270 Clouds 12 1016 66 8000 4.1 250 09:59 29.03.2020
271 Clouds 12 1016 66 8000 4.1 250 09:38 29.03.2020
272 Clouds 12 1016 66 8000 4.1 250 09:19 29.03.2020
273 Clouds 10 1016 81 8000 5.1 250 08:48 29.03.2020
274 Clouds 10 1016 81 8000 5.1 250 08:27 29.03.2020
275 Clouds 9 1015 87 8000 4.1 250 07:56 29.03.2020
276 Clouds 9 1015 87 8000 4.1 250 07:38 29.03.2020
277 Clouds 9 1015 87 8000 4.1 250 07:19 29.03.2020
278 Clouds 8 1015 75 8000 4.1 250 04:59 29.03.2020
279 Clouds 8 1015 75 8000 4.1 250 03:42 29.03.2020
280 Clouds 8 1015 75 8000 4.1 250 03:24 29.03.2020
281 Clouds 8 1015 70 8000 2.6 230 01:50 29.03.2020
282 Clouds 9 1015 70 8000 2.6 230 01:23 29.03.2020
283 Clouds 9 1016 76 8000 4.1 280 00:53 29.03.2020
284 Clouds 9 1016 76 8000 4.1 280 00:30 29.03.2020
285 Clouds 9 1016 76 8000 4.1 290 23:42 28.03.2020
286 Clouds 9 1016 76 8000 4.1 290 23:23 28.03.2020
287 Clouds 10 1016 71 8000 5.1 300 22:57 28.03.2020
288 Clouds 10 1016 71 8000 5.1 300 22:37 28.03.2020
289 Clouds 10 1016 71 8000 5.1 300 22:19 28.03.2020
290 Clouds 10 1016 76 8000 5.1 300 21:43 28.03.2020
291 Clouds 10 1016 76 8000 5.1 300 21:24 28.03.2020
292 Clouds 11 1016 71 8000 4.1 290 20:59 28.03.2020
293 Clouds 11 1016 71 8000 4.1 290 20:41 28.03.2020
294 Clouds 11 1016 71 8000 4.1 290 20:23 28.03.2020
295 Clouds 11 1015 71 8000 5.1 280 19:57 28.03.2020
296 Clouds 11 1015 71 8000 5.1 280 19:39 28.03.2020
297 Clouds 11 1015 71 8000 5.1 280 19:20 28.03.2020
298 Clouds 12 1015 71 6000 5.1 280 18:58 28.03.2020
299 Clouds 12 1015 71 6000 5.1 280 18:38 28.03.2020
300 Clouds 12 1015 71 6000 5.1 280 18:19 28.03.2020
301 Haze 13 1014 66 5000 4.1 300 17:39 28.03.2020
302 Haze 13 1014 66 5000 4.1 300 17:20 28.03.2020
303 Dust 15 1014 58 4000 5.7 290 16:43 28.03.2020
304 Dust 15 1014 58 4000 5.7 290 16:20 28.03.2020
305 Dust 16 1015 55 4000 7.2 280 15:59 28.03.2020
306 Dust 16 1015 55 4000 7.2 280 15:39 28.03.2020
307 Dust 16 1015 55 4000 7.2 280 15:19 28.03.2020
308 Haze 16 1014 58 4000 8.7 270 14:55 28.03.2020
309 Haze 16 1014 58 4000 8.7 270 14:37 28.03.2020
310 Haze 16 1014 58 4000 8.7 270 14:18 28.03.2020
311 Rain 16 1014 67 4000 7.7 260 13:39 28.03.2020
312 Haze 16 1014 67 4000 7.7 260 13:21 28.03.2020
313 Haze 16 1014 55 4000 6.7 280 12:40 28.03.2020
314 Haze 16 1014 55 4000 6.7 280 12:22 28.03.2020
315 Haze 15 1014 58 4000 4.1 260 11:43 28.03.2020
316 Haze 15 1014 58 4000 4.1 260 11:23 28.03.2020
317 Haze 18 1015 29 4000 4.6 250 10:58 28.03.2020
318 Haze 18 1015 29 4000 4.6 250 10:38 28.03.2020
319 Haze 18 1015 29 4000 4.6 250 10:18 28.03.2020
320 Haze 15 1015 62 4000 6.7 280 09:42 28.03.2020
321 Haze 15 1015 62 4000 6.7 280 09:23 28.03.2020
322 Haze 14 1015 67 4000 6.2 300 08:55 28.03.2020
323 Haze 14 1015 67 4000 6.2 300 08:37 28.03.2020
324 Haze 14 1015 67 4000 6.2 300 08:18 28.03.2020
325 Dust 13 1014 76 3500 5.1 290 07:41 28.03.2020
326 Dust 13 1014 76 4000 6.2 280 06:58 28.03.2020
327 Dust 13 1014 76 4000 6.2 280 06:34 28.03.2020
328 Dust 12 1013 81 3500 3.6 270 05:41 28.03.2020
329 Dust 12 1013 81 3500 3.6 270 05:21 28.03.2020
330 Dust 12 1012 76 4000 3.6 270 04:40 28.03.2020
331 Dust 12 1012 76 4000 3.1 280 03:21 28.03.2020
332 Dust 14 1011 47 3000 3.6 250 01:53 28.03.2020
333 Dust 14 1011 47 3000 3.6 250 01:25 28.03.2020
334 Dust 14 1011 55 3000 2.6 250 00:56 28.03.2020
335 Dust 14 1011 55 3000 2.6 250 00:35 28.03.2020
336 Dust 16 1011 55 3000 1 320 23:55 27.03.2020
337 Dust 16 1011 55 3000 1 320 23:37 27.03.2020
338 Dust 15 1011 55 3000 1 320 23:18 27.03.2020
339 Dust 15 1011 55 3000 1 320 22:55 27.03.2020
340 Dust 15 1011 55 3000 1.5 320 22:37 27.03.2020
341 Dust 15 1011 55 3000 1.5 320 22:18 27.03.2020
342 Dust 16 1011 55 3000 1.5 320 21:42 27.03.2020
343 Dust 16 1011 55 3000 1.5 320 21:24 27.03.2020
344 Dust 16 1010 59 3000 1.5 340 20:58 27.03.2020
345 Dust 16 1010 59 3000 1.5 340 20:58 27.03.2020
346 Dust 16 1010 59 3000 1.5 340 20:39 27.03.2020
347 Dust 17 1010 59 3000 1.5 340 20:20 27.03.2020
348 Dust 17 1010 59 3000 1.5 340 19:57 27.03.2020
349 Dust 17 1010 59 3000 1.5 340 19:38 27.03.2020
350 Dust 17 1010 59 3000 1.5 340 19:20 27.03.2020
351 Dust 17 1009 52 2500 1.5 320 18:44 27.03.2020
352 Dust 17 1009 52 2500 1.5 320 18:24 27.03.2020
353 Dust 19 1009 45 2500 2.1 320 17:58 27.03.2020
354 Dust 19 1009 45 2500 2.1 320 17:39 27.03.2020
355 Dust 19 1009 45 2500 2.1 320 17:19 27.03.2020
356 Clear 23 1009 38 6000 3.89 327 16:44 27.03.2020
357 Clear 23 1009 38 6000 3.89 327 16:25 27.03.2020
358 Clouds 23 1009 38 6000 3.89 327 15:56 27.03.2020
359 Clouds 23 1009 38 6000 3.89 327 15:38 27.03.2020
360 Clear 24 1006 24 0 3.89 327 15:19 27.03.2020
361 Clear 24 1006 24 0 3.89 327 14:43 27.03.2020
362 Clear 24 1006 24 0 3.89 327 14:24 27.03.2020
363 Clouds 24 1005 22 0 1.45 206 13:55 27.03.2020
364 Clouds 24 1005 22 0 1.45 206 13:37 27.03.2020
365 Clouds 24 1006 21 0 0.43 249 13:18 27.03.2020
366 Clouds 24 1006 21 0 0.43 249 12:43 27.03.2020
367 Clouds 24 1006 21 0 0.43 249 12:19 27.03.2020
368 Clouds 24 1006 21 0 0.43 249 11:57 27.03.2020
369 Clouds 24 1006 21 0 0.43 249 11:39 27.03.2020
370 Clouds 24 1006 21 0 0.43 249 11:21 27.03.2020
371 Clear 22 1008 26 0 4.6 106 10:54 27.03.2020
372 Clear 22 1008 26 0 4.6 106 10:36 27.03.2020
373 Clear 22 1008 26 0 4.6 106 10:18 27.03.2020
374 Clear 22 1008 26 0 4.6 106 09:54 27.03.2020
375 Clear 22 1008 26 0 4.6 106 09:36 27.03.2020
376 Clear 22 1008 26 0 4.6 106 09:18 27.03.2020
377 Clear 22 1008 26 0 4.6 106 08:54 27.03.2020
378 Clear 22 1008 26 0 4.6 106 08:36 27.03.2020
379 Clouds 18 1008 36 0 5.38 73 08:18 27.03.2020
380 Clouds 18 1009 35 0 6.63 46 07:41 27.03.2020
381 Clouds 18 1009 35 0 6.63 46 07:21 27.03.2020
382 Clouds 18 1009 35 0 6.63 46 06:41 27.03.2020
383 Clouds 18 1009 35 0 6.63 46 05:57 27.03.2020
384 Rain 15 1008 46 0 9.16 1 03:42 27.03.2020
385 Clouds 17 1007 30 0 2.18 8 02:19 27.03.2020
386 Clouds 17 1007 30 0 2.18 8 01:19 27.03.2020
387 Clouds 17 1007 29 0 1.54 290 00:43 27.03.2020
388 Clouds 17 1007 29 0 1.54 290 00:20 27.03.2020
389 Clouds 17 1007 29 0 1.54 290 23:42 26.03.2020
390 Clouds 17 1009 28 0 1.73 94 23:19 26.03.2020
391 Clouds 17 1009 28 0 1.73 94 22:57 26.03.2020
392 Clouds 17 1009 28 0 1.73 94 22:36 26.03.2020
393 Clouds 17 1009 28 0 1.73 94 22:18 26.03.2020
394 Clouds 17 1009 28 0 1.73 94 21:40 26.03.2020
395 Clouds 17 1009 28 0 1.73 94 21:22 26.03.2020
396 Clouds 17 1009 28 0 1.73 94 20:59 26.03.2020
397 Clouds 17 1009 28 0 1.73 94 20:40 26.03.2020
398 Clouds 17 1009 28 0 1.73 94 20:22 26.03.2020
399 Clouds 19 1008 24 0 3.78 74 19:58 26.03.2020
400 Clouds 19 1008 24 0 3.78 74 19:40 26.03.2020
401 Clouds 19 1008 24 0 3.78 74 19:22 26.03.2020
402 Clouds 19 1008 24 0 3.78 74 18:59 26.03.2020
403 Clouds 19 1008 24 0 3.78 74 18:41 26.03.2020
404 Clouds 19 1008 24 0 3.78 74 18:23 26.03.2020
405 Clouds 19 1008 24 0 3.78 74 17:45 26.03.2020
406 Clouds 22 1007 20 0 6.34 102 17:20 26.03.2020
407 Clouds 22 1007 20 0 6.34 102 17:20 26.03.2020
408 Clouds 22 1007 20 0 6.34 102 16:59 26.03.2020
409 Clouds 22 1007 20 0 6.34 102 16:39 26.03.2020
410 Clouds 22 1007 20 0 6.34 102 16:21 26.03.2020
411 Clouds 22 1007 20 0 6.34 102 15:56 26.03.2020
412 Clouds 22 1007 20 0 6.34 102 15:38 26.03.2020
413 Clouds 22 1007 20 0 6.34 102 15:20 26.03.2020
414 Clouds 22 1007 20 0 6.34 102 14:43 26.03.2020
415 Clouds 22 1007 20 0 6.34 102 14:25 26.03.2020
416 Clouds 22 1008 21 0 5.46 134 13:59 26.03.2020
417 Clouds 22 1008 21 0 5.46 134 13:40 26.03.2020
418 Clouds 22 1008 21 0 5.46 134 13:21 26.03.2020
419 Clouds 22 1008 21 0 5.46 134 13:21 26.03.2020
420 Clouds 22 1008 22 0 5.61 135 12:54 26.03.2020
421 Clouds 22 1008 22 0 5.61 135 12:36 26.03.2020
422 Clouds 22 1008 22 0 5.61 135 12:18 26.03.2020
423 Clouds 22 1008 22 0 5.61 135 11:43 26.03.2020
424 Clouds 19 1011 34 0 5.9 129 11:19 26.03.2020
425 Clouds 19 1011 34 0 5.9 129 10:42 26.03.2020
426 Clouds 19 1011 34 0 5.9 129 10:42 26.03.2020
427 Clouds 19 1011 34 0 5.9 129 10:20 26.03.2020
428 Clouds 19 1011 34 0 5.9 129 09:59 26.03.2020
429 Clouds 19 1011 34 0 5.9 129 09:41 26.03.2020
430 Clouds 19 1011 34 0 5.9 129 09:19 26.03.2020
431 Clouds 19 1011 34 0 5.9 129 08:44 26.03.2020
432 Clouds 19 1011 34 0 5.9 129 08:26 26.03.2020
433 Clouds 15 1012 48 0 5.14 109 07:57 26.03.2020
434 Clouds 15 1012 48 0 5.14 109 07:57 26.03.2020
435 Clouds 15 1012 48 0 5.14 109 07:38 26.03.2020
436 Clouds 15 1012 48 0 5.14 109 07:19 26.03.2020
437 Clouds 15 1012 48 0 5.14 109 06:38 26.03.2020
438 Clouds 15 1012 48 0 5.14 109 05:51 26.03.2020
439 Clear 11 1012 57 0 0.74 140 03:52 26.03.2020
440 Clear 11 1012 57 0 0.74 140 03:33 26.03.2020
441 Clear 11 1012 57 0 0.74 140 02:53 26.03.2020
442 Clouds 12 1012 50 0 2.52 332 01:20 26.03.2020
443 Clouds 12 1012 50 0 2.52 332 00:33 26.03.2020
444 Clouds 12 1012 50 0 2.52 332 23:44 25.03.2020
445 Clouds 12 1012 50 0 2.52 332 23:26 25.03.2020
446 Clear 13 1013 53 0 3.56 331 22:57 25.03.2020
447 Clear 13 1013 53 0 3.56 331 22:38 25.03.2020
448 Clear 13 1013 53 0 3.56 331 22:19 25.03.2020
449 Clear 13 1013 53 0 3.56 331 21:55 25.03.2020
450 Clear 13 1013 53 0 3.56 331 21:37 25.03.2020
451 Clear 13 1013 53 0 3.56 331 21:18 25.03.2020
452 Clear 13 1013 53 0 3.56 331 20:40 25.03.2020
453 Clear 14 1012 54 0 5.11 324 20:20 25.03.2020
454 Clear 14 1012 54 0 5.11 324 19:58 25.03.2020
455 Clear 14 1012 54 0 5.11 324 19:40 25.03.2020
456 Clear 14 1012 55 0 5.37 324 19:21 25.03.2020
457 Clear 14 1012 54 0 5.11 324 18:56 25.03.2020
458 Clear 14 1012 54 0 5.11 324 18:37 25.03.2020
459 Clear 14 1012 54 0 5.11 324 18:19 25.03.2020
460 Clear 14 1012 55 0 5.37 324 17:42 25.03.2020
461 Clear 14 1012 54 0 5.11 324 17:23 25.03.2020
462 Clear 17 1011 37 0 7.18 315 16:59 25.03.2020
463 Clear 17 1011 37 0 7.18 315 16:41 25.03.2020
464 Clear 17 1011 37 0 7.18 315 16:21 25.03.2020
465 Clear 17 1011 37 0 7.18 315 15:57 25.03.2020
466 Clear 17 1011 37 0 7.18 315 15:37 25.03.2020
467 Clear 17 1011 37 0 7.18 315 15:19 25.03.2020
468 Clear 17 1011 37 0 7.18 315 15:19 25.03.2020
469 Clear 18 1011 36 0 6.73 321 14:41 25.03.2020
470 Clear 17 1011 37 0 7.18 315 14:21 25.03.2020
471 Clear 20 1011 24 0 6.38 297 13:46 25.03.2020
472 Clear 20 1011 24 0 6.38 297 13:26 25.03.2020
473 Clear 20 1010 24 0 6.22 295 12:57 25.03.2020
474 Clear 20 1010 24 0 6.22 295 12:37 25.03.2020
475 Clear 20 1010 24 0 6.22 295 12:19 25.03.2020
476 Clear 20 1010 24 0 6.22 295 11:43 25.03.2020
477 Clear 20 1010 24 0 6.22 295 11:22 25.03.2020
478 Clear 17 1012 31 0 5.11 298 10:59 25.03.2020
479 Clear 17 1012 31 0 5.11 298 10:40 25.03.2020
480 Clear 17 1012 31 0 5.11 298 10:19 25.03.2020
481 Clear 17 1012 31 0 5.11 298 09:59 25.03.2020
482 Clear 17 1012 31 0 5.11 298 09:41 25.03.2020
483 Clear 17 1012 31 0 5.11 298 09:22 25.03.2020
484 Clear 17 1012 31 0 5.11 298 08:55 25.03.2020
485 Clear 17 1012 31 0 5.11 298 08:37 25.03.2020
486 Clear 13 1012 51 0 3.34 315 08:18 25.03.2020
487 Clear 13 1012 50 0 3.18 308 07:39 25.03.2020
488 Clear 13 1012 50 0 3.18 308 07:20 25.03.2020
489 Clear 13 1012 50 0 3.18 308 06:47 25.03.2020
490 Clear 13 1012 50 0 3.18 308 06:26 25.03.2020
491 Clear 13 1012 50 0 3.18 308 05:53 25.03.2020
492 Clear 11 1011 66 0 2.48 305 04:59 25.03.2020
493 Clear 11 1011 66 0 2.48 305 04:39 25.03.2020
494 Clear 11 1011 66 0 2.48 305 03:36 25.03.2020
495 Clear 11 1011 66 0 2.48 305 02:31 25.03.2020
496 Clouds 12 1011 62 0 2.8 288 01:21 25.03.2020
497 Clouds 12 1011 62 0 2.8 288 00:48 25.03.2020
498 Clouds 12 1011 62 0 2.8 288 00:19 25.03.2020
499 Clouds 12 1011 62 0 2.8 288 23:45 24.03.2020
500 Clouds 12 1011 62 0 2.8 288 23:26 24.03.2020
501 Clouds 13 1011 57 0 2.54 286 22:56 24.03.2020
502 Clouds 13 1011 57 0 2.54 286 22:37 24.03.2020
503 Clouds 13 1011 57 0 2.54 286 22:19 24.03.2020
504 Clouds 13 1011 57 0 2.54 286 22:19 24.03.2020
505 Clouds 13 1011 57 0 2.54 286 21:56 24.03.2020
506 Clouds 13 1011 57 0 2.54 286 21:37 24.03.2020
507 Clouds 13 1011 57 0 2.54 286 21:18 24.03.2020
508 Clouds 13 1011 57 0 2.54 286 20:56 24.03.2020
509 Clouds 13 1011 57 0 2.54 286 20:38 24.03.2020
510 Clouds 15 1010 44 0 3.62 286 20:19 24.03.2020
511 Clouds 15 1010 44 0 3.62 286 19:41 24.03.2020
512 Clouds 15 1010 44 0 3.62 286 19:19 24.03.2020
513 Clouds 15 1010 44 0 3.62 286 18:55 24.03.2020
514 Clouds 15 1010 44 0 3.62 286 18:37 24.03.2020
515 Clouds 15 1010 44 0 3.62 286 18:18 24.03.2020
516 Clouds 15 1010 44 0 3.62 286 18:18 24.03.2020
517 Clouds 15 1010 44 0 3.62 286 17:42 24.03.2020
518 Clouds 15 1010 44 0 3.62 286 17:23 24.03.2020
519 Dust 17 1011 45 3000 6.2 280 16:58 24.03.2020
520 Dust 17 1011 45 3000 6.2 280 16:40 24.03.2020
521 Dust 17 1011 45 3000 6.2 280 16:22 24.03.2020
522 Dust 18 1011 45 3000 8.2 260 15:59 24.03.2020
523 Dust 18 1011 45 3000 8.2 260 15:39 24.03.2020
524 Dust 18 1011 45 3000 8.2 260 15:21 24.03.2020
525 Dust 18 1011 45 3000 8.2 260 15:21 24.03.2020
526 Dust 19 1011 37 4000 8.7 250 14:43 24.03.2020
527 Clouds 19 1009 29 0 7.01 269 14:21 24.03.2020
528 Clear 21 1008 23 0 7.78 260 13:55 24.03.2020
529 Clear 21 1008 23 0 7.78 260 13:36 24.03.2020
530 Clear 21 1008 23 0 7.78 260 13:18 24.03.2020
531 Clear 22 1008 23 0 7.82 257 12:41 24.03.2020
532 Clear 22 1008 23 0 7.82 257 12:23 24.03.2020
533 Clear 22 1008 23 0 7.82 257 11:41 24.03.2020
534 Haze 16 1011 34 4000 7.2 250 11:20 24.03.2020
535 Haze 18 1011 34 4000 5.1 250 10:57 24.03.2020
536 Haze 18 1011 34 4000 5.1 250 10:38 24.03.2020
537 Haze 18 1011 34 4000 5.1 250 10:18 24.03.2020
538 Haze 18 1011 36 4000 5.7 250 09:43 24.03.2020
539 Haze 18 1011 36 4000 5.7 250 09:25 24.03.2020
540 Haze 17 1011 36 4000 2.6 230 08:57 24.03.2020
541 Haze 17 1011 36 4000 2.6 230 08:37 24.03.2020
542 Haze 17 1011 36 4000 2.6 230 08:18 24.03.2020
543 Haze 13 1011 58 5000 2.91 232 07:44 24.03.2020
544 Haze 13 1011 58 5000 2.91 232 07:22 24.03.2020
545 Haze 11 1011 54 4000 1.5 270 06:38 24.03.2020
546 Haze 9 1011 53 4000 2.1 270 05:42 24.03.2020
547 Clouds 10 1011 57 6000 2.1 270 04:51 24.03.2020
548 Clouds 10 1011 62 6000 2.6 270 03:22 24.03.2020
549 Clouds 12 1011 47 6000 3.1 250 02:41 24.03.2020
550 Clouds 10 1012 71 6000 1.5 230 00:54 24.03.2020
551 Clouds 10 1012 71 6000 1.5 230 00:27 24.03.2020
552 Clouds 12 1012 66 6000 1.5 230 23:58 23.03.2020
553 Clouds 12 1012 66 6000 1.5 230 23:38 23.03.2020
554 Clouds 12 1012 66 6000 1.5 230 23:19 23.03.2020
555 Clouds 12 1012 62 6000 1.5 230 22:44 23.03.2020
556 Clouds 12 1012 62 6000 1.5 230 22:23 23.03.2020
557 Clouds 13 1012 58 6000 3.69 117 21:55 23.03.2020
558 Clouds 13 1012 58 6000 3.69 117 21:37 23.03.2020
559 Clouds 13 1012 58 6000 3.69 117 21:37 23.03.2020
560 Clouds 13 1012 58 6000 3.69 117 21:37 23.03.2020
561 Clouds 13 1012 58 6000 3.69 117 21:19 23.03.2020
562 Clouds 14 1013 58 6000 1.5 220 20:56 23.03.2020
563 Clouds 14 1013 58 6000 1.5 220 20:38 23.03.2020
564 Clouds 14 1013 58 6000 1.5 220 20:19 23.03.2020
565 Clouds 15 1013 58 7000 3.24 118 19:42 23.03.2020
566 Clouds 15 1013 58 7000 3.24 118 19:23 23.03.2020
567 Clouds 15 1013 58 7000 3.24 118 18:56 23.03.2020
568 Clouds 17 1013 45 7000 1.5 180 18:38 23.03.2020
569 Clouds 17 1013 45 7000 1.5 180 18:19 23.03.2020
570 Clouds 18 1012 42 7000 3.24 118 17:42 23.03.2020
571 Clouds 18 1012 42 7000 3.24 118 17:21 23.03.2020
572 Clouds 20 1012 30 7000 1.5 150 16:56 23.03.2020
573 Clouds 20 1012 30 7000 1.5 150 16:38 23.03.2020
574 Clouds 20 1012 30 7000 1.5 150 16:19 23.03.2020
575 Clouds 21 1013 30 7000 2.6 150 15:41 23.03.2020
576 Clouds 21 1013 30 7000 2.6 150 15:19 23.03.2020
577 Clouds 20 1013 28 8000 3.1 200 14:38 23.03.2020
578 Clouds 20 1013 28 8000 3.1 200 14:20 23.03.2020
579 Clouds 20 1014 34 8000 1.5 160 13:58 23.03.2020
580 Clouds 20 1014 34 8000 1.5 160 13:40 23.03.2020
581 Clouds 20 1014 34 8000 1.5 160 13:40 23.03.2020
582 Clouds 20 1014 34 8000 1.5 160 13:20 23.03.2020
583 Clouds 19 1014 32 8000 2.6 120 12:44 23.03.2020
584 Clouds 19 1014 32 8000 2.6 120 12:25 23.03.2020
585 Clouds 18 1015 31 8000 2.6 240 11:59 23.03.2020
586 Clouds 18 1015 31 8000 2.6 240 11:40 23.03.2020
587 Clouds 18 1015 31 8000 2.6 240 11:20 23.03.2020
588 Clouds 18 1015 31 8000 2.6 240 11:20 23.03.2020
589 Clouds 15 1016 62 6000 1.5 70 10:58 23.03.2020
590 Clouds 15 1016 62 6000 1.5 70 10:38 23.03.2020
591 Clouds 15 1016 62 6000 1.5 70 10:38 23.03.2020
592 Clouds 15 1016 62 6000 1.5 70 10:20 23.03.2020
593 Clouds 12 1017 66 6000 1.5 70 09:44 23.03.2020
594 Clouds 12 1017 66 6000 1.5 70 09:21 23.03.2020
595 Haze 10 1017 76 5000 2.6 20 08:57 23.03.2020
596 Haze 10 1017 76 5000 2.6 20 08:36 23.03.2020
597 Haze 10 1017 76 5000 2.6 20 08:18 23.03.2020
598 Clouds 9 1017 70 6000 2.1 240 07:47 23.03.2020
599 Clouds 9 1017 70 6000 2.1 240 07:29 23.03.2020
600 Mist 6 1017 87 3000 3.21 140 06:52 23.03.2020
601 Mist 5 1018 93 3000 3.21 140 05:55 23.03.2020
602 Mist 5 1017 93 3000 3.21 140 05:29 23.03.2020
603 Mist 4 1017 93 4000 1.13 143 03:41 23.03.2020
604 Mist 4 1017 100 4000 1.13 143 02:37 23.03.2020
605 Mist 5 1017 93 4000 0.9 306 01:34 23.03.2020
606 Mist 5 1018 93 4500 0.73 290 00:40 23.03.2020
607 Mist 6 1018 87 4500 0.73 290 23:53 22.03.2020
608 Mist 6 1018 87 4500 0.73 290 23:27 22.03.2020
609 Mist 6 1018 87 4500 2.47 315 22:56 22.03.2020
610 Mist 6 1018 87 4500 1.5 140 22:36 22.03.2020
611 Mist 6 1018 87 4500 1.5 140 22:18 22.03.2020
612 Haze 7 1018 81 5000 1.5 150 21:39 22.03.2020
613 Haze 7 1018 81 5000 1.5 150 21:20 22.03.2020
614 Clouds 9 1018 76 6000 3.1 260 20:58 22.03.2020
615 Clouds 9 1018 76 6000 3.1 260 20:39 22.03.2020
616 Clouds 9 1018 76 6000 3.1 260 20:21 22.03.2020
617 Haze 10 1018 71 5000 4.6 270 19:55 22.03.2020
618 Haze 10 1018 71 5000 4.6 270 19:37 22.03.2020
619 Haze 10 1018 71 5000 4.6 270 19:19 22.03.2020
620 Haze 10 1018 71 5000 4.6 270 18:56 22.03.2020
621 Haze 10 1018 71 5000 4.6 270 18:38 22.03.2020
622 Haze 10 1018 71 5000 4.6 270 18:18 22.03.2020
623 Haze 11 1018 66 5000 4.6 310 17:56 22.03.2020
624 Haze 11 1018 66 5000 4.6 310 17:37 22.03.2020
625 Haze 11 1018 66 5000 4.6 310 17:19 22.03.2020
626 Haze 11 1018 66 5000 4.6 310 16:55 22.03.2020
627 Haze 11 1018 66 5000 4.6 310 16:36 22.03.2020
628 Haze 11 1018 66 5000 4.6 310 16:18 22.03.2020
629 Haze 12 1018 62 5000 5.1 320 15:39 22.03.2020
630 Haze 12 1018 62 5000 5.1 320 15:19 22.03.2020
631 Haze 12 1017 62 5000 5.1 290 14:46 22.03.2020
632 Haze 12 1017 62 5000 5.1 290 14:18 22.03.2020
633 Haze 13 1018 54 5000 7.2 290 13:41 22.03.2020
634 Haze 13 1018 54 5000 7.2 290 13:20 22.03.2020
635 Haze 13 1018 58 5000 6.2 320 12:47 22.03.2020
636 Haze 13 1018 58 5000 6.2 320 12:23 22.03.2020
637 Haze 13 1018 58 5000 6.2 320 12:23 22.03.2020
638 Haze 12 1018 54 5000 6.2 320 11:59 22.03.2020
639 Haze 12 1018 54 5000 6.2 320 11:41 22.03.2020
640 Haze 12 1018 54 5000 6.2 320 11:23 22.03.2020
641 Clouds 10 1018 61 8000 4.6 300 10:58 22.03.2020
642 Clouds 10 1018 61 8000 4.6 300 10:39 22.03.2020
643 Clouds 10 1018 61 8000 4.6 300 10:21 22.03.2020
644 Clouds 10 1018 66 8000 4.6 280 09:43 22.03.2020
645 Clouds 10 1018 66 8000 4.6 280 09:24 22.03.2020
646 Clouds 9 1018 76 8000 3.6 250 08:48 22.03.2020
647 Clouds 9 1018 76 8000 3.6 250 08:29 22.03.2020
648 Clouds 8 1017 87 6000 3.6 250 07:53 22.03.2020
649 Clouds 8 1017 87 6000 3.6 250 07:32 22.03.2020
650 Clouds 7 1017 87 6000 3.1 240 06:41 22.03.2020
651 Clouds 6 1017 93 6000 3.6 250 05:41 22.03.2020
652 Clouds 6 1016 93 6000 3.1 240 04:34 22.03.2020
653 Clouds 4 1016 93 8000 3.1 240 01:45 22.03.2020
654 Clouds 4 1015 86 8000 4.6 250 00:49 22.03.2020
655 Clouds 4 1015 86 8000 4.6 250 00:30 22.03.2020
656 Clear 4 1015 93 8000 2.6 230 23:45 21.03.2020
657 Clear 4 1015 93 8000 2.6 230 23:22 21.03.2020
658 Clouds 5 1015 93 8000 3.6 250 22:58 21.03.2020
659 Clouds 5 1015 93 8000 3.6 250 22:38 21.03.2020
660 Clouds 5 1015 93 8000 3.6 250 22:19 21.03.2020
661 Clouds 6 1015 87 8000 3.6 240 21:57 21.03.2020
662 Clouds 6 1015 87 8000 3.6 240 21:38 21.03.2020
663 Clouds 6 1015 87 8000 3.6 240 21:19 21.03.2020
664 Clouds 6 1015 93 8000 4.6 240 20:42 21.03.2020
665 Clouds 6 1015 93 8000 4.6 240 20:22 21.03.2020
666 Clouds 6 1015 87 8000 3.6 240 19:55 21.03.2020
667 Clouds 6 1015 87 8000 3.6 240 19:36 21.03.2020
668 Clouds 6 1015 87 8000 3.6 240 19:18 21.03.2020
669 Clouds 6 1014 81 6000 2.6 220 18:41 21.03.2020
670 Clouds 6 1014 81 6000 2.6 220 18:21 21.03.2020
671 Mist 6 1014 87 5000 5.1 320 17:59 21.03.2020
672 Clouds 7 1013 87 6000 3.1 240 17:41 21.03.2020
673 Clouds 7 1013 87 6000 3.1 240 17:22 21.03.2020
674 Clouds 8 1012 75 6000 3.1 270 16:42 21.03.2020
675 Clouds 8 1012 75 6000 3.1 270 16:24 21.03.2020
676 Clouds 8 1012 75 10000 5.1 260 15:59 21.03.2020
677 Clouds 8 1012 75 10000 5.1 260 15:40 21.03.2020
678 Clouds 8 1012 75 10000 5.1 260 15:22 21.03.2020
679 Clouds 9 1012 76 10000 6.2 260 14:57 21.03.2020
680 Clouds 9 1012 76 10000 6.2 260 14:38 21.03.2020
681 Clouds 9 1012 76 10000 6.2 260 14:38 21.03.2020
682 Clouds 9 1012 76 10000 6.2 260 14:20 21.03.2020
683 Clouds 9 1012 76 10000 6.2 260 13:58 21.03.2020
684 Clouds 9 1012 76 10000 6.2 260 13:39 21.03.2020
685 Clouds 9 1012 76 10000 6.2 260 13:21 21.03.2020
686 Clouds 8 1012 66 10000 3.1 260 12:57 21.03.2020
687 Clouds 8 1012 66 10000 3.1 260 12:37 21.03.2020
688 Clouds 8 1012 66 10000 3.1 260 12:19 21.03.2020
689 Clouds 8 1012 75 10000 4.1 250 11:55 21.03.2020
690 Clouds 8 1012 75 10000 4.1 250 11:37 21.03.2020
691 Clouds 8 1012 75 10000 4.1 250 11:18 21.03.2020
692 Mist 7 1012 87 5000 3.1 240 10:56 21.03.2020
693 Mist 7 1012 87 5000 3.1 240 10:38 21.03.2020
694 Clouds 7 1012 75 10000 4.1 250 10:19 21.03.2020
695 Clouds 7 1012 75 10000 4.1 250 10:19 21.03.2020
696 Drizzle 6 1012 81 6000 4.1 230 09:55 21.03.2020
697 Drizzle 6 1012 81 6000 4.1 230 09:36 21.03.2020
698 Drizzle 6 1012 81 6000 4.1 230 09:18 21.03.2020
699 Drizzle 5 1012 86 3500 4.1 240 08:42 21.03.2020
700 Drizzle 5 1012 86 3500 4.1 240 08:23 21.03.2020
701 Drizzle 5 1011 86 6000 4.6 270 07:42 21.03.2020
702 Drizzle 5 1011 86 6000 4.6 270 07:23 21.03.2020
703 Drizzle 4 1011 86 6000 5.1 290 06:47 21.03.2020
704 Drizzle 4 1011 86 6000 5.1 290 06:27 21.03.2020
705 Drizzle 4 1011 86 3500 4.1 290 05:46 21.03.2020
706 Clouds 4 1010 86 6000 6.7 280 04:46 21.03.2020
707 Rain 4 1010 93 3500 5.1 270 02:51 21.03.2020
708 Rain 4 1010 93 3500 5.1 270 02:33 21.03.2020
709 Rain 4 1010 93 4000 3.6 230 01:32 21.03.2020
710 Rain 5 1010 86 4000 2.6 240 00:56 21.03.2020
711 Rain 5 1010 86 4000 2.6 240 00:37 21.03.2020
712 Drizzle 5 1011 86 5000 2.6 240 23:53 20.03.2020
713 Drizzle 5 1011 86 5000 2.6 240 23:28 20.03.2020
714 Rain 5 1011 93 4000 5.1 240 22:59 20.03.2020
715 Rain 5 1011 93 4000 5.1 240 22:41 20.03.2020
716 Rain 5 1011 93 4000 5.1 240 22:22 20.03.2020
717 Rain 7 1012 81 0 3.6 237 21:56 20.03.2020
718 Rain 7 1012 81 0 3.6 237 21:38 20.03.2020
719 Rain 6 1012 87 4000 4.1 250 21:18 20.03.2020
720 Rain 6 1012 87 4000 4.1 250 20:57 20.03.2020
721 Rain 6 1012 87 4000 4.1 250 20:38 20.03.2020
722 Rain 6 1012 87 4000 4.1 250 20:18 20.03.2020
723 Rain 6 1012 93 4000 2.1 240 19:45 20.03.2020
724 Rain 6 1012 93 4000 2.1 240 19:19 20.03.2020
725 Rain 6 1012 93 4000 2.1 240 19:19 20.03.2020
726 Rain 6 1012 87 3000 2.6 240 18:56 20.03.2020
727 Rain 6 1012 87 3000 2.6 240 18:37 20.03.2020
728 Rain 6 1012 87 3000 2.6 240 18:19 20.03.2020
729 Rain 6 1012 93 3000 3.6 240 17:39 20.03.2020
730 Rain 6 1012 93 3000 3.6 240 17:21 20.03.2020
731 Rain 7 1013 81 3000 3.1 290 16:59 20.03.2020
732 Rain 7 1013 81 3000 3.1 290 16:41 20.03.2020
733 Rain 7 1013 81 3000 3.1 290 16:19 20.03.2020
734 Rain 7 1012 87 3000 2.1 260 15:43 20.03.2020
735 Rain 7 1012 87 3000 2.1 260 15:22 20.03.2020
736 Rain 6 1013 93 3000 4.6 260 14:57 20.03.2020
737 Rain 6 1013 93 3000 4.6 260 14:38 20.03.2020
738 Rain 6 1013 93 3000 4.6 260 14:19 20.03.2020
739 Clouds 6 1013 87 3000 3.6 260 13:46 20.03.2020
740 Rain 6 1013 87 3000 3.6 260 13:20 20.03.2020
741 Rain 7 1013 81 4000 7.2 250 12:57 20.03.2020
742 Rain 7 1013 81 4000 7.2 250 12:36 20.03.2020
743 Rain 7 1013 81 4000 7.2 250 12:18 20.03.2020
744 Rain 8 1013 75 8000 6.7 250 11:39 20.03.2020
745 Rain 8 1013 75 8000 6.7 250 11:20 20.03.2020
746 Clouds 8 1014 75 10000 5.1 240 10:54 20.03.2020
747 Clouds 8 1014 75 10000 5.1 240 10:36 20.03.2020
748 Clouds 8 1014 75 10000 5.1 240 10:18 20.03.2020
749 Clouds 7 1014 87 10000 5.1 250 09:44 20.03.2020
750 Clouds 7 1014 87 10000 5.1 250 09:20 20.03.2020
751 Rain 6 1014 93 6000 5.1 250 08:43 20.03.2020
752 Rain 6 1014 93 6000 5.1 250 08:23 20.03.2020
753 Mist 6 1014 87 5000 4.1 260 07:57 20.03.2020
754 Mist 6 1014 87 5000 4.1 260 07:38 20.03.2020
755 Mist 6 1014 87 5000 4.1 260 07:19 20.03.2020
756 Mist 5 1014 93 5000 4.1 260 06:42 20.03.2020
757 Dust 5 1013 93 4000 7.7 240 05:57 20.03.2020
758 Drizzle 6 1013 87 5000 5.1 260 04:36 20.03.2020
759 Drizzle 6 1013 87 5000 4.1 260 02:50 20.03.2020
760 Haze 6 1013 87 5000 7.2 260 01:50 20.03.2020
761 Haze 6 1013 87 5000 7.2 260 00:38 20.03.2020
762 Mist 6 1013 81 5000 5.1 230 23:59 19.03.2020
763 Mist 6 1014 87 5000 5.1 260 23:40 19.03.2020
764 Mist 6 1014 87 5000 5.1 260 23:19 19.03.2020
765 Mist 7 1014 87 5000 4.1 260 22:40 19.03.2020
766 Mist 7 1014 87 5000 4.1 260 22:22 19.03.2020
767 Mist 7 1014 87 5000 4.1 260 21:58 19.03.2020
768 Mist 7 1014 87 5000 4.1 260 21:38 19.03.2020
769 Mist 7 1014 87 5000 4.1 260 21:19 19.03.2020
770 Mist 7 1013 87 5000 6.2 280 20:44 19.03.2020
771 Mist 7 1013 87 5000 6.2 280 20:25 19.03.2020
772 Drizzle 7 1013 87 5000 5.1 270 19:59 19.03.2020
773 Drizzle 7 1013 87 5000 5.1 270 19:39 19.03.2020
774 Drizzle 7 1013 87 5000 5.1 270 19:21 19.03.2020
775 Drizzle 8 1013 81 5000 6.2 270 18:58 19.03.2020
776 Drizzle 8 1013 81 5000 6.2 270 18:40 19.03.2020
777 Drizzle 8 1013 81 5000 6.2 270 18:22 19.03.2020
778 Haze 8 1013 87 5000 5.1 230 17:54 19.03.2020
779 Haze 8 1013 87 5000 5.1 230 17:36 19.03.2020
780 Rain 8 1013 87 4500 7.2 240 17:18 19.03.2020
781 Rain 8 1013 87 4500 7.2 240 16:41 19.03.2020
782 Rain 8 1013 87 4500 7.2 240 16:21 19.03.2020
783 Rain 10 1013 81 3000 8.2 240 15:43 19.03.2020
784 Rain 10 1013 81 4000 8.7 240 15:24 19.03.2020
785 Clouds 11 1014 57 6000 9.3 240 14:43 19.03.2020
786 Clouds 11 1014 57 6000 9.3 240 14:23 19.03.2020
787 Clouds 12 1013 58 6000 8.2 250 13:59 19.03.2020
788 Clouds 12 1013 58 6000 8.2 250 13:38 19.03.2020
789 Clouds 12 1013 58 6000 8.2 250 13:18 19.03.2020
790 Clouds 11 1014 66 6000 8.2 250 12:42 19.03.2020
791 Clouds 11 1014 66 6000 8.2 250 12:24 19.03.2020
792 Clouds 11 1014 66 6000 8.2 250 11:58 19.03.2020
793 Haze 10 1014 71 4000 7.7 240 11:40 19.03.2020
794 Haze 10 1014 71 4000 7.7 240 11:22 19.03.2020
795 Drizzle 10 1015 81 4000 5.1 240 10:43 19.03.2020
796 Drizzle 10 1015 81 4000 5.1 240 10:22 19.03.2020
797 Drizzle 9 1015 87 3500 4.6 240 09:58 19.03.2020
798 Drizzle 9 1015 87 3500 4.6 240 09:40 19.03.2020
799 Drizzle 9 1015 87 3500 4.6 240 09:20 19.03.2020
800 Rain 9 1015 93 3000 5.1 240 08:46 19.03.2020
801 Rain 9 1015 93 3000 5.1 240 08:22 19.03.2020
802 Rain 8 1014 100 4000 5.1 230 07:48 19.03.2020
803 Rain 8 1014 100 4000 5.1 230 07:30 19.03.2020
804 Rain 7 1014 93 4000 7.2 250 06:51 19.03.2020
805 Haze 8 1015 87 4000 7.7 220 05:53 19.03.2020
806 Rain 8 1014 87 5000 7.2 240 05:23 19.03.2020
807 Rain 8 1014 93 5000 5.7 240 04:41 19.03.2020
808 Mist 8 1014 87 5000 7.2 240 03:39 19.03.2020
809 Clouds 8 1014 87 6000 5.1 210 01:45 19.03.2020
810 Clouds 8 1014 87 6000 5.1 250 00:39 19.03.2020
811 Clouds 8 1014 87 6000 5.1 250 00:18 19.03.2020
812 Clouds 7 1015 87 7000 5.1 250 23:41 18.03.2020
813 Clouds 7 1015 87 7000 5.1 250 23:21 18.03.2020
814 Clouds 7 1015 81 7000 7.2 250 22:42 18.03.2020
815 Clouds 7 1015 81 7000 7.2 250 22:22 18.03.2020
816 Clouds 7 1015 87 6000 7.2 250 21:55 18.03.2020
817 Clouds 7 1015 87 6000 7.2 250 21:37 18.03.2020
818 Clouds 7 1015 87 6000 7.2 250 21:19 18.03.2020
819 Clouds 7 1014 93 6000 7.2 240 20:55 18.03.2020
820 Clouds 7 1014 93 6000 7.2 240 20:37 18.03.2020
821 Clouds 7 1014 93 6000 7.2 240 20:18 18.03.2020
822 Clouds 7 1014 87 6000 6.2 240 19:40 18.03.2020
823 Clouds 7 1014 87 6000 6.2 240 19:21 18.03.2020
824 Clouds 8 1014 87 6000 5.1 240 18:56 18.03.2020
825 -273 0 0 0 0 0 18:38 18.03.2020
826 Clouds 8 1014 87 6000 5.1 240 18:19 18.03.2020
827 Haze 9 1014 76 3500 8.7 260 17:54 18.03.2020
828 Clouds 8 1013 87 6000 2.1 240 17:36 18.03.2020
829 Clouds 8 1013 87 6000 2.1 240 17:18 18.03.2020
830 Clouds 9 1012 87 6000 4.1 230 16:42 18.03.2020
831 Clouds 9 1012 87 6000 4.1 230 16:20 18.03.2020
832 Clouds 9 1012 87 6000 4.1 230 16:20 18.03.2020
833 Clouds 9 1012 76 6000 5.1 250 15:57 18.03.2020
834 Clouds 9 1012 76 6000 5.1 250 15:38 18.03.2020
835 Clouds 9 1012 76 6000 5.1 250 15:19 18.03.2020
836 Mist 7 1012 93 4000 5.1 250 14:42 18.03.2020
837 Mist 7 1012 93 4000 5.1 250 14:21 18.03.2020
838 Mist 7 1012 93 4000 5.1 250 14:21 18.03.2020
839 Drizzle 7 1012 93 4000 6.7 260 13:41 18.03.2020
840 Drizzle 7 1012 93 4000 6.7 260 13:19 18.03.2020
841 Drizzle 7 1012 93 4000 6.7 260 12:55 18.03.2020
842 Drizzle 7 1011 93 4000 6.2 250 12:37 18.03.2020
843 Drizzle 7 1011 93 4000 6.2 250 12:18 18.03.2020
844 Drizzle 9 1012 87 4000 7.7 250 11:38 18.03.2020
845 Drizzle 9 1012 87 4000 7.7 250 11:19 18.03.2020
846 Drizzle 8 1012 81 4000 8.2 250 10:57 18.03.2020
847 Drizzle 8 1012 81 4000 8.2 250 10:37 18.03.2020
848 Drizzle 8 1012 81 4000 8.2 250 10:19 18.03.2020
849 Rain 8 1012 81 7000 7.2 250 09:42 18.03.2020
850 Rain 8 1012 81 7000 7.2 250 09:23 18.03.2020
851 Rain 8 1012 81 7000 7.2 250 09:23 18.03.2020
852 Rain 7 1012 93 5000 6.2 240 08:55 18.03.2020
853 Rain 7 1012 93 5000 6.2 240 08:37 18.03.2020
854 Rain 7 1012 81 6000 8.7 250 08:19 18.03.2020
855 Rain 7 1011 87 4000 8.2 260 07:43 18.03.2020
856 Rain 7 1011 87 4000 8.2 260 07:25 18.03.2020
857 Rain 7 1010 93 3000 6.2 250 06:44 18.03.2020
858 Rain 7 1010 93 4000 7.2 250 05:56 18.03.2020
859 Rain 7 1010 93 4000 7.2 250 05:33 18.03.2020
860 Rain 7 1009 93 3000 7.7 260 03:56 18.03.2020
861 Rain 7 1009 87 3000 6.7 260 02:42 18.03.2020
862 Rain 7 1009 93 2000 9.8 250 01:47 18.03.2020
863 Rain 7 1009 93 2000 9.8 250 01:21 18.03.2020
864 Rain 7 1008 87 3500 11.3 250 00:23 18.03.2020
865 Rain 7 1009 93 2500 9.3 240 23:47 17.03.2020
866 Rain 7 1009 93 2500 9.3 240 23:47 17.03.2020
867 Rain 7 1009 93 2500 9.3 240 23:26 17.03.2020
868 Rain 7 1010 93 4000 9.3 260 22:55 17.03.2020
869 Drizzle 7 1010 93 4000 7.7 250 22:37 17.03.2020
870 Drizzle 7 1010 93 4000 7.7 250 22:18 17.03.2020
871 Rain 7 1010 93 3000 6.2 250 21:39 17.03.2020
872 Rain 7 1010 93 3000 6.2 250 21:21 17.03.2020
873 Rain 7 1010 93 3000 6.2 250 21:21 17.03.2020
874 Rain 7 1010 87 2500 7.7 260 20:40 17.03.2020
875 Rain 7 1010 87 2500 7.7 260 20:21 17.03.2020
876 Rain 9 1010 81 4000 7.2 250 19:58 17.03.2020
877 Rain 9 1010 81 4000 7.2 250 19:39 17.03.2020
878 Rain 9 1010 81 4000 7.2 250 19:18 17.03.2020
879 Clouds 9 1009 81 3500 6.7 250 18:55 17.03.2020
880 Clouds 9 1009 81 3500 6.7 250 18:37 17.03.2020
881 Clouds 9 1009 81 3500 6.7 250 18:19 17.03.2020
882 Rain 9 1010 81 2500 6.2 260 17:40 17.03.2020
883 Rain 9 1010 81 2500 6.2 260 17:21 17.03.2020
884 Rain 10 1010 87 2000 6.2 260 16:55 17.03.2020
885 Rain 10 1010 87 2000 6.2 260 16:36 17.03.2020
886 Drizzle 10 1010 87 3000 7.2 280 16:18 17.03.2020
887 Drizzle 11 1010 87 3000 7.2 230 15:41 17.03.2020
888 Drizzle 11 1010 87 3000 7.2 230 15:19 17.03.2020
889 Rain 15 1010 67 1500 9.3 230 14:42 17.03.2020
890 Rain 15 1010 58 4000 6.2 190 14:21 17.03.2020
891 Clouds 15 1010 58 7000 7.2 250 13:44 17.03.2020
892 Clouds 15 1010 58 7000 7.2 250 13:26 17.03.2020
893 Clouds 15 1011 58 7000 6.2 260 12:58 17.03.2020
894 Clouds 15 1011 58 7000 6.2 260 12:40 17.03.2020
895 Clouds 15 1011 58 7000 6.2 260 12:22 17.03.2020
896 Clouds 14 1012 71 6000 6.2 250 11:46 17.03.2020
897 Clouds 14 1012 71 6000 6.2 250 11:28 17.03.2020
898 Clouds 14 1013 67 6000 5.7 250 10:58 17.03.2020
899 Clouds 14 1013 67 6000 5.7 250 10:38 17.03.2020
900 Clouds 14 1013 67 6000 5.7 250 10:20 17.03.2020
901 Haze 13 1013 71 5000 5.7 260 09:59 17.03.2020
902 Haze 13 1013 71 5000 5.7 260 09:39 17.03.2020
903 Haze 13 1013 71 5000 5.7 260 09:19 17.03.2020
904 Haze 12 1013 76 5000 4.1 250 08:47 17.03.2020
905 Haze 12 1013 76 5000 4.1 250 08:22 17.03.2020
906 Haze 11 1013 81 5000 3.6 260 07:50 17.03.2020
907 Haze 11 1013 81 5000 3.6 260 07:26 17.03.2020
908 Haze 10 1013 81 5000 3.6 260 06:58 17.03.2020
909 Mist 9 1013 87 4000 3.6 250 06:33 17.03.2020
910 Mist 9 1013 87 3000 4.1 250 05:49 17.03.2020
911 Mist 10 1013 93 5000 3.6 250 03:43 17.03.2020
912 Clear 10 1014 87 7000 3.1 250 02:46 17.03.2020
913 Clear 10 1014 87 7000 2.6 260 01:44 17.03.2020
914 Clear 10 1014 87 7000 2.6 260 01:25 17.03.2020
915 Clear 12 1015 82 7000 3.1 250 00:46 17.03.2020
916 Mist 12 1016 100 5000 4.6 290 23:48 16.03.2020
917 Clear 12 1015 76 7000 2.1 240 23:30 16.03.2020
918 Clear 13 1015 82 6000 1.5 220 22:42 16.03.2020
919 Clear 13 1015 82 6000 1.5 220 22:24 16.03.2020
920 Clear 13 1015 82 6000 2.6 250 21:58 16.03.2020
921 Clear 13 1015 82 6000 2.6 250 21:40 16.03.2020
922 Clear 13 1015 82 6000 2.6 250 21:22 16.03.2020
923 Haze 13 1015 82 5000 2.6 290 20:56 16.03.2020
924 Haze 13 1015 82 5000 2.6 290 20:37 16.03.2020
925 Haze 13 1015 82 5000 2.6 290 20:19 16.03.2020
926 Haze 13 1016 82 5000 2.1 310 19:41 16.03.2020
927 Haze 13 1016 82 5000 2.1 310 19:21 16.03.2020
928 Haze 14 1016 77 4000 2.1 320 18:56 16.03.2020
929 Haze 14 1016 77 4000 2.1 320 18:37 16.03.2020
930 Haze 14 1016 77 4000 2.1 320 18:18 16.03.2020
931 Haze 16 1015 67 4000 2.1 240 17:42 16.03.2020
932 Haze 16 1015 67 4000 2.1 240 17:22 16.03.2020
933 Haze 18 1015 59 4000 3.1 250 16:46 16.03.2020
934 Haze 18 1015 59 4000 3.1 250 16:27 16.03.2020
935 Haze 18 1015 59 4000 4.6 220 15:56 16.03.2020
936 Haze 18 1015 59 4000 4.6 220 15:37 16.03.2020
937 Haze 18 1015 59 4000 4.6 220 15:18 16.03.2020
938 Clouds 19 1015 45 6000 3.1 240 14:42 16.03.2020
939 Clouds 19 1015 45 6000 3.1 240 14:19 16.03.2020
940 Clouds 20 1016 52 6000 3.1 240 13:42 16.03.2020
941 Clouds 20 1016 52 6000 3.1 240 13:23 16.03.2020
942 Clouds 19 1016 52 6000 2.1 230 12:46 16.03.2020
943 Clouds 19 1016 52 6000 2.1 230 12:26 16.03.2020
944 Clouds 18 1017 59 6000 2.1 230 11:59 16.03.2020
945 Clouds 18 1017 59 6000 2.1 230 11:41 16.03.2020
946 Clouds 18 1017 59 6000 2.1 230 11:18 16.03.2020
947 Haze 18 1017 63 5000 2.1 210 10:42 16.03.2020
948 Haze 18 1017 63 5000 2.1 210 10:24 16.03.2020
949 Haze 17 1017 67 5000 9.3 280 09:45 16.03.2020
950 Haze 17 1018 67 4000 1 230 09:27 16.03.2020
951 Haze 15 1018 72 4000 2.1 240 08:58 16.03.2020
952 Haze 15 1018 72 4000 2.1 240 08:26 16.03.2020
953 Haze 13 1017 87 3500 1 240 07:54 16.03.2020
954 Haze 13 1017 87 3500 1 240 07:28 16.03.2020
955 Mist 11 1017 87 3000 1.5 230 06:54 16.03.2020
956 Mist 11 1017 87 3000 1.5 230 06:54 16.03.2020
957 Mist 11 1017 87 3000 1.5 230 06:27 16.03.2020
958 Mist 9 1017 100 1700 1.5 210 05:54 16.03.2020
959 Mist 10 1016 87 3500 1.24 291 03:31 16.03.2020
960 Mist 10 1017 87 5000 1 180 01:20 16.03.2020
961 Mist 10 1017 87 5000 1.57 288 00:43 16.03.2020
962 Mist 11 1018 87 5000 1.57 288 23:49 15.03.2020
963 Mist 11 1018 87 5000 1.57 288 23:22 15.03.2020
964 Haze 12 1018 76 5000 1.5 240 22:58 15.03.2020
965 Haze 12 1018 76 5000 1.5 240 22:38 15.03.2020
966 Haze 12 1018 76 5000 1.5 240 22:19 15.03.2020
967 Haze 12 1018 82 5000 1.5 230 21:39 15.03.2020
968 Haze 12 1018 82 5000 1.5 230 21:20 15.03.2020
969 Haze 13 1018 76 5000 1.5 240 20:44 15.03.2020
970 Haze 13 1018 76 5000 1.5 240 20:22 15.03.2020
971 Haze 14 1018 76 4000 2.1 250 19:59 15.03.2020
972 Haze 14 1018 76 4000 2.1 250 19:59 15.03.2020
973 Haze 14 1018 76 4000 2.1 250 19:41 15.03.2020
974 Haze 14 1018 76 4000 2.1 250 19:23 15.03.2020
975 Dust 14 1018 76 3000 1.5 240 18:59 15.03.2020
976 Dust 14 1018 76 3000 1.5 240 18:39 15.03.2020
977 Dust 14 1018 76 3000 1.5 240 18:21 15.03.2020
978 Dust 15 1018 77 3000 2.6 250 17:54 15.03.2020
979 Dust 15 1018 77 3000 2.6 250 17:36 15.03.2020
980 Dust 15 1018 77 3000 2.6 250 17:18 15.03.2020
981 Haze 16 1017 82 4000 4.1 260 16:42 15.03.2020
982 Dust 17 1017 67 3000 4.6 250 16:24 15.03.2020
983 Dust 17 1017 72 3000 2.1 220 15:58 15.03.2020
984 Dust 17 1017 72 3000 2.1 220 15:40 15.03.2020
985 Dust 17 1017 72 3000 2.1 220 15:19 15.03.2020
986 Dust 18 1017 59 2500 1.5 220 14:46 15.03.2020
987 Dust 18 1017 59 2500 1.5 220 14:24 15.03.2020
988 Dust 18 1017 59 3000 3.1 260 13:58 15.03.2020
989 Dust 18 1017 59 3000 3.1 260 13:38 15.03.2020
990 Dust 18 1017 59 3000 3.1 260 13:38 15.03.2020
991 Dust 18 1017 59 3000 3.1 260 13:20 15.03.2020
992 Haze 17 1017 63 2500 1.5 260 12:44 15.03.2020
993 Haze 17 1017 63 2500 1.5 260 12:26 15.03.2020
994 Haze 16 1018 67 2500 1.5 260 11:57 15.03.2020
995 Haze 16 1018 67 2500 1.5 260 11:39 15.03.2020
996 Haze 16 1018 67 2500 1.5 260 11:20 15.03.2020
997 Haze 15 1019 72 2500 1.51 273 10:56 15.03.2020
998 Haze 15 1019 72 2500 1.51 273 10:36 15.03.2020
999 Haze 15 1019 72 2500 1.51 273 10:18 15.03.2020
1000 Haze 15 1019 72 3000 1.51 273 09:40 15.03.2020
1001 Haze 15 1019 72 3000 1.51 273 09:21 15.03.2020
1002 Haze 13 1019 82 3000 1.51 273 08:44 15.03.2020
1003 Haze 13 1019 82 3000 0.87 223 08:21 15.03.2020
1004 Mist 12 1019 93 2500 2.6 280 07:51 15.03.2020
1005 Mist 12 1018 93 2000 1.5 240 07:32 15.03.2020
1006 Mist 10 1019 100 1000 2.52 318 06:53 15.03.2020
1007 Mist 11 1018 93 2000 1.5 230 06:18 15.03.2020
1008 Mist 10 1018 93 2000 2.52 318 05:21 15.03.2020
1009 Mist 11 1017 93 3000 4.12 320 04:43 15.03.2020
1010 Mist 11 1017 93 3000 4.12 320 04:25 15.03.2020
1011 Mist 11 1017 87 3500 2.6 250 03:54 15.03.2020
1012 Mist 12 1017 87 4000 2.6 250 02:44 15.03.2020
1013 Mist 12 1017 87 4000 2.1 230 01:35 15.03.2020
1014 Mist 12 1017 87 4000 2.1 230 00:46 15.03.2020
1015 Mist 12 1017 87 4000 2.1 230 00:27 15.03.2020
1016 Mist 12 1017 81 4000 4.1 260 23:56 14.03.2020
1017 Mist 12 1017 81 4000 4.1 260 23:37 14.03.2020
1018 Mist 12 1017 81 4000 4.1 260 23:18 14.03.2020
1019 Mist 11 1017 93 4000 5.1 250 22:44 14.03.2020
1020 Mist 11 1017 93 4000 5.1 250 22:26 14.03.2020
1021 Mist 11 1017 93 4000 4.1 250 21:57 14.03.2020
1022 Mist 11 1017 93 4000 4.1 250 21:36 14.03.2020
1023 Mist 11 1017 93 4000 4.1 250 21:18 14.03.2020
1024 Mist 12 1016 87 4000 5.7 250 20:59 14.03.2020
1025 Mist 12 1016 87 4000 5.7 250 20:40 14.03.2020
1026 Mist 12 1016 87 4000 5.7 250 20:20 14.03.2020
1027 Mist 13 1016 82 3000 4.6 270 19:58 14.03.2020
1028 Mist 13 1016 82 3000 4.6 270 19:39 14.03.2020
1029 Mist 13 1016 82 3000 4.6 270 19:19 14.03.2020
1030 Mist 13 1015 87 3000 3.1 250 18:37 14.03.2020
1031 Mist 13 1015 87 3000 3.1 250 18:19 14.03.2020
1032 Mist 13 1014 87 2000 4.6 260 17:40 14.03.2020
1033 Mist 13 1014 87 2000 4.6 260 17:21 14.03.2020
1034 Mist 13 1013 87 2000 4.6 250 16:57 14.03.2020
1035 Mist 13 1013 87 2000 4.6 250 16:38 14.03.2020
1036 Mist 13 1013 87 2000 4.6 250 16:18 14.03.2020
1037 Mist 13 1012 87 2000 6.2 280 15:28 14.03.2020
1038 Drizzle 13 1012 93 2000 5.1 260 14:59 14.03.2020
1039 Drizzle 13 1012 93 2000 5.1 260 14:38 14.03.2020
1040 Drizzle 13 1012 93 2000 5.1 260 14:20 14.03.2020
1041 Drizzle 13 1012 87 2500 7.7 260 13:56 14.03.2020
1042 Drizzle 13 1012 87 2500 7.7 260 13:38 14.03.2020
1043 Drizzle 13 1012 87 2500 7.7 260 13:19 14.03.2020
1044 Drizzle 13 1012 87 3500 8.7 290 12:44 14.03.2020
1045 Drizzle 13 1012 87 5000 7.7 270 12:25 14.03.2020
1046 Drizzle 14 1011 76 6000 6.7 280 11:45 14.03.2020
1047 Drizzle 14 1011 76 6000 6.7 280 11:26 14.03.2020
1048 Mist 13 1011 87 4000 7.7 280 10:57 14.03.2020
1049 Drizzle 13 1011 82 6000 7.7 280 10:38 14.03.2020
1050 Drizzle 13 1011 82 6000 7.7 280 10:20 14.03.2020
1051 Drizzle 13 1011 87 6000 5.7 300 09:41 14.03.2020
1052 Drizzle 13 1011 87 6000 5.7 300 09:22 14.03.2020
1053 Clouds 11 1010 87 6000 7.2 300 08:47 14.03.2020
1054 Clouds 11 1010 87 6000 7.2 300 08:47 14.03.2020
1055 Clouds 11 1010 87 6000 7.2 300 08:27 14.03.2020
1056 Clouds 11 1009 93 6000 7.2 310 07:49 14.03.2020
1057 Clouds 11 1009 93 6000 7.2 310 07:23 14.03.2020
1058 Mist 11 1008 87 3000 8.7 200 06:59 14.03.2020
1059 Clouds 10 1008 93 8000 4.6 320 06:39 14.03.2020
1060 Drizzle 10 1006 100 2000 7.7 250 05:19 14.03.2020
1061 Rain 10 1004 93 2500 5.1 220 03:42 14.03.2020
1062 Rain 10 1004 93 2500 5.1 220 03:23 14.03.2020
1063 Rain 9 1003 100 1500 4.1 200 02:20 14.03.2020
1064 Mist 10 1004 93 3000 5.1 200 00:42 14.03.2020
1065 Mist 10 1004 93 3000 5.1 200 23:45 13.03.2020
1066 Rain 10 1004 87 3000 4.1 230 23:27 13.03.2020
1067 Rain 11 1004 87 1800 3.6 220 22:49 13.03.2020
1068 Rain 11 1004 87 1800 3.6 220 22:26 13.03.2020
1069 Rain 11 1004 87 1800 2.1 180 21:44 13.03.2020
1070 Rain 11 1004 87 1800 2.1 180 21:21 13.03.2020
1071 Rain 10 1004 100 3000 2.6 90 20:58 13.03.2020
1072 Rain 10 1004 100 3000 2.6 90 20:39 13.03.2020
1073 Rain 11 1004 93 3000 5.1 200 20:20 13.03.2020
1074 Rain 11 1004 93 3000 3.1 170 19:48 13.03.2020
1075 Rain 11 1003 93 5000 2.1 210 19:30 13.03.2020
1076 Rain 11 1004 93 3000 5.1 200 18:49 13.03.2020
1077 Rain 11 1003 93 4000 2.1 160 18:31 13.03.2020
1078 Rain 11 1003 93 4000 2.1 120 17:57 13.03.2020
1079 Rain 11 1003 93 4000 2.1 120 17:38 13.03.2020
1080 Rain 11 1003 93 4000 2.1 120 17:20 13.03.2020
1081 Rain 11 1003 87 4000 6.2 260 16:42 13.03.2020
1082 Rain 11 1003 87 2000 6.2 260 16:24 13.03.2020
1083 Rain 11 1003 93 2000 6.2 250 15:58 13.03.2020
1084 Rain 11 1003 93 2000 6.2 250 15:38 13.03.2020
1085 Rain 11 1003 87 2000 6.2 260 15:20 13.03.2020
1086 Rain 12 1003 87 2000 2.6 250 14:41 13.03.2020
1087 Rain 13 1002 76 3000 5.1 250 14:22 13.03.2020
1088 Rain 15 1001 72 4000 2.6 250 13:57 13.03.2020
1089 Rain 15 1001 72 4000 2.6 250 13:39 13.03.2020
1090 Rain 14 1002 58 6000 4.1 220 13:19 13.03.2020
1091 Rain 15 1002 54 6000 4.1 220 12:55 13.03.2020
1092 Rain 15 1002 54 6000 4.1 220 12:36 13.03.2020
1093 Rain 15 1002 54 6000 4.1 220 12:18 13.03.2020
1094 Haze 14 1002 67 5000 3.1 260 11:42 13.03.2020
1095 Haze 14 1002 67 5000 3.1 260 11:24 13.03.2020
1096 Haze 15 1002 58 5000 6.2 230 10:57 13.03.2020
1097 Haze 15 1002 58 5000 6.2 230 10:39 13.03.2020
1098 Haze 15 1002 58 5000 6.2 230 10:21 13.03.2020
1099 Clouds 14 1003 71 8000 4.1 220 09:44 13.03.2020
1100 Clouds 14 1003 71 8000 4.1 220 09:25 13.03.2020
1101 Clouds 14 1002 76 10000 4.1 260 08:48 13.03.2020
1102 Clouds 14 1002 76 10000 4.1 260 08:23 13.03.2020
1103 Mist 13 1002 87 4000 2.6 250 07:58 13.03.2020
1104 Mist 13 1002 87 4000 2.6 250 07:38 13.03.2020
1105 Mist 13 1002 87 4000 2.6 250 07:19 13.03.2020
1106 Drizzle 12 1002 93 4000 4.1 260 06:44 13.03.2020
1107 Drizzle 12 1002 93 4000 4.1 260 06:44 13.03.2020
1108 Drizzle 12 1002 93 4000 4.1 260 05:56 13.03.2020
1109 Drizzle 12 1001 93 3000 1 200 05:37 13.03.2020
1110 Thunderstorm 12 1000 93 4000 2.6 120 04:38 13.03.2020
1111 Thunderstorm 13 1000 82 3500 4.1 240 03:50 13.03.2020
1112 Thunderstorm 17 1001 55 4000 12.3 300 01:48 13.03.2020
1113 Rain 17 1000 55 4000 7.7 100 01:19 13.03.2020
1114 Rain 17 1000 55 4000 7.7 100 00:56 13.03.2020
1115 Rain 17 1000 55 4000 7.7 100 00:38 13.03.2020
1116 Rain 17 1000 55 4000 7.7 100 00:18 13.03.2020
1117 Thunderstorm 16 1002 63 4000 6.7 110 23:37 12.03.2020
1118 Thunderstorm 16 1002 63 4000 6.7 110 23:18 12.03.2020
1119 Rain 16 1005 67 6000 6.7 120 22:44 12.03.2020
1120 Rain 16 1005 67 6000 6.7 120 22:25 12.03.2020
1121 Clouds 16 1006 72 6000 6.2 110 21:54 12.03.2020
1122 Clouds 16 1006 72 6000 6.2 110 21:36 12.03.2020
1123 Clouds 16 1006 72 7000 2.6 100 21:18 12.03.2020
1124 Rain 15 1007 77 4000 5.1 100 20:42 12.03.2020
1125 Rain 16 1007 72 7000 5.1 70 20:20 12.03.2020
1126 Rain 15 1008 77 4000 4.6 90 19:42 12.03.2020
1127 Rain 15 1008 77 7000 4.6 90 19:21 12.03.2020
1128 Rain 15 1008 77 7000 5.1 90 18:58 12.03.2020
1129 Rain 15 1008 77 7000 5.1 90 18:39 12.03.2020
1130 Rain 15 1008 77 7000 5.1 90 18:21 12.03.2020
1131 Rain 15 1009 82 7000 7.7 100 17:41 12.03.2020
1132 Rain 15 1009 82 7000 7.7 100 17:22 12.03.2020
1133 Rain 16 1011 77 2500 6.7 130 16:59 12.03.2020
1134 Rain 16 1011 77 2500 6.7 130 16:40 12.03.2020
1135 Rain 16 1011 77 2500 6.7 130 16:22 12.03.2020
1136 Rain 17 1010 72 600 4.6 170 15:49 12.03.2020
1137 Rain 17 1010 72 600 4.6 170 15:28 12.03.2020
1138 Rain 17 1010 72 600 4.6 170 15:28 12.03.2020
1139 Rain 17 1010 72 300 8.2 160 14:56 12.03.2020
1140 Rain 17 1010 72 300 8.2 160 14:37 12.03.2020
1141 Rain 17 1010 72 300 8.2 160 14:18 12.03.2020
1142 Clouds 22 1010 35 50 9.3 150 13:40 12.03.2020
1143 Clouds 22 1010 35 50 9.3 150 13:21 12.03.2020
1144 Clouds 24 1009 36 400 9.3 150 12:55 12.03.2020
1145 Clouds 24 1009 36 400 9.3 150 12:55 12.03.2020
1146 Clouds 24 1009 36 400 9.3 150 12:37 12.03.2020
1147 Clouds 24 1009 36 400 9.3 150 12:37 12.03.2020
1148 Clouds 24 1009 36 400 9.3 150 12:37 12.03.2020
1149 Clouds 24 1009 36 400 9.3 150 12:18 12.03.2020
1150 Clouds 24 1009 36 400 9.3 150 12:18 12.03.2020
1151 Haze 22 1010 43 4000 3.1 170 11:55 12.03.2020
1152 Haze 22 1010 43 4000 3.1 170 11:36 12.03.2020
1153 Haze 22 1010 43 4000 3.1 170 11:18 12.03.2020
1154 Haze 21 1011 43 5000 5.7 140 10:43 12.03.2020
1155 Haze 21 1011 43 5000 5.7 140 10:43 12.03.2020
1156 Haze 21 1011 43 5000 5.7 140 10:24 12.03.2020
1157 Haze 21 1011 40 5000 4.6 130 09:59 12.03.2020
1158 Haze 21 1011 40 5000 4.6 130 09:41 12.03.2020
1159 Haze 21 1011 40 5000 4.6 130 09:23 12.03.2020
1160 Dust 20 1012 42 4000 5.1 130 08:39 12.03.2020
1161 Dust 20 1012 42 4000 5.1 130 08:19 12.03.2020
1162 Dust 20 1011 37 4000 4.1 180 07:48 12.03.2020
1163 Dust 20 1011 37 4000 4.1 180 07:23 12.03.2020
1164 Dust 19 1012 29 4000 2.1 170 06:33 12.03.2020
1165 Dust 19 1012 29 4000 5.1 150 05:40 12.03.2020
1166 Dust 19 1011 33 5000 2.1 100 03:54 12.03.2020
1167 Dust 19 1012 29 5000 2.1 50 02:21 12.03.2020
1168 Dust 19 1013 28 5000 2.1 100 01:29 12.03.2020
1169 Dust 20 1013 22 5000 1.5 80 00:42 12.03.2020
1170 Dust 19 1014 24 5000 6.57 87 23:59 11.03.2020
1171 Dust 19 1014 24 5000 6.57 87 23:59 11.03.2020
1172 Dust 19 1014 24 5000 6.57 87 23:40 11.03.2020
1173 Dust 19 1014 24 5000 6.57 87 23:22 11.03.2020
1174 Dust 19 1014 42 5000 1 260 22:45 11.03.2020
1175 Dust 19 1014 42 5000 1 260 22:25 11.03.2020
1176 Haze 18 1014 42 5000 1 180 21:59 11.03.2020
1177 Haze 18 1014 42 5000 1 180 21:41 11.03.2020
1178 Haze 18 1014 42 5000 1 180 21:22 11.03.2020
1179 Clouds 19 1014 42 6000 4.82 85 20:58 11.03.2020
1180 Clouds 19 1014 42 6000 4.82 85 20:39 11.03.2020
1181 Clouds 19 1014 42 6000 0.79 303 20:19 11.03.2020
1182 Dust 21 1014 35 4000 0.66 45 19:43 11.03.2020
1183 Dust 21 1014 35 4000 0.66 45 19:25 11.03.2020
1184 Dust 21 1014 37 3500 0.66 45 18:58 11.03.2020
1185 Dust 21 1014 37 3500 0.66 45 18:39 11.03.2020
1186 Dust 21 1014 37 3500 0.66 45 18:21 11.03.2020
1187 Dust 22 1014 30 3000 0.66 45 17:57 11.03.2020
1188 Dust 22 1014 30 3000 0.66 45 17:57 11.03.2020
1189 Dust 22 1014 30 3000 0.66 45 17:39 11.03.2020
1190 Dust 22 1014 30 3000 2.73 344 17:20 11.03.2020
1191 Clear 25 1011 22 0 2.73 344 16:46 11.03.2020
1192 Clear 25 1011 22 0 2.73 344 16:23 11.03.2020
1193 Clear 25 1011 22 0 2.73 344 15:46 11.03.2020
1194 Clear 25 1011 22 0 2.73 344 15:24 11.03.2020
1195 Clear 25 1011 22 0 2.73 344 14:59 11.03.2020
1196 Clear 25 1011 22 0 2.73 344 14:41 11.03.2020
1197 Clear 25 1011 22 0 2.73 344 14:22 11.03.2020
1198 Clouds 26 1011 17 0 1.86 273 13:45 11.03.2020
1199 Clouds 26 1011 17 0 1.86 273 13:27 11.03.2020
1200 Clouds 25 1011 22 0 2.49 278 12:58 11.03.2020
1201 Clouds 25 1011 22 0 2.49 278 12:40 11.03.2020
1202 Dust 23 1016 43 3500 1.5 40 12:19 11.03.2020
1203 Dust 23 1016 43 3500 1.5 40 11:55 11.03.2020
1204 Dust 23 1016 43 3500 1.5 40 11:36 11.03.2020
1205 Dust 23 1016 43 3500 1.5 40 11:18 11.03.2020
1206 Dust 21 1016 52 4000 1.5 40 10:42 11.03.2020
1207 Dust 21 1016 52 4000 1.5 40 10:18 11.03.2020
1208 Dust 18 1017 63 4000 1.5 50 09:43 11.03.2020
1209 Dust 18 1017 63 4000 1.5 50 09:25 11.03.2020
1210 Smoke 15 1016 72 4000 0.11 334 08:58 11.03.2020
1211 Smoke 15 1016 72 4000 0.11 334 08:39 11.03.2020
1212 Smoke 15 1016 72 4000 2.24 346 08:18 11.03.2020
1213 Dust 13 1016 87 2500 2.24 346 07:42 11.03.2020
1214 Dust 13 1016 87 2500 2.24 346 07:19 11.03.2020
1215 Mist 10 1016 87 2500 2.6 140 06:43 11.03.2020
1216 Mist 9 1016 93 2500 2.1 100 05:36 11.03.2020
1217 Mist 9 1016 93 4000 3.55 322 04:31 11.03.2020
1218 Dust 11 1016 93 4000 1.5 360 02:24 11.03.2020
1219 Dust 11 1016 87 4000 1.5 360 01:28 11.03.2020
1220 Dust 12 1017 82 4000 3.12 327 00:46 11.03.2020
1221 Dust 12 1017 82 4000 3.12 327 00:18 11.03.2020
1222 Dust 13 1017 77 5000 3.12 327 23:40 10.03.2020
1223 Dust 13 1017 77 5000 3.12 327 23:21 10.03.2020
1224 Dust 13 1017 77 5000 3.44 286 22:39 10.03.2020
1225 Dust 13 1017 77 5000 3.44 286 22:20 10.03.2020
1226 Clouds 13 1017 82 6000 3.44 286 21:57 10.03.2020
1227 Clouds 13 1017 82 6000 3.44 286 21:57 10.03.2020
1228 Clouds 13 1017 82 6000 3.44 286 21:39 10.03.2020
1229 Clouds 13 1017 82 6000 3.44 286 21:20 10.03.2020
1230 Clouds 13 1017 82 6000 3.44 286 20:59 10.03.2020
1231 Clouds 13 1017 82 6000 3.44 286 20:41 10.03.2020
1232 Clouds 13 1017 82 6000 4.68 321 20:18 10.03.2020
1233 Clouds 15 1016 77 6000 4.68 321 19:57 10.03.2020
1234 Clouds 15 1016 77 6000 4.68 321 19:38 10.03.2020
1235 Clouds 15 1016 77 6000 4.68 321 19:38 10.03.2020
1236 Clouds 15 1016 77 6000 4.68 321 19:20 10.03.2020
1237 Clouds 16 1016 67 6000 4.68 321 18:45 10.03.2020
1238 Clouds 16 1016 67 6000 4.68 321 18:26 10.03.2020
1239 Dust 17 1016 67 3000 4.68 321 17:58 10.03.2020
1240 Dust 17 1016 67 3000 4.68 321 17:40 10.03.2020
1241 Dust 17 1016 67 3000 4.68 321 17:21 10.03.2020
1242 Dust 18 1016 68 5000 3.6 360 16:40 10.03.2020
1243 Dust 18 1016 68 5000 3.6 360 16:20 10.03.2020
1244 Dust 20 1016 30 3000 2.1 350 15:57 10.03.2020
1245 Dust 20 1016 30 3000 2.1 350 15:39 10.03.2020
1246 Dust 20 1016 30 3000 2.1 350 15:19 10.03.2020
1247 Dust 22 1016 53 2500 2.6 320 14:54 10.03.2020
1248 Dust 22 1016 53 2500 2.6 320 14:36 10.03.2020
1249 Dust 22 1016 53 2500 2.6 320 14:18 10.03.2020
1250 Dust 23 1016 40 2500 1.89 289 13:42 10.03.2020
1251 Dust 23 1016 40 2500 1.89 289 13:24 10.03.2020
1252 Dust 21 1016 37 3500 1.19 262 12:42 10.03.2020
1253 Dust 21 1016 37 3500 1.19 262 12:21 10.03.2020
1254 Dust 20 1017 49 3500 1.19 262 11:59 10.03.2020
1255 Dust 20 1017 49 3500 1.19 262 11:41 10.03.2020
1256 Dust 20 1017 49 3500 1.19 262 11:22 10.03.2020
1257 Haze 18 1018 55 3500 1.5 70 10:54 10.03.2020
1258 Haze 18 1018 55 3500 1.5 70 10:36 10.03.2020
1259 Haze 18 1018 55 3500 1.5 70 10:18 10.03.2020
1260 Haze 17 1018 63 3500 1.5 30 09:42 10.03.2020
1261 Haze 17 1018 63 3500 1.5 30 09:19 10.03.2020
1262 Haze 16 1018 63 4000 1.69 122 08:53 10.03.2020
1263 Haze 16 1018 63 4000 1.69 122 08:33 10.03.2020
1264 Haze 13 1017 62 4000 2.67 102 07:53 10.03.2020
1265 Haze 13 1017 62 4000 2.67 102 07:34 10.03.2020
1266 Haze 10 1016 76 4000 2.67 102 06:50 10.03.2020
1267 Haze 10 1016 76 4000 2.67 102 06:31 10.03.2020
1268 Haze 10 1016 66 4000 2.67 102 05:42 10.03.2020
1269 Haze 11 1016 58 5000 4.6 240 04:56 10.03.2020
1270 Haze 11 1016 58 5000 4.6 240 04:25 10.03.2020
1271 Haze 11 1016 58 5000 4.6 240 04:25 10.03.2020
1272 Clear 12 1015 36 6000 2.92 112 02:58 10.03.2020
1273 Clear 12 1015 51 6000 2.1 220 01:32 10.03.2020
1274 Haze 12 1015 50 5000 1 180 00:50 10.03.2020
1275 Haze 12 1015 50 5000 1 180 00:28 10.03.2020
1276 Clear 12 1015 61 6000 2.6 110 23:42 09.03.2020
1277 Haze 12 1015 50 5000 1 180 23:22 09.03.2020
1278 Haze 13 1015 47 5000 1.5 180 22:57 09.03.2020
1279 Haze 13 1015 47 5000 1.5 180 22:38 09.03.2020
1280 Haze 13 1015 47 5000 1.5 180 22:38 09.03.2020
1281 Haze 13 1015 47 5000 1.5 180 22:19 09.03.2020
1282 Haze 16 1015 32 5000 1.5 180 21:43 09.03.2020
1283 Haze 16 1015 32 5000 1.5 180 21:22 09.03.2020
1284 Haze 15 1015 36 5000 1.5 160 20:58 09.03.2020
1285 Haze 15 1015 36 5000 1.5 160 20:40 09.03.2020
1286 Haze 15 1015 36 5000 1.5 160 20:40 09.03.2020
1287 Haze 15 1015 36 5000 1.5 160 20:40 09.03.2020
1288 Haze 15 1015 36 5000 1.5 160 20:21 09.03.2020
1289 Haze 15 1015 39 5000 1.5 160 19:56 09.03.2020
1290 Haze 15 1015 39 5000 1.5 160 19:38 09.03.2020
1291 Haze 15 1015 39 5000 1.5 160 19:18 09.03.2020
1292 Haze 18 1015 28 5000 5.31 123 18:55 09.03.2020
1293 Haze 18 1015 28 5000 5.31 123 18:37 09.03.2020
1294 Haze 18 1015 28 5000 5.31 123 18:18 09.03.2020
1295 Haze 20 1015 26 5000 5.31 123 17:55 09.03.2020
1296 Haze 20 1015 26 5000 5.31 123 17:37 09.03.2020
1297 Haze 20 1015 26 5000 6.13 120 17:19 09.03.2020
1298 Haze 24 1015 15 5000 3.6 150 16:55 09.03.2020
1299 Clouds 24 1012 21 0 6.13 120 16:36 09.03.2020
1300 Dust 24 1014 19 4500 3.6 150 16:18 09.03.2020
1301 Dust 24 1014 19 4500 3.6 150 15:55 09.03.2020
1302 Dust 24 1014 19 4500 3.6 150 15:36 09.03.2020
1303 Dust 24 1014 19 4500 3.6 150 15:18 09.03.2020
1304 Dust 23 1015 20 4000 3.1 190 14:39 09.03.2020
1305 Dust 23 1015 20 4000 3.1 190 14:20 09.03.2020
1306 Dust 23 1016 20 4000 3.1 180 13:58 09.03.2020
1307 Dust 23 1016 20 4000 3.1 180 13:39 09.03.2020
1308 Dust 23 1016 19 4000 3.1 180 13:20 09.03.2020
1309 Dust 22 1016 19 4000 3.1 180 12:58 09.03.2020
1310 Dust 22 1016 19 4000 3.1 180 12:39 09.03.2020
1311 Dust 22 1016 19 4000 3.1 180 12:39 09.03.2020
1312 Dust 22 1017 26 4000 6.7 180 12:19 09.03.2020
1313 Dust 21 1018 26 4000 8.7 150 11:40 09.03.2020
1314 Dust 21 1018 26 4000 8.7 150 11:20 09.03.2020
1315 Dust 20 1018 30 4000 4.1 170 10:57 09.03.2020
1316 Dust 20 1018 30 4000 4.1 170 10:39 09.03.2020
1317 Dust 20 1018 30 4000 4.1 170 10:19 09.03.2020
1318 Dust 19 1019 34 3500 3.6 160 09:42 09.03.2020
1319 Dust 19 1019 34 3500 3.6 160 09:24 09.03.2020
1320 Haze 18 1020 39 5000 2.6 120 08:54 09.03.2020
1321 Haze 18 1020 39 5000 2.6 120 08:36 09.03.2020
1322 Haze 18 1020 39 5000 2.6 120 08:18 09.03.2020
1323 Smoke 14 1019 58 4000 1.5 40 07:39 09.03.2020
1324 Smoke 14 1019 58 4000 1.5 40 07:20 09.03.2020
1325 Smoke 12 1019 58 4000 1.5 30 06:41 09.03.2020
1326 Smoke 12 1019 58 4000 1.5 30 06:23 09.03.2020
1327 Haze 11 1019 54 5000 1 100 05:45 09.03.2020
1328 Clouds 10 1019 54 6000 2.1 140 04:59 09.03.2020
1329 Clouds 10 1019 54 6000 2.1 140 04:40 09.03.2020
1330 Clouds 10 1019 54 6000 2.1 140 04:21 09.03.2020
1331 Clouds 10 1019 70 6000 3.6 80 02:56 09.03.2020
1332 Clear 13 1020 51 7000 3.1 140 00:46 09.03.2020
1333 Clear 13 1020 51 7000 3.1 140 00:27 09.03.2020
1334 Clear 14 1021 44 7000 2.6 150 23:59 08.03.2020
1335 Clear 14 1021 44 7000 2.6 150 23:41 08.03.2020
1336 Clear 14 1021 44 7000 2.6 150 23:21 08.03.2020
1337 Clear 15 1021 44 7000 2.6 150 22:55 08.03.2020
1338 Clear 14 1021 44 7000 3.1 150 22:37 08.03.2020
1339 Clear 14 1021 44 7000 3.1 150 22:18 08.03.2020
1340 Clear 15 1021 41 7000 3.1 150 21:42 08.03.2020
1341 Clear 15 1021 41 7000 3.1 150 21:23 08.03.2020
1342 Clear 15 1021 44 7000 2.6 150 20:59 08.03.2020
1343 Clear 15 1021 44 7000 2.6 150 20:39 08.03.2020
1344 Clear 15 1021 44 7000 2.6 150 20:20 08.03.2020
1345 Haze 15 1021 48 5000 1.5 140 19:41 08.03.2020
1346 Haze 15 1021 48 4000 1.5 140 19:20 08.03.2020
1347 Haze 15 1021 48 4000 1.5 140 18:58 08.03.2020
1348 Haze 17 1021 48 4000 1.5 130 18:39 08.03.2020
1349 Haze 17 1021 48 4000 1.5 130 18:20 08.03.2020
1350 Clear 18 1019 40 0 2.98 155 17:41 08.03.2020
1351 Haze 21 1021 35 5000 2.1 120 17:22 08.03.2020
1352 Haze 21 1021 35 5000 2.1 120 16:59 08.03.2020
1353 Haze 21 1021 35 5000 2.1 120 16:41 08.03.2020
1354 Haze 21 1021 35 5000 2.1 120 16:22 08.03.2020
1355 Haze 21 1020 35 5000 2.6 130 15:55 08.03.2020
1356 Haze 21 1020 35 5000 2.6 130 15:37 08.03.2020
1357 Haze 21 1020 35 5000 2.6 130 15:18 08.03.2020
1358 Clear 21 1021 35 6000 3.34 148 14:40 08.03.2020
1359 Clear 21 1021 35 6000 3.34 148 14:21 08.03.2020
1360 Clear 21 1021 35 6000 3.1 140 13:55 08.03.2020
1361 Clear 21 1021 35 6000 3.1 140 13:36 08.03.2020
1362 Clear 21 1021 35 6000 3.1 140 13:18 08.03.2020
1363 Clear 20 1022 40 6000 2.6 140 12:38 08.03.2020
1364 Clear 20 1022 40 6000 2.6 140 12:18 08.03.2020
1365 Clear 19 1022 45 6000 3.1 90 11:42 08.03.2020
1366 Haze 18 1023 52 5000 5.1 100 11:24 08.03.2020
1367 Haze 18 1023 52 5000 5.1 100 10:58 08.03.2020
1368 Haze 18 1023 52 5000 5.1 100 10:40 08.03.2020
1369 Haze 18 1023 52 5000 5.1 100 10:21 08.03.2020
1370 Clear 16 1023 59 6000 5.1 110 09:40 08.03.2020
1371 Clear 16 1023 59 6000 5.1 110 09:22 08.03.2020
1372 Haze 15 1023 62 5000 3.6 100 08:49 08.03.2020
1373 Haze 13 1023 62 4000 3.6 100 08:25 08.03.2020
1374 Haze 12 1023 62 4000 3.6 100 07:50 08.03.2020
1375 Mist 10 1023 93 2000 1.74 136 07:28 08.03.2020
1376 Mist 7 1023 100 1200 1.74 136 06:54 08.03.2020
1377 Mist 7 1023 93 2000 1.74 136 06:35 08.03.2020
1378 Mist 6 1022 100 2000 1.74 136 05:58 08.03.2020
1379 Mist 7 1022 93 4000 1.8 307 04:50 08.03.2020
1380 Mist 7 1022 93 5000 1.8 307 03:27 08.03.2020
1381 Mist 7 1022 93 5000 1.8 307 02:28 08.03.2020
1382 Clear 8 1022 87 6000 3.33 300 01:22 08.03.2020
1383 Clear 8 1022 87 6000 2.84 298 00:43 08.03.2020
1384 Mist 7 1022 100 5000 2.84 298 00:24 08.03.2020
1385 Mist 7 1022 100 5000 2.84 298 23:43 07.03.2020
1386 Clear 8 1022 93 6000 2.84 298 23:22 07.03.2020
1387 Clear 8 1022 93 6000 4.21 321 22:40 07.03.2020
1388 Clear 8 1022 93 6000 4.21 321 22:21 07.03.2020
1389 Clear 9 1022 93 6000 4.21 321 21:48 07.03.2020
1390 Clear 9 1022 93 6000 4.21 321 21:25 07.03.2020
1391 Clouds 10 1022 81 8000 1 330 20:42 07.03.2020
1392 Clouds 10 1022 81 8000 1 330 20:24 07.03.2020
1393 Clouds 10 1021 87 8000 2.6 330 19:59 07.03.2020
1394 Clouds 10 1021 87 8000 2.6 330 19:40 07.03.2020
1395 Clouds 11 1021 87 8000 2.6 330 19:20 07.03.2020
1396 Clouds 11 1020 76 8000 2.1 330 18:42 07.03.2020
1397 Clouds 11 1020 76 8000 2.1 330 18:24 07.03.2020
1398 Clouds 12 1020 76 6000 5.1 300 17:56 07.03.2020
1399 Clouds 12 1020 76 6000 5.1 300 17:38 07.03.2020
1400 Clouds 12 1020 76 6000 5.1 300 17:18 07.03.2020
1401 Haze 14 1019 67 5000 5.1 310 16:43 07.03.2020
1402 Haze 14 1019 67 5000 5.1 310 16:43 07.03.2020
1403 Haze 14 1019 67 5000 5.1 310 16:23 07.03.2020
1404 Haze 15 1019 62 5000 5.7 310 15:59 07.03.2020
1405 Haze 15 1019 62 5000 5.7 310 15:41 07.03.2020
1406 Haze 15 1019 62 5000 5.7 310 15:41 07.03.2020
1407 Haze 15 1019 62 5000 5.7 310 15:21 07.03.2020
1408 Haze 15 1019 62 5000 6.2 310 14:58 07.03.2020
1409 Haze 15 1019 62 5000 6.2 310 14:40 07.03.2020
1410 Haze 15 1019 62 5000 6.2 310 14:21 07.03.2020
1411 Clouds 15 1019 62 7000 4.6 280 13:41 07.03.2020
1412 Clouds 15 1019 62 7000 4.6 280 13:21 07.03.2020
1413 Clouds 14 1019 67 7000 6.7 270 12:55 07.03.2020
1414 Clouds 14 1019 67 7000 6.7 270 12:37 07.03.2020
1415 Clouds 14 1019 67 7000 6.7 270 12:18 07.03.2020
1416 Clouds 13 1019 71 7000 5.7 280 11:41 07.03.2020
1417 Clouds 13 1019 71 7000 5.7 280 11:23 07.03.2020
1418 Clouds 13 1019 66 6000 6.7 280 10:57 07.03.2020
1419 Clouds 13 1019 66 6000 6.7 280 10:37 07.03.2020
1420 Clouds 13 1019 66 6000 6.7 280 10:18 07.03.2020
1421 Clouds 13 1019 66 6000 6.7 280 09:40 07.03.2020
1422 Clouds 12 1019 71 6000 7.7 290 09:19 07.03.2020
1423 Haze 12 1019 66 5000 4.1 280 08:57 07.03.2020
1424 Haze 12 1019 66 5000 4.1 280 08:39 07.03.2020
1425 Haze 12 1019 66 5000 4.1 280 08:20 07.03.2020
1426 Haze 10 1018 81 5000 4.1 280 07:44 07.03.2020
1427 Clouds 11 1017 75 0 7.85 295 07:21 07.03.2020
1428 Clouds 11 1017 75 0 7.85 295 06:42 07.03.2020
1429 Clouds 11 1017 75 0 7.85 295 06:23 07.03.2020
1430 Mist 9 1016 100 3000 6.7 250 05:40 07.03.2020
1431 Clouds 9 1015 87 0 5.47 299 03:36 07.03.2020
1432 Clouds 9 1015 87 0 5.47 299 02:43 07.03.2020
1433 Mist 9 1014 87 5000 8.2 280 01:51 07.03.2020
1434 Haze 9 1014 76 5000 8.2 280 00:43 07.03.2020
1435 Haze 9 1014 76 5000 8.2 280 00:23 07.03.2020
1436 Haze 9 1014 76 5000 8.2 280 00:23 07.03.2020
1437 Haze 9 1014 76 5000 8.2 280 00:23 07.03.2020
1438 Mist 8 1014 100 3000 7.7 250 23:58 06.03.2020
1439 Haze 9 1014 81 5000 8.7 270 23:39 06.03.2020
1440 Haze 9 1014 81 5000 8.7 270 23:21 06.03.2020
1441 Haze 9 1014 81 5000 8.7 270 22:44 06.03.2020
1442 Haze 9 1014 81 5000 8.7 270 22:44 06.03.2020
1443 Mist 9 1014 87 5000 8.7 270 22:20 06.03.2020
1444 Mist 9 1014 87 5000 7.7 280 21:47 06.03.2020
1445 Mist 9 1014 87 5000 7.7 280 21:21 06.03.2020
1446 Mist 8 1014 93 5000 5.1 260 20:45 06.03.2020
1447 Mist 8 1014 93 5000 5.1 260 20:23 06.03.2020
1448 Rain 9 1014 87 5000 7.2 270 19:59 06.03.2020
1449 Rain 9 1014 87 5000 7.2 270 19:40 06.03.2020
1450 Rain 9 1014 87 5000 7.2 270 19:22 06.03.2020
1451 Rain 9 1013 87 4000 5.7 280 18:42 06.03.2020
1452 Rain 9 1013 87 4000 5.7 280 18:20 06.03.2020
1453 Mist 8 1013 93 3000 8.2 250 17:57 06.03.2020
1454 Mist 8 1013 93 3000 8.2 250 17:39 06.03.2020
1455 Rain 8 1011 93 1500 5.1 250 17:20 06.03.2020
1456 Rain 8 1011 93 1500 5.1 250 16:55 06.03.2020
1457 Rain 8 1011 93 1500 5.1 250 16:36 06.03.2020
1458 Rain 8 1011 93 1500 5.1 250 16:18 06.03.2020
1459 Rain 9 1010 87 2000 8.7 240 15:42 06.03.2020
1460 Rain 9 1011 87 2500 6.2 240 15:23 06.03.2020
1461 Rain 9 1010 81 3000 4.6 250 14:41 06.03.2020
1462 Rain 9 1010 81 3000 4.6 250 14:23 06.03.2020
1463 Rain 9 1010 81 3000 4.6 250 14:23 06.03.2020
1464 Mist 9 1010 81 4000 5.1 240 13:58 06.03.2020
1465 Thunderstorm 9 1010 71 2500 7.7 200 13:40 06.03.2020
1466 Thunderstorm 9 1010 71 2500 7.7 200 13:20 06.03.2020
1467 Clouds 14 1009 71 3000 9.3 240 12:54 06.03.2020
1468 Clouds 14 1009 71 3000 9.3 240 12:36 06.03.2020
1469 Clouds 14 1009 71 3000 9.3 240 12:18 06.03.2020
1470 Drizzle 14 1009 67 4500 8.7 250 11:42 06.03.2020
1471 Rain 15 1008 54 6000 7.7 240 11:20 06.03.2020
1472 Rain 15 1008 54 8000 6.2 240 10:57 06.03.2020
1473 Rain 15 1008 54 8000 6.2 240 10:36 06.03.2020
1474 Rain 15 1008 54 8000 6.2 240 10:18 06.03.2020
1475 Rain 13 1010 71 4000 10.3 250 09:42 06.03.2020
1476 Rain 13 1010 71 4000 10.3 250 09:24 06.03.2020
1477 Dust 14 1009 51 4000 10.3 250 08:56 06.03.2020
1478 Haze 14 1009 51 5000 7.7 250 08:38 06.03.2020
1479 Haze 14 1009 51 5000 7.7 250 08:38 06.03.2020
1480 Haze 14 1009 51 5000 7.7 250 08:19 06.03.2020
1481 Haze 12 1008 66 3500 9.3 250 07:45 06.03.2020
1482 Haze 12 1008 66 3500 9.3 250 07:24 06.03.2020
1483 Haze 11 1008 58 4000 1.76 220 06:47 06.03.2020
1484 Haze 11 1008 58 4000 1.76 220 06:28 06.03.2020
1485 Haze 10 1008 54 4000 1.76 220 05:39 06.03.2020
1486 Haze 10 1008 54 4000 3.37 121 05:20 06.03.2020
1487 Haze 11 1009 58 4000 3.37 121 04:41 06.03.2020
1488 Haze 11 1011 58 4000 2.61 144 01:45 06.03.2020
1489 Haze 11 1011 58 4000 4.05 137 01:26 06.03.2020
1490 Haze 13 1011 54 4000 4.05 137 00:59 06.03.2020
1491 Haze 13 1011 54 4000 4.05 137 00:31 06.03.2020
1492 Haze 13 1011 54 4000 4.05 137 00:31 06.03.2020
1493 Haze 12 1012 54 4000 1 200 23:44 05.03.2020
1494 Haze 12 1012 54 4000 1 200 23:25 05.03.2020
1495 Clouds 11 1011 66 6000 1.63 114 22:57 05.03.2020
1496 Haze 14 1012 50 4000 1 180 22:38 05.03.2020
1497 Haze 13 1012 50 4000 1 180 22:19 05.03.2020
1498 Haze 13 1013 44 4000 1.63 114 21:56 05.03.2020
1499 Haze 13 1013 44 4000 1.63 114 21:37 05.03.2020
1500 Haze 13 1013 44 4000 1.63 114 21:37 05.03.2020
1501 Haze 13 1013 44 4000 1.63 114 21:19 05.03.2020
1502 Clouds 13 1012 62 6000 2.1 320 20:55 05.03.2020
1503 Clouds 17 1013 45 6000 1.63 114 20:36 05.03.2020
1504 Clouds 16 1013 45 6000 2.14 99 20:18 05.03.2020
1505 Clouds 15 1013 44 6000 2.14 99 19:55 05.03.2020
1506 Clouds 15 1013 44 6000 2.14 99 19:37 05.03.2020
1507 Clouds 15 1013 44 6000 2.14 99 19:18 05.03.2020
1508 Clouds 15 1013 44 6000 2.14 99 19:18 05.03.2020
1509 Clouds 17 1013 39 7000 2.14 99 18:38 05.03.2020
1510 Clouds 17 1013 39 7000 2.14 99 18:19 05.03.2020
1511 Clouds 19 1013 34 7000 1 220 17:59 05.03.2020
1512 Clouds 19 1013 34 7000 1 220 17:40 05.03.2020
1513 Clouds 19 1013 34 7000 1 220 17:21 05.03.2020
1514 Clouds 20 1013 22 7000 2.1 250 16:54 05.03.2020
1515 Clouds 20 1013 22 7000 2.1 250 16:36 05.03.2020
1516 Clouds 20 1013 22 7000 2.1 250 16:18 05.03.2020
1517 Clouds 22 1013 21 7000 4.6 250 15:44 05.03.2020
1518 Clouds 22 1013 21 7000 4.6 250 15:22 05.03.2020
1519 Clouds 23 1013 17 7000 5.7 250 14:57 05.03.2020
1520 Clouds 23 1013 17 7000 5.7 250 14:39 05.03.2020
1521 Clouds 23 1013 17 7000 5.7 250 14:20 05.03.2020
1522 Clouds 23 1014 17 7000 5.7 250 13:55 05.03.2020
1523 Clouds 23 1014 17 7000 5.7 250 13:36 05.03.2020
1524 Clouds 23 1014 17 7000 5.7 250 13:18 05.03.2020
1525 Clouds 23 1014 28 6000 1.5 60 12:40 05.03.2020
1526 Clouds 23 1014 28 6000 1.5 60 12:20 05.03.2020
1527 Clouds 21 1015 37 6000 1 30 11:57 05.03.2020
1528 Clouds 21 1015 37 6000 1 30 11:37 05.03.2020
1529 Clear 21 1015 37 6000 1 30 11:19 05.03.2020
1530 Haze 19 1016 42 5000 1 80 10:57 05.03.2020
1531 Haze 19 1016 42 5000 1 80 10:39 05.03.2020
1532 Haze 19 1016 42 5000 1 80 10:20 05.03.2020
1533 Haze 17 1016 44 5000 1 360 09:45 05.03.2020
1534 Haze 17 1016 44 5000 1 360 09:27 05.03.2020
1535 Haze 13 1016 43 3000 1 60 08:48 05.03.2020
1536 Haze 13 1016 43 3000 1 60 08:30 05.03.2020
1537 Haze 11 1016 53 3000 1 350 07:49 05.03.2020
1538 Haze 11 1016 53 3000 1 350 07:23 05.03.2020
1539 Haze 10 1015 53 3000 1 70 06:59 05.03.2020
1540 Haze 10 1015 53 3000 1 70 06:41 05.03.2020
1541 Haze 9 1015 53 3000 1 70 06:19 05.03.2020
1542 Clear 9 1015 57 6000 1.5 60 05:32 05.03.2020
1543 Clear 10 1015 53 8000 1 110 04:23 05.03.2020
1544 Clear 10 1015 50 8000 1.5 100 03:58 05.03.2020
1545 Clear 11 1016 46 8000 5.55 108 02:31 05.03.2020
1546 Clear 13 1016 38 8000 3.92 109 01:26 05.03.2020
1547 Clear 12 1016 38 8000 4.06 110 00:44 05.03.2020
1548 Clear 15 1016 32 8000 1 180 23:57 04.03.2020
1549 Clear 15 1016 32 8000 1 180 23:39 04.03.2020
1550 Clear 15 1016 29 8000 1 180 23:20 04.03.2020
1551 Clear 16 1017 23 8000 3.1 150 22:55 04.03.2020
1552 Clear 16 1017 23 8000 3.1 150 22:36 04.03.2020
1553 Clear 16 1017 23 8000 3.1 150 22:18 04.03.2020
1554 Haze 15 1017 29 5000 4.1 120 21:41 04.03.2020
1555 Haze 15 1017 29 5000 4.1 120 21:41 04.03.2020
1556 Clear 17 1017 25 8000 4.1 150 21:21 04.03.2020
1557 Clear 17 1016 25 8000 3.1 140 20:59 04.03.2020
1558 Clear 17 1016 25 8000 3.1 140 20:39 04.03.2020
1559 Clear 17 1016 25 8000 3.1 140 20:21 04.03.2020
1560 Haze 16 1016 38 5000 5.1 100 19:43 04.03.2020
1561 Clear 17 1016 25 8000 4.1 120 19:24 04.03.2020
1562 Haze 17 1016 36 5000 4.6 90 18:59 04.03.2020
1563 Haze 17 1016 36 5000 4.6 90 18:41 04.03.2020
1564 Clear 18 1016 24 8000 3.6 130 18:23 04.03.2020
1565 Clear 18 1016 24 8000 3.6 130 18:23 04.03.2020
1566 Haze 18 1016 36 5000 3.1 250 17:59 04.03.2020
1567 Clear 20 1015 32 7000 1 160 17:39 04.03.2020
1568 Clear 20 1015 32 7000 1 160 17:20 04.03.2020
1569 Haze 22 1015 40 5000 3.1 250 16:55 04.03.2020
1570 Haze 22 1015 40 5000 3.1 250 16:55 04.03.2020
1571 Clear 24 1015 21 8000 2.1 200 16:36 04.03.2020
1572 Clear 24 1015 21 8000 2.1 200 16:18 04.03.2020
1573 Clear 25 1015 16 8000 2.6 220 15:42 04.03.2020
1574 Clear 25 1015 16 8000 2.6 220 15:24 04.03.2020
1575 Clear 25 1016 14 8000 4.1 140 14:58 04.03.2020
1576 Clear 25 1016 14 8000 4.1 140 14:39 04.03.2020
1577 Clear 25 1016 14 8000 4.1 140 14:19 04.03.2020
1578 Clear 24 1016 17 8000 3.1 150 13:58 04.03.2020
1579 Clear 24 1016 17 8000 3.1 150 13:39 04.03.2020
1580 Clear 24 1016 17 8000 3.1 150 13:20 04.03.2020
1581 Clear 22 1017 32 8000 1.5 100 12:55 04.03.2020
1582 Clear 22 1017 32 8000 1.5 100 12:37 04.03.2020
1583 Clear 22 1017 32 8000 1.5 100 12:19 04.03.2020
1584 Clear 20 1018 32 8000 1.5 150 11:42 04.03.2020
1585 Clear 20 1018 32 8000 1.5 150 11:23 04.03.2020
1586 Clear 18 1019 34 8000 3.1 90 10:58 04.03.2020
1587 Clear 18 1019 34 8000 3.1 90 10:40 04.03.2020
1588 Clear 18 1019 34 8000 3.1 90 10:21 04.03.2020
1589 Clear 16 1020 38 7000 4.1 90 09:43 04.03.2020
1590 Clear 16 1020 38 7000 4.1 90 09:21 04.03.2020
1591 Clear 15 1020 44 6000 4.6 90 08:56 04.03.2020
1592 Clear 15 1020 44 6000 4.6 90 08:37 04.03.2020
1593 Clear 15 1020 44 6000 4.6 90 08:19 04.03.2020
1594 Clear 13 1021 50 7000 2.6 90 07:39 04.03.2020
1595 Clear 13 1021 50 7000 2.6 90 07:20 04.03.2020
1596 Clear 11 1020 53 6000 1.5 110 06:47 04.03.2020
1597 Clear 11 1020 53 6000 1.5 110 06:24 04.03.2020
1598 Clear 9 1020 66 7000 1.5 100 05:54 04.03.2020
1599 Clouds 9 1020 61 10000 5.32 108 04:40 04.03.2020
1600 Clouds 8 1020 81 10000 5.32 108 03:46 04.03.2020
1601 Clouds 8 1020 81 10000 5.32 108 03:27 04.03.2020
1602 Clouds 9 1020 76 10000 5.32 108 02:58 04.03.2020
1603 Clouds 9 1020 76 10000 5.32 108 02:22 04.03.2020
1604 Clear 9 1020 76 10000 4.89 94 01:56 04.03.2020
1605 Clear 9 1020 76 10000 4.9 93 01:22 04.03.2020
1606 Clear 10 1020 71 10000 4.9 93 00:36 04.03.2020
1607 Clear 10 1020 71 10000 4.9 93 00:18 04.03.2020
1608 Clear 10 1021 76 8000 4.9 93 23:40 03.03.2020
1609 Clear 10 1021 76 8000 4.9 93 23:22 03.03.2020
1610 Clear 11 1021 76 7000 2.9 108 22:41 03.03.2020
1611 Clear 11 1021 76 7000 2.9 108 22:20 03.03.2020
1612 Clear 11 1021 76 7000 2.9 108 21:59 03.03.2020
1613 Clear 11 1021 76 7000 2.9 108 21:40 03.03.2020
1614 Clear 11 1021 71 8000 2.9 108 21:21 03.03.2020
1615 Clear 12 1021 54 8000 2.1 360 20:58 03.03.2020
1616 Clear 12 1021 66 8000 1 160 20:39 03.03.2020
1617 Clear 12 1021 66 8000 1 160 20:18 03.03.2020
1618 Clear 13 1021 50 7000 1.5 100 19:56 03.03.2020
1619 Clear 13 1021 50 7000 1.5 100 19:37 03.03.2020
1620 Clear 13 1021 50 7000 1.5 100 19:37 03.03.2020
1621 Clear 13 1021 50 7000 1.5 100 19:18 03.03.2020
1622 Clear 13 1021 54 7000 1.5 80 18:56 03.03.2020
1623 Clear 13 1021 54 7000 1.5 80 18:56 03.03.2020
1624 Clear 13 1021 54 7000 1.5 80 18:38 03.03.2020
1625 Clear 13 1021 54 7000 1.5 80 18:19 03.03.2020
1626 Haze 15 1021 51 5000 1.5 60 17:54 03.03.2020
1627 Haze 15 1021 51 5000 1.5 60 17:36 03.03.2020
1628 Haze 15 1021 51 5000 1.5 60 17:36 03.03.2020
1629 Haze 15 1021 51 5000 1.5 60 17:18 03.03.2020
1630 Clear 18 1021 42 6000 1.5 40 16:39 03.03.2020
1631 Clear 18 1021 42 6000 1.5 40 16:21 03.03.2020
1632 Clear 18 1021 39 6000 1.5 50 15:59 03.03.2020
1633 Clear 18 1021 39 6000 1.5 50 15:59 03.03.2020
1634 Clear 18 1021 39 6000 1.5 50 15:41 03.03.2020
1635 Clear 18 1021 39 6000 1.5 50 15:20 03.03.2020
1636 Clear 19 1021 39 6000 1.5 50 14:54 03.03.2020
1637 Haze 19 1020 36 5000 2.03 93 14:36 03.03.2020
1638 Haze 19 1020 36 5000 1.75 113 14:18 03.03.2020
1639 Haze 18 1022 51 5000 1.5 50 13:42 03.03.2020
1640 Haze 18 1022 51 5000 1.5 50 13:24 03.03.2020
1641 Smoke 17 1022 55 4000 1.5 20 12:55 03.03.2020
1642 Smoke 17 1022 55 4000 1.5 20 12:36 03.03.2020
1643 Smoke 17 1022 55 4000 1.5 20 12:18 03.03.2020
1644 Clear 15 1022 62 6000 2.1 60 11:38 03.03.2020
1645 Clear 15 1022 62 6000 2.1 60 11:20 03.03.2020
1646 Clear 14 1023 62 6000 2.6 90 10:57 03.03.2020
1647 Clear 14 1023 62 6000 2.6 90 10:39 03.03.2020
1648 Clear 14 1023 62 6000 2.6 90 10:19 03.03.2020
1649 Haze 12 1023 71 5000 2.1 70 09:59 03.03.2020
1650 Haze 12 1023 71 5000 2.1 70 09:40 03.03.2020
1651 Haze 12 1023 71 5000 2.1 70 09:19 03.03.2020
1652 Smoke 10 1024 76 4000 1.5 80 08:41 03.03.2020
1653 Smoke 10 1024 76 4000 1.5 80 08:22 03.03.2020
1654 Mist 7 1023 87 5000 1.18 92 07:55 03.03.2020
1655 Mist 7 1023 87 5000 1.18 92 07:37 03.03.2020
1656 Mist 7 1023 87 5000 1.18 92 07:18 03.03.2020
1657 Mist 5 1023 100 4000 1.18 92 06:40 03.03.2020
1658 Mist 5 1023 100 4000 1.18 92 06:20 03.03.2020
1659 Mist 4 1022 93 3000 1.18 92 05:42 03.03.2020
1660 Mist 4 1022 93 5000 1.24 282 04:51 03.03.2020
1661 Clear 4 1021 100 7000 1.24 282 02:38 03.03.2020
1662 Clear 5 1021 93 7000 2.81 313 01:29 03.03.2020
1663 Clear 5 1022 93 7000 2.66 312 00:42 03.03.2020
1664 Clear 5 1022 93 7000 2.66 312 00:23 03.03.2020
1665 Clear 7 1022 93 7000 2.66 312 23:50 02.03.2020
1666 Clear 6 1022 93 7000 2.66 312 23:23 02.03.2020
1667 Clear 7 1022 87 7000 3.69 325 22:57 02.03.2020
1668 Clear 7 1022 87 7000 3.69 325 22:38 02.03.2020
1669 Clear 7 1022 87 7000 3.69 325 22:20 02.03.2020
1670 Clear 8 1022 81 6000 2.1 330 21:56 02.03.2020
1671 Clear 8 1022 81 6000 2.1 330 21:38 02.03.2020
1672 Clear 8 1022 81 6000 2.1 330 21:20 02.03.2020
1673 Clear 8 1022 76 7000 1.5 320 20:56 02.03.2020
1674 Clear 8 1022 76 7000 1.5 320 20:38 02.03.2020
1675 Clear 8 1022 76 7000 1.5 320 20:19 02.03.2020
1676 Clear 9 1022 81 7000 1 320 19:54 02.03.2020
1677 Clear 9 1022 81 7000 1 320 19:36 02.03.2020
1678 Clear 9 1022 81 7000 1 320 19:18 02.03.2020
1679 Clouds 10 1022 76 7000 3.1 310 18:43 02.03.2020
1680 Clouds 10 1022 76 7000 3.1 310 18:19 02.03.2020
1681 Clouds 10 1022 81 6000 3.1 330 17:57 02.03.2020
1682 Clouds 10 1022 81 6000 3.1 330 17:39 02.03.2020
1683 Clouds 10 1022 81 6000 3.1 330 17:21 02.03.2020
1684 Clouds 12 1021 62 6000 3.6 320 16:54 02.03.2020
1685 Clouds 12 1021 62 6000 3.6 320 16:36 02.03.2020
1686 Clouds 12 1021 62 6000 3.6 320 16:18 02.03.2020
1687 Haze 13 1021 62 5000 3.6 290 15:42 02.03.2020
1688 Haze 13 1021 62 5000 3.6 290 15:19 02.03.2020
1689 Haze 13 1021 58 5000 3.6 290 14:40 02.03.2020
1690 Haze 13 1021 58 5000 3.6 290 14:20 02.03.2020
1691 Haze 13 1021 58 5000 3.1 280 13:59 02.03.2020
1692 Haze 13 1021 58 5000 3.1 280 13:38 02.03.2020
1693 Haze 13 1021 58 5000 3.1 280 13:18 02.03.2020
1694 Haze 11 1021 71 5000 4.6 270 12:43 02.03.2020
1695 Haze 11 1021 71 5000 4.6 270 12:20 02.03.2020
1696 Haze 11 1022 81 5000 4.1 250 11:56 02.03.2020
1697 Haze 11 1022 81 5000 4.1 250 11:37 02.03.2020
1698 Haze 11 1022 81 5000 4.1 250 11:18 02.03.2020
1699 Haze 11 1022 66 5000 4.1 290 10:54 02.03.2020
1700 Haze 11 1022 66 5000 4.1 290 10:36 02.03.2020
1701 Haze 11 1022 66 5000 4.1 290 10:18 02.03.2020
1702 Haze 11 1022 71 5000 2.6 270 09:42 02.03.2020
1703 Haze 11 1022 71 5000 2.6 270 09:24 02.03.2020
1704 Haze 9 1022 81 5000 3.6 240 08:47 02.03.2020
1705 Haze 9 1022 81 5000 3.6 240 08:22 02.03.2020
1706 Mist 7 1021 93 3000 6.19 283 07:43 02.03.2020
1707 Mist 7 1021 93 3000 6.19 283 07:20 02.03.2020
1708 Smoke 6 1021 93 5000 1.5 230 06:45 02.03.2020
1709 Clouds 5 1020 93 6000 2.6 250 05:53 02.03.2020
1710 Clouds 5 1020 93 6000 2.6 250 04:26 02.03.2020
1711 Clouds 6 1019 87 7000 3.6 250 03:23 02.03.2020
1712 Clouds 7 1020 81 10000 3.1 290 02:48 02.03.2020
1713 Clouds 7 1020 81 10000 5.1 280 01:52 02.03.2020
1714 Clouds 7 1020 81 10000 5.1 280 01:31 02.03.2020
1715 Clouds 8 1020 87 10000 2.1 250 00:24 02.03.2020
1716 Clouds 8 1020 81 10000 2.6 250 23:59 01.03.2020
1717 Clouds 8 1020 81 10000 2.6 250 23:41 01.03.2020
1718 Clouds 8 1020 81 10000 2.6 250 23:20 01.03.2020
1719 Mist 8 1021 100 5000 3.1 290 22:43 01.03.2020
1720 Clouds 9 1020 81 10000 6.7 270 22:21 01.03.2020
1721 Clouds 9 1020 81 10000 6.7 270 22:21 01.03.2020
1722 Clouds 9 1020 81 10000 6.7 270 21:57 01.03.2020
1723 Clouds 9 1020 81 10000 6.7 270 21:39 01.03.2020
1724 Clouds 9 1020 81 10000 6.7 270 21:20 01.03.2020
1725 Clouds 9 1019 76 10000 5.1 270 20:44 01.03.2020
1726 Clouds 9 1019 76 10000 5.1 270 20:25 01.03.2020
1727 Haze 9 1020 76 5000 2.6 270 19:59 01.03.2020
1728 Haze 9 1020 76 5000 2.6 270 19:59 01.03.2020
1729 Haze 9 1020 76 5000 2.6 270 19:40 01.03.2020
1730 Haze 9 1020 76 5000 2.6 270 19:21 01.03.2020
1731 Clouds 10 1019 71 7000 5.1 250 18:54 01.03.2020
1732 Clouds 10 1019 71 7000 5.1 250 18:36 01.03.2020
1733 Clouds 10 1019 71 7000 5.1 250 18:18 01.03.2020
1734 Clouds 10 1019 66 7000 3.1 240 17:54 01.03.2020
1735 Clouds 10 1019 66 7000 3.1 240 17:36 01.03.2020
1736 Clouds 10 1019 66 7000 3.1 240 17:18 01.03.2020
1737 Clouds 11 1018 62 8000 7.7 270 16:39 01.03.2020
1738 Clouds 11 1018 62 8000 7.7 270 16:19 01.03.2020
1739 Clouds 12 1017 58 7000 8.2 280 15:59 01.03.2020
1740 Clouds 12 1017 58 7000 8.2 280 15:40 01.03.2020
1741 Clouds 12 1017 58 7000 8.2 280 15:22 01.03.2020
1742 Clouds 12 1017 58 7000 9.3 280 14:58 01.03.2020
1743 Clouds 12 1017 58 7000 9.3 280 14:39 01.03.2020
1744 Clouds 12 1017 58 7000 9.3 280 14:21 01.03.2020
1745 Clouds 12 1017 58 7000 9.3 280 14:21 01.03.2020
1746 Clouds 12 1016 58 10000 9.3 270 13:57 01.03.2020
1747 Clouds 12 1016 58 10000 9.3 270 13:38 01.03.2020
1748 Clouds 12 1016 58 10000 9.3 270 13:38 01.03.2020
1749 Clouds 12 1016 58 10000 9.3 270 13:19 01.03.2020
1750 Clouds 12 1016 57 10000 6.7 270 12:56 01.03.2020
1751 Clouds 12 1016 57 10000 6.7 270 12:38 01.03.2020
1752 Clouds 12 1016 57 10000 6.7 270 12:19 01.03.2020
1753 Clouds 12 1016 58 10000 7.7 270 11:40 01.03.2020
1754 Clouds 12 1016 58 10000 7.7 270 11:19 01.03.2020
1755 Clouds 11 1016 57 10000 8.2 250 10:56 01.03.2020
1756 Clouds 11 1016 57 10000 8.2 250 10:56 01.03.2020
1757 Clouds 11 1016 57 10000 8.2 250 10:37 01.03.2020
1758 Clouds 11 1016 57 10000 8.2 250 10:18 01.03.2020
1759 Clouds 10 1017 61 10000 10.8 270 09:45 01.03.2020
1760 Clouds 10 1017 61 10000 10.8 270 09:26 01.03.2020
1761 -273 0 0 0 0 0 08:51 01.03.2020
1762 Clouds 9 1016 76 6000 9.8 270 08:29 01.03.2020
1763 Squall 8 1014 87 6000 10.3 250 07:59 01.03.2020
1764 Squall 8 1014 87 6000 10.3 250 07:40 01.03.2020
1765 Squall 8 1014 87 6000 10.3 250 07:22 01.03.2020
1766 Rain 7 1013 87 5000 10.3 260 06:43 01.03.2020
1767 Rain 7 1013 87 5000 10.3 260 06:21 01.03.2020
1768 Rain 7 1012 81 5000 6.7 250 03:40 01.03.2020
1769 Rain 8 1012 65 5000 7.2 240 02:23 01.03.2020
1770 Rain 7 1013 93 4500 9.3 260 01:46 01.03.2020
1771 Rain 7 1013 93 4500 9.3 260 01:20 01.03.2020
1772 Rain 7 1013 93 4500 9.3 260 01:20 01.03.2020
1773 Rain 8 1012 87 3500 8.2 260 00:40 01.03.2020
1774 Rain 8 1012 87 3500 8.2 260 00:20 01.03.2020
1775 Rain 8 1012 87 3000 10.3 260 23:45 29.02.2020
1776 Rain 8 1012 87 3000 10.3 260 23:26 29.02.2020
1777 Rain 9 1012 87 2000 10.3 260 22:42 29.02.2020
1778 Rain 11 1011 66 5000 10.3 250 22:23 29.02.2020
1779 Rain 10 1012 66 5000 10.3 240 21:42 29.02.2020
1780 Rain 10 1012 66 5000 10.3 240 21:22 29.02.2020
1781 Clouds 9 1012 66 6000 6.2 220 20:43 29.02.2020
1782 Clouds 9 1012 66 6000 6.2 220 20:43 29.02.2020
1783 Clouds 9 1012 66 6000 6.2 220 20:22 29.02.2020
1784 Clouds 10 1014 66 6000 5.1 250 19:57 29.02.2020
1785 Clouds 10 1014 66 6000 5.1 250 19:38 29.02.2020
1786 Clouds 10 1014 66 6000 5.1 250 19:19 29.02.2020
1787 Clouds 10 1013 66 6000 7.2 260 18:43 29.02.2020
1788 Clouds 10 1013 66 6000 7.2 260 18:25 29.02.2020
1789 Clouds 10 1013 66 6000 7.7 250 17:58 29.02.2020
1790 Clouds 10 1013 66 6000 7.7 250 17:40 29.02.2020
1791 Clouds 10 1013 66 6000 7.7 250 17:21 29.02.2020
1792 Haze 12 1013 62 5000 7.7 260 16:45 29.02.2020
1793 Haze 12 1013 62 5000 7.7 260 16:22 29.02.2020
1794 Haze 12 1013 62 5000 7.7 260 15:59 29.02.2020
1795 Haze 12 1013 62 5000 7.7 260 15:41 29.02.2020
1796 Clouds 13 1012 58 6000 9.8 250 15:23 29.02.2020
1797 Clouds 13 1012 58 6000 9.8 250 14:42 29.02.2020
1798 Clouds 13 1012 62 6000 8.2 260 14:24 29.02.2020
1799 Clouds 13 1013 71 6000 7.7 250 13:57 29.02.2020
1800 Clouds 13 1013 71 6000 7.7 250 13:38 29.02.2020
1801 Clouds 13 1013 71 6000 7.7 250 13:20 29.02.2020
1802 Drizzle 13 1013 71 5000 6.7 260 12:43 29.02.2020
1803 Drizzle 13 1013 71 5000 6.7 260 12:22 29.02.2020
1804 Haze 13 1013 71 4000 9.3 260 11:57 29.02.2020
1805 Haze 13 1013 71 4000 9.3 260 11:39 29.02.2020
1806 Haze 13 1013 71 4000 9.3 260 11:21 29.02.2020
1807 Drizzle 12 1014 76 3500 6.2 250 10:46 29.02.2020
1808 Drizzle 12 1014 76 3500 6.2 250 10:28 29.02.2020
1809 Dust 13 1015 66 4000 8.2 270 09:50 29.02.2020
1810 Haze 12 1015 76 5000 3.1 230 09:27 29.02.2020
1811 Drizzle 11 1015 76 4000 4.1 240 08:55 29.02.2020
1812 Drizzle 11 1015 76 4000 4.1 240 08:37 29.02.2020
1813 Drizzle 11 1015 76 4000 4.1 240 08:19 29.02.2020
1814 Haze 12 1015 66 3000 2.1 300 07:41 29.02.2020
1815 Haze 11 1015 71 4000 3.1 260 07:19 29.02.2020
1816 Haze 7 1015 76 5000 6.2 230 06:50 29.02.2020
1817 Haze 7 1015 76 5000 6.2 230 06:25 29.02.2020
1818 Mist 6 1014 86 2000 2.1 300 05:48 29.02.2020
1819 Haze 8 1014 62 5000 2.6 220 04:50 29.02.2020
1820 Haze 9 1014 66 5000 1.5 210 03:43 29.02.2020
1821 Haze 9 1014 66 5000 1.5 210 03:22 29.02.2020
1822 Haze 8 1014 76 5000 4.1 240 02:39 29.02.2020
1823 Haze 8 1014 76 5000 4.1 240 02:39 29.02.2020
1824 Haze 9 1014 76 5000 2.1 240 01:26 29.02.2020
1825 Haze 9 1015 76 5000 2.74 284 00:38 29.02.2020
1826 Haze 9 1015 76 5000 2.74 284 23:58 28.02.2020
1827 Haze 10 1015 76 5000 2.74 284 23:37 28.02.2020
1828 Haze 10 1015 76 5000 3.18 309 23:19 28.02.2020
1829 Haze 10 1015 76 5000 3.18 309 22:41 28.02.2020
1830 Haze 10 1015 76 5000 3.18 309 22:19 28.02.2020
1831 Haze 10 1015 76 5000 3.18 309 21:42 28.02.2020
1832 Haze 11 1016 76 5000 3.18 309 21:21 28.02.2020
1833 Haze 11 1016 76 5000 3.18 309 20:56 28.02.2020
1834 Haze 12 1016 71 5000 3.18 309 20:38 28.02.2020
1835 Haze 12 1016 71 5000 3.18 309 20:38 28.02.2020
1836 Haze 12 1016 71 5000 3.79 332 20:19 28.02.2020
1837 Clear 13 1016 71 7000 4.1 280 19:56 28.02.2020
1838 Clear 13 1016 71 7000 4.1 280 19:38 28.02.2020
1839 Clear 13 1016 71 7000 4.1 280 19:19 28.02.2020
1840 Haze 14 1016 58 5000 4.1 280 18:46 28.02.2020
1841 Haze 14 1016 58 5000 4.1 280 18:24 28.02.2020
1842 Haze 15 1015 51 5000 4.1 280 17:41 28.02.2020
1843 Haze 15 1015 51 5000 4.1 280 17:23 28.02.2020
1844 Clear 17 1015 33 6000 4.1 280 16:57 28.02.2020
1845 Clear 17 1015 33 6000 4.1 280 16:38 28.02.2020
1846 Clear 17 1015 33 6000 4.1 280 16:38 28.02.2020
1847 Clear 17 1015 33 6000 4.1 280 16:19 28.02.2020
1848 Clear 19 1015 39 8000 4.1 250 15:56 28.02.2020
1849 Clear 19 1015 39 8000 4.1 250 15:37 28.02.2020
1850 Clear 19 1015 39 8000 4.1 250 15:18 28.02.2020
1851 Clear 18 1016 39 8000 2.1 250 14:45 28.02.2020
1852 Clear 18 1016 39 8000 2.1 250 14:19 28.02.2020
1853 Clear 20 1016 28 10000 2.6 270 13:58 28.02.2020
1854 Clear 20 1016 28 10000 2.6 270 13:40 28.02.2020
1855 Clear 20 1016 28 10000 2.6 270 13:19 28.02.2020
1856 Clear 20 1016 40 6000 3.6 250 12:45 28.02.2020
1857 Clear 20 1017 24 10000 3.6 240 12:27 28.02.2020
1858 Clear 20 1016 42 6000 2.6 240 11:59 28.02.2020
1859 Clear 20 1017 24 10000 3.6 240 11:40 28.02.2020
1860 Clear 20 1017 24 10000 3.6 240 11:21 28.02.2020
1861 Clear 18 1017 29 10000 3.1 240 10:43 28.02.2020
1862 Clear 18 1017 29 10000 3.1 240 10:24 28.02.2020
1863 Clouds 16 1018 48 6000 1.94 288 09:55 28.02.2020
1864 Clouds 16 1018 48 6000 1.94 288 09:36 28.02.2020
1865 Clouds 16 1018 48 6000 1.94 288 09:18 28.02.2020
1866 Haze 15 1018 58 5000 1.94 288 08:42 28.02.2020
1867 Haze 15 1018 58 5000 1.14 333 08:20 28.02.2020
1868 Smoke 11 1018 76 3000 1.14 333 07:45 28.02.2020
1869 Smoke 11 1018 76 3000 1.14 333 07:25 28.02.2020
1870 Haze 9 1018 76 4000 1.14 333 06:51 28.02.2020
1871 Haze 9 1018 76 4000 1.14 333 06:30 28.02.2020
1872 Haze 9 1018 81 4000 1.14 333 05:30 28.02.2020
1873 Haze 9 1018 81 4000 1.21 290 04:31 28.02.2020
1874 Haze 9 1018 76 4000 1.21 290 02:55 28.02.2020
1875 Haze 9 1018 76 4000 1.21 290 02:28 28.02.2020
1876 Haze 9 1018 76 4000 1.1 304 01:48 28.02.2020
1877 Haze 9 1019 81 4000 1.79 303 00:32 28.02.2020
1878 Haze 9 1019 81 4000 1.79 303 23:47 27.02.2020
1879 Haze 9 1019 81 4000 1.79 303 23:23 27.02.2020
1880 Haze 10 1020 71 4000 1 160 22:58 27.02.2020
1881 Haze 11 1020 71 4000 1 160 22:39 27.02.2020
1882 Haze 10 1020 71 4000 1 160 22:21 27.02.2020
1883 Haze 11 1020 66 4000 1.78 325 21:42 27.02.2020
1884 Haze 11 1020 66 4000 1.78 325 21:23 27.02.2020
1885 Haze 11 1020 66 5000 1 150 20:59 27.02.2020
1886 Haze 11 1020 66 5000 1 150 20:41 27.02.2020
1887 Haze 11 1020 66 5000 1 150 20:23 27.02.2020
1888 Haze 11 1020 66 5000 1 150 20:23 27.02.2020
1889 Haze 12 1020 62 5000 1.69 320 19:57 27.02.2020
1890 Haze 12 1020 62 5000 1.69 320 19:39 27.02.2020
1891 Haze 12 1020 62 5000 1.69 320 19:20 27.02.2020
1892 Haze 14 1020 50 5000 3.1 240 18:55 27.02.2020
1893 Haze 14 1020 50 5000 3.1 240 18:37 27.02.2020
1894 Haze 14 1020 50 5000 3.1 240 18:18 27.02.2020
1895 Haze 14 1020 58 5000 2.1 240 17:54 27.02.2020
1896 Haze 14 1020 58 5000 2.1 240 17:36 27.02.2020
1897 Haze 14 1020 58 5000 2.1 240 17:18 27.02.2020
1898 Clouds 17 1020 48 6000 3.1 240 16:41 27.02.2020
1899 Clouds 17 1020 48 6000 3.1 240 16:20 27.02.2020
1900 Clouds 18 1020 45 10000 3.1 240 15:59 27.02.2020
1901 Clouds 18 1020 45 10000 3.1 240 15:38 27.02.2020
1902 Clouds 18 1020 45 10000 3.1 240 15:38 27.02.2020
1903 Clouds 18 1020 45 10000 3.1 240 15:19 27.02.2020
1904 Clouds 19 1020 34 10000 1.5 210 14:58 27.02.2020
1905 Clouds 19 1020 34 10000 1.5 210 14:37 27.02.2020
1906 Clouds 19 1020 34 10000 1.5 210 14:19 27.02.2020
1907 Clouds 18 1020 39 10000 1 210 13:42 27.02.2020
1908 Clouds 18 1020 39 10000 1 210 13:21 27.02.2020
1909 Clouds 19 1021 39 10000 2.6 140 12:56 27.02.2020
1910 Clouds 19 1021 39 10000 2.6 140 12:38 27.02.2020
1911 Clouds 19 1021 39 10000 2.6 140 12:18 27.02.2020
1912 Clouds 17 1023 63 10000 2.1 170 11:42 27.02.2020
1913 Clouds 17 1023 63 10000 2.1 170 11:22 27.02.2020
1914 Clear 15 1023 51 10000 3.1 150 10:45 27.02.2020
1915 Clear 15 1023 51 10000 3.1 150 10:24 27.02.2020
1916 Clear 14 1023 62 10000 2.1 160 09:59 27.02.2020
1917 Clear 14 1023 62 10000 2.1 160 09:40 27.02.2020
1918 Clear 14 1023 62 10000 2.1 160 09:21 27.02.2020
1919 Haze 11 1024 76 5000 1.5 230 08:42 27.02.2020
1920 Haze 11 1024 76 5000 1.5 230 08:22 27.02.2020
1921 Mist 8 1024 93 3000 2.1 160 07:46 27.02.2020
1922 Mist 7 1023 93 1500 3.5 125 07:26 27.02.2020
1923 Mist 6 1023 100 1000 3.5 125 06:48 27.02.2020
1924 Mist 5 1024 100 2000 3.5 125 06:19 27.02.2020
1925 Mist 5 1022 100 4000 0.17 219 04:21 27.02.2020
1926 Mist 6 1022 93 4000 0.17 219 02:35 27.02.2020
1927 Mist 6 1023 100 4000 2.54 307 00:47 27.02.2020
1928 Mist 6 1023 100 4000 2.54 307 00:29 27.02.2020
1929 Fog 5 1023 100 50 2.54 307 23:41 26.02.2020
1930 Mist 6 1023 100 5000 3.73 306 23:20 26.02.2020
1931 Fog 6 1023 100 100 1.5 50 22:59 26.02.2020
1932 Mist 7 1023 93 5000 1 300 22:40 26.02.2020
1933 Mist 7 1023 93 5000 1 300 22:21 26.02.2020
1934 Fog 7 1023 100 800 1.5 10 21:58 26.02.2020
1935 Haze 9 1023 81 5000 1 300 21:38 26.02.2020
1936 Haze 9 1023 81 5000 1 300 21:19 26.02.2020
1937 Mist 9 1023 93 5000 1.5 10 20:56 26.02.2020
1938 Mist 8 1023 93 5000 1 320 20:38 26.02.2020
1939 Mist 9 1023 93 5000 1 320 20:19 26.02.2020
1940 Haze 10 1022 76 5000 3.1 280 19:55 26.02.2020
1941 Haze 10 1022 76 5000 3.1 280 19:36 26.02.2020
1942 Haze 10 1022 76 5000 3.1 280 19:36 26.02.2020
1943 Haze 10 1022 76 5000 3.1 280 19:18 26.02.2020
1944 Mist 10 1022 87 5000 3.6 300 18:54 26.02.2020
1945 Mist 10 1022 87 5000 3.6 300 18:36 26.02.2020
1946 Mist 10 1022 87 5000 3.6 300 18:18 26.02.2020
1947 Haze 11 1021 76 5000 3.1 290 17:40 26.02.2020
1948 Haze 11 1021 76 5000 3.1 290 17:19 26.02.2020
1949 Haze 12 1021 71 5000 5.7 290 16:56 26.02.2020
1950 Haze 12 1021 71 5000 5.7 290 16:38 26.02.2020
1951 Haze 12 1021 71 5000 5.7 290 16:19 26.02.2020
1952 Haze 14 1021 62 5000 5.1 270 15:44 26.02.2020
1953 Haze 14 1021 62 5000 5.1 270 15:25 26.02.2020
1954 Haze 13 1021 66 5000 5.1 280 14:43 26.02.2020
1955 Haze 13 1021 66 5000 5.1 280 14:24 26.02.2020
1956 Haze 13 1021 62 5000 7.2 260 13:57 26.02.2020
1957 Haze 13 1021 62 5000 7.2 260 13:39 26.02.2020
1958 Haze 13 1021 62 5000 7.2 260 13:18 26.02.2020
1959 Clouds 14 1021 62 6000 7.2 270 12:38 26.02.2020
1960 Clouds 14 1021 62 6000 7.2 270 12:19 26.02.2020
1961 Clouds 13 1021 66 8000 6.7 270 11:55 26.02.2020
1962 Clouds 13 1021 66 8000 6.7 270 11:37 26.02.2020
1963 Clouds 13 1021 66 8000 6.7 270 11:18 26.02.2020
1964 Clouds 11 1022 81 8000 5.7 280 10:41 26.02.2020
1965 Clouds 11 1022 81 8000 5.7 280 10:22 26.02.2020
1966 Haze 11 1022 81 5000 6.2 280 09:55 26.02.2020
1967 Haze 11 1022 81 5000 6.2 280 09:37 26.02.2020
1968 Haze 11 1022 81 5000 6.2 280 09:18 26.02.2020
1969 Haze 10 1021 76 4000 5.7 260 08:38 26.02.2020
1970 Haze 10 1021 76 4000 5.7 260 08:19 26.02.2020
1971 Haze 9 1020 81 4000 5.7 280 07:48 26.02.2020
1972 Haze 9 1020 81 4000 5.7 280 07:29 26.02.2020
1973 Mist 9 1020 87 4000 5.1 270 06:54 26.02.2020
1974 Haze 9 1020 81 5000 5.7 270 06:36 26.02.2020
1975 Haze 9 1020 81 5000 5.7 270 06:18 26.02.2020
1976 Drizzle 9 1019 81 5000 3.1 260 05:43 26.02.2020
1977 Clouds 9 1018 81 6000 7.2 260 04:49 26.02.2020
1978 Clouds 9 1018 87 6000 5.7 250 02:54 26.02.2020
1979 Clouds 9 1017 81 7000 7.2 260 01:50 26.02.2020
1980 Clouds 9 1017 87 6000 7.2 270 00:51 26.02.2020
1981 Clouds 9 1017 87 6000 7.2 270 00:28 26.02.2020
1982 Clouds 9 1017 87 6000 7.2 270 00:28 26.02.2020
1983 Clouds 8 1018 93 6000 3.6 260 23:59 25.02.2020
1984 Clouds 9 1017 93 7000 5.7 270 23:39 25.02.2020
1985 Clouds 9 1017 93 7000 5.7 270 23:21 25.02.2020
1986 Clouds 8 1017 93 7000 5.7 270 22:43 25.02.2020
1987 Clouds 8 1017 93 7000 5.7 270 22:20 25.02.2020
1988 Clouds 9 1017 87 6000 7.2 280 21:59 25.02.2020
1989 Clouds 9 1017 87 6000 7.2 280 21:38 25.02.2020
1990 Clouds 9 1017 87 6000 7.2 280 21:20 25.02.2020
1991 Clouds 9 1016 87 6000 7.2 270 20:56 25.02.2020
1992 Clouds 9 1016 87 6000 7.2 270 20:37 25.02.2020
1993 Clouds 9 1016 87 6000 7.2 270 20:19 25.02.2020
1994 Haze 9 1015 81 5000 8.7 280 19:44 25.02.2020
1995 Haze 9 1015 81 5000 8.7 280 19:23 25.02.2020
1996 Mist 9 1015 87 5000 8.2 270 18:59 25.02.2020
1997 Mist 9 1015 87 5000 8.2 270 18:40 25.02.2020
1998 Mist 9 1015 87 5000 8.2 270 18:20 25.02.2020
1999 Mist 9 1015 87 5000 7.7 260 17:56 25.02.2020
2000 Mist 9 1015 87 5000 7.7 260 17:37 25.02.2020
2001 Mist 9 1015 87 5000 7.7 260 17:18 25.02.2020
2002 Drizzle 10 1014 81 2000 8.2 270 16:56 25.02.2020
2003 Drizzle 10 1014 81 2000 8.2 270 16:37 25.02.2020
2004 Drizzle 10 1014 81 2000 8.2 270 16:19 25.02.2020
2005 Drizzle 10 1013 87 2000 5.7 280 15:45 25.02.2020
2006 Drizzle 10 1013 87 2000 5.7 280 15:20 25.02.2020
2007 Drizzle 10 1013 34 1500 5.1 250 14:59 25.02.2020
2008 Drizzle 10 1013 34 1500 5.1 250 14:39 25.02.2020
2009 Drizzle 10 1013 34 1500 5.1 250 14:18 25.02.2020
2010 Rain 11 1013 87 2000 9.3 280 13:58 25.02.2020
2011 Rain 11 1013 87 2000 9.3 280 13:40 25.02.2020
2012 Drizzle 12 1012 76 3000 9.8 280 13:20 25.02.2020
2013 Haze 11 1012 76 4000 10.3 260 12:59 25.02.2020
2014 Haze 11 1012 76 4000 10.3 260 12:39 25.02.2020
2015 Haze 11 1012 76 4000 10.3 260 12:20 25.02.2020
2016 Rain 11 1012 76 3500 5.7 290 11:56 25.02.2020
2017 Rain 11 1012 76 3500 5.7 290 11:37 25.02.2020
2018 Rain 11 1012 76 3500 5.7 290 11:18 25.02.2020
2019 Rain 10 1012 81 2500 5.1 290 10:42 25.02.2020
2020 Haze 10 1012 81 4000 5.1 290 10:23 25.02.2020
2021 Thunderstorm 10 1013 87 3000 5.1 270 09:56 25.02.2020
2022 Thunderstorm 10 1013 87 3000 5.1 270 09:38 25.02.2020
2023 Thunderstorm 10 1013 87 3000 5.1 270 09:18 25.02.2020
2024 Rain 10 1012 87 2500 5.1 300 08:42 25.02.2020
2025 Haze 10 1012 87 3000 5.1 300 08:24 25.02.2020
2026 Mist 9 1011 93 3000 2.1 250 07:49 25.02.2020
2027 Mist 9 1011 93 3000 2.1 250 07:24 25.02.2020
2028 Mist 9 1011 87 3000 7.16 320 06:56 25.02.2020
2029 Mist 9 1011 87 3500 2.1 250 05:54 25.02.2020
2030 Mist 9 1011 87 3500 2.1 250 05:22 25.02.2020
2031 Mist 7 1011 93 5000 5.19 317 02:37 25.02.2020
2032 Fog 6 1011 100 300 5.37 340 00:58 25.02.2020
2033 Rain 7 1012 87 7000 2.6 90 00:33 25.02.2020
2034 Rain 7 1012 87 7000 2.6 90 23:56 24.02.2020
2035 Rain 7 1012 87 7000 2.6 90 23:37 24.02.2020
2036 Rain 7 1012 87 7000 2.6 90 23:37 24.02.2020
2037 Clear 7 1012 87 7000 2.6 90 23:18 24.02.2020
2038 Clear 8 1012 81 7000 4.08 337 22:37 24.02.2020
2039 Clear 8 1012 81 7000 4.08 337 22:18 24.02.2020
2040 Clouds 9 1012 87 7000 4.08 337 21:55 24.02.2020
2041 Clouds 9 1012 87 7000 4.08 337 21:37 24.02.2020
2042 Clouds 9 1012 87 7000 4.08 337 21:18 24.02.2020
2043 Mist 9 1012 87 5000 4.08 337 20:55 24.02.2020
2044 Mist 9 1012 87 5000 4.08 337 20:37 24.02.2020
2045 Mist 9 1012 87 5000 4.91 321 20:18 24.02.2020
2046 Haze 10 1012 81 5000 1.5 270 19:55 24.02.2020
2047 Haze 10 1012 81 5000 1.5 270 19:37 24.02.2020
2048 Haze 10 1012 81 5000 1.5 270 19:19 24.02.2020
2049 Haze 10 1013 81 4000 1.5 300 18:41 24.02.2020
2050 Haze 10 1013 81 4000 1.5 300 18:23 24.02.2020
2051 Dust 11 1012 76 4000 4.1 280 17:57 24.02.2020
2052 Dust 11 1012 76 4000 4.1 280 17:38 24.02.2020
2053 Dust 11 1012 76 4000 4.1 280 17:19 24.02.2020
2054 Dust 12 1012 66 4000 4.6 310 16:55 24.02.2020
2055 Dust 12 1012 66 4000 4.6 310 16:37 24.02.2020
2056 Dust 12 1012 66 4000 4.6 310 16:18 24.02.2020
2057 Clouds 14 1012 54 6000 6.7 300 15:56 24.02.2020
2058 Clouds 14 1012 54 6000 6.7 300 15:38 24.02.2020
2059 Clouds 14 1012 54 6000 6.7 300 15:19 24.02.2020
2060 Clouds 15 1012 51 6000 3.6 360 14:41 24.02.2020
2061 Clouds 15 1012 51 6000 3.6 360 14:23 24.02.2020
2062 Clouds 15 1012 51 7000 3.1 320 13:59 24.02.2020
2063 Clouds 15 1012 51 7000 3.1 320 13:40 24.02.2020
2064 Clouds 15 1012 51 7000 3.1 320 13:22 24.02.2020
2065 Clouds 14 1013 54 6000 2.6 330 12:58 24.02.2020
2066 Clouds 14 1013 54 6000 2.6 330 12:40 24.02.2020
2067 Clouds 14 1013 54 6000 2.6 330 12:22 24.02.2020
2068 Clouds 13 1014 62 6000 2.1 350 11:48 24.02.2020
2069 Clouds 13 1014 62 6000 2.1 350 11:29 24.02.2020
2070 Clouds 13 1014 58 6000 2.1 10 10:51 24.02.2020
2071 Clouds 13 1014 58 6000 2.1 10 10:31 24.02.2020
2072 Haze 9 1015 81 5000 1 350 09:56 24.02.2020
2073 Haze 9 1015 81 5000 1 350 09:38 24.02.2020
2074 Haze 9 1015 81 5000 1 350 09:19 24.02.2020
2075 Mist 10 1015 87 3500 2.1 260 08:48 24.02.2020
2076 Smoke 9 1015 71 3000 0.43 165 08:28 24.02.2020
2077 Smoke 6 1015 87 2500 1 240 07:52 24.02.2020
2078 Smoke 6 1015 87 2500 1 240 07:52 24.02.2020
2079 Smoke 6 1015 87 2500 1 240 07:31 24.02.2020
2080 Mist 5 1015 100 1200 3.07 98 06:49 24.02.2020
2081 Smoke 5 1014 87 4000 3.07 98 06:22 24.02.2020
2082 Haze 4 1014 87 5000 1.5 0 05:41 24.02.2020
2083 Haze 4 1014 87 5000 1.5 0 05:23 24.02.2020
2084 Clouds 5 1014 93 8000 3.26 94 02:57 24.02.2020
2085 Clouds 7 1015 81 10000 2.1 280 01:55 24.02.2020
2086 Clouds 7 1015 81 10000 2.1 280 01:29 24.02.2020
2087 Clouds 7 1015 81 10000 2.1 280 01:29 24.02.2020
2088 Clouds 8 1015 70 10000 1.5 230 00:44 24.02.2020
2089 Clouds 8 1015 70 10000 1.5 230 00:20 24.02.2020
2090 Clouds 9 1016 71 10000 2.1 240 23:42 23.02.2020
2091 Clouds 9 1016 71 10000 2.1 240 23:23 23.02.2020
2092 Clouds 9 1016 76 10000 3.1 250 22:58 23.02.2020
2093 Clouds 9 1016 76 10000 3.1 250 22:40 23.02.2020
2094 Clouds 9 1016 76 10000 3.1 250 22:21 23.02.2020
2095 Clouds 9 1016 70 10000 3.1 260 21:54 23.02.2020
2096 Clouds 9 1016 70 10000 3.1 260 21:36 23.02.2020
2097 Clouds 9 1016 70 10000 3.1 260 21:18 23.02.2020
2098 Clouds 9 1016 76 10000 2.1 360 20:55 23.02.2020
2099 Clouds 9 1016 76 10000 2.1 360 20:36 23.02.2020
2100 Clear 9 1016 76 10000 2.1 360 20:18 23.02.2020
2101 Clear 10 1016 76 6000 1.5 360 19:41 23.02.2020
2102 Clear 10 1016 76 6000 1.5 360 19:20 23.02.2020
2103 Haze 10 1015 71 5000 6.7 20 18:59 23.02.2020
2104 Haze 10 1015 71 5000 6.7 20 18:40 23.02.2020
2105 Clear 11 1016 71 6000 2.1 40 18:20 23.02.2020
2106 Haze 13 1016 62 5000 4.1 20 17:58 23.02.2020
2107 Haze 13 1016 62 5000 4.1 20 17:39 23.02.2020
2108 Haze 13 1016 62 5000 4.1 20 17:21 23.02.2020
2109 Haze 13 1016 62 5000 4.1 20 17:21 23.02.2020
2110 Haze 14 1016 50 5000 4.1 20 16:56 23.02.2020
2111 Haze 14 1016 50 5000 4.1 20 16:36 23.02.2020
2112 Haze 14 1016 50 5000 4.1 20 16:18 23.02.2020
2113 Clouds 15 1016 44 6000 4.6 30 15:54 23.02.2020
2114 Clouds 15 1016 44 6000 4.6 30 15:36 23.02.2020
2115 Clouds 15 1016 44 6000 4.6 30 15:18 23.02.2020
2116 Clouds 16 1016 41 7000 2.1 120 14:41 23.02.2020
2117 Clouds 16 1016 41 7000 2.1 120 14:23 23.02.2020
2118 Clouds 14 1017 47 7000 3.1 80 13:59 23.02.2020
2119 Clouds 14 1017 47 7000 3.1 80 13:41 23.02.2020
2120 Clouds 14 1017 47 7000 3.1 80 13:22 23.02.2020
2121 Clouds 14 1017 47 7000 3.1 80 13:22 23.02.2020
2122 Haze 14 1018 62 5000 2.1 70 12:59 23.02.2020
2123 Haze 14 1018 62 5000 2.1 70 12:38 23.02.2020
2124 Haze 14 1018 62 5000 2.1 70 12:19 23.02.2020
2125 Mist 13 1019 71 4000 2.1 100 11:38 23.02.2020
2126 Mist 13 1019 71 4000 2.1 100 11:20 23.02.2020
2127 Mist 13 1019 71 4000 2.1 100 11:20 23.02.2020
2128 Mist 11 1020 87 2000 1 50 10:57 23.02.2020
2129 Mist 11 1020 87 2000 1 50 10:39 23.02.2020
2130 Mist 11 1020 87 2000 1 50 10:21 23.02.2020
2131 Mist 9 1020 87 2000 1 80 09:56 23.02.2020
2132 Mist 9 1020 87 2000 1 80 09:37 23.02.2020
2133 Mist 9 1020 87 2000 1 80 09:18 23.02.2020
2134 Haze 9 1020 76 2000 3.45 102 08:43 23.02.2020
2135 Haze 9 1020 76 2000 3.45 102 08:24 23.02.2020
2136 Mist 6 1019 93 4000 0.91 62 07:44 23.02.2020
2137 Mist 7 1020 93 2000 0.91 62 07:26 23.02.2020
2138 Mist 6 1019 93 2000 1 240 06:20 23.02.2020
2139 Mist 5 1019 93 3000 2.1 260 04:59 23.02.2020
2140 Mist 5 1019 93 3000 0.44 295 03:53 23.02.2020
2141 Mist 4 1019 100 2500 0.44 295 02:44 23.02.2020
2142 Mist 4 1019 93 4000 1 90 01:39 23.02.2020
2143 Mist 4 1019 93 4000 1 90 01:20 23.02.2020
2144 Mist 5 1019 87 4000 1 230 00:43 23.02.2020
2145 Mist 5 1019 87 4000 1 230 00:20 23.02.2020
2146 Mist 5 1020 93 4000 1 210 23:43 22.02.2020
2147 Mist 5 1020 93 4000 1 210 23:24 22.02.2020
2148 Mist 6 1020 93 4000 1 180 22:45 22.02.2020
2149 Mist 6 1020 93 4000 1 180 22:20 22.02.2020
2150 Mist 5 1019 100 5000 2.9 330 21:46 22.02.2020
2151 Mist 6 1020 93 4000 1 180 21:28 22.02.2020
2152 Mist 7 1020 93 3000 1.5 170 20:59 22.02.2020
2153 Mist 7 1020 93 3000 1.5 170 20:40 22.02.2020
2154 Mist 7 1020 93 3000 1.5 170 20:21 22.02.2020
2155 Mist 7 1020 93 3500 1.5 170 19:43 22.02.2020
2156 Clouds 7 1020 93 6000 1.5 10 19:24 22.02.2020
2157 Clouds 8 1020 87 6000 1.5 10 18:58 22.02.2020
2158 Clouds 8 1020 87 6000 1.5 10 18:38 22.02.2020
2159 Clouds 8 1020 87 6000 1.5 10 18:20 22.02.2020
2160 Mist 8 1019 87 5000 2.6 320 17:54 22.02.2020
2161 Haze 9 1019 81 5000 2.6 250 17:36 22.02.2020
2162 Haze 9 1019 81 5000 2.6 250 17:18 22.02.2020
2163 Haze 10 1019 81 5000 5.7 250 16:54 22.02.2020
2164 Haze 10 1019 81 5000 5.7 250 16:36 22.02.2020
2165 Haze 10 1019 81 5000 5.7 250 16:18 22.02.2020
2166 Drizzle 9 1019 87 5000 5.7 250 15:42 22.02.2020
2167 Drizzle 9 1019 87 5000 5.7 250 15:22 22.02.2020
2168 Haze 10 1018 81 5000 6.2 240 14:43 22.02.2020
2169 Clouds 9 1018 87 6000 3.1 250 14:22 22.02.2020
2170 Drizzle 9 1018 87 2000 2.6 230 13:55 22.02.2020
2171 Drizzle 9 1018 87 2000 2.6 230 13:36 22.02.2020
2172 Drizzle 9 1018 87 2000 2.6 230 13:18 22.02.2020
2173 Mist 9 1018 87 2500 6.2 240 12:41 22.02.2020
2174 Rain 9 1018 93 2000 2.1 230 12:22 22.02.2020
2175 Rain 9 1019 87 2500 2.1 210 11:44 22.02.2020
2176 Rain 9 1019 87 2500 2.1 210 11:26 22.02.2020
2177 Rain 8 1019 93 1500 6.2 240 10:56 22.02.2020
2178 Drizzle 9 1018 87 3000 1.5 230 10:38 22.02.2020
2179 Drizzle 9 1018 87 3000 1.5 230 10:19 22.02.2020
2180 Rain 9 1019 87 2500 2.6 240 09:56 22.02.2020
2181 Rain 9 1019 87 2500 2.6 240 09:38 22.02.2020
2182 Rain 9 1019 87 2500 2.6 240 09:19 22.02.2020
2183 Mist 9 1018 87 4000 5.1 240 08:44 22.02.2020
2184 Haze 9 1017 81 5000 5.7 250 08:26 22.02.2020
2185 Drizzle 8 1017 87 4000 3.1 260 07:43 22.02.2020
2186 Drizzle 8 1017 87 4000 3.1 260 07:19 22.02.2020
2187 Drizzle 8 1017 87 5000 3.1 230 06:46 22.02.2020
2188 Rain 7 1016 100 3000 2.6 280 05:54 22.02.2020
2189 Rain 8 1015 87 5000 3.1 240 04:29 22.02.2020
2190 Mist 8 1015 87 5000 5.1 250 02:46 22.02.2020
2191 Mist 8 1015 87 5000 5.1 250 02:21 22.02.2020
2192 Rain 8 1015 87 4000 6.2 250 01:41 22.02.2020
2193 Rain 8 1015 87 4000 6.2 250 01:22 22.02.2020
2194 Rain 8 1015 87 4000 6.2 250 00:40 22.02.2020
2195 Rain 8 1015 87 4000 6.2 250 00:19 22.02.2020
2196 Mist 8 1015 87 4000 3.6 230 23:42 21.02.2020
2197 Mist 8 1015 87 4000 3.6 230 23:21 21.02.2020
2198 Thunderstorm 9 1016 100 4000 3.6 230 22:43 21.02.2020
2199 Thunderstorm 9 1016 100 4000 3.6 230 22:25 21.02.2020
2200 Thunderstorm 10 1016 81 3000 6.2 240 21:57 21.02.2020
2201 Rain 11 1015 66 5000 3.6 230 21:37 21.02.2020
2202 Rain 11 1015 66 5000 3.6 230 21:19 21.02.2020
2203 Rain 11 1015 62 5000 1 230 20:47 21.02.2020
2204 Rain 11 1015 62 5000 1 230 20:27 21.02.2020
2205 Clouds 11 1025 57 6000 3.6 240 19:41 21.02.2020
2206 Clouds 11 1025 57 6000 3.6 240 19:23 21.02.2020
2207 Clouds 12 1025 54 7000 6.7 250 18:55 21.02.2020
2208 Clouds 12 1025 54 7000 6.7 250 18:55 21.02.2020
2209 Clouds 12 1025 54 7000 6.7 250 18:36 21.02.2020
2210 Clouds 12 1025 54 7000 6.7 250 18:18 21.02.2020
2211 Clouds 12 1014 58 7000 4.6 240 17:39 21.02.2020
2212 Clouds 12 1014 58 7000 4.6 240 17:21 21.02.2020
2213 Clouds 15 1014 41 7000 7.2 230 16:57 21.02.2020
2214 Clouds 15 1014 41 7000 7.2 230 16:39 21.02.2020
2215 Clouds 15 1014 41 7000 7.2 230 16:20 21.02.2020
2216 Clouds 16 1014 38 7000 5.1 230 15:44 21.02.2020
2217 Clouds 16 1014 38 7000 5.1 230 15:19 21.02.2020
2218 Clouds 15 1014 44 7000 2.6 240 14:56 21.02.2020
2219 Clouds 15 1014 44 7000 2.6 240 14:38 21.02.2020
2220 Clouds 15 1014 44 7000 2.6 240 14:19 21.02.2020
2221 Clouds 14 1015 54 6000 4.1 220 13:42 21.02.2020
2222 Clouds 14 1015 54 6000 4.1 220 13:23 21.02.2020
2223 Clouds 14 1015 50 6000 6.2 210 12:50 21.02.2020
2224 Clouds 15 1015 44 7000 5.1 200 12:28 21.02.2020
2225 Clouds 14 1017 50 7000 3.1 180 11:59 21.02.2020
2226 Clouds 14 1017 50 7000 3.1 180 11:40 21.02.2020
2227 Clouds 14 1017 50 7000 3.1 180 11:21 21.02.2020
2228 Clouds 13 1017 58 7000 2.1 180 10:56 21.02.2020
2229 Clouds 13 1017 58 7000 2.1 180 10:38 21.02.2020
2230 Clouds 13 1017 58 7000 2.1 180 10:18 21.02.2020
2231 Clouds 11 1018 66 7000 2.1 210 09:43 21.02.2020
2232 Clouds 11 1018 66 7000 2.1 210 09:25 21.02.2020
2233 Haze 9 1018 81 4000 1 210 08:58 21.02.2020
2234 Haze 9 1018 81 4000 1 210 08:40 21.02.2020
2235 Haze 9 1018 81 4000 1 210 08:21 21.02.2020
2236 Mist 6 1018 93 3000 1 270 07:58 21.02.2020
2237 Mist 6 1018 93 3000 1 270 07:40 21.02.2020
2238 Mist 6 1018 93 3000 1 270 07:18 21.02.2020
2239 Mist 5 1018 87 5000 2.75 171 06:47 21.02.2020
2240 Mist 5 1018 87 5000 2.75 171 06:28 21.02.2020
2241 Mist 4 1018 93 5000 2.75 171 05:42 21.02.2020
2242 Mist 4 1018 93 5000 2.13 225 04:33 21.02.2020
2243 Mist 5 1018 87 5000 2.13 225 03:58 21.02.2020
2244 Mist 5 1018 87 5000 2.13 225 03:24 21.02.2020
2245 Mist 5 1018 87 4000 2.6 250 01:51 21.02.2020
2246 Mist 5 1018 87 4000 2.6 250 01:24 21.02.2020
2247 Mist 6 1019 87 4000 2.46 276 00:45 21.02.2020
2248 Mist 6 1019 87 4000 2.46 276 00:23 21.02.2020
2249 Mist 7 1019 87 4000 2.46 276 23:44 20.02.2020
2250 Mist 7 1019 87 4000 2.46 276 23:23 20.02.2020
2251 Clear 7 1019 100 6000 2.54 275 22:56 20.02.2020
2252 Haze 7 1019 81 5000 2.1 240 22:37 20.02.2020
2253 Haze 7 1019 81 5000 2.1 240 22:19 20.02.2020
2254 Haze 8 1019 87 5000 2.6 270 21:56 20.02.2020
2255 Haze 8 1019 87 5000 2.6 270 21:37 20.02.2020
2256 Haze 8 1019 87 5000 2.6 270 21:37 20.02.2020
2257 Haze 8 1019 87 5000 2.6 270 21:37 20.02.2020
2258 Haze 8 1019 87 5000 2.6 270 21:19 20.02.2020
2259 Clouds 9 1020 81 6000 1.5 250 20:54 20.02.2020
2260 Clouds 9 1020 81 6000 1.5 250 20:36 20.02.2020
2261 Clouds 9 1020 81 6000 1.5 250 20:18 20.02.2020
2262 Clouds 9 1020 76 6000 2.6 250 19:56 20.02.2020
2263 Clouds 9 1020 76 6000 2.6 250 19:38 20.02.2020
2264 Clouds 9 1020 76 6000 2.6 250 19:20 20.02.2020
2265 Clouds 10 1019 76 6000 3.6 260 18:39 20.02.2020
2266 Clouds 10 1019 76 6000 3.6 260 18:20 20.02.2020
2267 Haze 11 1019 66 5000 3.6 260 17:54 20.02.2020
2268 Haze 11 1019 66 5000 3.6 260 17:36 20.02.2020
2269 Haze 11 1018 66 5000 5.1 260 17:18 20.02.2020
2270 Haze 11 1018 66 5000 5.1 260 16:54 20.02.2020
2271 Haze 11 1018 66 5000 5.1 260 16:36 20.02.2020
2272 Haze 11 1018 66 5000 5.1 260 16:18 20.02.2020
2273 Haze 12 1018 66 5000 5.7 270 15:41 20.02.2020
2274 Haze 12 1018 66 5000 5.7 270 15:20 20.02.2020
2275 Clouds 11 1018 71 6000 7.2 270 14:56 20.02.2020
2276 Clouds 11 1018 71 6000 7.2 270 14:38 20.02.2020
2277 Clouds 11 1018 71 6000 7.2 270 14:20 20.02.2020
2278 Clouds 11 1018 81 7000 6.7 260 13:44 20.02.2020
2279 Clouds 11 1018 81 7000 6.7 260 13:20 20.02.2020
2280 Clouds 12 1018 66 7000 6.7 290 12:58 20.02.2020
2281 Clouds 12 1018 66 7000 6.7 290 12:40 20.02.2020
2282 Clouds 12 1018 66 7000 6.7 290 12:19 20.02.2020
2283 Drizzle 11 1019 76 6000 6.2 280 11:56 20.02.2020
2284 Drizzle 11 1019 76 6000 6.2 280 11:37 20.02.2020
2285 Drizzle 11 1019 76 6000 6.2 280 11:19 20.02.2020
2286 Drizzle 11 1019 71 7000 4.6 280 10:42 20.02.2020
2287 Drizzle 11 1019 71 7000 4.6 280 10:22 20.02.2020
2288 Haze 11 1019 76 5000 5.7 280 09:55 20.02.2020
2289 Haze 11 1019 76 5000 5.7 280 09:37 20.02.2020
2290 Haze 11 1019 76 5000 5.7 280 09:19 20.02.2020
2291 Drizzle 10 1019 81 5000 5.7 290 08:41 20.02.2020
2292 Drizzle 10 1019 81 5000 5.7 290 08:23 20.02.2020
2293 Mist 10 1019 87 4000 6.2 280 07:47 20.02.2020
2294 Mist 10 1018 87 4000 2.1 280 07:27 20.02.2020
2295 Mist 9 1018 87 4000 4.1 290 06:57 20.02.2020
2296 Mist 9 1018 87 4000 4.1 290 06:37 20.02.2020
2297 Mist 9 1018 93 2500 5.1 280 05:47 20.02.2020
2298 Rain 9 1017 93 3000 2.1 300 05:20 20.02.2020
2299 Rain 9 1017 93 3000 2.1 300 04:47 20.02.2020
2300 Drizzle 9 1017 87 5000 5.1 260 03:46 20.02.2020
2301 Drizzle 9 1017 87 5000 5.1 260 03:46 20.02.2020
2302 Mist 9 1016 87 5000 5.7 270 02:46 20.02.2020
2303 Mist 9 1016 81 5000 4.6 260 01:24 20.02.2020
2304 Mist 9 1016 87 5000 4.6 260 00:42 20.02.2020
2305 Mist 9 1016 87 5000 4.6 260 00:19 20.02.2020
2306 Mist 8 1016 93 4000 4.6 270 23:42 19.02.2020
2307 Mist 8 1016 87 5000 4.6 260 23:18 19.02.2020
2308 Mist 8 1015 87 5000 4.1 270 22:41 19.02.2020
2309 Mist 8 1015 87 5000 4.1 270 22:22 19.02.2020
2310 Mist 8 1015 100 4000 4.1 270 21:58 19.02.2020
2311 Mist 8 1015 100 4000 4.1 270 21:39 19.02.2020
2312 Mist 8 1015 100 4000 4.1 270 21:19 19.02.2020
2313 Drizzle 8 1015 93 4000 4.6 250 20:57 19.02.2020
2314 Drizzle 8 1015 93 4000 4.6 250 20:37 19.02.2020
2315 Drizzle 8 1015 93 4000 4.6 250 20:19 19.02.2020
2316 Drizzle 8 1014 87 5000 6.2 250 19:57 19.02.2020
2317 Drizzle 8 1014 87 5000 6.2 250 19:37 19.02.2020
2318 Drizzle 8 1014 87 5000 6.2 250 19:19 19.02.2020
2319 Drizzle 9 1014 81 5000 5.1 250 18:57 19.02.2020
2320 Drizzle 9 1014 81 5000 5.1 250 18:39 19.02.2020
2321 Drizzle 9 1014 81 5000 5.1 250 18:21 19.02.2020
2322 Haze 9 1014 76 5000 3.1 270 17:44 19.02.2020
2323 Drizzle 9 1014 81 5000 5.1 260 17:20 19.02.2020
2324 Drizzle 10 1013 76 4000 6.2 250 16:58 19.02.2020
2325 Drizzle 10 1013 76 4000 6.2 250 16:38 19.02.2020
2326 Drizzle 10 1013 76 4000 6.2 250 16:18 19.02.2020
2327 Rain 10 1013 81 5000 5.1 270 15:43 19.02.2020
2328 Rain 10 1013 81 5000 5.1 270 15:25 19.02.2020
2329 Rain 11 1013 71 5000 6.7 250 14:59 19.02.2020
2330 Rain 11 1013 71 5000 6.7 250 14:40 19.02.2020
2331 Rain 11 1013 71 5000 6.7 250 14:21 19.02.2020
2332 Drizzle 13 1013 62 5000 7.7 250 13:42 19.02.2020
2333 Haze 13 1012 62 5000 4.1 270 13:23 19.02.2020
2334 Haze 13 1013 66 5000 5.7 220 12:57 19.02.2020
2335 Haze 13 1013 66 5000 5.7 220 12:37 19.02.2020
2336 Haze 13 1013 66 5000 5.7 220 12:18 19.02.2020
2337 Haze 13 1013 66 5000 4.6 220 11:39 19.02.2020
2338 Haze 13 1013 66 5000 4.6 220 11:20 19.02.2020
2339 Haze 12 1014 76 5000 3.1 250 10:58 19.02.2020
2340 Haze 12 1014 76 5000 3.1 250 10:38 19.02.2020
2341 Haze 12 1014 76 5000 3.1 250 10:20 19.02.2020
2342 Haze 11 1014 76 3000 4.1 250 09:59 19.02.2020
2343 Haze 11 1014 76 3000 4.1 250 09:39 19.02.2020
2344 Haze 11 1014 76 3000 4.1 250 09:19 19.02.2020
2345 Mist 10 1014 87 3000 3.6 250 08:48 19.02.2020
2346 Mist 10 1014 87 3000 3.6 250 08:24 19.02.2020
2347 Drizzle 10 1014 87 2500 3.6 250 07:54 19.02.2020
2348 Drizzle 10 1014 87 2500 3.6 250 07:36 19.02.2020
2349 Drizzle 10 1014 87 2500 3.6 250 07:18 19.02.2020
2350 Drizzle 10 1014 87 2000 3.1 250 06:36 19.02.2020
2351 Mist 10 1014 93 2000 3.1 250 05:26 19.02.2020
2352 Mist 11 1014 81 5000 2.6 250 03:52 19.02.2020
2353 Mist 10 1014 87 5000 1 100 02:35 19.02.2020
2354 Mist 11 1014 87 5000 4.89 106 01:41 19.02.2020
2355 Mist 11 1014 87 5000 6.16 85 01:22 19.02.2020
2356 Haze 11 1015 81 5000 6.16 85 00:39 19.02.2020
2357 Haze 11 1015 81 5000 6.16 85 00:19 19.02.2020
2358 Haze 11 1015 87 5000 6.16 85 23:39 18.02.2020
2359 Haze 11 1015 87 5000 7.55 96 23:19 18.02.2020
2360 Haze 11 1015 87 5000 7.55 96 23:19 18.02.2020
2361 Rain 12 1015 76 4000 1 240 22:55 18.02.2020
2362 Rain 12 1015 76 4000 1 240 22:36 18.02.2020
2363 Rain 12 1015 76 4000 1 240 22:18 18.02.2020
2364 -273 0 0 0 0 0 21:54 18.02.2020
2365 Haze 12 1015 76 5000 7.55 96 21:36 18.02.2020
2366 Haze 12 1015 76 5000 7.55 96 21:36 18.02.2020
2367 Haze 12 1015 76 5000 7.55 96 21:18 18.02.2020
2368 Haze 14 1015 62 5000 2.1 170 20:40 18.02.2020
2369 Haze 14 1015 62 5000 2.1 170 20:22 18.02.2020
2370 Haze 14 1015 58 5000 2.1 170 19:59 18.02.2020
2371 Haze 14 1015 58 5000 2.1 170 19:41 18.02.2020
2372 Haze 14 1015 58 5000 2.1 170 19:19 18.02.2020
2373 Haze 14 1014 54 5000 8.14 92 18:55 18.02.2020
2374 Haze 14 1014 54 5000 8.14 92 18:37 18.02.2020
2375 Haze 14 1014 54 5000 8.14 92 18:18 18.02.2020
2376 Haze 14 1015 54 5000 8.14 92 17:40 18.02.2020
2377 Haze 14 1015 54 5000 3.46 131 17:19 18.02.2020
2378 Haze 15 1014 47 5000 1.5 80 16:40 18.02.2020
2379 Haze 15 1014 47 5000 1.5 80 16:22 18.02.2020
2380 Haze 15 1014 47 5000 1.5 80 16:22 18.02.2020
2381 Haze 16 1015 44 5000 3.1 110 15:56 18.02.2020
2382 Haze 16 1015 44 5000 3.1 110 15:37 18.02.2020
2383 Haze 16 1015 44 5000 3.1 110 15:18 18.02.2020
2384 Haze 16 1015 44 5000 2.1 120 14:55 18.02.2020
2385 Haze 16 1015 44 5000 2.1 120 14:55 18.02.2020
2386 Haze 16 1015 44 5000 2.1 120 14:37 18.02.2020
2387 Haze 16 1015 44 5000 2.1 120 14:19 18.02.2020
2388 Haze 16 1015 48 5000 3.1 90 13:41 18.02.2020
2389 Haze 16 1015 48 5000 3.1 90 13:21 18.02.2020
2390 Haze 15 1016 54 5000 2.6 80 12:54 18.02.2020
2391 Haze 15 1016 54 5000 2.6 80 12:36 18.02.2020
2392 Haze 15 1016 54 5000 2.6 80 12:18 18.02.2020
2393 Haze 14 1016 54 5000 7.2 110 11:42 18.02.2020
2394 Haze 13 1017 66 4000 2.1 80 11:23 18.02.2020
2395 Haze 12 1019 66 3500 2.1 80 10:55 18.02.2020
2396 Haze 12 1019 66 3500 2.1 80 10:36 18.02.2020
2397 Haze 12 1019 66 3500 2.1 80 10:18 18.02.2020
2398 Haze 11 1019 66 5000 6.2 110 09:55 18.02.2020
2399 Haze 10 1019 76 3000 2.6 50 09:36 18.02.2020
2400 Haze 10 1019 76 3000 2.6 50 09:18 18.02.2020
2401 Haze 9 1019 76 4000 2.6 50 08:41 18.02.2020
2402 Haze 9 1019 76 4000 2.6 50 08:20 18.02.2020
2403 Haze 7 1018 81 4000 1.5 80 07:56 18.02.2020
2404 Haze 7 1018 81 4000 1.5 80 07:31 18.02.2020
2405 Haze 7 1018 81 4000 1.5 80 06:56 18.02.2020
2406 Haze 7 1018 81 4000 1.5 100 06:37 18.02.2020
2407 Haze 7 1018 81 5000 7.88 100 05:59 18.02.2020
2408 Haze 7 1018 81 5000 7.88 100 05:33 18.02.2020
2409 Haze 7 1017 75 5000 2.1 90 04:26 18.02.2020
2410 Clear 7 1017 75 7000 2.1 70 02:59 18.02.2020
2411 Clear 7 1018 81 7000 5.98 85 01:59 18.02.2020
2412 Clear 7 1018 81 7000 6.42 84 00:56 18.02.2020
2413 Clear 7 1018 81 7000 6.42 84 00:22 18.02.2020
2414 Clear 8 1017 75 7000 6.42 84 23:55 17.02.2020
2415 Clear 8 1017 75 7000 6.42 84 23:37 17.02.2020
2416 -273 0 0 0 0 0 23:18 17.02.2020
2417 Clear 8 1017 75 7000 4.7 80 22:41 17.02.2020
2418 Clear 8 1017 81 7000 4.7 80 22:21 17.02.2020
2419 Clear 9 1018 70 6000 4.7 80 21:59 17.02.2020
2420 Clear 9 1018 70 6000 4.7 80 21:38 17.02.2020
2421 Clear 9 1018 70 6000 4.7 80 21:18 17.02.2020
2422 Clear 10 1018 66 6000 1.5 90 20:42 17.02.2020
2423 Clear 10 1018 66 6000 1.5 90 20:21 17.02.2020
2424 Clear 10 1018 66 6000 1.5 90 20:21 17.02.2020
2425 Clear 10 1018 66 6000 1.81 123 19:58 17.02.2020
2426 Clear 10 1018 66 6000 1.81 123 19:39 17.02.2020
2427 Clear 10 1018 66 6000 1.81 123 19:20 17.02.2020
2428 Haze 11 1018 62 5000 2.1 120 18:38 17.02.2020
2429 Haze 11 1018 62 5000 2.1 120 18:38 17.02.2020
2430 Haze 11 1018 62 5000 2.1 120 18:20 17.02.2020
2431 Haze 12 1017 62 4000 1 120 17:58 17.02.2020
2432 Haze 12 1017 62 4000 1 120 17:58 17.02.2020
2433 Haze 12 1017 62 4000 1 120 17:37 17.02.2020
2434 Haze 12 1017 62 4000 1 120 17:37 17.02.2020
2435 Haze 12 1017 62 4000 1 120 17:19 17.02.2020
2436 Haze 12 1017 62 4000 1 120 17:19 17.02.2020
2437 -273 0 0 0 0 0 16:55 17.02.2020
2438 Haze 14 1017 47 5000 1.5 200 16:37 17.02.2020
2439 Haze 14 1017 47 5000 1.5 200 16:18 17.02.2020
2440 Haze 15 1017 51 4000 1.5 100 15:44 17.02.2020
2441 Haze 15 1017 51 4000 1.5 100 15:44 17.02.2020
2442 Haze 15 1017 51 4000 1.5 100 15:26 17.02.2020
2443 Haze 15 1017 51 4000 1.5 150 14:55 17.02.2020
2444 Haze 15 1017 51 4000 1.5 150 14:37 17.02.2020
2445 Haze 15 1017 51 4000 1.5 150 14:19 17.02.2020
2446 Haze 15 1017 51 4000 1.5 150 14:19 17.02.2020
2447 Haze 15 1017 51 4000 1.88 140 13:40 17.02.2020
2448 Haze 15 1017 51 4000 1.88 140 13:20 17.02.2020
2449 Haze 14 1017 54 5000 1.08 156 12:57 17.02.2020
2450 Haze 14 1017 54 5000 1.08 156 12:39 17.02.2020
2451 Haze 14 1017 54 5000 1.08 156 12:21 17.02.2020
2452 Haze 13 1018 54 5000 2.1 100 11:46 17.02.2020
2453 Haze 13 1018 54 5000 2.1 100 11:26 17.02.2020
2454 Haze 12 1018 58 5000 2.1 110 10:58 17.02.2020
2455 Haze 12 1018 58 5000 2.1 110 10:39 17.02.2020
2456 Haze 12 1018 58 5000 2.1 110 10:20 17.02.2020
2457 Haze 10 1019 76 5000 2.1 140 09:57 17.02.2020
2458 Haze 10 1019 76 5000 2.1 140 09:38 17.02.2020
2459 Haze 10 1019 76 5000 2.1 140 09:19 17.02.2020
2460 Haze 10 1019 76 5000 4.1 140 08:42 17.02.2020
2461 Smoke 9 1019 66 4000 2.58 144 08:23 17.02.2020
2462 Smoke 6 1019 81 4000 2.1 0 07:59 17.02.2020
2463 Smoke 6 1019 81 4000 2.1 0 07:39 17.02.2020
2464 -273 0 0 0 0 0 07:21 17.02.2020
2465 Haze 5 1018 81 4500 1.5 0 06:46 17.02.2020
2466 Haze 5 1018 81 4500 1.5 0 06:27 17.02.2020
2467 Haze 5 1017 81 5000 1.5 0 05:40 17.02.2020
2468 Haze 5 1017 81 5000 1 140 04:39 17.02.2020
2469 Clear 6 1017 75 6000 1 140 02:59 17.02.2020
2470 Clear 6 1017 70 6000 3.06 213 01:25 17.02.2020
2471 Clear 7 1017 65 6000 3.06 213 00:39 17.02.2020
2472 Clear 7 1017 65 6000 3.06 213 00:19 17.02.2020
2473 Clear 8 1017 57 6000 3.06 213 23:52 16.02.2020
2474 Clear 8 1017 57 6000 3.06 213 23:28 16.02.2020
2475 Clear 8 1017 61 6000 1.5 220 22:57 16.02.2020
2476 Clear 8 1017 61 6000 1.5 220 22:38 16.02.2020
2477 Clear 8 1017 61 6000 1.5 220 22:20 16.02.2020
2478 Clear 8 1017 61 6000 1.5 220 22:20 16.02.2020
2479 Clear 9 1016 61 6000 1.89 251 21:56 16.02.2020
2480 Clear 9 1016 61 6000 1.89 251 21:56 16.02.2020
2481 Clear 9 1016 61 6000 1.89 251 21:38 16.02.2020
2482 Clear 9 1016 61 6000 1.89 251 21:19 16.02.2020
2483 Clear 9 1016 57 6000 1.89 251 20:56 16.02.2020
2484 Clear 9 1016 57 6000 1.89 251 20:38 16.02.2020
2485 Clouds 9 1016 57 6000 3.07 303 20:20 16.02.2020
2486 Haze 10 1016 71 5000 1.5 330 19:56 16.02.2020
2487 Haze 10 1016 71 5000 1.5 330 19:37 16.02.2020
2488 Haze 10 1016 71 5000 1.5 330 19:18 16.02.2020
2489 Haze 10 1016 71 5000 3.1 300 18:42 16.02.2020
2490 Haze 11 1016 53 5000 1.5 320 18:23 16.02.2020
2491 Haze 11 1016 66 5000 4.6 280 17:47 16.02.2020
2492 Haze 12 1015 62 4000 1.5 250 17:21 16.02.2020
2493 Haze 13 1015 62 4000 5.1 320 16:59 16.02.2020
2494 Haze 13 1015 62 4000 5.1 320 16:39 16.02.2020
2495 Haze 13 1015 62 4000 5.1 320 16:21 16.02.2020
2496 Haze 13 1015 62 4000 5.1 320 16:21 16.02.2020
2497 Haze 14 1014 47 5000 5.1 320 15:59 16.02.2020
2498 Haze 14 1014 47 5000 5.1 320 15:40 16.02.2020
2499 Haze 14 1014 47 5000 5.1 320 15:21 16.02.2020
2500 Haze 15 1014 42 5000 4.1 320 14:41 16.02.2020
2501 Haze 15 1014 42 5000 4.1 320 14:23 16.02.2020
2502 Haze 16 1013 48 5000 4.1 310 13:55 16.02.2020
2503 Haze 16 1013 48 5000 4.1 310 13:36 16.02.2020
2504 Haze 16 1013 48 5000 4.1 310 13:18 16.02.2020
2505 Haze 15 1013 58 5000 4.6 250 12:39 16.02.2020
2506 Haze 15 1013 58 5000 4.6 250 12:19 16.02.2020
2507 Haze 15 1014 54 5000 3.6 230 11:40 16.02.2020
2508 Haze 15 1014 54 5000 3.6 230 11:20 16.02.2020
2509 Haze 15 1014 51 5000 3.6 230 10:58 16.02.2020
2510 Haze 15 1014 51 5000 3.6 230 10:40 16.02.2020
2511 Haze 15 1014 51 5000 3.6 230 10:21 16.02.2020
2512 Haze 15 1014 51 5000 3.6 230 10:21 16.02.2020
2513 Haze 13 1014 54 4000 3.6 240 09:59 16.02.2020
2514 Haze 13 1014 54 4000 3.6 240 09:38 16.02.2020
2515 Haze 13 1014 54 4000 3.6 240 09:20 16.02.2020
2516 Haze 10 1015 61 5000 4.85 310 08:56 16.02.2020
2517 Dust 11 1015 66 2000 1.5 240 08:38 16.02.2020
2518 Dust 11 1015 66 2000 1.5 240 08:18 16.02.2020
2519 Dust 8 1014 71 1000 1 80 07:41 16.02.2020
2520 Mist 7 1014 93 4000 4.13 287 06:58 16.02.2020
2521 Haze 7 1014 75 1500 1 240 06:29 16.02.2020
2522 Haze 7 1016 70 3000 2.1 310 04:37 16.02.2020
2523 Haze 7 1014 70 4000 3.14 326 03:22 16.02.2020
2524 Haze 8 1014 66 4000 1.5 210 01:58 16.02.2020
2525 Haze 8 1014 66 4000 1.5 210 01:39 16.02.2020
2526 Haze 8 1014 66 4000 1.5 210 01:20 16.02.2020
2527 Haze 8 1014 70 4000 1 230 00:51 16.02.2020
2528 Haze 8 1014 70 4000 1 230 00:27 16.02.2020
2529 Haze 9 1015 70 4000 2.73 311 23:44 15.02.2020
2530 Haze 9 1015 70 4000 2.73 311 23:25 15.02.2020
2531 Clear 8 1015 70 7000 2.6 60 22:59 15.02.2020
2532 Clear 9 1015 66 7000 2.6 50 22:40 15.02.2020
2533 Clear 9 1015 66 7000 2.6 50 22:19 15.02.2020
2534 Haze 10 1016 66 4000 3.09 307 21:56 15.02.2020
2535 Haze 10 1016 66 4000 3.09 307 21:37 15.02.2020
2536 Haze 10 1016 66 4000 3.09 307 21:19 15.02.2020
2537 Haze 10 1016 66 4000 3.09 307 20:39 15.02.2020
2538 Haze 10 1016 66 4000 1.64 45 20:21 15.02.2020
2539 Haze 12 1016 58 5000 1.55 61 19:44 15.02.2020
2540 Haze 12 1016 58 5000 1.55 61 19:22 15.02.2020
2541 Haze 13 1016 54 5000 1 140 18:44 15.02.2020
2542 Haze 13 1016 54 5000 1 140 18:23 15.02.2020
2543 Haze 14 1016 47 4500 2.1 90 17:58 15.02.2020
2544 Haze 14 1016 47 4500 2.1 90 17:58 15.02.2020
2545 Haze 14 1016 47 4500 2.1 90 17:38 15.02.2020
2546 Haze 14 1016 47 4500 2.1 90 17:20 15.02.2020
2547 Haze 17 1015 42 3500 2.6 20 16:43 15.02.2020
2548 Haze 17 1015 42 3500 2.6 20 16:24 15.02.2020
2549 Haze 19 1015 32 2500 2.1 50 15:59 15.02.2020
2550 Haze 19 1015 32 2500 2.1 50 15:41 15.02.2020
2551 Haze 19 1015 32 2500 2.1 50 15:22 15.02.2020
2552 Haze 20 1015 34 6000 2.1 50 14:45 15.02.2020
2553 Haze 20 1015 34 6000 2.1 50 14:19 15.02.2020
2554 Clouds 19 1015 30 6000 3.6 90 13:56 15.02.2020
2555 Haze 19 1015 31 4000 1.5 110 13:38 15.02.2020
2556 Haze 19 1015 31 4000 1.5 110 13:20 15.02.2020
2557 Clouds 19 1015 30 6000 4.1 90 12:42 15.02.2020
2558 Haze 18 1016 36 4000 2.6 130 12:24 15.02.2020
2559 Haze 15 1017 32 4000 3.1 110 11:52 15.02.2020
2560 Haze 15 1017 32 4000 3.1 110 11:33 15.02.2020
2561 Haze 13 1018 47 4000 3.1 100 10:58 15.02.2020
2562 Haze 13 1018 47 4000 3.1 100 10:58 15.02.2020
2563 Haze 13 1018 47 4000 3.1 100 10:39 15.02.2020
2564 Haze 13 1018 47 4000 3.1 100 10:39 15.02.2020
2565 Haze 13 1018 47 4000 3.1 100 10:20 15.02.2020
2566 Dust 13 1017 50 4000 7.7 110 09:44 15.02.2020
2567 Haze 11 1019 50 4000 3.6 100 09:25 15.02.2020
2568 Haze 11 1018 46 5000 7.2 80 08:46 15.02.2020
2569 Haze 9 1020 42 4000 3.6 80 08:26 15.02.2020
2570 Haze 8 1020 56 4000 3.1 90 07:59 15.02.2020
2571 Haze 8 1020 56 4000 3.1 90 07:39 15.02.2020
2572 Haze 8 1020 56 4000 3.1 90 07:21 15.02.2020
2573 Haze 7 1020 56 4000 1.5 60 06:38 15.02.2020
2574 Haze 7 1020 56 4000 1.5 60 06:18 15.02.2020
2575 Clouds 8 1019 62 6000 3.1 70 04:50 15.02.2020
2576 Clouds 8 1019 62 6000 3.1 70 04:24 15.02.2020
2577 Clouds 8 1019 62 6000 3.1 70 04:24 15.02.2020
2578 Haze 9 1021 62 5000 2.1 70 02:58 15.02.2020
2579 Haze 9 1021 62 5000 2.1 70 02:26 15.02.2020
2580 Clouds 9 1020 65 6000 5.1 100 01:58 15.02.2020
2581 Haze 9 1021 53 5000 2.1 90 01:36 15.02.2020
2582 Haze 10 1021 57 5000 8.36 112 00:30 15.02.2020
2583 Haze 10 1021 57 5000 8.36 112 23:57 14.02.2020
2584 Haze 10 1022 57 5000 1.5 90 23:36 14.02.2020
2585 Haze 10 1022 57 5000 1.5 90 23:18 14.02.2020
2586 Haze 10 1022 57 5000 1.5 90 22:42 14.02.2020
2587 Haze 10 1023 61 5000 1.5 90 22:22 14.02.2020
2588 Haze 11 1023 66 5000 8.25 109 21:49 14.02.2020
2589 Haze 11 1023 66 5000 8.25 109 21:31 14.02.2020
2590 Haze 11 1023 66 5000 8.25 109 20:56 14.02.2020
2591 Haze 11 1023 62 5000 1.5 70 20:38 14.02.2020
2592 Haze 11 1023 62 5000 1.5 70 20:19 14.02.2020
2593 Haze 11 1024 62 5000 1.5 50 19:41 14.02.2020
2594 Haze 11 1024 62 5000 1.5 50 19:23 14.02.2020
2595 Haze 11 1024 66 5000 1.5 60 18:57 14.02.2020
2596 Haze 11 1024 66 5000 1.5 60 18:39 14.02.2020
2597 Haze 11 1024 66 5000 1.5 60 18:20 14.02.2020
2598 Clouds 12 1022 62 6000 7.2 80 17:44 14.02.2020
2599 Haze 11 1024 62 5000 3.6 100 17:23 14.02.2020
2600 Haze 11 1024 62 5000 3.6 100 17:22 14.02.2020
2601 Clouds 12 1022 62 6000 7.2 80 16:59 14.02.2020
2602 Clouds 12 1022 62 6000 7.2 80 16:41 14.02.2020
2603 Haze 13 1023 58 5000 2.6 110 16:22 14.02.2020
2604 Haze 14 1023 58 5000 3.1 90 15:56 14.02.2020
2605 Haze 14 1023 58 5000 3.1 90 15:38 14.02.2020
2606 Haze 14 1023 58 5000 3.1 90 15:20 14.02.2020
2607 Haze 14 1024 58 5000 4.1 100 14:59 14.02.2020
2608 Haze 14 1024 58 5000 4.1 100 14:40 14.02.2020
2609 Haze 14 1024 58 5000 4.1 100 14:22 14.02.2020
2610 Clouds 14 1024 58 6000 6.7 90 13:55 14.02.2020
2611 Clouds 14 1024 58 6000 6.7 90 13:55 14.02.2020
2612 Clouds 14 1024 58 6000 6.7 90 13:37 14.02.2020
2613 Clouds 14 1024 58 6000 6.7 90 13:19 14.02.2020
2614 Clouds 13 1025 58 6000 4.1 100 12:56 14.02.2020
2615 Clouds 13 1025 58 6000 4.1 100 12:38 14.02.2020
2616 Clouds 13 1025 58 6000 4.1 100 12:19 14.02.2020
2617 Clouds 13 1025 58 6000 4.1 100 11:55 14.02.2020
2618 Clouds 12 1025 62 7000 5.1 100 11:36 14.02.2020
2619 Clouds 12 1025 62 7000 5.1 100 11:18 14.02.2020
2620 Clouds 12 1025 62 7000 5.1 100 10:41 14.02.2020
2621 Clouds 11 1026 62 7000 7.2 90 10:22 14.02.2020
2622 Clouds 10 1027 66 6000 6.2 80 09:45 14.02.2020
2623 Clouds 10 1027 66 6000 6.2 80 09:24 14.02.2020
2624 Haze 8 1026 75 5000 3.6 70 08:58 14.02.2020
2625 Haze 8 1026 75 5000 3.6 70 08:39 14.02.2020
2626 Haze 8 1026 75 5000 3.6 70 08:21 14.02.2020
2627 Mist 7 1025 87 4000 2.1 80 07:49 14.02.2020
2628 Mist 7 1025 87 4000 2.1 80 07:29 14.02.2020
2629 Mist 7 1025 87 3500 8.3 87 06:39 14.02.2020
2630 Mist 7 1025 87 3500 8.3 87 06:20 14.02.2020
2631 Mist 7 1024 93 4000 8.3 87 05:29 14.02.2020
2632 Mist 7 1023 93 3000 3.87 90 03:49 14.02.2020
2633 Mist 7 1024 93 3000 1 190 02:58 14.02.2020
2634 Mist 7 1024 93 3000 1 190 01:57 14.02.2020
2635 Mist 7 1024 93 3000 1.28 17 00:59 14.02.2020
2636 Mist 7 1024 93 3000 1.28 17 00:32 14.02.2020
2637 Clear 7 1024 93 7000 1.28 17 23:59 13.02.2020
2638 Clear 7 1024 93 7000 1.28 17 23:41 13.02.2020
2639 Mist 8 1024 93 3000 1.91 347 23:19 13.02.2020
2640 Mist 9 1025 87 3000 1.91 347 22:40 13.02.2020
2641 Mist 9 1025 87 3000 1.91 347 22:19 13.02.2020
2642 Mist 9 1025 93 3000 1.91 347 21:58 13.02.2020
2643 Mist 9 1025 93 3000 1.91 347 21:40 13.02.2020
2644 Mist 9 1025 93 3000 1.91 347 21:20 13.02.2020
2645 Haze 10 1024 87 4000 1.91 347 20:43 13.02.2020
2646 Haze 10 1024 87 4000 1.91 347 20:23 13.02.2020
2647 Haze 10 1024 76 5000 3.12 332 19:58 13.02.2020
2648 Haze 10 1024 76 5000 3.12 332 19:40 13.02.2020
2649 Haze 10 1024 76 5000 3.12 332 19:21 13.02.2020
2650 Clear 11 1024 76 7000 1.5 240 18:59 13.02.2020
2651 Clear 11 1024 76 7000 1.5 240 18:41 13.02.2020
2652 Clear 11 1024 76 7000 1.5 240 18:22 13.02.2020
2653 Haze 12 1023 71 5000 1.5 250 17:58 13.02.2020
2654 Haze 12 1023 71 5000 1.5 250 17:37 13.02.2020
2655 Haze 12 1023 71 5000 1.5 250 17:19 13.02.2020
2656 Haze 14 1023 62 5000 2.6 250 16:55 13.02.2020
2657 Haze 14 1023 62 5000 2.6 250 16:36 13.02.2020
2658 Haze 14 1023 62 5000 2.6 250 16:36 13.02.2020
2659 Haze 14 1023 62 5000 2.6 250 16:18 13.02.2020
2660 Clouds 15 1022 58 7000 2.1 250 15:55 13.02.2020
2661 Clouds 15 1022 58 7000 2.1 250 15:36 13.02.2020
2662 Clouds 15 1022 58 7000 2.1 250 15:18 13.02.2020
2663 Clouds 16 1022 55 7000 4.1 240 14:55 13.02.2020
2664 Clouds 16 1022 55 7000 4.1 240 14:37 13.02.2020
2665 Clouds 16 1022 55 7000 4.1 240 14:37 13.02.2020
2666 Clouds 16 1022 55 7000 4.1 240 14:19 13.02.2020
2667 Clouds 16 1022 47 7000 3.6 230 13:42 13.02.2020
2668 Clouds 16 1022 47 7000 3.6 230 13:18 13.02.2020
2669 Clouds 15 1023 58 7000 5.1 240 12:54 13.02.2020
2670 Clouds 15 1023 58 7000 5.1 240 12:36 13.02.2020
2671 Clouds 15 1023 58 7000 5.1 240 12:18 13.02.2020
2672 Clouds 14 1023 58 6000 4.6 240 11:43 13.02.2020
2673 Clouds 14 1023 58 6000 4.6 240 11:19 13.02.2020
2674 Clouds 13 1023 66 7000 3.6 230 10:46 13.02.2020
2675 Clouds 13 1023 66 7000 3.6 230 10:27 13.02.2020
2676 Clouds 12 1023 66 7000 2.6 230 09:51 13.02.2020
2677 Clouds 12 1023 66 7000 2.6 230 09:26 13.02.2020
2678 Clear 10 1023 76 7000 3.6 230 08:54 13.02.2020
2679 -273 0 0 0 0 0 08:36 13.02.2020
2680 Clear 10 1023 76 7000 3.6 230 08:18 13.02.2020
2681 Haze 7 1023 76 3000 3.1 240 07:38 13.02.2020
2682 Haze 7 1023 76 3000 3.1 240 07:20 13.02.2020
2683 Haze 6 1023 81 3000 1.5 240 06:44 13.02.2020
2684 Haze 6 1023 81 3000 1.5 240 06:18 13.02.2020
2685 Mist 5 1022 87 4000 1.5 210 05:30 13.02.2020
2686 Mist 4 1022 93 4000 1.5 200 04:25 13.02.2020
2687 Mist 5 1022 93 4000 1 220 03:51 13.02.2020
2688 Mist 5 1022 93 4000 1 220 03:20 13.02.2020
2689 Mist 5 1022 93 3000 1 220 02:50 13.02.2020
2690 Mist 5 1022 93 3000 1 220 02:19 13.02.2020
2691 Mist 5 1023 93 3000 1 180 01:32 13.02.2020
2692 Mist 6 1023 87 3000 1 180 00:39 13.02.2020
2693 Mist 6 1023 87 3000 1 180 00:21 13.02.2020
2694 Mist 6 1023 93 3000 2.76 282 23:39 12.02.2020
2695 Mist 6 1023 93 3000 1.14 260 23:21 12.02.2020
2696 Haze 6 1023 93 5000 1.14 260 22:45 12.02.2020
2697 Mist 7 1024 87 4000 1.14 260 22:26 12.02.2020
2698 Haze 8 1024 87 4000 1 260 21:58 12.02.2020
2699 Haze 8 1024 87 4000 1 260 21:40 12.02.2020
2700 Haze 8 1024 87 4000 1 260 21:19 12.02.2020
2701 Clear 8 1024 81 6000 1 330 20:57 12.02.2020
2702 Haze 8 1024 81 4000 1 260 20:39 12.02.2020
2703 Haze 8 1024 81 4000 1 260 20:20 12.02.2020
2704 Clear 8 1024 87 6000 1.5 60 19:55 12.02.2020
2705 Haze 9 1023 81 5000 1 260 19:36 12.02.2020
2706 Haze 9 1023 81 5000 1 260 19:36 12.02.2020
2707 Haze 9 1023 81 5000 1 260 19:18 12.02.2020
2708 Clear 9 1023 87 6000 1.5 280 18:45 12.02.2020
2709 Clear 11 1023 71 6000 2.1 250 18:19 12.02.2020
2710 Clouds 11 1023 71 6000 3.6 250 17:43 12.02.2020
2711 Clouds 11 1023 71 6000 3.6 250 17:21 12.02.2020
2712 Haze 12 1022 66 5000 2.6 250 16:59 12.02.2020
2713 Clouds 13 1022 58 7000 4.1 250 16:40 12.02.2020
2714 Clouds 13 1022 58 7000 4.1 250 16:20 12.02.2020
2715 Clouds 13 1022 62 6000 6.2 250 15:43 12.02.2020
2716 Clouds 13 1022 62 6000 6.2 250 15:24 12.02.2020
2717 Clouds 13 1022 71 6000 5.7 235 14:59 12.02.2020
2718 Clouds 13 1022 71 6000 5.7 235 14:41 12.02.2020
2719 Clouds 13 1022 71 6000 5.7 235 14:20 12.02.2020
2720 Clouds 13 1022 62 6000 5.1 240 13:57 12.02.2020
2721 Clouds 13 1022 62 6000 5.1 240 13:39 12.02.2020
2722 Clouds 13 1022 62 6000 5.1 240 13:20 12.02.2020
2723 Haze 13 1023 66 5000 3.1 230 12:57 12.02.2020
2724 Haze 13 1023 66 5000 3.1 230 12:57 12.02.2020
2725 Haze 13 1023 66 5000 3.1 230 12:38 12.02.2020
2726 Haze 13 1023 66 5000 3.1 230 12:18 12.02.2020
2727 Clouds 12 1023 71 6000 6.2 250 11:58 12.02.2020
2728 Clouds 12 1023 71 6000 6.2 250 11:39 12.02.2020
2729 Clouds 12 1023 71 6000 6.2 250 11:20 12.02.2020
2730 Haze 11 1024 76 5000 4.6 240 10:55 12.02.2020
2731 Haze 11 1024 76 5000 4.6 240 10:37 12.02.2020
2732 Haze 11 1024 76 5000 4.6 240 10:19 12.02.2020
2733 Clouds 11 1024 66 6000 7.2 260 09:42 12.02.2020
2734 Haze 10 1024 76 4000 3.1 240 09:24 12.02.2020
2735 Clouds 10 1024 71 6000 9.3 220 08:58 12.02.2020
2736 Mist 9 1023 81 4000 4.1 240 08:38 12.02.2020
2737 Mist 9 1023 81 4000 4.1 240 08:20 12.02.2020
2738 Mist 9 1023 81 4000 4.1 240 08:20 12.02.2020
2739 Mist 9 1023 81 4000 4.1 240 08:20 12.02.2020
2740 Drizzle 7 1023 93 2500 3.6 240 07:45 12.02.2020
2741 Drizzle 7 1023 93 2500 3.6 240 07:24 12.02.2020
2742 Drizzle 7 1022 93 2500 3.6 240 06:59 12.02.2020
2743 Drizzle 7 1022 93 2500 3.6 240 06:24 12.02.2020
2744 Drizzle 7 1022 93 3000 5.1 250 05:44 12.02.2020
2745 Drizzle 7 1022 93 3000 5.1 250 05:21 12.02.2020
2746 Drizzle 7 1021 93 3000 5.1 240 04:41 12.02.2020
2747 Drizzle 7 1021 93 4000 5.1 240 03:43 12.02.2020
2748 Drizzle 7 1021 93 4000 5.1 240 03:24 12.02.2020
2749 Drizzle 7 1021 93 4000 6.2 240 02:41 12.02.2020
2750 Drizzle 7 1021 93 4000 6.2 240 02:21 12.02.2020
2751 Drizzle 7 1022 87 7000 6.2 240 01:27 12.02.2020
2752 Drizzle 7 1022 81 6000 5.1 240 00:40 12.02.2020
2753 Drizzle 7 1022 81 6000 5.1 240 00:21 12.02.2020
2754 Clouds 6 1022 75 10000 5.1 240 23:47 11.02.2020
2755 Clouds 6 1022 75 10000 5.1 240 23:29 11.02.2020
2756 Clouds 7 1022 70 10000 6.2 240 22:56 11.02.2020
2757 Clouds 7 1022 70 10000 6.2 240 22:56 11.02.2020
2758 Clouds 7 1022 70 10000 6.2 240 22:38 11.02.2020
2759 Clouds 7 1022 70 10000 6.2 240 22:20 11.02.2020
2760 Clouds 7 1022 75 10000 5.1 240 21:57 11.02.2020
2761 Clouds 7 1022 75 10000 5.1 240 21:38 11.02.2020
2762 Clouds 7 1022 75 10000 5.1 240 21:18 11.02.2020
2763 Clouds 7 1022 75 10000 5.1 240 20:57 11.02.2020
2764 Clouds 7 1022 75 10000 5.1 250 20:38 11.02.2020
2765 Clouds 7 1022 75 10000 5.1 250 20:19 11.02.2020
2766 Clouds 7 1022 75 10000 5.1 250 20:19 11.02.2020
2767 Clouds 7 1022 75 10000 5.1 250 19:56 11.02.2020
2768 Clouds 7 1022 81 6000 5.1 250 19:38 11.02.2020
2769 Clouds 7 1022 81 6000 5.1 250 19:20 11.02.2020
2770 Drizzle 7 1022 81 5000 4.6 240 18:44 11.02.2020
2771 Drizzle 7 1022 81 5000 4.6 240 18:26 11.02.2020
2772 Drizzle 7 1022 87 4000 2.6 240 17:57 11.02.2020
2773 Drizzle 7 1022 87 4000 2.6 240 17:38 11.02.2020
2774 Drizzle 7 1022 87 4000 2.6 240 17:19 11.02.2020
2775 Drizzle 7 1021 81 4000 5.1 230 16:58 11.02.2020
2776 Drizzle 7 1021 81 4000 5.1 230 16:38 11.02.2020
2777 Drizzle 7 1021 81 4000 5.1 230 16:20 11.02.2020
2778 Drizzle 7 1022 81 4000 4.6 250 15:57 11.02.2020
2779 Drizzle 7 1022 81 4000 4.6 250 15:39 11.02.2020
2780 Drizzle 7 1022 81 4000 4.6 250 15:20 11.02.2020
2781 Drizzle 8 1022 75 4000 5.1 250 14:41 11.02.2020
2782 Drizzle 8 1021 75 5000 5.1 250 14:19 11.02.2020
2783 Haze 8 1022 70 5000 5.1 250 13:55 11.02.2020
2784 Haze 8 1022 70 5000 5.1 250 13:37 11.02.2020
2785 Haze 8 1022 70 5000 5.1 250 13:18 11.02.2020
2786 Haze 8 1022 70 5000 5.1 250 12:41 11.02.2020
2787 Clouds 7 1022 75 6000 3.61 275 12:22 11.02.2020
2788 Haze 6 1023 75 4000 1.5 70 11:59 11.02.2020
2789 Haze 6 1023 75 4000 1.5 70 11:40 11.02.2020
2790 Haze 6 1023 75 4000 1.5 70 11:19 11.02.2020
2791 Clouds 6 1024 81 6000 2.6 240 10:54 11.02.2020
2792 Haze 5 1023 80 4000 3.1 250 10:36 11.02.2020
2793 Haze 5 1023 80 4000 3.1 250 10:18 11.02.2020
2794 Haze 4 1023 86 3500 2.1 190 09:42 11.02.2020
2795 Haze 4 1023 86 3500 2.1 190 09:22 11.02.2020
2796 Haze 4 1023 65 3000 2.1 160 08:55 11.02.2020
2797 Haze 4 1023 65 3000 2.1 160 08:37 11.02.2020
2798 Haze 4 1023 67 3000 2.1 160 08:18 11.02.2020
2799 Mist 2 1023 67 4000 1 320 07:41 11.02.2020
2800 Mist 2 1023 67 4000 1 320 07:19 11.02.2020
2801 Mist 2 1023 67 4000 1 320 07:19 11.02.2020
2802 Mist 1 1023 86 4000 4.22 128 06:40 11.02.2020
2803 Mist 1 1023 86 4000 4.22 128 06:20 11.02.2020
2804 Mist 1 1022 86 4000 4.22 128 05:47 11.02.2020
2805 Mist 1 1022 86 4000 4.22 128 05:21 11.02.2020
2806 Mist 0 1022 85 5000 1.4 82 04:35 11.02.2020
2807 Clear 2 1022 80 8000 3.1 320 02:41 11.02.2020
2808 Clear 2 1022 80 8000 3.1 320 02:22 11.02.2020
2809 Clouds 2 1022 80 7000 3.1 320 01:34 11.02.2020
2810 Clouds 3 1022 74 7000 3.1 320 00:32 11.02.2020
2811 Drizzle 3 1022 74 6000 3.1 320 23:53 10.02.2020
2812 Drizzle 3 1022 74 6000 3.1 320 23:33 10.02.2020
2813 Drizzle 3 1022 74 6000 3.1 320 23:33 10.02.2020
2814 Rain 3 1022 80 6000 3.1 320 22:58 10.02.2020
2815 Rain 3 1022 80 6000 3.1 320 22:39 10.02.2020
2816 Rain 3 1022 80 6000 3.1 320 22:20 10.02.2020
2817 Clouds 2 1022 93 6000 3.1 320 21:43 10.02.2020
2818 Clouds 2 1022 93 6000 3.1 320 21:25 10.02.2020
2819 Rain 3 1022 86 6000 4.1 320 20:58 10.02.2020
2820 Rain 3 1022 86 6000 4.1 320 20:39 10.02.2020
2821 Rain 3 1022 86 6000 4.1 320 20:20 10.02.2020
2822 Rain 3 1022 73 6000 4.1 320 19:58 10.02.2020
2823 Rain 3 1022 73 6000 4.1 320 19:38 10.02.2020
2824 Rain 3 1022 73 6000 4.1 320 19:19 10.02.2020
2825 Clouds 3 1022 74 6000 3.1 240 18:59 10.02.2020
2826 Clouds 3 1022 74 6000 3.1 240 18:40 10.02.2020
2827 Clouds 3 1022 74 6000 3.1 240 18:21 10.02.2020
2828 Rain 4 1020 80 5000 6.2 290 17:58 10.02.2020
2829 Rain 4 1020 80 5000 6.2 290 17:38 10.02.2020
2830 Rain 4 1020 80 5000 6.2 290 17:19 10.02.2020
2831 Rain 4 1021 80 5000 6.2 290 16:59 10.02.2020
2832 Drizzle 4 1022 65 6000 6.2 290 16:40 10.02.2020
2833 Drizzle 4 1022 65 6000 6.2 290 16:20 10.02.2020
2834 Rain 4 1023 86 4000 5.1 280 15:56 10.02.2020
2835 Rain 4 1023 86 4000 5.1 280 15:56 10.02.2020
2836 Rain 4 1023 86 4000 5.1 280 15:38 10.02.2020
2837 Rain 4 1023 86 4000 5.1 280 15:20 10.02.2020
2838 Drizzle 4 1021 65 5000 5.7 250 14:56 10.02.2020
2839 Drizzle 4 1021 65 5000 5.7 250 14:37 10.02.2020
2840 Drizzle 4 1021 62 5000 5.7 250 14:18 10.02.2020
2841 Drizzle 4 1022 62 5000 5.7 250 13:42 10.02.2020
2842 Drizzle 4 1022 62 5000 5.7 250 13:24 10.02.2020
2843 Drizzle 4 1022 62 5000 5.7 250 13:24 10.02.2020
2844 Drizzle 4 1022 57 6000 4.1 270 12:54 10.02.2020
2845 Drizzle 4 1022 57 6000 4.1 270 12:36 10.02.2020
2846 Drizzle 4 1022 57 6000 4.1 270 12:18 10.02.2020
2847 Clouds 4 1023 69 8000 4.1 270 11:43 10.02.2020
2848 Clouds 4 1023 69 8000 4.1 270 11:20 10.02.2020
2849 Clouds 4 1023 69 8000 4.1 270 11:20 10.02.2020
2850 Clouds 4 1024 69 6000 4.1 290 10:47 10.02.2020
2851 Clouds 4 1024 60 8000 5.1 310 10:28 10.02.2020
2852 Clouds 3 1025 74 6000 4.1 270 09:48 10.02.2020
2853 Haze 3 1024 74 5000 3.6 250 09:27 10.02.2020
2854 Haze 2 1024 74 5000 2.6 270 08:59 10.02.2020
2855 Haze 2 1024 74 5000 2.6 270 08:38 10.02.2020
2856 Haze 2 1024 74 5000 2.6 270 08:19 10.02.2020
2857 Clouds 2 1024 74 6000 1.5 290 07:51 10.02.2020
2858 Clouds 2 1024 74 6000 1.5 290 07:32 10.02.2020
2859 Clouds 1 1023 74 8000 2.1 320 06:30 10.02.2020
2860 Clouds 1 1023 69 10000 2.6 300 04:51 10.02.2020
2861 Clouds 1 1023 74 10000 2.1 290 03:53 10.02.2020
2862 Clouds 1 1024 80 10000 2.6 320 02:57 10.02.2020
2863 Clouds 1 1024 80 10000 2.6 320 02:36 10.02.2020
2864 Clouds 2 1024 74 10000 3.1 310 01:21 10.02.2020
2865 Clouds 1 1024 74 10000 1.5 310 00:37 10.02.2020
2866 Clouds 1 1024 74 10000 1.5 310 00:19 10.02.2020
2867 Clouds 1 1024 74 10000 3.6 320 23:41 09.02.2020
2868 Clouds 1 1024 74 10000 3.6 320 23:23 09.02.2020
2869 Clouds 1 1024 74 10000 3.6 320 23:23 09.02.2020
2870 Clouds 1 1024 79 10000 4.6 320 22:44 09.02.2020
2871 Clouds 1 1024 79 10000 4.6 320 22:22 09.02.2020
2872 Clouds 2 1024 80 10000 5.1 310 21:55 09.02.2020
2873 Clouds 2 1024 80 10000 5.1 310 21:36 09.02.2020
2874 Clouds 2 1024 80 10000 5.1 310 21:36 09.02.2020
2875 Clouds 2 1024 80 10000 5.1 310 21:18 09.02.2020
2876 Clouds 2 1024 80 10000 4.6 310 20:44 09.02.2020
2877 Clouds 2 1024 80 10000 4.6 310 20:21 09.02.2020
2878 Clouds 2 1024 69 8000 3.6 330 19:55 09.02.2020
2879 Clouds 2 1024 69 8000 3.6 330 19:37 09.02.2020
2880 Clouds 2 1024 69 8000 3.6 330 19:18 09.02.2020
2881 Clouds 3 1023 69 0 3.1 260 18:42 09.02.2020
2882 Clouds 3 1023 69 0 3.1 260 18:23 09.02.2020
2883 Drizzle 3 1024 74 5000 4.6 320 17:56 09.02.2020
2884 Drizzle 3 1024 74 5000 4.6 320 17:37 09.02.2020
2885 Drizzle 3 1024 74 5000 4.6 320 17:19 09.02.2020
2886 Clouds 3 1024 93 6000 6.2 310 16:41 09.02.2020
2887 Drizzle 3 1023 74 5000 4.6 320 16:22 09.02.2020
2888 Clouds 4 1022 64 7000 6.2 320 15:58 09.02.2020
2889 Clouds 4 1022 64 7000 6.2 320 15:40 09.02.2020
2890 Clouds 4 1022 64 7000 6.2 320 15:21 09.02.2020
2891 Clouds 5 1022 86 6000 7.2 300 14:56 09.02.2020
2892 Clouds 4 1022 74 7000 3.1 270 14:37 09.02.2020
2893 Clouds 4 1022 70 7000 3.1 270 14:19 09.02.2020
2894 Clouds 5 1022 70 6000 5.7 330 13:42 09.02.2020
2895 Clouds 5 1022 63 6000 5.7 330 13:24 09.02.2020
2896 Clouds 5 1022 63 7000 4.6 320 12:55 09.02.2020
2897 Clouds 5 1022 63 7000 4.6 320 12:37 09.02.2020
2898 Clouds 5 1022 63 7000 4.6 320 12:18 09.02.2020
2899 Clouds 5 1022 63 7000 4.6 320 12:18 09.02.2020
2900 Haze 5 1022 69 5000 6.7 310 11:40 09.02.2020
2901 Haze 5 1022 69 5000 6.7 310 11:19 09.02.2020
2902 Drizzle 4 1023 80 5000 5.1 320 10:56 09.02.2020
2903 Drizzle 4 1023 80 5000 5.1 320 10:38 09.02.2020
2904 Drizzle 4 1023 80 5000 5.1 320 10:19 09.02.2020
2905 Clouds 4 1024 79 0 5.82 329 09:40 09.02.2020
2906 Drizzle 4 1021 93 7000 3.6 230 09:21 09.02.2020
2907 Drizzle 4 1021 93 7000 3.6 230 08:44 09.02.2020
2908 Drizzle 4 1021 93 7000 3.6 230 08:26 09.02.2020
2909 Clouds 3 1023 87 0 6.41 336 07:57 09.02.2020
2910 Clouds 5 1020 80 4000 4.6 280 07:34 09.02.2020
2911 Clouds 5 1020 80 4000 4.6 280 06:45 09.02.2020
2912 Mist 5 1019 86 5000 6.2 270 05:59 09.02.2020
2913 Mist 5 1019 86 5000 6.2 270 05:37 09.02.2020
2914 Mist 5 1019 86 5000 6.2 270 05:18 09.02.2020
2915 Rain 4 1019 93 5000 2.6 270 03:52 09.02.2020
2916 Rain 5 1019 80 7000 6.7 270 02:44 09.02.2020
2917 Rain 5 1019 80 7000 6.7 270 02:25 09.02.2020
2918 Rain 4 1019 86 5000 8.7 270 01:35 09.02.2020
2919 Rain 4 1019 86 5000 6.2 270 00:42 09.02.2020
2920 Rain 4 1019 86 5000 6.2 270 00:23 09.02.2020
2921 Drizzle 4 1019 86 7000 9.8 260 23:42 08.02.2020
2922 Drizzle 4 1019 86 7000 9.8 260 23:20 08.02.2020
2923 Squall 5 1019 80 7000 8.7 260 22:42 08.02.2020
2924 Squall 5 1019 80 7000 8.7 260 22:22 08.02.2020
2925 Squall 5 1019 80 7000 8.7 260 22:22 08.02.2020
2926 Squall 5 1019 80 7000 6.2 250 21:59 08.02.2020
2927 Squall 5 1019 80 7000 6.2 250 21:40 08.02.2020
2928 Squall 5 1019 80 7000 6.2 250 21:21 08.02.2020
2929 Squall 5 1019 80 7000 7.2 280 20:57 08.02.2020
2930 Squall 5 1019 80 7000 7.2 280 20:38 08.02.2020
2931 Squall 5 1019 80 7000 7.2 280 20:19 08.02.2020
2932 Squall 5 1017 80 8000 11.8 270 19:55 08.02.2020
2933 Squall 5 1017 80 8000 11.8 270 19:37 08.02.2020
2934 Squall 5 1017 80 8000 11.8 270 19:19 08.02.2020
2935 Mist 5 1018 86 4000 15.9 270 18:43 08.02.2020
2936 Mist 5 1018 86 4000 15.9 270 18:43 08.02.2020
2937 Rain 5 1017 80 4000 11.8 270 18:24 08.02.2020
2938 Clouds 5 1016 80 10000 12.3 270 17:44 08.02.2020
2939 Rain 6 1015 81 4000 13.9 270 17:22 08.02.2020
2940 Rain 7 1016 75 3000 13.9 270 16:59 08.02.2020
2941 Rain 7 1016 75 3000 13.9 270 16:40 08.02.2020
2942 Rain 7 1016 75 3000 13.9 270 16:21 08.02.2020
2943 Rain 7 1016 70 4000 12.3 270 15:56 08.02.2020
2944 Rain 7 1016 70 4000 12.3 270 15:38 08.02.2020
2945 Rain 7 1016 70 4000 12.3 270 15:18 08.02.2020
2946 Rain 7 1016 70 4000 12.3 270 15:18 08.02.2020
2947 Rain 7 1016 87 3000 12.3 270 14:41 08.02.2020
2948 Rain 7 1016 87 3000 12.3 270 14:19 08.02.2020
2949 Rain 7 1016 87 3000 12.3 270 14:19 08.02.2020
2950 Rain 7 1015 87 4000 12.9 270 13:55 08.02.2020
2951 Rain 7 1015 93 2000 10.8 270 13:37 08.02.2020
2952 Rain 7 1015 93 2000 10.8 270 13:18 08.02.2020
2953 Rain 7 1015 87 800 11.3 260 12:39 08.02.2020
2954 Rain 7 1015 87 800 11.3 260 12:20 08.02.2020
2955 Mist 7 1016 81 4000 12.3 250 11:47 08.02.2020
2956 Drizzle 6 1016 93 3000 11.8 260 11:22 08.02.2020
2957 Rain 5 1016 100 3500 12.3 250 10:59 08.02.2020
2958 Rain 5 1016 100 3500 12.3 250 10:40 08.02.2020
2959 Rain 5 1016 100 3500 12.3 250 10:20 08.02.2020
2960 Rain 5 1016 100 2000 12.3 250 09:50 08.02.2020
2961 Drizzle 5 1016 100 3000 12.3 250 09:26 08.02.2020
2962 Rain 5 1016 100 1200 9.8 230 08:48 08.02.2020
2963 Rain 5 1016 100 800 9.8 230 08:29 08.02.2020
2964 Rain 5 1015 93 1500 10.3 230 07:54 08.02.2020
2965 Drizzle 5 1015 93 4000 11.3 240 07:35 08.02.2020
2966 Drizzle 5 1014 93 3000 8.2 240 06:56 08.02.2020
2967 Drizzle 5 1014 93 3000 8.2 240 06:23 08.02.2020
2968 Rain 5 1014 86 3000 10.3 230 05:39 08.02.2020
2969 Rain 5 1014 86 3000 10.3 230 05:21 08.02.2020
2970 Rain 5 1015 93 3000 11.3 250 04:31 08.02.2020
2971 Rain 7 1014 75 3000 9.8 240 03:41 08.02.2020
2972 Rain 7 1013 75 2000 7.7 240 02:43 08.02.2020
2973 Dust 6 1015 75 5000 11.3 250 01:37 08.02.2020
2974 Dust 6 1015 75 5000 11.3 250 01:19 08.02.2020
2975 Rain 7 1014 70 3500 11.3 250 00:38 08.02.2020
2976 Rain 7 1014 70 3500 11.3 250 00:20 08.02.2020
2977 Rain 7 1014 70 4000 9.3 250 23:42 07.02.2020
2978 Rain 7 1014 70 4000 9.3 250 23:20 07.02.2020
2979 Clear 7 1015 61 7000 10.8 260 22:56 07.02.2020
2980 Clear 7 1015 61 7000 10.8 260 22:37 07.02.2020
2981 Clear 7 1015 61 7000 10.8 260 22:19 07.02.2020
2982 Clear 7 1014 61 7000 10.3 240 21:42 07.02.2020
2983 Clear 7 1014 61 7000 10.3 240 21:22 07.02.2020
2984 Clouds 7 1015 70 7000 7.7 230 20:54 07.02.2020
2985 Clouds 7 1015 70 7000 7.7 230 20:36 07.02.2020
2986 Clouds 7 1015 70 7000 7.7 230 20:18 07.02.2020
2987 Clouds 7 1015 75 10000 8.7 240 19:40 07.02.2020
2988 Clouds 7 1015 75 10000 8.7 240 19:19 07.02.2020
2989 Clouds 7 1015 75 10000 8.7 240 18:55 07.02.2020
2990 Clouds 7 1015 75 10000 8.7 240 18:37 07.02.2020
2991 Clouds 7 1015 75 10000 8.7 240 18:18 07.02.2020
2992 Clouds 7 1015 75 10000 8.7 240 17:42 07.02.2020
2993 Clouds 7 1015 75 10000 8.7 240 17:21 07.02.2020
2994 Clouds 8 1015 61 10000 7.2 250 16:54 07.02.2020
2995 Clouds 8 1015 61 10000 7.2 250 16:25 07.02.2020
2996 Clouds 6 1015 81 10000 7.2 250 15:57 07.02.2020
2997 Clouds 6 1015 81 10000 7.2 250 15:39 07.02.2020
2998 Clouds 6 1015 81 10000 7.2 250 15:20 07.02.2020
2999 Rain 7 1016 81 8000 7.7 250 14:43 07.02.2020
3000 Rain 7 1016 87 4000 8.7 250 14:24 07.02.2020
3001 Rain 8 1016 81 4000 8.2 250 13:58 07.02.2020
3002 Rain 8 1016 81 4000 8.2 250 13:39 07.02.2020
3003 Rain 8 1016 81 4000 8.2 250 13:39 07.02.2020
3004 Rain 8 1016 81 4000 8.2 250 13:21 07.02.2020
3005 Rain 8 1015 87 3000 6.7 280 12:55 07.02.2020
3006 Rain 8 1015 87 3000 6.7 280 12:55 07.02.2020
3007 Rain 8 1015 87 3000 6.7 280 12:36 07.02.2020
3008 Rain 8 1015 87 3000 6.7 280 12:18 07.02.2020
3009 Drizzle 8 1015 81 3000 8.7 270 11:41 07.02.2020
3010 Rain 9 1016 76 4000 7.2 260 11:20 07.02.2020
3011 Rain 10 1016 87 3500 6.2 270 10:42 07.02.2020
3012 Rain 10 1016 93 1800 4.6 250 10:24 07.02.2020
3013 Drizzle 11 1017 81 2500 5.1 250 09:56 07.02.2020
3014 Drizzle 11 1017 81 2500 5.1 250 09:37 07.02.2020
3015 Drizzle 11 1017 81 2500 5.1 250 09:19 07.02.2020
3016 Drizzle 10 1016 76 4000 4.6 250 08:42 07.02.2020
3017 Drizzle 10 1016 76 4000 4.6 250 08:21 07.02.2020
3018 Clouds 9 1016 81 6000 2.6 260 07:45 07.02.2020
3019 Clouds 9 1016 81 6000 2.6 260 07:26 07.02.2020
3020 Clouds 7 1016 71 6000 2.6 260 06:46 07.02.2020
3021 Clouds 7 1016 71 6000 2.6 260 06:26 07.02.2020
3022 Clouds 7 1016 76 6000 2.1 320 05:45 07.02.2020
3023 Clear 7 1016 76 6000 2.1 320 04:42 07.02.2020
3024 Haze 7 1016 66 5000 1 300 02:51 07.02.2020
3025 Haze 8 1017 57 5000 1 300 01:42 07.02.2020
3026 Haze 8 1017 66 5000 2.6 250 00:48 07.02.2020
3027 Haze 8 1017 66 5000 2.6 250 00:20 07.02.2020
3028 Haze 9 1017 66 5000 1.5 250 23:37 06.02.2020
3029 Haze 9 1017 66 5000 1.5 250 23:19 06.02.2020
3030 Clear 9 1017 81 7000 3.13 203 22:44 06.02.2020
3031 Haze 10 1017 66 5000 3.13 203 22:25 06.02.2020
3032 Haze 11 1017 66 5000 3.13 203 21:38 06.02.2020
3033 Haze 11 1017 66 5000 3.13 203 21:20 06.02.2020
3034 Haze 11 1018 66 5000 3.13 203 20:58 06.02.2020
3035 Haze 11 1018 66 5000 3.13 203 20:39 06.02.2020
3036 Haze 11 1018 66 5000 1.85 218 20:19 06.02.2020
3037 Haze 11 1017 66 5000 1.85 218 19:59 06.02.2020
3038 Haze 11 1017 66 5000 1.85 218 19:41 06.02.2020
3039 Haze 11 1017 66 5000 1.85 218 19:23 06.02.2020
3040 Clear 13 1017 58 6000 1 170 18:59 06.02.2020
3041 Clear 13 1017 58 6000 1 170 18:40 06.02.2020
3042 Clear 13 1017 58 6000 1 170 18:22 06.02.2020
3043 Clouds 13 1017 54 6000 2.1 280 17:46 06.02.2020
3044 Clouds 13 1017 54 6000 2.1 280 17:22 06.02.2020
3045 Clouds 13 1017 54 6000 2.1 280 17:21 06.02.2020
3046 Clear 16 1017 41 8000 5.1 270 16:59 06.02.2020
3047 Clear 16 1017 41 8000 5.1 270 16:41 06.02.2020
3048 Clear 16 1017 41 8000 5.1 270 16:22 06.02.2020
3049 Clouds 17 1017 33 10000 5.1 250 15:42 06.02.2020
3050 Clouds 17 1017 33 10000 5.1 250 15:22 06.02.2020
3051 Clouds 17 1017 33 10000 5.1 240 14:51 06.02.2020
3052 Clouds 17 1017 33 10000 5.1 240 14:28 06.02.2020
3053 Clear 17 1016 36 10000 4.6 250 13:59 06.02.2020
3054 Clear 17 1016 36 10000 4.6 250 13:40 06.02.2020
3055 Clear 17 1016 36 10000 4.6 250 13:20 06.02.2020
3056 Clear 17 1017 42 10000 4.1 220 12:44 06.02.2020
3057 Clear 17 1017 42 10000 4.1 220 12:19 06.02.2020
3058 Clear 17 1017 42 10000 4.1 220 12:19 06.02.2020
3059 Clear 16 1018 44 8000 6.2 220 11:57 06.02.2020
3060 Clear 16 1018 44 8000 6.2 220 11:39 06.02.2020
3061 Clear 16 1018 44 8000 6.2 220 11:19 06.02.2020
3062 Clear 16 1018 44 6000 4.1 230 10:56 06.02.2020
3063 Clear 16 1018 44 6000 4.1 230 10:38 06.02.2020
3064 Clear 16 1018 44 6000 4.1 230 10:20 06.02.2020
3065 Clear 15 1018 47 7000 1 220 09:56 06.02.2020
3066 Clear 15 1018 47 7000 1 220 09:37 06.02.2020
3067 Clear 15 1018 47 7000 1 220 09:18 06.02.2020
3068 Haze 11 1018 62 5000 1 250 08:41 06.02.2020
3069 Haze 11 1018 62 5000 1 250 08:22 06.02.2020
3070 Haze 9 1018 70 4000 1.5 240 07:48 06.02.2020
3071 Haze 9 1018 70 4000 1.5 240 07:27 06.02.2020
3072 Haze 6 1017 75 4000 1.5 230 06:37 06.02.2020
3073 Haze 6 1017 75 4000 1.5 230 06:18 06.02.2020
3074 Haze 7 1017 70 5000 1.5 240 04:43 06.02.2020
3075 Haze 7 1017 70 5000 0.74 63 03:21 06.02.2020
3076 Haze 7 1017 70 5000 0.74 63 02:37 06.02.2020
3077 Haze 8 1018 61 5000 1.13 152 01:37 06.02.2020
3078 Haze 8 1018 66 5000 1 230 00:58 06.02.2020
3079 Haze 9 1018 66 5000 1 230 00:26 06.02.2020
3080 Haze 9 1018 66 5000 1 200 23:47 05.02.2020
3081 Haze 9 1018 66 5000 1 200 23:29 05.02.2020
3082 Haze 10 1018 71 5000 2.32 115 22:59 05.02.2020
3083 Haze 10 1018 71 5000 2.32 115 22:40 05.02.2020
3084 Haze 10 1018 71 5000 2.32 115 22:40 05.02.2020
3085 Haze 10 1018 71 5000 2.32 115 22:22 05.02.2020
3086 Haze 10 1018 71 5000 2.32 115 22:22 05.02.2020
3087 Clear 9 1018 70 6000 2.1 40 21:55 05.02.2020
3088 Haze 10 1018 71 5000 2.32 115 21:36 05.02.2020
3089 Haze 10 1018 71 5000 2.32 115 21:18 05.02.2020
3090 Haze 10 1018 66 5000 2.32 115 20:39 05.02.2020
3091 Haze 10 1018 66 5000 1.27 94 20:20 05.02.2020
3092 Haze 11 1017 50 5000 1 220 19:58 05.02.2020
3093 Haze 11 1017 50 5000 1 220 19:38 05.02.2020
3094 Haze 11 1017 50 5000 1 220 19:19 05.02.2020
3095 Haze 12 1017 62 5000 1.5 250 18:55 05.02.2020
3096 Haze 12 1017 62 5000 1.5 250 18:36 05.02.2020
3097 Haze 12 1017 62 5000 1.5 250 18:18 05.02.2020
3098 Clear 13 1016 66 6000 1.5 240 17:38 05.02.2020
3099 Clear 13 1016 66 6000 1.5 240 17:38 05.02.2020
3100 Clear 13 1016 66 6000 1.5 240 17:38 05.02.2020
3101 Clear 13 1016 66 6000 1.5 240 17:19 05.02.2020
3102 Clear 14 1016 58 6000 4.1 270 16:57 05.02.2020
3103 Clear 16 1016 38 6000 2.1 220 16:38 05.02.2020
3104 Clear 16 1016 38 6000 2.1 220 16:19 05.02.2020
3105 Clear 18 1016 39 8000 3.1 230 15:45 05.02.2020
3106 Clear 18 1016 39 8000 3.1 230 15:20 05.02.2020
3107 Clear 18 1016 37 7000 2.6 240 14:58 05.02.2020
3108 Clouds 17 1016 39 8000 3.1 220 14:39 05.02.2020
3109 Clouds 17 1016 39 8000 3.1 220 14:21 05.02.2020
3110 Clouds 17 1016 48 6000 2.6 170 13:43 05.02.2020
3111 Clouds 17 1016 48 6000 2.6 170 13:22 05.02.2020
3112 Clouds 16 1016 48 7000 3.1 180 12:57 05.02.2020
3113 Clouds 16 1016 48 7000 3.1 180 12:36 05.02.2020
3114 Clouds 16 1016 48 7000 3.1 180 12:18 05.02.2020
3115 Clouds 16 1016 48 7000 3.1 180 12:18 05.02.2020
3116 Clouds 14 1017 54 6000 4.6 170 11:41 05.02.2020
3117 Clouds 14 1017 54 6000 4.6 170 11:22 05.02.2020
3118 Clouds 14 1018 58 6000 3.6 140 10:57 05.02.2020
3119 Clouds 14 1018 58 6000 3.6 140 10:39 05.02.2020
3120 Clouds 14 1018 58 6000 3.6 140 10:18 05.02.2020
3121 Smoke 11 1019 76 4000 1.5 60 09:40 05.02.2020
3122 Smoke 11 1019 76 4000 1.5 60 09:21 05.02.2020
3123 Fog 10 1019 93 1500 3.86 159 08:55 05.02.2020
3124 Fog 9 1019 100 200 3.86 159 08:37 05.02.2020
3125 Fog 9 1019 100 200 1.61 164 08:18 05.02.2020
3126 Mist 6 1018 93 2500 1.61 164 07:42 05.02.2020
3127 Mist 6 1018 93 2500 1.61 164 07:19 05.02.2020
3128 Mist 6 1017 93 2500 1.61 164 06:39 05.02.2020
3129 Mist 6 1017 93 2500 1.61 164 06:21 05.02.2020
3130 Mist 6 1017 93 4000 1 240 05:20 05.02.2020
3131 Mist 6 1017 93 4000 1 240 04:58 05.02.2020
3132 Mist 6 1017 93 4000 2.1 240 04:27 05.02.2020
3133 Mist 6 1018 87 4000 1 230 02:53 05.02.2020
3134 Mist 6 1018 87 4000 1 230 02:22 05.02.2020
3135 Mist 6 1018 87 4000 2.1 220 01:29 05.02.2020
3136 Fog 7 1019 100 100 1.18 302 00:25 05.02.2020
3137 Mist 7 1019 100 3000 1.5 40 23:42 04.02.2020
3138 Mist 7 1019 87 4000 1.18 302 23:22 04.02.2020
3139 Fog 7 1019 100 700 2.13 312 22:57 04.02.2020
3140 Mist 8 1019 87 5000 3.1 240 22:39 04.02.2020
3141 Mist 8 1019 87 5000 3.1 240 22:20 04.02.2020
3142 Haze 9 1019 87 5000 2.1 230 21:56 04.02.2020
3143 Haze 9 1019 87 5000 2.1 230 21:38 04.02.2020
3144 Haze 9 1019 87 5000 2.1 230 21:18 04.02.2020
3145 Haze 9 1019 87 5000 2.1 230 21:18 04.02.2020
3146 Haze 9 1018 81 5000 2.1 230 20:55 04.02.2020
3147 Haze 9 1018 81 5000 2.1 230 20:37 04.02.2020
3148 Haze 9 1018 81 5000 2.1 230 20:18 04.02.2020
3149 Haze 10 1018 81 5000 3.1 250 19:43 04.02.2020
3150 Haze 10 1018 81 5000 3.1 250 19:24 04.02.2020
3151 Haze 11 1018 81 5000 3.1 250 18:59 04.02.2020
3152 Haze 11 1018 76 5000 2.6 260 18:39 04.02.2020
3153 Haze 11 1018 76 5000 2.6 260 18:21 04.02.2020
3154 Haze 11 1018 76 5000 2.6 260 17:56 04.02.2020
3155 Clouds 11 1018 76 6000 3.6 280 17:38 04.02.2020
3156 Clouds 11 1018 76 6000 3.6 280 17:19 04.02.2020
3157 Clouds 12 1018 66 6000 3.1 300 16:39 04.02.2020
3158 Clouds 12 1018 66 6000 3.1 300 16:20 04.02.2020
3159 Clouds 13 1018 66 6000 3.1 300 15:57 04.02.2020
3160 Clouds 13 1018 66 6000 2.6 300 15:38 04.02.2020
3161 Clouds 13 1018 66 6000 2.6 300 15:20 04.02.2020
3162 Clouds 13 1018 66 6000 2.6 300 14:45 04.02.2020
3163 Haze 14 1018 58 5000 4.1 310 14:26 04.02.2020
3164 Haze 14 1018 58 5000 3.6 280 13:59 04.02.2020
3165 Haze 14 1018 58 5000 3.6 280 13:41 04.02.2020
3166 Haze 14 1018 58 5000 3.6 280 13:22 04.02.2020
3167 Haze 14 1018 58 5000 3.6 280 12:57 04.02.2020
3168 Clouds 14 1018 58 6000 5.1 310 12:37 04.02.2020
3169 Clouds 14 1018 58 6000 5.1 310 12:19 04.02.2020
3170 Clouds 13 1019 58 7000 3.6 320 11:55 04.02.2020
3171 Clouds 14 1019 58 6000 5.1 260 11:36 04.02.2020
3172 Clouds 13 1019 58 6000 5.1 260 11:18 04.02.2020
3173 Clouds 12 1019 58 7000 1.5 270 10:44 04.02.2020
3174 Clouds 12 1019 58 7000 1.5 270 10:24 04.02.2020
3175 Clouds 11 1020 62 7000 1.5 270 09:55 04.02.2020
3176 Clouds 11 1020 62 7000 1.5 270 09:37 04.02.2020
3177 Clouds 11 1020 62 7000 1.5 270 09:18 04.02.2020
3178 Clouds 10 1020 53 7000 1.5 270 08:43 04.02.2020
3179 Clouds 10 1020 53 7000 1.5 270 08:24 04.02.2020
3180 Mist 7 1020 100 3500 2.1 260 07:49 04.02.2020
3181 Mist 6 1019 87 5000 1.5 270 07:24 04.02.2020
3182 Mist 5 1019 87 5000 1.5 270 06:45 04.02.2020
3183 Mist 5 1019 87 4000 1.5 270 06:26 04.02.2020
3184 Mist 3 1018 93 4000 1.5 270 05:29 04.02.2020
3185 Mist 5 1019 100 5000 2.1 300 03:56 04.02.2020
3186 Mist 5 1019 100 5000 2.1 300 03:37 04.02.2020
3187 Mist 5 1019 100 5000 2.1 300 03:19 04.02.2020
3188 Mist 7 1019 93 5000 1.5 280 02:34 04.02.2020
3189 Mist 7 1020 87 5000 1.5 280 01:56 04.02.2020
3190 Mist 7 1020 87 5000 1.5 280 01:36 04.02.2020
3191 Mist 7 1020 87 5000 1.5 280 00:49 04.02.2020
3192 Mist 7 1020 87 5000 1.5 280 00:22 04.02.2020
3193 Mist 7 1020 93 5000 1.5 280 23:42 03.02.2020
3194 Mist 7 1020 93 5000 1.5 280 23:42 03.02.2020
3195 Mist 7 1020 93 5000 1.5 280 23:23 03.02.2020
3196 Mist 8 1020 87 5000 2.1 320 22:40 03.02.2020
3197 Mist 8 1020 87 5000 2.1 320 22:22 03.02.2020
3198 Mist 8 1020 93 5000 2.1 320 21:59 03.02.2020
3199 Mist 8 1020 93 5000 2.1 320 21:40 03.02.2020
3200 Mist 8 1020 93 5000 2.1 320 21:19 03.02.2020
3201 Clear 10 1020 81 6000 2.1 320 20:42 03.02.2020
3202 Clouds 10 1020 81 6000 2.1 320 20:20 03.02.2020
3203 Clouds 10 1019 81 6000 2.1 320 19:59 03.02.2020
3204 Clouds 10 1019 81 6000 2.1 320 19:40 03.02.2020
3205 Clouds 10 1019 81 6000 2.1 320 19:21 03.02.2020
3206 Haze 11 1020 76 5000 2.1 270 18:57 03.02.2020
3207 Haze 11 1020 76 5000 2.1 270 18:38 03.02.2020
3208 Haze 11 1020 76 5000 2.1 270 18:20 03.02.2020
3209 Haze 12 1019 71 5000 1.85 311 17:55 03.02.2020
3210 Haze 12 1019 71 5000 1.85 311 17:36 03.02.2020
3211 Haze 12 1019 71 5000 0.57 210 17:18 03.02.2020
3212 Haze 12 1019 71 5000 0.57 210 17:18 03.02.2020
3213 Haze 14 1019 44 5000 2.1 240 16:40 03.02.2020
3214 Haze 14 1019 44 5000 2.1 240 16:21 03.02.2020
3215 Clouds 15 1019 41 6000 3.6 250 15:56 03.02.2020
3216 Clouds 15 1019 41 6000 3.6 250 15:38 03.02.2020
3217 Clouds 15 1019 41 6000 3.6 250 15:19 03.02.2020
3218 Clouds 14 1020 87 6000 2.1 270 14:45 03.02.2020
3219 Clouds 14 1020 87 6000 2.1 270 14:27 03.02.2020
3220 Clouds 16 1020 28 8000 1.5 240 13:59 03.02.2020
3221 Clouds 16 1020 28 8000 1.5 240 13:41 03.02.2020
3222 Clouds 16 1020 29 8000 1.5 240 13:20 03.02.2020
3223 Clouds 16 1020 44 7000 2.1 170 12:56 03.02.2020
3224 Clouds 16 1020 44 7000 2.1 170 12:37 03.02.2020
3225 Clouds 16 1020 44 7000 2.1 170 12:19 03.02.2020
3226 Clouds 15 1022 47 7000 2.6 150 11:40 03.02.2020
3227 Clouds 15 1022 47 7000 2.6 150 11:20 03.02.2020
3228 Clouds 14 1022 47 7000 2.6 150 10:58 03.02.2020
3229 Clouds 14 1022 50 7000 2.6 150 10:40 03.02.2020
3230 Clouds 14 1022 50 7000 2.6 150 10:21 03.02.2020
3231 Haze 10 1023 81 5000 1 90 09:42 03.02.2020
3232 Haze 10 1023 81 5000 1 90 09:21 03.02.2020
3233 Haze 9 1023 87 5000 1 30 08:42 03.02.2020
3234 Haze 9 1023 87 5000 1 30 08:23 03.02.2020
3235 Mist 6 1023 100 3000 4.52 120 07:58 03.02.2020
3236 Mist 6 1023 100 1200 4.52 120 07:39 03.02.2020
3237 Mist 6 1023 100 1200 4.52 120 07:21 03.02.2020
3238 Fog 5 1023 100 900 4.52 120 06:49 03.02.2020
3239 Fog 5 1023 100 200 4.52 120 06:27 03.02.2020
3240 Mist 6 1022 100 3000 1.5 90 05:36 03.02.2020
3241 Mist 6 1022 100 3000 1.5 90 04:59 03.02.2020
3242 Mist 6 1023 100 3000 1 110 03:19 03.02.2020
3243 Mist 7 1023 93 3000 3.11 122 02:34 03.02.2020
3244 Mist 7 1023 93 3000 1 200 01:41 03.02.2020
3245 Mist 7 1023 93 4000 1.5 210 00:46 03.02.2020
3246 Mist 7 1023 93 4000 1.5 210 00:23 03.02.2020
3247 Mist 7 1025 93 4000 1.5 140 23:39 02.02.2020
3248 Mist 7 1025 93 4000 1.5 140 23:20 02.02.2020
3249 Mist 7 1025 93 4000 1.5 140 22:57 02.02.2020
3250 Mist 7 1025 93 4000 1.5 140 22:57 02.02.2020
3251 Mist 7 1025 93 4000 1.5 140 22:38 02.02.2020
3252 Mist 7 1025 93 4000 1.5 140 22:19 02.02.2020
3253 Mist 8 1024 93 5000 1.82 152 21:54 02.02.2020
3254 Mist 8 1024 93 5000 1.82 152 21:36 02.02.2020
3255 Mist 8 1024 93 5000 1.82 152 21:18 02.02.2020
3256 Mist 8 1024 93 5000 1.82 152 20:55 02.02.2020
3257 Haze 9 1024 81 5000 1 90 20:36 02.02.2020
3258 Haze 9 1024 81 5000 1 90 20:18 02.02.2020
3259 Haze 9 1024 76 5000 3.1 30 19:55 02.02.2020
3260 Haze 9 1024 76 5000 3.1 30 19:36 02.02.2020
3261 Haze 9 1024 76 5000 3.1 30 19:18 02.02.2020
3262 Haze 10 1024 76 5000 0.5 320 18:39 02.02.2020
3263 Haze 10 1024 76 5000 0.5 320 18:21 02.02.2020
3264 Haze 11 1023 66 5000 1 220 17:58 02.02.2020
3265 Haze 11 1023 66 5000 1 220 17:38 02.02.2020
3266 Haze 11 1023 66 5000 1 220 17:19 02.02.2020
3267 Haze 13 1023 71 5000 1 130 16:58 02.02.2020
3268 Haze 13 1023 71 5000 1 130 16:39 02.02.2020
3269 Haze 13 1023 71 5000 1 130 16:19 02.02.2020
3270 Haze 13 1023 76 5000 2.1 180 15:59 02.02.2020
3271 Haze 13 1023 76 5000 2.1 180 15:39 02.02.2020
3272 Haze 13 1023 76 5000 2.1 180 15:20 02.02.2020
3273 Haze 13 1022 71 5000 1 220 14:57 02.02.2020
3274 Haze 13 1022 71 5000 1 220 14:39 02.02.2020
3275 Haze 13 1022 71 5000 1 220 14:18 02.02.2020
3276 Haze 14 1023 58 5000 2.6 210 13:55 02.02.2020
3277 Haze 13 1022 66 5000 2.08 309 13:36 02.02.2020
3278 Haze 13 1022 66 5000 1.61 329 13:18 02.02.2020
3279 Haze 13 1023 62 5000 1.61 329 12:42 02.02.2020
3280 Haze 13 1023 62 5000 1.48 357 12:22 02.02.2020
3281 Clouds 11 1023 76 6000 3.1 350 11:56 02.02.2020
3282 Clouds 11 1023 76 6000 3.1 350 11:38 02.02.2020
3283 Clouds 11 1023 76 6000 3.1 350 11:18 02.02.2020
3284 Clouds 12 1024 76 7000 2.1 350 10:55 02.02.2020
3285 Clouds 12 1024 76 7000 2.1 350 10:55 02.02.2020
3286 Clouds 12 1024 76 7000 2.1 350 10:36 02.02.2020
3287 Clouds 12 1024 76 7000 2.1 350 10:18 02.02.2020
3288 Clouds 11 1024 76 6000 1.5 220 09:41 02.02.2020
3289 Clouds 11 1024 76 6000 1.5 220 09:21 02.02.2020
3290 Clouds 9 1024 81 6000 1.82 287 08:58 02.02.2020
3291 Clouds 9 1024 81 6000 2.98 303 08:40 02.02.2020
3292 Clouds 9 1024 81 6000 2.32 279 08:21 02.02.2020
3293 Mist 8 1023 93 3000 2.32 279 07:45 02.02.2020
3294 Mist 8 1023 93 3000 2.32 279 07:27 02.02.2020
3295 Mist 7 1023 100 1500 2.1 170 06:41 02.02.2020
3296 Mist 8 1022 93 4000 2.32 279 06:23 02.02.2020
3297 Mist 7 1022 93 5000 1.5 240 05:47 02.02.2020
3298 Mist 8 1022 93 5000 1.5 300 04:38 02.02.2020
3299 Rain 8 1022 93 1000 1 180 03:25 02.02.2020
3300 Rain 8 1021 93 1000 1 180 02:29 02.02.2020
3301 Rain 8 1021 93 1000 4.1 330 01:53 02.02.2020
3302 Rain 8 1021 93 1000 4.1 330 01:22 02.02.2020
3303 Rain 8 1021 93 1000 4.1 330 00:43 02.02.2020
3304 Rain 8 1021 93 1000 4.1 330 00:22 02.02.2020
3305 Clouds 7 1021 93 6000 4.1 250 23:46 01.02.2020
3306 Rain 8 1021 93 2000 4.6 250 23:21 01.02.2020
3307 Rain 8 1021 93 3000 4.1 240 22:50 01.02.2020
3308 Rain 8 1021 93 3000 4.1 240 22:20 01.02.2020
3309 Clouds 8 1021 93 6000 4.1 240 21:57 01.02.2020
3310 Rain 8 1021 93 3000 4.1 240 21:38 01.02.2020
3311 Rain 8 1021 93 3000 4.1 240 21:18 01.02.2020
3312 Rain 8 1021 93 3000 4.6 250 20:40 01.02.2020
3313 Rain 8 1021 93 3000 4.6 250 20:20 01.02.2020
3314 Rain 8 1021 87 3000 4.1 250 19:57 01.02.2020
3315 Rain 8 1021 87 3000 4.1 250 19:39 01.02.2020
3316 Rain 8 1021 87 3000 4.1 250 19:19 01.02.2020
3317 Rain 9 1021 81 4000 5.1 260 18:57 01.02.2020
3318 Rain 9 1021 81 4000 5.1 260 18:39 01.02.2020
3319 Rain 9 1021 81 4000 5.1 260 18:21 01.02.2020
3320 Clouds 9 1021 81 7000 6.2 260 17:56 01.02.2020
3321 Clouds 9 1020 81 6000 6.2 240 17:38 01.02.2020
3322 Clouds 9 1020 81 6000 6.2 240 17:19 01.02.2020
3323 Haze 9 1020 81 5000 7.2 260 16:42 01.02.2020
3324 Haze 9 1020 81 5000 7.2 260 16:24 01.02.2020
3325 Haze 9 1019 66 5000 6.7 260 15:58 01.02.2020
3326 Haze 9 1019 66 5000 6.7 260 15:38 01.02.2020
3327 Haze 9 1019 66 5000 6.7 260 15:19 01.02.2020
3328 Drizzle 9 1019 76 4000 6.7 260 14:41 01.02.2020
3329 Drizzle 9 1019 76 4000 6.7 260 14:21 01.02.2020
3330 Drizzle 9 1019 81 7000 7.2 250 13:58 01.02.2020
3331 Drizzle 9 1019 81 7000 7.2 250 13:39 01.02.2020
3332 Drizzle 9 1019 81 7000 7.2 250 13:18 01.02.2020
3333 Clouds 9 1019 81 5000 6.2 260 12:42 01.02.2020
3334 Clouds 9 1019 81 5000 6.2 260 12:24 01.02.2020
3335 Drizzle 8 1019 81 5000 6.2 250 11:45 01.02.2020
3336 Drizzle 8 1019 81 5000 6.2 250 11:24 01.02.2020
3337 Haze 8 1020 81 5000 6.7 260 10:59 01.02.2020
3338 Haze 8 1020 81 5000 6.7 260 10:41 01.02.2020
3339 Haze 8 1020 81 5000 6.7 260 10:23 01.02.2020
3340 Clouds 8 1020 75 6000 5.1 250 09:59 01.02.2020
3341 Clouds 8 1020 75 6000 5.1 250 09:41 01.02.2020
3342 Clouds 8 1020 75 6000 5.1 250 09:21 01.02.2020
3343 Clouds 7 1019 75 6000 6.7 250 08:58 01.02.2020
3344 Clouds 7 1019 75 6000 6.7 250 08:18 01.02.2020
3345 Clouds 8 1019 75 6000 6.7 270 07:41 01.02.2020
3346 Haze 7 1019 75 5000 4.6 260 07:22 01.02.2020
3347 Haze 6 1019 70 5000 5.1 280 06:44 01.02.2020
3348 Clouds 6 1018 81 6000 3.1 250 05:54 01.02.2020
3349 Clouds 6 1018 75 7000 4.1 270 04:32 01.02.2020
3350 Clouds 6 1018 75 7000 4.1 270 03:26 01.02.2020
3351 Clouds 6 1018 75 7000 6.2 270 02:58 01.02.2020
3352 Clouds 6 1017 75 7000 6.2 270 02:39 01.02.2020
3353 Clouds 6 1017 75 7000 6.2 270 02:19 01.02.2020
3354 Clouds 6 1017 70 7000 3.1 230 01:46 01.02.2020
3355 Clouds 6 1017 70 7000 3.1 230 01:27 01.02.2020
3356 Clouds 6 1018 70 7000 2.6 200 00:24 01.02.2020
3357 Clear 6 1018 74 7000 6.2 240 23:41 31.01.2020
3358 Clear 6 1018 64 7000 6.2 240 23:19 31.01.2020
3359 Clouds 7 1018 70 7000 8.2 270 22:57 31.01.2020
3360 Clear 6 1018 64 7000 6.7 280 22:39 31.01.2020
3361 Clear 6 1018 64 7000 6.7 280 22:21 31.01.2020
3362 Clear 7 1018 64 7000 9.3 270 21:55 31.01.2020
3363 Clear 7 1018 64 7000 9.3 270 21:37 31.01.2020
3364 Clear 7 1018 64 7000 9.3 270 21:18 31.01.2020
3365 Clear 7 1018 64 6000 8.7 270 20:55 31.01.2020
3366 Clear 7 1018 64 6000 8.7 270 20:37 31.01.2020
3367 Clouds 7 1017 70 6000 8.7 270 20:18 31.01.2020
3368 Clouds 7 1017 70 6000 8.7 270 19:54 31.01.2020
3369 Clouds 7 1017 70 6000 8.7 270 19:36 31.01.2020
3370 Clouds 7 1017 70 6000 8.7 270 19:18 31.01.2020
3371 Clouds 7 1017 55 6000 7.2 280 18:38 31.01.2020
3372 Clouds 7 1017 55 6000 7.2 280 18:20 31.01.2020
3373 Haze 7 1016 65 5000 3.6 270 17:46 31.01.2020
3374 Haze 7 1016 65 5000 3.6 270 17:46 31.01.2020
3375 Haze 7 1016 65 5000 3.6 270 17:27 31.01.2020
3376 Haze 9 1016 48 5000 5.1 250 16:58 31.01.2020
3377 Haze 9 1016 48 5000 5.1 250 16:38 31.01.2020
3378 Haze 9 1016 48 5000 5.1 250 16:19 31.01.2020
3379 Squall 10 1015 46 6000 11.8 260 15:58 31.01.2020
3380 Squall 10 1015 46 6000 11.8 260 15:40 31.01.2020
3381 Squall 10 1015 46 6000 11.8 260 15:20 31.01.2020
3382 Squall 11 1015 50 7000 12.3 260 14:44 31.01.2020
3383 Squall 11 1015 50 7000 12.3 260 14:24 31.01.2020
3384 Squall 11 1015 81 7000 11.3 260 13:56 31.01.2020
3385 Squall 11 1015 81 7000 11.3 260 13:38 31.01.2020
3386 Squall 11 1015 81 7000 11.3 260 13:20 31.01.2020
3387 Rain 10 1015 81 4000 10.3 260 12:45 31.01.2020
3388 Rain 10 1015 81 4000 10.3 260 12:24 31.01.2020
3389 Rain 10 1015 81 4000 10.3 260 11:55 31.01.2020
3390 Rain 10 1016 87 4000 5.1 250 11:37 31.01.2020
3391 Rain 10 1016 87 4000 5.1 250 11:19 31.01.2020
3392 Dust 10 1016 76 4000 12.9 260 10:44 31.01.2020
3393 Rain 9 1017 70 4000 5.1 250 10:23 31.01.2020
3394 Rain 9 1017 70 4000 5.1 250 09:59 31.01.2020
3395 Rain 8 1018 87 3500 8.7 260 09:41 31.01.2020
3396 Rain 8 1018 87 3500 8.7 260 09:19 31.01.2020
3397 Rain 10 1016 66 3000 12.9 260 08:54 31.01.2020
3398 Rain 10 1016 66 3000 12.9 260 08:28 31.01.2020
3399 Rain 8 1016 75 4000 15.4 270 07:59 31.01.2020
3400 Drizzle 8 1016 75 3000 6.2 240 07:40 31.01.2020
3401 Drizzle 8 1016 75 3000 6.2 240 07:18 31.01.2020
3402 Haze 8 1016 87 4000 5.1 210 06:27 31.01.2020
3403 Haze 8 1016 87 4000 5.1 210 05:53 31.01.2020
3404 Haze 8 1016 87 4000 8.2 230 05:18 31.01.2020
3405 Haze 8 1018 87 5000 5.7 240 03:47 31.01.2020
3406 Haze 8 1018 70 5000 6.7 250 01:44 31.01.2020
3407 Haze 7 1018 87 5000 3.6 250 00:47 31.01.2020
3408 Haze 7 1018 87 5000 3.6 250 00:29 31.01.2020
3409 Haze 7 1019 75 5000 2.1 240 23:58 30.01.2020
3410 Haze 7 1019 75 5000 2.1 240 23:39 30.01.2020
3411 Haze 7 1019 75 5000 2.1 240 23:20 30.01.2020
3412 Haze 8 1019 75 5000 3.1 250 22:38 30.01.2020
3413 Haze 7 1019 75 5000 3.1 250 22:19 30.01.2020
3414 Haze 7 1019 87 5000 3.1 250 21:58 30.01.2020
3415 Haze 7 1019 87 5000 3.1 250 21:40 30.01.2020
3416 Haze 7 1019 87 5000 3.1 250 21:18 30.01.2020
3417 Haze 8 1020 76 5000 2.1 250 20:56 30.01.2020
3418 Haze 9 1020 76 5000 2.1 250 20:38 30.01.2020
3419 Haze 9 1020 76 5000 2.1 250 20:19 30.01.2020
3420 Haze 9 1020 66 5000 2.1 250 19:44 30.01.2020
3421 Haze 9 1020 66 5000 2.1 250 19:19 30.01.2020
3422 Clouds 9 1020 66 7000 1.5 290 18:58 30.01.2020
3423 Clouds 9 1020 66 7000 1.5 290 18:37 30.01.2020
3424 Clouds 9 1020 66 7000 1.5 290 18:18 30.01.2020
3425 Clouds 10 1020 61 8000 3.1 250 17:41 30.01.2020
3426 Clouds 10 1020 61 8000 3.1 250 17:19 30.01.2020
3427 Clouds 13 1020 47 8000 2.1 240 16:59 30.01.2020
3428 Clouds 13 1020 47 8000 2.1 240 16:40 30.01.2020
3429 Clouds 14 1020 47 8000 2.1 240 16:21 30.01.2020
3430 Clouds 14 1020 44 8000 3.6 250 15:45 30.01.2020
3431 Clouds 14 1020 44 8000 3.6 250 15:22 30.01.2020
3432 Clouds 14 1020 41 8000 3.1 240 14:58 30.01.2020
3433 Clouds 14 1020 41 8000 3.1 240 14:40 30.01.2020
3434 Clouds 14 1020 41 8000 3.1 240 14:22 30.01.2020
3435 Clouds 14 1020 44 10000 3.1 260 13:42 30.01.2020
3436 Clouds 14 1020 44 10000 3.1 260 13:24 30.01.2020
3437 Clouds 14 1021 47 10000 2.1 210 12:57 30.01.2020
3438 Clouds 14 1021 47 10000 2.1 210 12:38 30.01.2020
3439 Clouds 14 1021 47 10000 2.1 210 12:20 30.01.2020
3440 Clouds 13 1022 58 10000 2.6 240 11:41 30.01.2020
3441 Clouds 13 1022 58 10000 2.6 240 11:23 30.01.2020
3442 Clouds 13 1022 58 10000 1 200 10:59 30.01.2020
3443 Clouds 13 1022 58 10000 1 200 10:40 30.01.2020
3444 Clouds 13 1022 58 10000 1 200 10:21 30.01.2020
3445 Haze 11 1023 66 5000 1 230 09:46 30.01.2020
3446 Haze 11 1023 66 5000 1 230 09:27 30.01.2020
3447 Haze 9 1023 81 5000 1.5 240 08:57 30.01.2020
3448 Mist 8 1023 93 4000 1.5 240 08:37 30.01.2020
3449 Mist 8 1023 93 4000 1.5 240 08:18 30.01.2020
3450 Mist 6 1023 93 2000 2.1 280 07:48 30.01.2020
3451 Mist 6 1023 93 2000 2.1 280 07:20 30.01.2020
3452 Fog 4 1023 100 800 0.77 295 06:47 30.01.2020
3453 Fog 4 1023 100 500 0.77 295 06:27 30.01.2020
3454 Mist 4 1023 93 1000 1 230 05:43 30.01.2020
3455 Mist 4 1023 93 3000 1 240 05:19 30.01.2020
3456 Mist 5 1023 93 5000 2.1 220 03:52 30.01.2020
3457 Mist 5 1023 93 5000 2.1 220 03:34 30.01.2020
3458 Mist 5 1023 87 5000 2.1 230 02:19 30.01.2020
3459 Haze 6 1023 87 5000 1 200 00:40 30.01.2020
3460 Haze 6 1023 87 5000 1 200 00:20 30.01.2020
3461 Mist 6 1023 100 3000 1.34 281 23:45 29.01.2020
3462 Haze 7 1023 87 5000 2.1 240 23:21 29.01.2020
3463 Haze 7 1023 87 5000 2.1 280 22:57 29.01.2020
3464 Haze 7 1023 87 5000 2.1 280 22:38 29.01.2020
3465 Haze 7 1023 87 5000 2.1 280 22:19 29.01.2020
3466 Clear 7 1023 100 6000 3.32 298 21:57 29.01.2020
3467 Haze 8 1023 87 5000 2.1 250 21:38 29.01.2020
3468 Haze 8 1023 87 5000 2.1 250 21:19 29.01.2020
3469 Haze 8 1023 87 5000 2.1 280 20:58 29.01.2020
3470 Haze 8 1023 87 5000 2.1 280 20:38 29.01.2020
3471 Haze 8 1023 87 5000 2.1 280 20:38 29.01.2020
3472 Haze 8 1023 87 5000 2.1 280 20:19 29.01.2020
3473 Haze 8 1023 87 5000 2.1 280 20:19 29.01.2020
3474 Clouds 8 1023 100 6000 2.6 300 19:55 29.01.2020
3475 Haze 9 1023 87 5000 3.1 280 19:37 29.01.2020
3476 Haze 9 1023 87 5000 3.1 280 19:18 29.01.2020
3477 Haze 10 1023 81 5000 3.6 260 18:46 29.01.2020
3478 Haze 10 1023 81 5000 3.6 260 18:19 29.01.2020
3479 Haze 10 1022 81 4000 3.6 280 17:57 29.01.2020
3480 Haze 10 1022 81 4000 3.6 280 17:38 29.01.2020
3481 Haze 10 1022 81 4000 3.6 280 17:20 29.01.2020
3482 Haze 10 1021 87 4000 4.6 260 16:41 29.01.2020
3483 Haze 10 1021 87 4000 4.6 260 16:23 29.01.2020
3484 Haze 11 1020 81 4000 4.1 200 15:55 29.01.2020
3485 Haze 11 1020 81 4000 4.1 200 15:37 29.01.2020
3486 Haze 11 1020 81 4000 4.1 200 15:18 29.01.2020
3487 Haze 12 1020 66 4000 5.7 270 14:42 29.01.2020
3488 Haze 12 1020 66 4000 5.7 270 14:20 29.01.2020
3489 Drizzle 12 1020 76 3500 5.7 250 13:54 29.01.2020
3490 Drizzle 12 1020 76 3500 5.7 250 13:36 29.01.2020
3491 Drizzle 12 1020 76 3500 5.7 250 13:36 29.01.2020
3492 Drizzle 12 1020 76 3500 5.7 250 13:18 29.01.2020
3493 Haze 12 1021 76 5000 6.2 270 12:55 29.01.2020
3494 Drizzle 11 1020 76 3500 4.6 250 12:37 29.01.2020
3495 Drizzle 11 1020 76 3500 4.6 250 12:18 29.01.2020
3496 Drizzle 10 1021 81 3500 4.6 240 11:44 29.01.2020
3497 Mist 10 1021 87 5000 5.7 280 11:20 29.01.2020
3498 Mist 10 1021 87 5000 5.7 280 10:46 29.01.2020
3499 Rain 10 1021 81 5000 6.2 270 10:25 29.01.2020
3500 Rain 10 1021 81 5000 6.2 270 09:58 29.01.2020
3501 Rain 10 1021 81 5000 6.2 270 09:39 29.01.2020
3502 Rain 10 1021 81 5000 6.2 270 09:20 29.01.2020
3503 Drizzle 9 1021 93 3000 7.2 260 08:56 29.01.2020
3504 Rain 9 1020 87 4000 6.2 270 08:37 29.01.2020
3505 Rain 9 1020 87 4000 6.2 270 08:18 29.01.2020
3506 Rain 8 1020 93 4000 6.7 250 07:43 29.01.2020
3507 Rain 8 1020 93 5000 7.2 250 07:21 29.01.2020
3508 Mist 8 1019 87 4000 5.7 280 06:38 29.01.2020
3509 Mist 8 1019 87 4000 5.7 280 06:19 29.01.2020
3510 Mist 8 1019 87 4000 5.7 280 05:52 29.01.2020
3511 Mist 8 1019 87 5000 6.2 250 05:33 29.01.2020
3512 Mist 8 1018 87 5000 6.2 250 04:39 29.01.2020
3513 Drizzle 8 1018 87 5000 6.2 250 03:59 29.01.2020
3514 Clear 7 1019 92 0 3.44 295 02:38 29.01.2020
3515 Drizzle 8 1018 87 5000 5.7 240 01:27 29.01.2020
3516 Haze 8 1017 87 5000 5.1 250 00:39 29.01.2020
3517 Haze 8 1017 87 5000 5.1 250 00:21 29.01.2020
3518 Haze 8 1018 87 5000 5.1 250 23:40 28.01.2020
3519 Haze 8 1018 87 5000 5.1 250 23:20 28.01.2020
3520 Haze 8 1018 76 5000 2.6 220 22:56 28.01.2020
3521 Haze 8 1018 76 5000 2.6 220 22:56 28.01.2020
3522 Haze 8 1018 76 5000 2.6 220 22:36 28.01.2020
3523 Haze 8 1018 76 5000 2.6 220 22:18 28.01.2020
3524 Haze 8 1018 76 5000 2.6 220 22:18 28.01.2020
3525 Clouds 8 1018 81 6000 3.6 250 21:39 28.01.2020
3526 Clouds 8 1018 81 6000 3.6 250 21:20 28.01.2020
3527 Clouds 8 1018 81 6000 6.2 260 20:46 28.01.2020
3528 Clouds 8 1018 81 6000 6.2 260 20:28 28.01.2020
3529 Clouds 9 1018 76 6000 4.6 240 19:58 28.01.2020
3530 Clouds 9 1018 76 6000 4.6 240 19:38 28.01.2020
3531 Clouds 9 1018 76 6000 4.6 240 19:19 28.01.2020
3532 Haze 10 1017 76 4000 5.1 260 18:57 28.01.2020
3533 Haze 10 1017 76 4000 5.1 260 18:38 28.01.2020
3534 Haze 10 1017 76 4000 5.1 260 18:20 28.01.2020
3535 Haze 10 1017 76 3000 6.2 270 17:55 28.01.2020
3536 Haze 10 1017 76 3000 6.2 270 17:36 28.01.2020
3537 Haze 10 1017 76 3000 6.2 270 17:18 28.01.2020
3538 Haze 11 1017 66 3000 6.2 270 16:44 28.01.2020
3539 Haze 11 1017 66 3000 6.2 270 16:26 28.01.2020
3540 Haze 11 1017 66 3000 6.2 270 15:59 28.01.2020
3541 Haze 11 1017 66 3000 6.2 270 15:40 28.01.2020
3542 Haze 11 1017 66 3000 6.2 270 15:18 28.01.2020
3543 Haze 13 1016 54 3000 4.1 250 14:44 28.01.2020
3544 Haze 13 1016 54 3000 4.1 250 14:20 28.01.2020
3545 Haze 13 1016 37 5000 4.1 240 13:45 28.01.2020
3546 Haze 13 1016 37 5000 4.1 240 13:25 28.01.2020
3547 Haze 13 1017 43 5000 3.1 240 12:59 28.01.2020
3548 Haze 13 1017 43 5000 3.1 240 12:41 28.01.2020
3549 Haze 13 1017 43 5000 3.1 240 12:22 28.01.2020
3550 Smoke 12 1017 54 3000 2.1 210 11:48 28.01.2020
3551 Smoke 12 1017 54 3000 2.1 210 11:23 28.01.2020
3552 Smoke 10 1019 61 2500 3.09 134 10:58 28.01.2020
3553 Smoke 10 1019 61 2500 3.09 134 10:39 28.01.2020
3554 Smoke 10 1019 61 2500 3.09 134 10:20 28.01.2020
3555 Smoke 8 1019 65 3000 3.09 134 09:42 28.01.2020
3556 Smoke 8 1019 65 3000 3.09 134 09:21 28.01.2020
3557 Smoke 6 1019 70 3000 1.5 50 08:57 28.01.2020
3558 Smoke 6 1019 70 3000 1.5 50 08:39 28.01.2020
3559 Smoke 6 1019 70 3000 1.5 50 08:18 28.01.2020
3560 Haze 4 1019 86 3000 3.92 109 07:37 28.01.2020
3561 Haze 4 1019 86 3000 3.92 109 07:37 28.01.2020
3562 Haze 4 1019 80 2000 3.92 109 06:50 28.01.2020
3563 Haze 4 1019 80 2000 3.92 109 06:26 28.01.2020
3564 Haze 4 1019 80 2000 3.92 109 05:54 28.01.2020
3565 Haze 4 1019 80 5000 3.92 109 05:26 28.01.2020
3566 Haze 5 1019 75 5000 3.72 108 04:28 28.01.2020
3567 Clouds 5 1020 75 7000 3.72 108 02:58 28.01.2020
3568 Clouds 5 1020 75 7000 3.72 108 02:25 28.01.2020
3569 Clouds 6 1020 70 6000 3.53 110 01:57 28.01.2020
3570 Clouds 6 1020 70 6000 3.53 110 01:57 28.01.2020
3571 Clouds 6 1020 70 6000 3.53 110 01:26 28.01.2020
3572 Clouds 7 1021 50 6000 3.55 105 00:51 28.01.2020
3573 Clouds 7 1021 50 6000 3.55 105 00:29 28.01.2020
3574 Clouds 6 1021 75 6000 3.55 105 23:51 27.01.2020
3575 Clouds 6 1021 75 6000 3.55 105 23:30 27.01.2020
3576 Clouds 7 1022 70 6000 3.43 126 22:58 27.01.2020
3577 Clouds 7 1022 70 6000 3.43 126 22:40 27.01.2020
3578 Clouds 7 1022 70 6000 3.43 126 22:19 27.01.2020
3579 Clouds 7 1022 70 6000 3.43 126 21:55 27.01.2020
3580 Clouds 7 1022 70 6000 3.43 126 21:37 27.01.2020
3581 Clouds 7 1022 70 6000 3.43 126 21:18 27.01.2020
3582 Clouds 8 1022 75 6000 3.43 126 20:43 27.01.2020
3583 Clouds 8 1022 75 6000 3.43 126 20:22 27.01.2020
3584 Clouds 9 1022 70 6000 3.54 129 19:59 27.01.2020
3585 Clouds 9 1022 70 6000 3.54 129 19:41 27.01.2020
3586 Clouds 9 1022 70 6000 3.54 129 19:22 27.01.2020
3587 Haze 9 1022 66 5000 1 10 18:56 27.01.2020
3588 Haze 9 1022 66 5000 1 10 18:38 27.01.2020
3589 Haze 9 1022 66 5000 1 10 18:19 27.01.2020
3590 Clouds 9 1022 41 0 3.54 129 17:39 27.01.2020
3591 Haze 12 1022 47 5000 3.1 90 17:21 27.01.2020
3592 Haze 12 1022 47 5000 3.1 90 16:59 27.01.2020
3593 Haze 12 1022 47 5000 3.1 90 16:41 27.01.2020
3594 Haze 12 1022 47 5000 3.1 90 16:23 27.01.2020
3595 Haze 14 1022 38 5000 2.1 150 15:55 27.01.2020
3596 Haze 14 1022 38 5000 2.1 150 15:37 27.01.2020
3597 Haze 14 1022 38 5000 2.1 150 15:19 27.01.2020
3598 Haze 14 1022 38 5000 2.1 150 15:19 27.01.2020
3599 Haze 15 1022 38 5000 1.5 150 14:54 27.01.2020
3600 Haze 15 1022 38 5000 1.5 150 14:36 27.01.2020
3601 Haze 15 1022 29 5000 1.5 150 14:18 27.01.2020
3602 Haze 14 1023 47 5000 1.5 100 13:41 27.01.2020
3603 Haze 14 1023 47 5000 1.5 100 13:20 27.01.2020
3604 Haze 12 1024 54 5000 2.1 50 12:56 27.01.2020
3605 Haze 12 1024 54 5000 2.1 50 12:37 27.01.2020
3606 Haze 12 1024 54 5000 2.1 50 12:19 27.01.2020
3607 Haze 12 1025 58 5000 1 180 11:41 27.01.2020
3608 Haze 12 1025 58 5000 1 180 11:21 27.01.2020
3609 Haze 9 1026 70 4000 1 100 10:43 27.01.2020
3610 Haze 9 1026 70 4000 1 100 10:25 27.01.2020
3611 Haze 7 1026 75 4000 1 30 09:58 27.01.2020
3612 Haze 8 1026 75 4000 1 30 09:39 27.01.2020
3613 Haze 7 1026 75 4000 1 30 09:18 27.01.2020
3614 Haze 6 1026 87 3000 2.98 140 08:46 27.01.2020
3615 Haze 6 1026 87 3000 2.98 140 08:22 27.01.2020
3616 Mist 4 1026 93 4000 3.1 70 07:55 27.01.2020
3617 Mist 3 1026 86 1500 1.77 124 07:35 27.01.2020
3618 Mist 1 1026 93 1500 1.77 124 06:55 27.01.2020
3619 Mist 1 1026 93 1500 1.77 124 06:27 27.01.2020
3620 Mist 1 1026 93 3000 1.77 124 05:37 27.01.2020
3621 Mist 1 1026 93 3000 1.77 124 05:37 27.01.2020
3622 Mist 1 1026 100 4000 0.26 226 04:20 27.01.2020
3623 Mist 2 1026 93 4000 0.26 226 03:27 27.01.2020
3624 Mist 3 1026 93 4000 0.73 296 01:32 27.01.2020
3625 Mist 3 1027 86 4000 1 240 00:59 27.01.2020
3626 Mist 3 1027 86 4000 1 240 00:38 27.01.2020
3627 Mist 3 1027 86 4000 1 240 00:19 27.01.2020
3628 Mist 4 1027 86 4000 1.5 240 23:42 26.01.2020
3629 Mist 4 1027 86 4000 1.5 240 23:20 26.01.2020
3630 Mist 4 1027 86 4000 1 160 22:57 26.01.2020
3631 Mist 4 1027 86 4000 1 160 22:37 26.01.2020
3632 Mist 4 1027 86 4000 1 160 22:19 26.01.2020
3633 Mist 4 1027 86 4000 1 160 22:19 26.01.2020
3634 Clear 4 1028 86 6000 2.1 320 21:57 26.01.2020
3635 Mist 5 1027 93 4000 1 210 21:38 26.01.2020
3636 Mist 5 1027 93 4000 1 210 21:38 26.01.2020
3637 Mist 5 1027 93 4000 1 210 21:20 26.01.2020
3638 Haze 6 1027 81 4000 1 140 20:57 26.01.2020
3639 Haze 6 1027 81 4000 1 140 20:38 26.01.2020
3640 Haze 6 1027 81 4000 1 140 20:18 26.01.2020
3641 Clear 6 1027 87 6000 2.96 336 19:57 26.01.2020
3642 Clear 6 1027 87 6000 2.96 336 19:37 26.01.2020
3643 Clear 6 1027 87 6000 2.96 336 19:18 26.01.2020
3644 Clear 7 1027 81 6000 1 260 18:54 26.01.2020
3645 Clear 7 1027 81 6000 1 260 18:36 26.01.2020
3646 Clear 7 1027 81 6000 1 260 18:18 26.01.2020
3647 Clear 8 1027 75 6000 1 110 17:54 26.01.2020
3648 Clear 8 1027 75 6000 1 110 17:36 26.01.2020
3649 Clear 8 1027 75 6000 1 110 17:18 26.01.2020
3650 Clear 10 1027 61 6000 2.1 360 16:54 26.01.2020
3651 Clear 10 1027 61 6000 2.1 360 16:36 26.01.2020
3652 Clear 10 1027 61 6000 2.1 360 16:18 26.01.2020
3653 Clear 10 1027 42 0 1.58 295 15:41 26.01.2020
3654 Clear 10 1027 42 0 1.58 295 15:19 26.01.2020
3655 Clear 10 1027 42 0 1.58 295 14:41 26.01.2020
3656 Clear 10 1027 42 0 1.58 295 14:23 26.01.2020
3657 Clear 11 1026 31 0 2.09 254 13:59 26.01.2020
3658 Clear 11 1026 31 0 2.09 254 13:38 26.01.2020
3659 Clear 11 1026 31 0 2.09 254 13:18 26.01.2020
3660 Clear 11 1026 31 0 2.09 254 13:18 26.01.2020
3661 Clear 12 1026 31 0 2.58 262 12:43 26.01.2020
3662 Clear 12 1026 31 0 2.58 262 12:43 26.01.2020
3663 Clear 12 1026 31 0 2.58 262 12:25 26.01.2020
3664 Clear 12 1026 31 0 2.58 262 11:59 26.01.2020
3665 Clear 12 1026 31 0 2.58 262 11:40 26.01.2020
3666 Clear 9 1030 49 7000 1.5 150 11:19 26.01.2020
3667 Clear 9 1030 49 7000 1.5 150 10:59 26.01.2020
3668 Clear 9 1030 49 7000 1.5 150 10:39 26.01.2020
3669 Clear 9 1030 49 7000 1.5 150 10:21 26.01.2020
3670 Clear 7 1030 56 7000 2.42 218 09:59 26.01.2020
3671 Clear 7 1030 56 7000 2.42 218 09:41 26.01.2020
3672 Clear 7 1030 56 7000 2.42 218 09:22 26.01.2020
3673 Smoke 5 1030 75 5000 1.5 240 08:55 26.01.2020
3674 Smoke 5 1030 75 5000 1.5 240 08:37 26.01.2020
3675 Smoke 5 1030 75 5000 1.5 240 08:18 26.01.2020
3676 Haze 3 1030 63 2000 1.5 240 07:45 26.01.2020
3677 Haze 3 1030 63 2000 1.5 240 07:45 26.01.2020
3678 Haze 3 1030 63 2000 1.5 240 07:22 26.01.2020
3679 Haze 1 1029 63 3000 1.5 240 06:32 26.01.2020
3680 Haze 1 1029 80 5000 1.37 202 05:52 26.01.2020
3681 Haze 1 1029 80 5000 1.37 202 05:22 26.01.2020
3682 Haze 2 1029 78 5000 1 210 03:22 26.01.2020
3683 Haze 1 1029 80 5000 0.77 290 02:23 26.01.2020
3684 Haze 2 1029 72 4000 1.46 311 01:40 26.01.2020
3685 Haze 2 1029 71 4000 1.46 309 01:20 26.01.2020
3686 Mist 2 1029 100 3000 1 240 00:40 26.01.2020
3687 Mist 2 1029 100 3000 1 240 00:20 26.01.2020
3688 Clear 4 1030 71 0 1.46 309 23:38 25.01.2020
3689 Clear 5 1030 65 0 2.09 325 23:20 25.01.2020
3690 Clear 5 1030 65 0 2.09 325 22:44 25.01.2020
3691 Clear 5 1030 65 0 2.09 325 22:21 25.01.2020
3692 Clear 5 1030 65 0 2.09 325 21:59 25.01.2020
3693 Clear 5 1030 65 0 2.09 325 21:59 25.01.2020
3694 Clear 5 1030 65 0 2.09 325 21:41 25.01.2020
3695 Clear 5 1030 65 0 2.09 325 21:22 25.01.2020
3696 Clear 5 1030 65 0 2.09 325 20:55 25.01.2020
3697 Clear 5 1030 65 0 2.09 325 20:36 25.01.2020
3698 Clear 7 1030 52 0 1.39 294 20:18 25.01.2020
3699 Clear 7 1030 65 0 2.86 298 19:42 25.01.2020
3700 Clear 7 1030 65 0 2.86 298 19:20 25.01.2020
3701 Clear 7 1030 65 0 2.86 298 18:56 25.01.2020
3702 Clear 7 1030 52 0 1.39 294 18:38 25.01.2020
3703 Clear 7 1030 52 0 1.39 294 18:20 25.01.2020
3704 Clear 7 1030 65 0 2.86 298 17:40 25.01.2020
3705 Clear 8 1029 45 0 1.7 324 17:19 25.01.2020
3706 Clear 8 1029 45 0 1.7 324 16:58 25.01.2020
3707 Clear 8 1029 45 0 1.7 324 16:38 25.01.2020
3708 Clear 8 1029 45 0 1.7 324 16:19 25.01.2020
3709 Clear 8 1029 45 0 1.7 324 15:47 25.01.2020
3710 Clear 8 1029 45 0 1.7 324 15:25 25.01.2020
3711 Clear 8 1029 45 0 1.7 324 14:59 25.01.2020
3712 Clear 8 1029 45 0 1.7 324 14:40 25.01.2020
3713 Clear 9 1028 34 0 2.39 313 14:18 25.01.2020
3714 Clear 9 1028 34 0 2.39 313 13:42 25.01.2020
3715 Clear 9 1028 34 0 2.39 313 13:42 25.01.2020
3716 Clear 9 1028 34 0 2.09 308 13:23 25.01.2020
3717 Clear 9 1028 34 0 2.09 308 12:45 25.01.2020
3718 Clouds 8 1028 49 10000 1 360 12:26 25.01.2020
3719 Clouds 8 1028 49 10000 1 360 11:45 25.01.2020
3720 Clouds 8 1028 49 10000 1 360 11:22 25.01.2020
3721 Clouds 7 1029 56 10000 1.5 340 10:59 25.01.2020
3722 Clouds 7 1029 56 10000 1.5 340 10:40 25.01.2020
3723 Clouds 7 1029 56 10000 1.5 340 10:20 25.01.2020
3724 Clear 6 1028 56 10000 1 360 09:54 25.01.2020
3725 Clear 6 1028 56 10000 1 360 09:36 25.01.2020
3726 Clear 6 1028 56 10000 1 360 09:18 25.01.2020
3727 Clear 5 1027 60 10000 2.1 360 08:42 25.01.2020
3728 Smoke 3 1027 64 5000 1.5 220 07:51 25.01.2020
3729 Clouds 1 1026 74 7000 1 200 06:57 25.01.2020
3730 Clouds 1 1026 74 7000 1 200 06:31 25.01.2020
3731 Clear 1 1026 74 7000 1 280 05:48 25.01.2020
3732 Clear 1 1026 74 7000 1 280 05:28 25.01.2020
3733 Clear 2 1024 69 8000 1.5 260 03:54 25.01.2020
3734 Clear 2 1024 69 8000 1.5 260 03:23 25.01.2020
3735 Clear 2 1023 74 8000 2.1 260 02:24 25.01.2020
3736 Clear 3 1023 69 8000 3.6 280 01:53 25.01.2020
3737 Clouds 2 1023 80 8000 3.1 260 00:52 25.01.2020
3738 Clouds 2 1023 80 8000 3.1 260 00:27 25.01.2020
3739 Clouds 2 1023 74 8000 2.1 360 23:59 24.01.2020
3740 Clouds 2 1023 74 8000 2.1 360 23:41 24.01.2020
3741 Clouds 2 1023 74 8000 2.1 360 23:41 24.01.2020
3742 Clouds 2 1023 74 8000 2.1 360 23:23 24.01.2020
3743 Clouds 2 1023 74 8000 2.1 360 23:23 24.01.2020
3744 Clouds 3 1023 69 8000 2.1 350 22:46 24.01.2020
3745 Clouds 3 1023 69 8000 2.1 350 22:26 24.01.2020
3746 Clouds 3 1023 64 10000 3.1 330 21:57 24.01.2020
3747 Clouds 3 1023 64 10000 3.1 330 21:57 24.01.2020
3748 Clouds 3 1023 64 10000 3.1 330 21:39 24.01.2020
3749 Clouds 3 1023 64 10000 3.1 330 21:18 24.01.2020
3750 Clouds 4 1023 55 10000 5.7 320 20:43 24.01.2020
3751 Clouds 4 1023 55 10000 5.7 320 20:22 24.01.2020
3752 Clouds 4 1022 69 10000 6.7 320 19:58 24.01.2020
3753 Clouds 4 1022 69 10000 6.7 320 19:40 24.01.2020
3754 Clouds 4 1022 69 10000 6.7 320 19:21 24.01.2020
3755 Clouds 5 1021 64 10000 4.1 290 18:54 24.01.2020
3756 Clouds 5 1021 64 10000 4.1 290 18:36 24.01.2020
3757 Clouds 5 1021 64 10000 4.1 290 18:18 24.01.2020
3758 Clouds 5 1020 75 10000 6.2 300 17:42 24.01.2020
3759 Clouds 5 1020 75 10000 6.2 300 17:21 24.01.2020
3760 Clouds 6 1018 75 7000 6.2 290 16:43 24.01.2020
3761 Clouds 6 1018 75 7000 6.2 290 16:22 24.01.2020
3762 Clouds 6 1018 75 7000 6.2 290 16:22 24.01.2020
3763 Clouds 7 1018 75 7000 4.1 330 15:57 24.01.2020
3764 Clouds 7 1018 75 7000 4.1 330 15:39 24.01.2020
3765 Clouds 7 1018 75 7000 4.1 330 15:20 24.01.2020
3766 Clouds 7 1018 70 7000 7.2 270 14:41 24.01.2020
3767 Clouds 6 1017 81 8000 9.3 310 14:23 24.01.2020
3768 Clouds 6 1016 75 10000 9.3 310 13:57 24.01.2020
3769 Clouds 6 1016 75 10000 9.3 310 13:39 24.01.2020
3770 Clouds 6 1016 75 10000 9.3 310 13:19 24.01.2020
3771 Clouds 6 1015 75 8000 9.3 310 12:41 24.01.2020
3772 Clouds 6 1015 75 8000 9.3 310 12:18 24.01.2020
3773 Mist 5 1015 93 5000 8.7 270 11:43 24.01.2020
3774 Rain 5 1016 93 1000 9.3 310 11:19 24.01.2020
3775 Rain 5 1015 86 1000 6.2 280 10:43 24.01.2020
3776 Rain 5 1015 86 2000 5.1 310 10:23 24.01.2020
3777 Rain 5 1015 86 2000 5.1 310 10:23 24.01.2020
3778 Mist 5 1015 87 3000 10.3 270 09:57 24.01.2020
3779 Rain 5 1014 93 4000 7.2 310 09:39 24.01.2020
3780 Rain 5 1014 93 4000 7.2 310 09:21 24.01.2020
3781 Rain 5 1014 93 2000 7.2 310 08:41 24.01.2020
3782 Rain 6 1014 87 3000 4.1 320 08:20 24.01.2020
3783 Clouds 6 1013 87 6000 2.6 250 07:53 24.01.2020
3784 Rain 5 1014 100 1500 9.3 270 07:35 24.01.2020
3785 Mist 6 1013 87 3000 12.9 270 06:48 24.01.2020
3786 Rain 7 1013 93 3000 7.7 270 06:29 24.01.2020
3787 Rain 7 1012 93 4000 9.3 270 05:59 24.01.2020
3788 Rain 7 1012 87 1200 9.3 260 05:18 24.01.2020
3789 Rain 7 1014 87 1200 8.7 250 02:54 24.01.2020
3790 Rain 7 1014 87 1200 8.7 250 02:26 24.01.2020
3791 Rain 7 1014 87 1800 8.7 250 01:49 24.01.2020
3792 Rain 7 1014 87 1800 8.7 250 01:31 24.01.2020
3793 Mist 7 1016 81 1800 6.7 240 00:26 24.01.2020
3794 Rain 7 1016 75 2000 5.1 240 23:56 23.01.2020
3795 Haze 7 1017 75 4000 5.7 230 23:37 23.01.2020
3796 Haze 7 1017 75 4000 5.7 230 23:18 23.01.2020
3797 Haze 7 1018 75 4000 4.1 210 22:39 23.01.2020
3798 Haze 7 1018 75 4000 4.1 210 22:19 23.01.2020
3799 Drizzle 6 1019 93 4000 7.2 240 21:58 23.01.2020
3800 Drizzle 6 1019 93 4000 7.2 240 21:39 23.01.2020
3801 Drizzle 6 1019 93 4000 7.2 240 21:21 23.01.2020
3802 Rain 7 1019 87 3000 5.1 260 20:59 23.01.2020
3803 Rain 7 1019 87 3000 5.1 260 20:39 23.01.2020
3804 Rain 7 1019 87 3000 5.1 260 20:39 23.01.2020
3805 Rain 7 1019 87 3000 5.1 260 20:20 23.01.2020
3806 Rain 7 1019 87 3000 5.1 260 19:56 23.01.2020
3807 Drizzle 7 1019 87 3000 6.2 280 19:38 23.01.2020
3808 Drizzle 7 1019 87 3000 6.2 280 19:20 23.01.2020
3809 Rain 7 1020 87 3000 6.2 280 18:56 23.01.2020
3810 Rain 7 1020 87 3000 6.2 280 18:37 23.01.2020
3811 Rain 7 1020 87 3000 6.2 280 18:19 23.01.2020
3812 Drizzle 8 1020 81 3000 3.1 250 17:43 23.01.2020
3813 Drizzle 8 1020 81 3000 3.1 250 17:20 23.01.2020
3814 Haze 8 1020 81 4000 6.2 240 16:58 23.01.2020
3815 Haze 8 1020 81 4000 6.2 240 16:38 23.01.2020
3816 Haze 8 1020 81 4000 6.2 240 16:19 23.01.2020
3817 Rain 8 1021 87 4000 6.2 240 15:57 23.01.2020
3818 Haze 8 1020 81 4000 6.7 240 15:38 23.01.2020
3819 Haze 8 1020 81 4000 6.7 240 15:18 23.01.2020
3820 Haze 8 1020 81 5000 6.2 250 14:56 23.01.2020
3821 Haze 8 1020 81 5000 6.2 250 14:56 23.01.2020
3822 Haze 8 1020 81 5000 6.2 250 14:38 23.01.2020
3823 Haze 8 1020 81 5000 6.2 250 14:20 23.01.2020
3824 Haze 9 1020 70 4000 5.7 250 13:45 23.01.2020
3825 Haze 9 1020 70 4000 5.7 250 13:21 23.01.2020
3826 Haze 9 1020 75 4000 4.1 260 12:56 23.01.2020
3827 Haze 9 1020 75 4000 4.1 260 12:56 23.01.2020
3828 Haze 9 1020 75 4000 4.1 260 12:38 23.01.2020
3829 Haze 9 1020 75 4000 4.1 260 12:20 23.01.2020
3830 Drizzle 8 1021 87 4000 4.6 250 11:43 23.01.2020
3831 Drizzle 8 1021 87 4000 4.6 250 11:25 23.01.2020
3832 Mist 8 1022 81 4000 4.6 250 10:59 23.01.2020
3833 Mist 8 1022 81 4000 4.6 250 10:41 23.01.2020
3834 Mist 8 1022 81 4000 4.6 250 10:19 23.01.2020
3835 Mist 7 1022 81 3500 4.6 250 09:41 23.01.2020
3836 Mist 7 1022 81 3500 4.6 250 09:22 23.01.2020
3837 Mist 7 1022 87 3500 2.6 220 08:57 23.01.2020
3838 Drizzle 5 1022 87 3500 4.1 250 08:38 23.01.2020
3839 Drizzle 5 1022 87 3500 4.1 250 08:19 23.01.2020
3840 Mist 4 1021 93 4000 4.1 250 07:42 23.01.2020
3841 Mist 4 1021 93 4000 4.1 250 07:21 23.01.2020
3842 Mist 4 1021 93 4000 4.1 250 07:21 23.01.2020
3843 Mist 3 1021 93 4000 4.1 250 06:44 23.01.2020
3844 Mist 3 1021 93 4000 4.1 250 06:19 23.01.2020
3845 Mist 3 1020 93 5000 3.6 240 04:25 23.01.2020
3846 Mist 3 1021 93 5000 2.6 250 03:48 23.01.2020
3847 Fog 3 1021 100 100 4.25 280 01:56 23.01.2020
3848 Mist 4 1021 86 5000 3.6 250 00:47 23.01.2020
3849 Mist 4 1021 86 5000 3.6 250 00:26 23.01.2020
3850 Mist 4 1022 86 5000 2.6 250 23:47 22.01.2020
3851 Mist 4 1022 86 5000 2.6 250 23:47 22.01.2020
3852 Mist 4 1022 86 5000 2.6 250 23:28 22.01.2020
3853 Mist 4 1022 86 5000 4.1 260 22:56 22.01.2020
3854 Mist 4 1022 86 5000 4.1 260 22:38 22.01.2020
3855 Mist 4 1022 86 5000 4.1 260 22:20 22.01.2020
3856 Clouds 5 1022 86 6000 4.1 260 21:39 22.01.2020
3857 Clouds 5 1022 86 6000 4.1 260 21:21 22.01.2020
3858 Clouds 5 1021 81 6000 3.1 240 20:56 22.01.2020
3859 Clouds 6 1021 81 6000 3.1 240 20:37 22.01.2020
3860 Clouds 6 1021 81 6000 3.1 240 20:18 22.01.2020
3861 Clouds 6 1021 81 6000 3.1 240 19:55 22.01.2020
3862 Haze 6 1021 75 5000 5.7 280 19:37 22.01.2020
3863 Haze 6 1021 75 5000 5.7 280 19:18 22.01.2020
3864 Clouds 5 1021 100 6000 2.1 260 18:56 22.01.2020
3865 Clouds 5 1021 100 6000 2.1 260 18:37 22.01.2020
3866 Clouds 5 1021 100 6000 2.1 260 18:19 22.01.2020
3867 Haze 6 1020 87 4000 3.6 300 17:40 22.01.2020
3868 Haze 6 1020 87 4000 3.6 300 17:21 22.01.2020
3869 Haze 7 1020 75 4000 4.6 270 16:58 22.01.2020
3870 Haze 7 1020 75 4000 4.6 270 16:39 22.01.2020
3871 Haze 7 1020 75 4000 4.6 270 16:21 22.01.2020
3872 Rain 7 1020 81 4000 4.6 270 15:58 22.01.2020
3873 Rain 7 1020 81 4000 4.6 270 15:38 22.01.2020
3874 Rain 7 1020 81 4000 4.6 270 15:20 22.01.2020
3875 Rain 7 1020 81 3000 6.2 280 14:40 22.01.2020
3876 Rain 7 1020 81 3000 6.2 280 14:40 22.01.2020
3877 Rain 7 1020 81 3000 6.2 280 14:40 22.01.2020
3878 Rain 7 1020 81 3000 6.2 280 14:21 22.01.2020
3879 Rain 8 1019 70 3000 4.1 270 13:59 22.01.2020
3880 Haze 8 1019 65 5000 6.2 310 13:38 22.01.2020
3881 Haze 8 1019 65 5000 6.2 310 13:19 22.01.2020
3882 Haze 8 1020 70 5000 5.1 320 12:57 22.01.2020
3883 Haze 8 1020 70 5000 5.1 320 12:39 22.01.2020
3884 Haze 8 1020 70 5000 5.1 320 12:20 22.01.2020
3885 Clouds 8 1020 70 6000 3.6 300 11:58 22.01.2020
3886 Clouds 8 1020 70 6000 3.6 300 11:40 22.01.2020
3887 Clouds 8 1020 70 6000 3.6 300 11:19 22.01.2020
3888 Clouds 8 1021 70 6000 2.6 300 10:59 22.01.2020
3889 Clouds 8 1021 70 6000 2.6 300 10:41 22.01.2020
3890 Clouds 8 1021 70 6000 2.6 300 10:18 22.01.2020
3891 Haze 7 1020 81 4000 4.6 300 09:42 22.01.2020
3892 Haze 7 1020 81 4000 4.6 300 09:24 22.01.2020
3893 Mist 6 1020 87 5000 4.1 250 08:57 22.01.2020
3894 Mist 6 1020 87 5000 4.1 250 08:38 22.01.2020
3895 Mist 6 1020 87 5000 4.1 250 08:20 22.01.2020
3896 Mist 5 1021 93 4000 2.6 250 07:46 22.01.2020
3897 Haze 5 1020 80 5000 2.6 250 07:28 22.01.2020
3898 Mist 4 1019 86 5000 3.1 250 06:38 22.01.2020
3899 Mist 4 1019 86 5000 3.1 250 06:20 22.01.2020
3900 Clouds 3 1019 86 6000 5.1 240 05:21 22.01.2020
3901 Mist 4 1018 93 5000 2.6 280 03:30 22.01.2020
3902 Clouds 4 1018 93 6000 2.1 290 02:50 22.01.2020
3903 Clouds 4 1018 93 6000 2.1 300 01:42 22.01.2020
3904 Clouds 4 1018 93 6000 2.6 310 00:44 22.01.2020
3905 Clouds 4 1018 93 6000 2.6 310 00:26 22.01.2020
3906 Clouds 5 1019 93 6000 2.6 310 23:38 21.01.2020
3907 Clouds 5 1019 93 6000 2.6 310 23:20 21.01.2020
3908 Clouds 5 1019 93 6000 2.6 310 22:55 21.01.2020
3909 Clouds 5 1019 93 6000 4.1 310 22:36 21.01.2020
3910 Clouds 5 1019 93 6000 4.1 310 22:18 21.01.2020
3911 Clouds 5 1019 93 6000 4.1 310 21:55 21.01.2020
3912 Clouds 5 1018 93 6000 5.1 310 21:37 21.01.2020
3913 Clouds 5 1018 93 6000 5.1 310 21:18 21.01.2020
3914 Clouds 5 1018 86 6000 5.7 300 20:54 21.01.2020
3915 Clouds 5 1018 86 6000 5.7 300 20:36 21.01.2020
3916 Clouds 5 1018 86 6000 5.7 300 20:18 21.01.2020
3917 Mist 5 1018 86 5000 6.2 290 19:55 21.01.2020
3918 Mist 5 1018 86 5000 6.2 290 19:36 21.01.2020
3919 Mist 5 1018 86 5000 6.2 290 19:18 21.01.2020
3920 Mist 4 1018 86 5000 4.1 270 18:54 21.01.2020
3921 Mist 4 1018 86 5000 4.1 270 18:36 21.01.2020
3922 Mist 4 1018 86 5000 4.1 270 18:18 21.01.2020
3923 Mist 4 1017 86 5000 5.7 270 17:42 21.01.2020
3924 Mist 4 1017 86 5000 5.7 270 17:19 21.01.2020
3925 Mist 4 1017 86 5000 5.7 270 17:19 21.01.2020
3926 Drizzle 4 1017 93 3000 4.1 270 16:56 21.01.2020
3927 Drizzle 4 1017 93 3000 4.1 270 16:36 21.01.2020
3928 Drizzle 4 1017 93 3000 4.1 270 16:18 21.01.2020
3929 Clouds 7 1018 71 0 8.76 297 15:39 21.01.2020
3930 Drizzle 5 1017 75 5000 7.2 290 15:20 21.01.2020
3931 Drizzle 5 1017 75 5000 7.2 290 14:54 21.01.2020
3932 Drizzle 5 1017 75 5000 7.2 290 14:36 21.01.2020
3933 Drizzle 5 1017 75 5000 7.2 290 14:18 21.01.2020
3934 Haze 6 1017 75 4000 5.1 300 13:38 21.01.2020
3935 Haze 6 1017 75 4000 5.1 300 13:18 21.01.2020
3936 Haze 6 1016 75 3500 7.7 290 12:43 21.01.2020
3937 Haze 6 1016 75 3500 7.7 290 12:24 21.01.2020
3938 Haze 6 1017 75 5000 4.6 280 11:56 21.01.2020
3939 Haze 6 1017 75 5000 4.6 280 11:38 21.01.2020
3940 Haze 6 1017 75 5000 4.6 280 11:38 21.01.2020
3941 Haze 6 1017 75 5000 4.6 280 11:38 21.01.2020
3942 Haze 6 1017 75 5000 4.6 280 11:19 21.01.2020
3943 Haze 6 1017 70 5000 4.6 270 10:43 21.01.2020
3944 Haze 6 1017 70 5000 4.6 270 10:23 21.01.2020
3945 Haze 5 1018 80 5000 6.2 280 09:57 21.01.2020
3946 Haze 5 1018 80 5000 6.2 280 09:39 21.01.2020
3947 Haze 5 1018 80 5000 6.2 280 09:21 21.01.2020
3948 Drizzle 4 1018 86 4000 3.1 290 08:45 21.01.2020
3949 Rain 4 1019 93 5000 5.1 280 08:27 21.01.2020
3950 Rain 3 1018 93 4000 3.1 250 07:56 21.01.2020
3951 Rain 3 1018 93 4000 3.1 250 07:37 21.01.2020
3952 Rain 3 1018 93 4000 3.1 250 07:19 21.01.2020
3953 Thunderstorm 5 1018 93 2500 5.7 280 06:44 21.01.2020
3954 Rain 5 1017 80 4000 3.1 250 06:23 21.01.2020
3955 Drizzle 6 1017 75 3000 6.2 290 05:41 21.01.2020
3956 Clouds 6 1018 75 6000 4.1 250 04:39 21.01.2020
3957 Drizzle 6 1019 87 6000 4.1 250 02:34 21.01.2020
3958 Drizzle 6 1019 87 6000 2.1 310 01:37 21.01.2020
3959 Rain 7 1021 87 6000 2.1 310 00:52 21.01.2020
3960 Rain 7 1021 87 6000 2.1 310 00:29 21.01.2020
3961 Rain 6 1020 87 6000 6.7 250 23:57 20.01.2020
3962 Rain 6 1020 87 6000 6.7 250 23:36 20.01.2020
3963 Rain 6 1020 87 6000 6.7 250 23:18 20.01.2020
3964 Drizzle 7 1021 87 5000 2.6 240 22:56 20.01.2020
3965 Drizzle 7 1021 87 5000 2.6 240 22:36 20.01.2020
3966 Drizzle 7 1021 87 5000 2.6 240 22:18 20.01.2020
3967 Rain 7 1021 87 5000 3.6 270 21:55 20.01.2020
3968 Rain 7 1021 87 5000 3.6 270 21:36 20.01.2020
3969 Rain 7 1021 87 5000 3.6 270 21:18 20.01.2020
3970 Rain 7 1022 93 6000 5.1 230 20:54 20.01.2020
3971 Drizzle 8 1021 87 4000 2.6 240 20:36 20.01.2020
3972 Drizzle 8 1021 87 4000 2.6 240 20:18 20.01.2020
3973 Drizzle 8 1021 87 4000 2.6 240 20:18 20.01.2020
3974 Drizzle 8 1022 87 4000 3.1 250 19:54 20.01.2020
3975 Drizzle 8 1022 87 4000 3.1 250 19:36 20.01.2020
3976 Drizzle 8 1022 87 4000 3.1 250 19:18 20.01.2020
3977 Mist 7 1022 93 5000 3.6 240 18:42 20.01.2020
3978 Mist 7 1022 93 5000 3.6 240 18:21 20.01.2020
3979 Rain 8 1022 87 5000 4.1 260 17:39 20.01.2020
3980 Rain 8 1022 87 5000 4.1 260 17:19 20.01.2020
3981 Rain 8 1022 93 3000 3.1 260 16:55 20.01.2020
3982 Rain 8 1022 93 3000 3.1 260 16:36 20.01.2020
3983 Rain 8 1022 93 3000 3.1 260 16:18 20.01.2020
3984 Drizzle 8 1021 93 3500 6.2 250 15:41 20.01.2020
3985 Drizzle 8 1021 93 3500 6.2 250 15:22 20.01.2020
3986 Rain 8 1021 93 2500 4.6 250 14:59 20.01.2020
3987 Rain 8 1021 93 2500 4.6 250 14:41 20.01.2020
3988 Rain 8 1021 93 2500 4.6 250 14:21 20.01.2020
3989 Rain 8 1022 93 3000 5.1 250 13:57 20.01.2020
3990 Rain 8 1022 93 2500 6.2 250 13:38 20.01.2020
3991 Rain 8 1022 93 2500 6.2 250 13:20 20.01.2020
3992 Drizzle 8 1022 93 1000 4.6 250 12:44 20.01.2020
3993 Drizzle 8 1022 93 1000 4.6 250 12:25 20.01.2020
3994 Drizzle 8 1022 93 1000 4.6 250 12:25 20.01.2020
3995 Rain 8 1022 87 1000 4.1 250 11:56 20.01.2020
3996 Rain 8 1022 87 1000 4.1 250 11:37 20.01.2020
3997 Rain 8 1022 87 1000 4.1 250 11:19 20.01.2020
3998 Clouds 9 1024 87 6000 7.2 220 10:47 20.01.2020
3999 Rain 8 1023 87 1000 4.6 250 10:21 20.01.2020
4000 Rain 8 1023 87 1000 4.6 250 10:21 20.01.2020
4001 Rain 8 1023 93 800 3.1 250 09:42 20.01.2020
4002 Rain 8 1023 93 800 3.1 250 09:24 20.01.2020
4003 Rain 8 1023 93 1000 3.1 240 08:59 20.01.2020
4004 Rain 8 1023 93 1000 3.1 240 08:39 20.01.2020
4005 Rain 8 1023 93 1000 3.1 240 08:20 20.01.2020
4006 Drizzle 8 1022 93 1000 3.6 230 07:42 20.01.2020
4007 Drizzle 8 1022 93 1000 3.6 230 07:42 20.01.2020
4008 Drizzle 8 1022 93 3000 3.6 230 07:22 20.01.2020
4009 Drizzle 8 1022 93 4500 6.2 240 06:45 20.01.2020
4010 Drizzle 8 1022 93 4500 6.2 240 06:25 20.01.2020
4011 Mist 8 1021 93 3000 7.2 240 05:41 20.01.2020
4012 Mist 8 1021 93 3000 7.2 240 05:21 20.01.2020
4013 Drizzle 8 1021 93 2000 3.6 240 04:34 20.01.2020
4014 Drizzle 8 1022 87 4000 4.1 240 02:55 20.01.2020
4015 Drizzle 8 1022 87 4000 4.1 240 02:55 20.01.2020
4016 Drizzle 8 1021 93 2500 3.1 240 01:52 20.01.2020
4017 Drizzle 8 1021 93 2500 3.1 240 01:26 20.01.2020
4018 Drizzle 8 1021 93 3000 3.6 240 00:44 20.01.2020
4019 Drizzle 8 1021 93 3000 3.6 240 00:22 20.01.2020
4020 Drizzle 8 1021 93 4000 4.1 240 23:39 19.01.2020
4021 Drizzle 8 1021 93 4000 4.1 240 23:20 19.01.2020
4022 Drizzle 8 1021 93 4000 4.1 240 23:20 19.01.2020
4023 Drizzle 8 1021 93 4000 4.1 240 23:20 19.01.2020
4024 Drizzle 8 1022 100 5000 2.6 230 22:56 19.01.2020
4025 Drizzle 8 1022 100 5000 2.6 230 22:56 19.01.2020
4026 Drizzle 8 1021 87 3000 3.1 240 22:38 19.01.2020
4027 Drizzle 8 1021 87 3000 3.1 240 22:20 19.01.2020
4028 Drizzle 8 1021 87 4000 4.6 240 21:56 19.01.2020
4029 Drizzle 8 1021 87 4000 4.6 240 21:38 19.01.2020
4030 Drizzle 8 1021 87 4000 4.6 240 21:20 19.01.2020
4031 Drizzle 8 1021 87 4000 5.1 240 20:57 19.01.2020
4032 Drizzle 8 1021 87 4000 5.1 240 20:39 19.01.2020
4033 Drizzle 8 1021 87 4000 5.1 240 20:20 19.01.2020
4034 Mist 8 1021 93 5000 5.1 250 19:57 19.01.2020
4035 Mist 8 1021 93 5000 5.1 250 19:39 19.01.2020
4036 Mist 8 1021 93 5000 5.1 250 19:20 19.01.2020
4037 Clouds 9 1021 87 6000 5.1 250 18:57 19.01.2020
4038 Drizzle 9 1021 81 5000 4.1 240 18:38 19.01.2020
4039 Drizzle 9 1021 81 5000 4.1 240 18:38 19.01.2020
4040 Drizzle 9 1021 81 5000 4.1 240 18:20 19.01.2020
4041 Rain 9 1020 81 5000 4.1 240 17:58 19.01.2020
4042 Rain 9 1020 81 5000 4.1 240 17:40 19.01.2020
4043 Rain 9 1020 81 5000 4.1 240 17:40 19.01.2020
4044 Rain 9 1020 81 5000 4.1 240 17:21 19.01.2020
4045 Clouds 10 1019 87 6000 6.2 230 16:59 19.01.2020
4046 Drizzle 9 1019 76 5000 5.1 240 16:39 19.01.2020
4047 Drizzle 9 1019 76 5000 5.1 240 16:21 19.01.2020
4048 Drizzle 9 1018 81 5000 5.1 230 15:58 19.01.2020
4049 Drizzle 9 1018 81 5000 5.1 230 15:38 19.01.2020
4050 Drizzle 9 1018 81 5000 5.1 230 15:20 19.01.2020
4051 Rain 10 1018 71 5000 5.7 240 14:58 19.01.2020
4052 Rain 10 1018 71 5000 5.7 240 14:39 19.01.2020
4053 Rain 10 1018 71 5000 5.7 240 14:18 19.01.2020
4054 Dust 10 1017 76 5000 8.2 250 13:58 19.01.2020
4055 Dust 10 1017 76 5000 8.2 250 13:38 19.01.2020
4056 Dust 10 1017 76 5000 8.2 250 13:20 19.01.2020
4057 Clouds 11 1018 66 6000 12.3 250 12:55 19.01.2020
4058 Haze 10 1017 76 4000 7.2 250 12:37 19.01.2020
4059 Haze 10 1017 76 4000 7.2 250 12:37 19.01.2020
4060 Haze 10 1017 76 4000 7.2 250 12:19 19.01.2020
4061 Mist 9 1017 81 4000 7.2 250 11:42 19.01.2020
4062 Mist 9 1017 81 4000 7.2 250 11:21 19.01.2020
4063 Rain 9 1018 81 4000 5.1 230 10:57 19.01.2020
4064 Rain 9 1018 81 4000 5.1 230 10:39 19.01.2020
4065 Rain 9 1018 81 4000 5.1 230 10:39 19.01.2020
4066 Rain 9 1018 81 4000 5.1 230 10:19 19.01.2020
4067 Rain 9 1018 81 4000 4.6 240 09:56 19.01.2020
4068 Rain 9 1018 81 4000 4.6 240 09:56 19.01.2020
4069 Rain 9 1018 81 4000 4.6 240 09:56 19.01.2020
4070 Rain 9 1018 81 4000 4.6 240 09:56 19.01.2020
4071 Rain 9 1018 81 4000 4.6 240 09:37 19.01.2020
4072 Rain 9 1018 81 4000 4.6 240 09:19 19.01.2020
4073 Rain 8 1018 81 2500 5.1 230 08:52 19.01.2020
4074 Rain 8 1018 81 2500 5.1 230 08:30 19.01.2020
4075 Rain 8 1018 81 4000 5.1 240 07:46 19.01.2020
4076 Rain 8 1018 81 4000 5.1 240 07:27 19.01.2020
4077 Mist 8 1017 87 4000 2.6 230 06:54 19.01.2020
4078 Mist 8 1017 87 4000 2.6 230 06:21 19.01.2020
4079 Rain 8 1015 93 3000 6.7 250 03:51 19.01.2020
4080 Rain 8 1015 87 3000 8.7 250 02:28 19.01.2020
4081 Rain 8 1016 93 2000 2.6 250 01:39 19.01.2020
4082 Rain 8 1016 93 2000 2.6 250 01:18 19.01.2020
4083 Rain 8 1016 93 2000 3.6 250 00:41 19.01.2020
4084 Rain 8 1016 93 2000 4.6 250 00:19 19.01.2020
4085 Rain 8 1016 93 2000 4.6 250 23:45 18.01.2020
4086 Rain 8 1016 93 2000 4.6 250 23:25 18.01.2020
4087 Rain 8 1016 93 2000 2.6 250 22:58 18.01.2020
4088 Rain 8 1016 93 2000 2.6 250 22:40 18.01.2020
4089 Rain 8 1016 93 2000 2.6 250 22:21 18.01.2020
4090 Rain 8 1016 100 2000 3.1 260 21:58 18.01.2020
4091 Rain 8 1016 100 2000 3.1 260 21:38 18.01.2020
4092 Rain 8 1016 100 2000 3.1 260 21:20 18.01.2020
4093 Rain 8 1016 100 2000 3.1 260 20:55 18.01.2020
4094 Rain 8 1016 93 4000 3.6 250 20:36 18.01.2020
4095 Rain 8 1016 93 4000 3.6 250 20:18 18.01.2020
4096 Rain 9 1016 93 2500 3.6 250 19:42 18.01.2020
4097 Rain 9 1016 93 2500 3.6 250 19:24 18.01.2020
4098 Drizzle 9 1016 87 3000 2.6 270 18:43 18.01.2020
4099 Drizzle 9 1016 87 3000 2.6 270 18:25 18.01.2020
4100 Rain 8 1016 93 2500 2.6 270 17:59 18.01.2020
4101 Rain 8 1016 93 2500 2.6 270 17:40 18.01.2020
4102 Rain 8 1016 93 2500 2.6 270 17:20 18.01.2020
4103 Rain 9 1015 93 2000 3.6 250 16:57 18.01.2020
4104 Rain 9 1015 93 2000 3.6 250 16:38 18.01.2020
4105 Rain 9 1015 93 2000 3.6 250 16:38 18.01.2020
4106 Rain 9 1015 93 2000 3.6 250 16:38 18.01.2020
4107 Rain 9 1015 93 2000 3.6 250 16:19 18.01.2020
4108 Drizzle 10 1015 87 3000 4.6 250 15:47 18.01.2020
4109 Drizzle 10 1015 87 3000 4.6 250 15:26 18.01.2020
4110 Drizzle 10 1015 87 2500 5.1 250 14:59 18.01.2020
4111 Drizzle 10 1015 87 2500 5.1 250 14:40 18.01.2020
4112 Drizzle 10 1015 87 2500 5.1 250 14:19 18.01.2020
4113 Rain 10 1015 87 2500 4.1 250 13:57 18.01.2020
4114 Rain 10 1015 87 2500 4.1 250 13:36 18.01.2020
4115 Rain 10 1015 87 2500 4.1 250 13:18 18.01.2020
4116 Mist 10 1015 87 5000 7.7 240 12:41 18.01.2020
4117 Drizzle 10 1015 93 2500 4.1 260 12:21 18.01.2020
4118 Rain 10 1015 87 1500 4.1 250 11:57 18.01.2020
4119 Mist 10 1016 87 2500 4.6 250 11:38 18.01.2020
4120 Mist 10 1016 87 2500 4.6 250 11:19 18.01.2020
4121 Haze 11 1016 81 4200 4.1 240 10:43 18.01.2020
4122 Drizzle 10 1017 87 2500 4.1 250 10:21 18.01.2020
4123 Drizzle 10 1017 87 3500 4.6 240 09:56 18.01.2020
4124 Drizzle 10 1017 87 3500 4.6 240 09:38 18.01.2020
4125 Drizzle 10 1017 87 3500 4.6 240 09:18 18.01.2020
4126 Mist 10 1017 87 3500 5.1 270 08:42 18.01.2020
4127 Mist 10 1016 87 4000 2.6 240 08:20 18.01.2020
4128 Mist 10 1016 87 3500 5.1 270 07:58 18.01.2020
4129 Mist 9 1016 87 5000 3.1 250 07:37 18.01.2020
4130 Drizzle 8 1016 100 5000 4.1 250 06:50 18.01.2020
4131 Drizzle 8 1016 100 5000 4.1 250 06:27 18.01.2020
4132 Mist 9 1015 93 3000 4.1 270 05:49 18.01.2020
4133 Rain 8 1015 100 900 3.91 283 04:24 18.01.2020
4134 Drizzle 8 1015 100 1000 1.5 50 02:34 18.01.2020
4135 Rain 8 1015 100 1000 2.1 60 01:40 18.01.2020
4136 Drizzle 8 1014 100 2000 3.6 80 00:39 18.01.2020
4137 Drizzle 8 1014 100 2000 3.6 80 00:19 18.01.2020
4138 Drizzle 9 1014 93 3000 4.6 270 23:58 17.01.2020
4139 Drizzle 9 1014 93 3000 4.6 270 23:39 17.01.2020
4140 Drizzle 9 1014 93 3000 4.6 270 23:18 17.01.2020
4141 Rain 9 1015 93 3000 7.2 250 22:41 17.01.2020
4142 Rain 9 1015 93 3000 7.2 250 22:20 17.01.2020
4143 Rain 10 1015 93 4000 4.6 260 21:56 17.01.2020
4144 Rain 10 1015 93 4000 4.6 260 21:38 17.01.2020
4145 Rain 10 1015 93 4000 4.6 260 21:19 17.01.2020
4146 Drizzle 10 1015 93 4000 3.6 250 20:43 17.01.2020
4147 Drizzle 10 1015 93 4000 3.6 250 20:21 17.01.2020
4148 Rain 10 1014 87 5000 3.1 240 19:58 17.01.2020
4149 Rain 10 1014 87 5000 3.1 240 19:39 17.01.2020
4150 Rain 10 1014 87 5000 3.1 240 19:21 17.01.2020
4151 Rain 10 1014 87 5000 3.1 240 19:21 17.01.2020
4152 Drizzle 10 1015 76 5000 2.6 230 18:59 17.01.2020
4153 Drizzle 10 1015 76 5000 2.6 230 18:41 17.01.2020
4154 Drizzle 10 1015 76 5000 2.6 230 18:23 17.01.2020
4155 Rain 9 1015 87 4000 3.1 240 17:54 17.01.2020
4156 Drizzle 9 1014 87 4000 1.5 210 17:36 17.01.2020
4157 Drizzle 9 1014 87 4000 1.5 210 17:18 17.01.2020
4158 Rain 10 1014 71 3000 5.1 250 16:41 17.01.2020
4159 Drizzle 9 1014 87 4000 1.5 210 16:19 17.01.2020
4160 Rain 11 1014 66 4000 5.1 250 15:48 17.01.2020
4161 Rain 11 1014 66 4000 5.1 250 15:27 17.01.2020
4162 Rain 11 1014 66 3000 4.1 250 14:56 17.01.2020
4163 Haze 11 1014 66 4000 3.1 250 14:37 17.01.2020
4164 Haze 11 1014 66 4000 3.1 250 14:19 17.01.2020
4165 Haze 12 1013 58 4000 3.6 240 13:39 17.01.2020
4166 Haze 12 1013 58 4000 3.6 240 13:21 17.01.2020
4167 Haze 12 1013 58 4000 3.6 240 13:21 17.01.2020
4168 Haze 13 1013 50 5000 4.1 260 12:45 17.01.2020
4169 Haze 13 1013 50 5000 4.1 260 12:23 17.01.2020
4170 Haze 13 1014 58 5000 5.7 250 11:41 17.01.2020
4171 Haze 12 1014 58 5000 5.7 250 11:19 17.01.2020
4172 Haze 12 1014 58 5000 5.7 250 10:55 17.01.2020
4173 Haze 12 1014 62 5000 2.1 240 10:36 17.01.2020
4174 Haze 12 1014 62 5000 2.1 240 10:18 17.01.2020
4175 Haze 11 1013 71 5000 2.1 310 09:42 17.01.2020
4176 Haze 11 1013 71 5000 2.1 310 09:21 17.01.2020
4177 Haze 8 1013 76 5000 2.6 300 08:56 17.01.2020
4178 Haze 8 1013 76 5000 2.6 300 08:38 17.01.2020
4179 Haze 8 1013 76 5000 2.6 300 08:19 17.01.2020
4180 Haze 8 1013 76 5000 2.79 311 07:43 17.01.2020
4181 Dust 7 1014 75 2000 1 240 07:25 17.01.2020
4182 Haze 7 1014 65 2000 1 210 06:51 17.01.2020
4183 Haze 7 1014 65 2000 1 210 06:30 17.01.2020
4184 Clear 8 1013 44 0 3.13 297 04:27 17.01.2020
4185 Clear 8 1013 44 0 3.13 297 03:19 17.01.2020
4186 Clear 8 1013 44 0 3.13 297 02:32 17.01.2020
4187 Clouds 9 1013 40 0 3.29 87 01:44 17.01.2020
4188 Clouds 9 1013 40 0 3.29 87 01:25 17.01.2020
4189 Clouds 9 1013 41 0 2.64 87 00:37 17.01.2020
4190 Haze 11 1014 40 4000 2.64 87 00:19 17.01.2020
4191 Haze 11 1014 40 4000 2.64 87 23:41 16.01.2020
4192 Haze 11 1014 40 4000 2.64 87 23:22 16.01.2020
4193 Haze 12 1014 34 4000 2.1 80 22:42 16.01.2020
4194 Haze 12 1014 34 4000 2.1 80 22:21 16.01.2020
4195 Haze 11 1014 37 4000 4.6 90 21:57 16.01.2020
4196 Haze 11 1014 37 4000 4.6 90 21:38 16.01.2020
4197 Haze 11 1014 37 4000 4.6 90 21:19 16.01.2020
4198 Haze 12 1015 46 4000 1.5 50 20:58 16.01.2020
4199 Haze 12 1015 46 4000 1.5 50 20:39 16.01.2020
4200 Haze 12 1015 46 4000 1.5 50 20:19 16.01.2020
4201 Haze 12 1015 40 4000 1.5 40 19:56 16.01.2020
4202 Haze 12 1015 40 4000 1.5 40 19:38 16.01.2020
4203 Haze 12 1015 40 4000 1.5 40 19:19 16.01.2020
4204 Haze 12 1015 34 5000 7.01 86 18:55 16.01.2020
4205 Haze 12 1015 34 5000 7.01 86 18:37 16.01.2020
4206 Haze 12 1015 34 5000 7.01 86 18:37 16.01.2020
4207 Haze 12 1015 34 5000 7.01 86 18:18 16.01.2020
4208 Haze 13 1014 34 5000 1.5 90 17:42 16.01.2020
4209 Haze 13 1014 34 5000 1.5 90 17:23 16.01.2020
4210 Haze 15 1015 33 5000 2.6 100 16:57 16.01.2020
4211 Haze 15 1015 33 5000 2.6 100 16:39 16.01.2020
4212 Haze 15 1015 33 5000 2.6 100 16:21 16.01.2020
4213 Haze 16 1015 31 5000 2.1 90 15:55 16.01.2020
4214 Haze 16 1015 31 5000 2.1 90 15:37 16.01.2020
4215 Haze 16 1015 31 5000 2.1 90 15:18 16.01.2020
4216 Haze 16 1015 29 5000 2.6 100 14:41 16.01.2020
4217 Haze 16 1015 29 5000 2.6 100 14:23 16.01.2020
4218 Clouds 16 1015 29 6000 5.7 100 13:46 16.01.2020
4219 Clouds 16 1015 29 6000 5.7 100 13:28 16.01.2020
4220 Clouds 15 1016 28 6000 5.1 100 12:57 16.01.2020
4221 Clouds 15 1016 28 6000 5.1 100 12:39 16.01.2020
4222 Clouds 15 1016 28 6000 5.1 100 12:20 16.01.2020
4223 Clouds 14 1017 28 6000 4.1 100 11:42 16.01.2020
4224 Clouds 14 1017 28 6000 4.1 100 11:23 16.01.2020
4225 Clouds 14 1017 28 6000 4.1 100 10:55 16.01.2020
4226 Clouds 12 1019 24 6000 4.1 90 10:37 16.01.2020
4227 Clouds 12 1019 24 6000 4.1 90 10:19 16.01.2020
4228 Clouds 12 1019 34 6000 4.1 100 09:43 16.01.2020
4229 Clouds 12 1019 34 6000 4.1 100 09:24 16.01.2020
4230 Clouds 10 1020 46 6000 2.1 330 08:58 16.01.2020
4231 Clouds 10 1020 46 6000 2.1 330 08:40 16.01.2020
4232 Rain 10 1020 46 6000 2.1 330 08:20 16.01.2020
4233 Haze 7 1020 38 4000 1 60 07:43 16.01.2020
4234 Haze 7 1020 38 4000 1 60 07:24 16.01.2020
4235 Haze 6 1020 38 5000 1 70 06:55 16.01.2020
4236 Haze 6 1020 38 5000 1 70 06:35 16.01.2020
4237 Haze 6 1019 70 5000 2.1 70 05:51 16.01.2020
4238 Haze 6 1019 70 5000 2.1 70 05:25 16.01.2020
4239 Rain 7 1019 70 7000 1.5 10 04:21 16.01.2020
4240 Clouds 7 1019 65 7000 2.1 70 03:27 16.01.2020
4241 Clouds 8 1020 61 7000 2.1 50 02:23 16.01.2020
4242 Clouds 8 1020 61 7000 4.93 108 00:44 16.01.2020
4243 Clouds 8 1020 61 7000 4.93 108 00:23 16.01.2020
4244 Clouds 8 1021 36 6000 5.7 80 23:46 15.01.2020
4245 Clouds 9 1021 53 7000 1 90 23:22 15.01.2020
4246 Clouds 10 1021 36 7000 2.1 110 22:57 15.01.2020
4247 Clouds 10 1021 36 7000 2.1 110 22:39 15.01.2020
4248 Clouds 10 1021 36 7000 2.1 110 22:19 15.01.2020
4249 Clouds 10 1021 53 7000 1 90 21:57 15.01.2020
4250 Clouds 10 1021 53 7000 1 90 21:37 15.01.2020
4251 Clouds 10 1021 53 7000 1 90 21:19 15.01.2020
4252 Clouds 10 1021 53 7000 1 320 20:56 15.01.2020
4253 Clouds 10 1021 53 7000 1 320 20:38 15.01.2020
4254 Clear 10 1021 53 7000 1 320 20:19 15.01.2020
4255 Clear 10 1021 57 7000 1.5 30 19:54 15.01.2020
4256 Clear 10 1021 57 7000 1.5 30 19:36 15.01.2020
4257 Clear 10 1021 57 7000 1.5 30 19:18 15.01.2020
4258 -273 0 0 0 0 0 19:18 15.01.2020
4259 Clear 11 1021 57 7000 1.5 30 18:56 15.01.2020
4260 Haze 12 1021 46 5000 4.83 105 18:37 15.01.2020
4261 Haze 12 1021 46 5000 4.83 105 18:19 15.01.2020
4262 Haze 12 1021 46 5000 4.83 105 18:19 15.01.2020
4263 Haze 12 1021 46 5000 4.83 105 18:19 15.01.2020
4264 Clear 12 1021 50 6000 6.2 80 17:55 15.01.2020
4265 Haze 12 1021 58 5000 1.5 90 17:37 15.01.2020
4266 Haze 12 1021 58 5000 1.5 90 17:18 15.01.2020
4267 Haze 14 1020 58 4000 1 80 16:40 15.01.2020
4268 Haze 14 1020 58 4000 1 80 16:22 15.01.2020
4269 Clear 15 1020 50 6000 2.1 150 15:57 15.01.2020
4270 Clear 15 1020 50 6000 2.1 150 15:39 15.01.2020
4271 Clear 15 1020 50 6000 2.1 150 15:19 15.01.2020
4272 Clear 16 1021 51 6000 2.1 30 14:43 15.01.2020
4273 Clouds 16 1021 51 6000 2.1 30 14:20 15.01.2020
4274 Clouds 16 1021 54 7000 2.6 60 13:46 15.01.2020
4275 Clouds 16 1021 54 7000 2.6 60 13:27 15.01.2020
4276 Clouds 14 1020 39 6000 2.1 130 12:59 15.01.2020
4277 Haze 14 1021 58 5000 2.1 70 12:40 15.01.2020
4278 Haze 14 1021 58 5000 2.1 70 12:20 15.01.2020
4279 Clouds 13 1022 58 6000 4.6 100 11:58 15.01.2020
4280 Clouds 13 1022 58 6000 4.6 100 11:37 15.01.2020
4281 Clouds 13 1022 58 6000 4.6 100 11:19 15.01.2020
4282 Haze 11 1023 61 5000 2.1 80 10:46 15.01.2020
4283 Haze 11 1023 61 5000 2.1 80 10:28 15.01.2020
4284 Clouds 9 1023 61 6000 2.1 70 09:54 15.01.2020
4285 Clouds 9 1023 61 6000 2.1 70 09:36 15.01.2020
4286 Clouds 9 1023 61 6000 2.1 70 09:18 15.01.2020
4287 Clouds 8 1024 65 6000 1.5 80 08:41 15.01.2020
4288 Clouds 8 1024 65 6000 1.5 80 08:23 15.01.2020
4289 Clouds 6 1024 48 6000 2.6 80 07:53 15.01.2020
4290 Clouds 6 1024 48 6000 2.6 80 07:32 15.01.2020
4291 Haze 6 1024 65 5000 1.5 120 06:47 15.01.2020
4292 Haze 6 1024 65 5000 1.5 120 06:23 15.01.2020
4293 Clouds 7 1023 70 10000 2.6 110 04:45 15.01.2020
4294 Haze 8 1023 70 5000 4.1 90 02:40 15.01.2020
4295 Clouds 9 1024 61 10000 3.1 130 01:43 15.01.2020
4296 Clouds 9 1024 61 10000 3.1 130 01:20 15.01.2020
4297 Clouds 8 1024 61 10000 3.6 130 00:37 15.01.2020
4298 Clouds 8 1024 61 10000 3.6 130 00:19 15.01.2020
4299 Clouds 8 1024 70 10000 4.5 110 23:46 14.01.2020
4300 Clouds 8 1024 70 10000 4.5 110 23:24 14.01.2020
4301 Clouds 8 1025 70 10000 1.5 100 22:56 14.01.2020
4302 Clouds 8 1025 70 10000 1.5 100 22:38 14.01.2020
4303 Clouds 8 1025 70 10000 1.5 100 22:18 14.01.2020
4304 Clouds 7 1025 70 8000 1.5 120 21:55 14.01.2020
4305 Clouds 7 1025 70 8000 1.5 120 21:37 14.01.2020
4306 Clouds 7 1025 70 8000 1.5 120 21:19 14.01.2020
4307 Clouds 8 1025 87 10000 2.1 90 20:42 14.01.2020
4308 Haze 9 1025 70 5000 1.5 90 20:22 14.01.2020
4309 Haze 9 1025 70 5000 1.5 90 19:57 14.01.2020
4310 Haze 9 1025 70 5000 1.5 90 19:38 14.01.2020
4311 Haze 9 1025 70 5000 1.5 90 19:20 14.01.2020
4312 Clouds 10 1025 70 6000 2.1 80 18:59 14.01.2020
4313 Clouds 10 1024 61 0 4.32 110 18:40 14.01.2020
4314 Clouds 10 1025 66 6000 2.1 80 18:20 14.01.2020
4315 Clouds 10 1025 66 6000 2.1 80 17:55 14.01.2020
4316 Clouds 10 1025 66 6000 2.1 80 17:36 14.01.2020
4317 Clear 10 1025 66 6000 2.1 80 17:18 14.01.2020
4318 Haze 12 1025 62 4000 2.6 130 16:42 14.01.2020
4319 Haze 12 1025 62 4000 2.6 130 16:22 14.01.2020
4320 Haze 13 1024 58 5000 2.6 130 15:56 14.01.2020
4321 Haze 13 1024 58 5000 2.6 130 15:38 14.01.2020
4322 Haze 13 1024 58 5000 2.6 130 15:19 14.01.2020
4323 Clouds 14 1024 54 6000 2.6 130 14:43 14.01.2020
4324 Clouds 14 1024 54 6000 2.6 130 14:20 14.01.2020
4325 Clouds 14 1024 54 6000 3.1 130 13:55 14.01.2020
4326 Clouds 14 1024 54 6000 3.1 130 13:37 14.01.2020
4327 Clouds 14 1024 54 6000 3.1 130 13:18 14.01.2020
4328 Clouds 13 1024 58 6000 2.6 100 12:41 14.01.2020
4329 Clouds 13 1024 58 6000 2.6 100 12:20 14.01.2020
4330 Clouds 13 1025 58 6000 3.6 120 11:55 14.01.2020
4331 Clouds 13 1025 58 6000 3.6 120 11:36 14.01.2020
4332 Clouds 13 1025 58 6000 3.6 120 11:18 14.01.2020
4333 Clouds 12 1026 66 6000 3.6 120 10:40 14.01.2020
4334 Clouds 12 1026 66 6000 3.6 120 10:20 14.01.2020
4335 Haze 11 1026 66 5000 2.1 110 09:58 14.01.2020
4336 Haze 11 1026 66 5000 2.1 110 09:40 14.01.2020
4337 Haze 11 1026 66 5000 2.1 110 09:21 14.01.2020
4338 Mist 9 1026 87 3000 2.1 110 08:48 14.01.2020
4339 Mist 9 1026 87 3000 2.1 110 08:25 14.01.2020
4340 Mist 7 1025 93 2000 2.1 120 07:56 14.01.2020
4341 Mist 7 1025 93 2000 2.1 120 07:34 14.01.2020
4342 Mist 7 1025 93 2000 2.1 120 07:34 14.01.2020
4343 Mist 6 1025 100 1500 1.5 70 06:57 14.01.2020
4344 Mist 6 1025 100 1500 1.5 70 06:39 14.01.2020
4345 Mist 6 1025 100 1500 1.5 70 06:39 14.01.2020
4346 Mist 7 1024 93 2000 1.5 50 05:28 14.01.2020
4347 Mist 7 1024 93 4000 1.77 18 04:22 14.01.2020
4348 Mist 7 1024 93 3000 1.5 230 03:35 14.01.2020
4349 Mist 6 1024 93 4000 2.6 290 02:26 14.01.2020
4350 Mist 7 1023 87 4000 1 250 01:18 14.01.2020
4351 Mist 7 1023 87 4000 1.5 240 00:38 14.01.2020
4352 Mist 7 1024 87 4000 1.5 230 23:59 13.01.2020
4353 Mist 7 1024 87 4000 1.5 230 23:37 13.01.2020
4354 Mist 7 1024 87 4000 1.5 230 23:18 13.01.2020
4355 Fog 7 1024 100 200 2.54 321 22:54 13.01.2020
4356 Mist 6 1024 93 4000 3.1 240 22:36 13.01.2020
4357 Mist 6 1024 93 4000 3.1 240 22:18 13.01.2020
4358 Fog 7 1024 100 700 2.1 320 21:54 13.01.2020
4359 Mist 8 1024 93 4000 1.5 280 21:36 13.01.2020
4360 Mist 8 1024 93 4000 1.5 280 21:18 13.01.2020
4361 Mist 9 1024 87 4000 3.6 260 20:41 13.01.2020
4362 Mist 9 1024 87 4000 3.6 260 20:22 13.01.2020
4363 Mist 9 1023 87 4000 2.6 250 19:59 13.01.2020
4364 Mist 9 1023 87 4000 2.6 250 19:40 13.01.2020
4365 Mist 9 1023 87 4000 2.6 250 19:20 13.01.2020
4366 Mist 9 1023 87 4000 2.6 250 19:20 13.01.2020
4367 Clouds 9 1023 87 4000 3.1 250 18:58 13.01.2020
4368 Clouds 9 1023 87 4000 3.1 250 18:38 13.01.2020
4369 Clouds 9 1023 87 4000 3.1 250 18:19 13.01.2020
4370 Clouds 9 1022 81 4000 4.1 240 17:57 13.01.2020
4371 Clouds 9 1022 81 4000 4.1 240 17:38 13.01.2020
4372 Clouds 9 1022 81 4000 4.1 240 17:20 13.01.2020
4373 Clear 11 1021 76 0 6.29 295 16:41 13.01.2020
4374 Clear 11 1021 76 0 6.29 295 16:22 13.01.2020
4375 Clear 11 1021 76 0 6.29 295 15:58 13.01.2020
4376 Clear 11 1021 76 0 6.29 295 15:40 13.01.2020
4377 Clear 11 1021 76 0 6.29 295 15:20 13.01.2020
4378 Clear 11 1021 76 0 6.29 295 14:43 13.01.2020
4379 Clear 11 1021 76 0 6.29 295 14:24 13.01.2020
4380 Clouds 13 1020 63 0 8.21 295 13:59 13.01.2020
4381 Clouds 13 1020 63 0 8.21 295 13:40 13.01.2020
4382 Clouds 13 1020 63 0 8.21 295 13:40 13.01.2020
4383 Clouds 13 1020 63 0 8.21 295 13:22 13.01.2020
4384 Clouds 13 1020 63 0 8.28 296 12:57 13.01.2020
4385 Clouds 13 1020 63 0 8.28 296 12:39 13.01.2020
4386 Drizzle 11 1023 81 1500 5.1 260 12:21 13.01.2020
4387 Drizzle 11 1023 81 1500 5.1 260 11:40 13.01.2020
4388 Drizzle 11 1023 81 1500 5.1 260 11:20 13.01.2020
4389 Drizzle 11 1023 81 1500 5.1 260 11:20 13.01.2020
4390 Drizzle 11 1023 81 1500 5.1 260 11:20 13.01.2020
4391 Drizzle 11 1023 81 2000 4.6 250 10:58 13.01.2020
4392 Drizzle 11 1023 81 2000 4.6 250 10:58 13.01.2020
4393 Drizzle 11 1023 81 2000 4.6 250 10:39 13.01.2020
4394 Drizzle 11 1023 81 2000 4.6 250 10:39 13.01.2020
4395 Drizzle 11 1023 81 2000 4.6 250 10:21 13.01.2020
4396 Mist 10 1023 93 4000 5.7 250 09:59 13.01.2020
4397 Mist 10 1023 93 4000 5.7 250 09:40 13.01.2020
4398 Mist 10 1023 93 4000 5.7 250 09:22 13.01.2020
4399 Mist 9 1023 87 2000 6.7 250 08:41 13.01.2020
4400 Mist 9 1023 87 2000 6.7 250 08:21 13.01.2020
4401 Mist 7 1023 93 1500 4.1 240 07:54 13.01.2020
4402 Mist 7 1023 93 1500 4.1 240 07:35 13.01.2020
4403 Mist 7 1022 93 3000 3.6 240 06:44 13.01.2020
4404 Mist 7 1022 93 3000 3.6 240 06:22 13.01.2020
4405 Mist 7 1022 93 4000 3.6 230 05:36 13.01.2020
4406 Mist 7 1022 93 4000 3.6 230 04:25 13.01.2020
4407 Mist 7 1022 87 4000 2.6 240 03:26 13.01.2020
4408 Mist 7 1022 87 4000 3.1 230 02:47 13.01.2020
4409 Mist 7 1022 87 4000 3.1 230 02:29 13.01.2020
4410 Mist 7 1022 87 4000 4.1 230 01:23 13.01.2020
4411 Mist 7 1022 87 4000 3.6 240 00:42 13.01.2020
4412 Mist 7 1022 87 4000 3.6 240 00:24 13.01.2020
4413 Mist 7 1023 87 4000 4.1 240 23:56 12.01.2020
4414 Mist 7 1023 87 4000 4.1 240 23:37 12.01.2020
4415 Mist 7 1023 87 4000 4.1 240 23:19 12.01.2020
4416 Rain 8 1024 100 3000 3.1 250 22:42 12.01.2020
4417 Haze 7 1023 81 4000 3.1 260 22:24 12.01.2020
4418 Haze 8 1023 81 4000 3.6 230 21:57 12.01.2020
4419 Haze 8 1023 81 4000 3.6 230 21:39 12.01.2020
4420 Haze 8 1023 81 4000 3.6 230 21:20 12.01.2020
4421 Haze 8 1023 76 4000 3.6 240 20:57 12.01.2020
4422 Haze 8 1023 76 4000 3.6 240 20:39 12.01.2020
4423 Haze 8 1023 76 4000 3.6 240 20:20 12.01.2020
4424 Haze 8 1023 76 4000 5.1 240 19:56 12.01.2020
4425 Haze 8 1023 76 4000 5.1 240 19:38 12.01.2020
4426 Haze 8 1023 76 4000 5.1 240 19:19 12.01.2020
4427 Haze 9 1023 81 4000 5.1 260 18:58 12.01.2020
4428 Haze 9 1023 81 4000 5.1 260 18:40 12.01.2020
4429 Haze 9 1023 81 4000 5.1 260 18:40 12.01.2020
4430 Haze 9 1023 81 4000 5.1 260 18:21 12.01.2020
4431 Haze 9 1023 81 4000 3.1 240 17:58 12.01.2020
4432 Haze 9 1023 81 4000 3.1 240 17:38 12.01.2020
4433 Haze 9 1023 81 4000 3.1 240 17:19 12.01.2020
4434 Haze 10 1023 76 4000 3.6 250 16:56 12.01.2020
4435 Haze 10 1023 76 4000 3.6 250 16:37 12.01.2020
4436 Haze 10 1023 76 4000 3.6 250 16:37 12.01.2020
4437 Haze 10 1023 76 4000 3.6 250 16:19 12.01.2020
4438 Haze 11 1023 81 5000 5.1 270 15:43 12.01.2020
4439 Haze 11 1022 71 5000 4.1 240 15:24 12.01.2020
4440 Haze 11 1023 62 5000 5.1 250 14:57 12.01.2020
4441 Haze 11 1023 62 5000 5.1 250 14:38 12.01.2020
4442 Haze 11 1023 62 5000 5.1 250 14:20 12.01.2020
4443 Haze 11 1022 71 5000 4.1 260 13:54 12.01.2020
4444 Haze 11 1022 71 5000 4.1 260 13:36 12.01.2020
4445 Haze 11 1022 71 5000 4.1 260 13:18 12.01.2020
4446 Haze 11 1023 66 5000 4.1 260 12:42 12.01.2020
4447 Haze 11 1023 66 5000 4.1 260 12:20 12.01.2020
4448 Haze 10 1024 71 5000 3.6 250 11:59 12.01.2020
4449 Haze 10 1024 71 5000 3.6 250 11:39 12.01.2020
4450 Haze 10 1024 71 5000 3.6 250 11:20 12.01.2020
4451 Haze 9 1024 76 4000 20.6 230 10:42 12.01.2020
4452 Haze 9 1024 76 4000 20.6 230 10:22 12.01.2020
4453 Haze 7 1025 76 4000 1.5 230 09:59 12.01.2020
4454 Haze 7 1025 76 4000 1.5 230 09:41 12.01.2020
4455 Haze 7 1025 76 4000 1.5 230 09:20 12.01.2020
4456 Mist 7 1025 93 3500 3.36 273 08:45 12.01.2020
4457 Mist 7 1025 93 3500 2.68 283 08:21 12.01.2020
4458 Mist 5 1025 100 1600 2.68 283 07:44 12.01.2020
4459 Mist 5 1025 87 2000 1.5 250 07:25 12.01.2020
4460 Fog 4 1025 100 800 2.1 330 06:50 12.01.2020
4461 Mist 3 1025 93 2000 1.5 230 06:32 12.01.2020
4462 Mist 4 1024 93 2000 2.1 240 05:49 12.01.2020
4463 Mist 4 1024 93 4000 2.1 230 04:52 12.01.2020
4464 Mist 4 1024 93 4000 2.6 240 03:33 12.01.2020
4465 Mist 4 1024 93 4000 2.1 240 02:43 12.01.2020
4466 Mist 4 1024 93 4000 2.1 240 02:22 12.01.2020
4467 Haze 5 1025 87 5000 3.1 230 01:30 12.01.2020
4468 Mist 4 1025 93 4000 3.1 240 00:45 12.01.2020
4469 Mist 4 1025 93 4000 3.1 240 00:22 12.01.2020
4470 Mist 4 1025 93 4000 2.1 240 23:56 11.01.2020
4471 Mist 4 1025 93 4000 2.1 240 23:37 11.01.2020
4472 Mist 4 1025 93 4000 2.1 240 23:18 11.01.2020
4473 Mist 5 1025 93 4000 1 180 22:56 11.01.2020
4474 Mist 5 1025 93 4000 1 180 22:37 11.01.2020
4475 Mist 5 1025 93 4000 1 180 22:18 11.01.2020
4476 Fog 6 1026 100 500 2.2 308 21:43 11.01.2020
4477 Haze 6 1026 93 5000 2.1 240 21:19 11.01.2020
4478 Mist 6 1026 100 1500 2.2 308 20:56 11.01.2020
4479 Haze 6 1025 87 5000 2.6 250 20:37 11.01.2020
4480 Haze 6 1025 87 5000 2.6 250 20:19 11.01.2020
4481 Mist 7 1025 93 2000 5.57 306 19:55 11.01.2020
4482 Haze 6 1025 87 5000 2.1 310 19:37 11.01.2020
4483 Haze 6 1025 87 5000 2.1 310 19:19 11.01.2020
4484 Mist 7 1024 87 4000 2.6 260 18:55 11.01.2020
4485 Mist 7 1024 87 4000 2.6 260 18:36 11.01.2020
4486 Mist 7 1024 87 4000 2.6 260 18:18 11.01.2020
4487 Mist 7 1024 87 4000 2.6 260 18:18 11.01.2020
4488 Mist 7 1024 87 4000 2.6 260 18:18 11.01.2020
4489 Haze 7 1024 81 4000 3.6 280 17:56 11.01.2020
4490 Haze 7 1024 81 4000 3.6 280 17:56 11.01.2020
4491 Haze 7 1024 81 4000 3.6 280 17:37 11.01.2020
4492 Haze 7 1024 81 4000 3.6 280 17:18 11.01.2020
4493 Haze 9 1024 70 4000 3.6 310 16:43 11.01.2020
4494 Haze 9 1024 70 4000 3.6 310 16:24 11.01.2020
4495 Haze 11 1023 61 5000 5.7 320 15:56 11.01.2020
4496 Haze 11 1023 61 5000 5.7 320 15:38 11.01.2020
4497 Haze 11 1023 61 5000 5.7 320 15:19 11.01.2020
4498 Clouds 11 1023 66 6000 4.1 300 14:46 11.01.2020
4499 Haze 12 1022 62 5000 4.6 340 14:25 11.01.2020
4500 Haze 11 1022 61 5000 5.1 340 13:57 11.01.2020
4501 Haze 11 1022 61 5000 5.1 340 13:38 11.01.2020
4502 Haze 11 1022 61 5000 5.1 340 13:19 11.01.2020
4503 Clouds 11 1022 66 6000 5.1 330 12:55 11.01.2020
4504 Clouds 11 1022 66 6000 5.1 330 12:36 11.01.2020
4505 Clouds 11 1022 66 6000 5.1 330 12:18 11.01.2020
4506 Clouds 10 1023 66 6000 5.7 330 11:42 11.01.2020
4507 Clouds 10 1023 66 6000 5.7 330 11:23 11.01.2020
4508 Haze 10 1023 66 5000 5.1 300 10:46 11.01.2020
4509 Clouds 10 1024 70 6000 5.7 310 10:24 11.01.2020
4510 Haze 9 1024 76 5000 5.1 320 09:43 11.01.2020
4511 Haze 9 1024 76 5000 5.1 320 09:21 11.01.2020
4512 Haze 9 1024 76 5000 5.1 320 09:21 11.01.2020
4513 Haze 6 1024 75 5000 3.1 270 08:57 11.01.2020
4514 Haze 6 1024 75 5000 3.1 270 08:38 11.01.2020
4515 Haze 6 1024 75 5000 3.1 270 08:19 11.01.2020
4516 Haze 5 1023 87 5000 1.5 260 07:42 11.01.2020
4517 Haze 5 1023 87 5000 1.5 260 07:24 11.01.2020
4518 Mist 4 1022 87 4000 1.5 260 06:43 11.01.2020
4519 Mist 4 1022 93 4000 3.25 302 05:30 11.01.2020
4520 Mist 4 1021 100 1500 3.1 260 04:42 11.01.2020
4521 Mist 4 1021 87 4000 3.09 288 04:24 11.01.2020
4522 Fog 5 1021 100 300 2.1 260 02:48 11.01.2020
4523 Fog 4 1021 100 300 2.1 260 01:47 11.01.2020
4524 Fog 4 1020 100 300 2.1 260 01:28 11.01.2020
4525 Fog 4 1020 100 300 2.1 260 01:28 11.01.2020
4526 Mist 4 1020 93 3000 2.6 240 00:54 11.01.2020
4527 Mist 4 1020 93 3000 2.6 240 00:29 11.01.2020
4528 Mist 4 1020 93 4000 1 230 23:59 10.01.2020
4529 Mist 4 1020 93 4000 1 230 23:39 10.01.2020
4530 Mist 4 1020 93 4000 1 230 23:20 10.01.2020
4531 Mist 4 1020 93 4000 1 230 22:54 10.01.2020
4532 Mist 5 1020 87 5000 1 240 22:36 10.01.2020
4533 Mist 5 1020 87 5000 1 240 22:18 10.01.2020
4534 Haze 5 1020 87 4000 2.6 270 21:41 10.01.2020
4535 Haze 5 1020 87 4000 2.6 270 21:21 10.01.2020
4536 Rain 5 1019 93 4000 2.1 260 20:59 10.01.2020
4537 Rain 5 1019 93 4000 2.1 260 20:41 10.01.2020
4538 Rain 5 1019 93 4000 2.1 260 20:23 10.01.2020
4539 Mist 5 1019 93 5000 1.5 280 19:54 10.01.2020
4540 Mist 5 1019 93 5000 1.5 280 19:36 10.01.2020
4541 Mist 5 1019 93 5000 1.5 280 19:18 10.01.2020
4542 Mist 5 1018 87 5000 2.6 300 18:41 10.01.2020
4543 Mist 5 1018 87 5000 2.6 300 18:19 10.01.2020
4544 Mist 6 1017 93 5000 4.1 300 17:57 10.01.2020
4545 Mist 6 1017 93 5000 2.1 280 17:38 10.01.2020
4546 Mist 6 1017 93 5000 2.1 280 17:20 10.01.2020
4547 Mist 6 1017 93 5000 2.1 280 17:20 10.01.2020
4548 Haze 7 1017 87 5000 2.6 300 16:55 10.01.2020
4549 Haze 7 1017 87 5000 2.6 300 16:37 10.01.2020
4550 Haze 7 1017 87 5000 2.6 300 16:19 10.01.2020
4551 Mist 8 1016 81 5000 4.1 230 15:55 10.01.2020
4552 Mist 8 1016 81 5000 4.1 230 15:36 10.01.2020
4553 Mist 8 1016 81 5000 4.1 230 15:36 10.01.2020
4554 Mist 8 1016 81 5000 4.1 230 15:18 10.01.2020
4555 Mist 8 1015 93 5000 1.5 350 14:54 10.01.2020
4556 Mist 8 1015 93 5000 1.5 350 14:36 10.01.2020
4557 Mist 7 1015 93 5000 1.5 350 14:18 10.01.2020
4558 Haze 7 1015 87 4000 0.73 81 13:42 10.01.2020
4559 Haze 7 1015 87 4000 2.35 303 13:23 10.01.2020
4560 Drizzle 7 1014 93 4000 2.6 330 12:58 10.01.2020
4561 Drizzle 7 1014 93 4000 2.6 330 12:39 10.01.2020
4562 Drizzle 7 1014 93 4000 2.6 330 12:39 10.01.2020
4563 Drizzle 7 1014 93 4000 2.6 330 12:19 10.01.2020
4564 Drizzle 6 1015 93 4000 2.6 230 11:55 10.01.2020
4565 Drizzle 6 1015 93 4000 2.6 230 11:37 10.01.2020
4566 Drizzle 6 1015 93 4000 2.6 230 11:18 10.01.2020
4567 Drizzle 6 1015 93 4000 2.6 230 11:18 10.01.2020
4568 Drizzle 6 1015 87 4000 3.1 250 10:57 10.01.2020
4569 Drizzle 6 1015 87 4000 3.1 250 10:36 10.01.2020
4570 Drizzle 6 1015 87 4000 3.1 250 10:18 10.01.2020
4571 Mist 6 1015 87 9000 3.6 250 09:42 10.01.2020
4572 Mist 6 1015 87 9000 3.6 250 09:23 10.01.2020
4573 Mist 6 1013 93 5000 3.1 220 08:43 10.01.2020
4574 Mist 6 1013 93 5000 3.1 220 08:24 10.01.2020
4575 Drizzle 5 1014 100 4000 3.1 220 07:47 10.01.2020
4576 Drizzle 5 1014 100 4000 3.1 220 07:28 10.01.2020
4577 Drizzle 5 1013 87 4000 3.1 220 06:56 10.01.2020
4578 Drizzle 5 1013 87 4000 3.1 220 06:27 10.01.2020
4579 Drizzle 5 1013 87 4000 3.1 220 05:52 10.01.2020
4580 Mist 6 1011 93 4000 3.1 220 03:50 10.01.2020
4581 Mist 6 1011 93 4000 3.1 220 03:31 10.01.2020
4582 Mist 6 1012 87 4000 3.1 220 02:51 10.01.2020
4583 Drizzle 6 1012 87 3000 4.1 220 01:52 10.01.2020
4584 Drizzle 6 1012 87 3000 4.1 220 01:29 10.01.2020
4585 Rain 6 1013 93 3000 2.1 190 00:49 10.01.2020
4586 Rain 6 1013 93 3000 2.1 190 00:31 10.01.2020
4587 Rain 6 1013 93 3000 2.1 190 23:55 09.01.2020
4588 Rain 6 1013 93 3000 2.1 220 23:36 09.01.2020
4589 Rain 6 1013 93 3000 2.1 220 23:18 09.01.2020
4590 Rain 6 1013 93 3000 2.1 220 22:54 09.01.2020
4591 Rain 7 1013 81 5000 2.1 220 22:36 09.01.2020
4592 Rain 6 1013 81 5000 2.1 220 22:18 09.01.2020
4593 Mist 6 1013 93 5000 3.6 230 21:54 09.01.2020
4594 Mist 6 1013 93 5000 3.6 230 21:36 09.01.2020
4595 Mist 6 1013 93 5000 3.6 230 21:18 09.01.2020
4596 Drizzle 6 1013 87 5000 3.6 230 20:54 09.01.2020
4597 Drizzle 6 1013 87 5000 3.6 230 20:36 09.01.2020
4598 Drizzle 6 1013 87 5000 3.6 230 20:18 09.01.2020
4599 Mist 7 1013 87 5000 5.1 250 19:39 09.01.2020
4600 Mist 7 1013 87 5000 5.1 250 19:20 09.01.2020
4601 Rain 7 1014 87 4000 5.1 250 18:57 09.01.2020
4602 Rain 7 1014 87 4000 5.1 250 18:39 09.01.2020
4603 Rain 7 1014 87 4000 5.1 250 18:20 09.01.2020
4604 Drizzle 7 1013 87 4000 5.1 240 17:41 09.01.2020
4605 Drizzle 7 1013 87 4000 5.1 240 17:41 09.01.2020
4606 Drizzle 7 1013 87 4000 5.1 240 17:19 09.01.2020
4607 Drizzle 7 1013 87 3000 5.1 250 16:59 09.01.2020
4608 Drizzle 7 1013 87 3000 5.1 250 16:41 09.01.2020
4609 Drizzle 7 1013 87 3000 5.1 250 16:21 09.01.2020
4610 Drizzle 7 1013 93 4000 5.1 260 15:43 09.01.2020
4611 Drizzle 7 1013 93 4000 5.1 260 15:43 09.01.2020
4612 Drizzle 6 1013 93 5000 6.7 250 15:23 09.01.2020
4613 Drizzle 7 1013 87 3500 4.1 250 14:58 09.01.2020
4614 Drizzle 7 1013 87 3500 4.1 250 14:40 09.01.2020
4615 Drizzle 7 1013 87 3500 4.1 250 14:19 09.01.2020
4616 Rain 7 1013 81 3000 6.2 240 13:55 09.01.2020
4617 Rain 7 1013 81 3000 6.2 240 13:37 09.01.2020
4618 Rain 7 1013 81 3000 6.2 240 13:19 09.01.2020
4619 Clouds 7 1013 75 5000 5.1 240 12:56 09.01.2020
4620 Clouds 7 1013 75 5000 5.1 240 12:38 09.01.2020
4621 Clouds 7 1013 75 5000 5.1 240 12:18 09.01.2020
4622 Clouds 6 1013 87 5000 5.1 240 11:42 09.01.2020
4623 Clouds 6 1013 87 5000 5.1 240 11:24 09.01.2020
4624 Clouds 7 1013 87 5000 5.1 240 10:58 09.01.2020
4625 Clouds 7 1013 87 5000 5.1 240 10:40 09.01.2020
4626 Clouds 7 1013 87 5000 5.1 240 10:21 09.01.2020
4627 Mist 7 1015 93 4000 6.2 220 09:46 09.01.2020
4628 Mist 6 1015 93 4000 6.2 220 09:25 09.01.2020
4629 Clouds 7 1014 87 5000 5.1 250 08:59 09.01.2020
4630 Clouds 7 1014 87 5000 5.1 250 08:39 09.01.2020
4631 Clouds 7 1014 87 5000 5.1 250 08:21 09.01.2020
4632 Mist 5 1013 93 4000 5.1 230 07:53 09.01.2020
4633 Mist 5 1013 93 4000 5.1 230 07:33 09.01.2020
4634 Mist 6 1012 93 5000 6.2 250 06:52 09.01.2020
4635 Mist 6 1012 93 5000 6.2 250 06:32 09.01.2020
4636 Mist 6 1012 93 5000 6.2 250 05:52 09.01.2020
4637 Mist 6 1012 93 5000 6.2 250 05:26 09.01.2020
4638 Mist 6 1012 87 5000 8.2 240 04:40 09.01.2020
4639 Rain 6 1012 100 2000 8.2 240 03:28 09.01.2020
4640 Rain 6 1013 93 1500 6.2 250 02:47 09.01.2020
4641 Rain 7 1012 93 2000 6.2 250 01:42 09.01.2020
4642 Rain 7 1012 93 2000 6.2 250 01:18 09.01.2020
4643 Rain 7 1013 93 3000 5.1 230 00:39 09.01.2020
4644 Rain 7 1013 87 4000 5.1 240 00:19 09.01.2020
4645 Thunderstorm 6 1012 87 4000 14.4 240 23:41 08.01.2020
4646 Rain 6 1012 93 4000 5.1 340 23:23 08.01.2020
4647 Rain 6 1013 93 3000 5.1 220 22:56 08.01.2020
4648 Rain 6 1013 93 3000 5.1 220 22:38 08.01.2020
4649 Rain 6 1013 93 3000 5.1 220 22:19 08.01.2020
4650 Rain 7 1014 93 2000 5.1 200 21:55 08.01.2020
4651 Rain 7 1014 93 2000 5.1 200 21:37 08.01.2020
4652 Rain 7 1014 93 2000 5.1 200 21:18 08.01.2020
4653 Thunderstorm 7 1015 93 1500 4.6 270 20:55 08.01.2020
4654 Thunderstorm 7 1015 93 1500 4.6 270 20:37 08.01.2020
4655 Thunderstorm 7 1015 93 1500 4.6 270 20:37 08.01.2020
4656 Thunderstorm 7 1015 93 1500 4.6 270 20:18 08.01.2020
4657 Rain 8 1013 87 1500 8.7 250 19:39 08.01.2020
4658 Rain 8 1013 87 1500 8.7 250 19:20 08.01.2020
4659 Rain 8 1013 87 1500 9.3 240 18:59 08.01.2020
4660 Rain 8 1013 87 1500 9.3 240 18:58 08.01.2020
4661 Rain 8 1013 87 1500 9.3 240 18:40 08.01.2020
4662 Rain 8 1013 87 1500 9.3 240 18:19 08.01.2020
4663 Rain 8 1013 87 1500 9.3 240 18:19 08.01.2020
4664 Rain 8 1013 87 1500 9.3 240 18:19 08.01.2020
4665 Rain 8 1013 87 1500 7.7 250 17:59 08.01.2020
4666 Rain 8 1013 87 1500 7.7 250 17:40 08.01.2020
4667 Rain 8 1012 75 2000 9.3 250 17:22 08.01.2020
4668 Drizzle 8 1012 70 3500 6.7 240 16:57 08.01.2020
4669 Drizzle 8 1012 70 3500 6.7 240 16:38 08.01.2020
4670 Drizzle 8 1012 70 3500 6.7 240 16:19 08.01.2020
4671 Drizzle 9 1012 70 2500 9.3 240 15:55 08.01.2020
4672 Drizzle 9 1012 70 2500 9.3 240 15:37 08.01.2020
4673 Drizzle 9 1012 70 2500 9.3 240 15:18 08.01.2020
4674 Rain 9 1012 70 2000 7.2 240 14:40 08.01.2020
4675 Dust 9 1012 70 4000 8.7 240 14:21 08.01.2020
4676 Rain 9 1012 70 4000 7.7 240 13:42 08.01.2020
4677 Rain 9 1012 70 4000 7.7 240 13:24 08.01.2020
4678 Rain 9 1013 65 3000 10.3 230 12:59 08.01.2020
4679 Rain 9 1013 65 3000 10.3 230 12:40 08.01.2020
4680 Rain 9 1013 70 5000 5.7 240 12:18 08.01.2020
4681 Rain 8 1013 70 5000 6.2 240 11:48 08.01.2020
4682 Rain 8 1013 70 5000 6.2 240 11:20 08.01.2020
4683 Rain 7 1014 81 4000 7.7 240 10:59 08.01.2020
4684 Rain 7 1014 81 4000 7.7 240 10:41 08.01.2020
4685 Rain 7 1014 81 4000 7.7 240 10:22 08.01.2020
4686 Rain 7 1014 75 4000 5.7 240 09:58 08.01.2020
4687 Rain 7 1014 75 4000 5.7 240 09:38 08.01.2020
4688 Rain 7 1014 75 4000 5.7 240 09:18 08.01.2020
4689 Rain 6 1014 80 2000 8.2 240 08:42 08.01.2020
4690 Haze 6 1014 80 5000 7.2 240 08:23 08.01.2020
4691 Clouds 6 1013 75 7000 7.7 250 07:59 08.01.2020
4692 Clouds 6 1013 75 7000 7.7 250 07:59 08.01.2020
4693 Clouds 6 1013 75 7000 7.7 250 07:41 08.01.2020
4694 Clouds 6 1013 75 7000 7.7 250 07:20 08.01.2020
4695 Clouds 5 1013 75 7000 8.2 250 06:42 08.01.2020
4696 Clouds 5 1013 75 7000 7.2 250 05:57 08.01.2020
4697 Clouds 5 1013 75 7000 7.2 250 05:27 08.01.2020
4698 Clouds 5 1013 70 8000 5.1 240 04:39 08.01.2020
4699 Haze 5 1014 70 5000 5.7 240 03:31 08.01.2020
4700 Dust 5 1014 70 4000 8.7 250 02:36 08.01.2020
4701 Dust 5 1014 70 4000 8.7 250 02:18 08.01.2020
4702 Dust 5 1014 70 4000 8.7 250 01:39 08.01.2020
4703 Dust 6 1015 70 4000 7.7 240 00:53 08.01.2020
4704 Dust 6 1015 70 4000 7.7 240 00:26 08.01.2020
4705 Haze 6 1015 71 4000 6.2 240 23:46 07.01.2020
4706 Haze 6 1015 71 4000 6.2 240 23:22 07.01.2020
4707 Haze 7 1015 70 4000 1.5 220 22:58 07.01.2020
4708 Haze 7 1015 70 4000 1.5 220 22:39 07.01.2020
4709 Haze 7 1015 70 4000 1.5 220 22:19 07.01.2020
4710 Haze 8 1015 61 4000 3.1 230 21:54 07.01.2020
4711 Haze 8 1015 61 4000 3.1 230 21:36 07.01.2020
4712 Haze 8 1015 61 4000 3.1 230 21:36 07.01.2020
4713 Haze 8 1015 61 4000 3.1 230 21:18 07.01.2020
4714 Rain 8 1015 70 4000 3.6 230 20:42 07.01.2020
4715 Rain 8 1015 70 4000 3.6 230 20:23 07.01.2020
4716 Rain 8 1015 75 4000 2.1 230 19:59 07.01.2020
4717 Rain 8 1015 75 4000 2.1 230 19:38 07.01.2020
4718 Rain 8 1015 75 4000 2.1 230 19:19 07.01.2020
4719 Rain 9 1015 75 4000 5.1 260 18:58 07.01.2020
4720 Rain 9 1015 75 4000 5.1 260 18:39 07.01.2020
4721 Rain 9 1015 75 4000 5.1 260 18:18 07.01.2020
4722 Rain 9 1015 76 4000 4.6 240 17:58 07.01.2020
4723 Rain 9 1015 76 4000 4.6 240 17:38 07.01.2020
4724 Rain 9 1015 76 4000 4.6 240 17:20 07.01.2020
4725 Haze 11 1015 57 5000 5.1 250 16:56 07.01.2020
4726 Haze 11 1015 57 5000 5.1 250 16:37 07.01.2020
4727 Haze 11 1015 57 5000 5.1 250 16:18 07.01.2020
4728 Haze 12 1015 46 5000 4.1 220 15:55 07.01.2020
4729 Haze 12 1015 46 5000 4.1 220 15:36 07.01.2020
4730 Haze 12 1015 46 5000 4.1 220 15:18 07.01.2020
4731 Clouds 13 1014 47 6000 4.1 240 14:42 07.01.2020
4732 Clouds 13 1014 47 6000 4.1 240 14:23 07.01.2020
4733 Clouds 13 1014 54 7000 6.2 240 13:56 07.01.2020
4734 Clouds 13 1014 54 7000 6.2 240 13:56 07.01.2020
4735 Clouds 13 1014 54 7000 6.2 240 13:37 07.01.2020
4736 Clouds 13 1014 54 7000 6.2 240 13:18 07.01.2020
4737 Clouds 13 1015 46 7000 5.1 240 12:41 07.01.2020
4738 Clouds 13 1015 46 7000 5.1 240 12:19 07.01.2020
4739 Clouds 12 1016 57 7000 2.6 200 11:45 07.01.2020
4740 Clouds 12 1016 57 7000 2.6 200 11:23 07.01.2020
4741 Clouds 12 1017 53 7000 2.6 200 10:59 07.01.2020
4742 Clouds 12 1017 53 7000 2.6 200 10:41 07.01.2020
4743 Clouds 12 1017 53 7000 2.6 200 10:23 07.01.2020
4744 Clouds 11 1017 57 7000 2.6 200 09:56 07.01.2020
4745 Clouds 11 1017 57 7000 2.6 200 09:38 07.01.2020
4746 Clouds 11 1017 57 7000 2.6 200 09:20 07.01.2020
4747 Haze 8 1016 61 5000 2.1 160 08:42 07.01.2020
4748 Haze 8 1016 61 5000 2.1 160 08:23 07.01.2020
4749 Haze 4 1016 75 5000 1.24 208 07:54 07.01.2020
4750 Haze 4 1016 75 5000 1.24 208 07:28 07.01.2020
4751 Haze 4 1016 75 5000 1.24 208 07:28 07.01.2020
4752 Haze 3 1016 75 5000 1.5 200 06:53 07.01.2020
4753 Haze 3 1016 75 5000 1.5 200 06:34 07.01.2020
4754 Clear 4 1016 70 6000 1.24 208 05:54 07.01.2020
4755 Clear 3 1016 70 6000 1.5 270 04:39 07.01.2020
4756 Clear 4 1016 75 6000 1.45 257 03:27 07.01.2020
4757 Clear 3 1016 75 6000 1.5 280 02:22 07.01.2020
4758 Clouds 4 1017 75 6000 2.1 240 01:52 07.01.2020
4759 Clouds 4 1017 75 6000 2.1 240 01:30 07.01.2020
4760 Clear 4 1017 70 6000 2.1 250 00:37 07.01.2020
4761 Clear 4 1017 70 6000 2.1 250 00:37 07.01.2020
4762 Clear 4 1017 70 6000 2.1 250 00:18 07.01.2020
4763 Clear 5 1017 61 6000 1 190 23:55 06.01.2020
4764 Clear 5 1017 61 6000 1 190 23:36 06.01.2020
4765 Clear 5 1017 61 6000 1 190 23:18 06.01.2020
4766 Clear 5 1017 75 6000 2.6 250 22:42 06.01.2020
4767 Clear 5 1017 75 6000 2.6 250 22:22 06.01.2020
4768 Clear 6 1017 70 6000 2.1 230 21:56 06.01.2020
4769 Clear 6 1017 70 6000 2.1 230 21:38 06.01.2020
4770 Clear 6 1017 70 6000 2.1 230 21:20 06.01.2020
4771 Clear 6 1017 70 6000 2.1 230 21:20 06.01.2020
4772 Clear 6 1017 70 6000 2.6 230 20:56 06.01.2020
4773 Clear 6 1017 70 6000 2.6 230 20:37 06.01.2020
4774 Clear 6 1017 70 6000 2.6 230 20:19 06.01.2020
4775 Haze 7 1017 66 5000 2.1 230 19:56 06.01.2020
4776 Haze 7 1017 66 5000 2.1 230 19:56 06.01.2020
4777 Haze 7 1017 66 5000 2.1 230 19:37 06.01.2020
4778 Haze 7 1017 66 5000 2.1 230 19:19 06.01.2020
4779 Haze 7 1017 66 5000 2.1 230 19:19 06.01.2020
4780 Haze 7 1017 66 5000 1.5 200 18:46 06.01.2020
4781 Haze 7 1017 66 5000 1.5 200 18:21 06.01.2020
4782 Haze 11 1017 61 5000 0.63 345 17:57 06.01.2020
4783 Haze 11 1017 61 5000 0.63 345 17:37 06.01.2020
4784 Haze 11 1017 61 5000 2.61 264 17:18 06.01.2020
4785 Clear 11 1017 46 6000 1.5 230 16:44 06.01.2020
4786 Clear 11 1017 46 6000 1.5 230 16:25 06.01.2020
4787 Clear 12 1017 43 6000 1 210 15:59 06.01.2020
4788 Clear 12 1017 43 6000 1 210 15:38 06.01.2020
4789 Clear 12 1017 43 6000 1 210 15:18 06.01.2020
4790 Clear 14 1017 47 6000 2.1 180 14:56 06.01.2020
4791 Clear 14 1017 47 6000 2.1 180 14:37 06.01.2020
4792 Clear 14 1017 47 6000 2.1 180 14:18 06.01.2020
4793 Clouds 13 1017 28 6000 2.1 200 13:41 06.01.2020
4794 Clouds 13 1017 28 6000 2.1 200 13:22 06.01.2020
4795 Clouds 13 1017 54 7000 2.1 160 12:59 06.01.2020
4796 Clouds 13 1017 54 7000 2.1 160 12:41 06.01.2020
4797 Clouds 13 1017 54 7000 2.1 160 12:20 06.01.2020
4798 Clear 12 1017 50 7000 4.1 160 11:57 06.01.2020
4799 Clear 12 1017 50 7000 4.1 160 11:38 06.01.2020
4800 Clear 12 1017 50 7000 4.1 160 11:38 06.01.2020
4801 Clear 12 1017 50 7000 4.1 160 11:20 06.01.2020
4802 Clear 12 1017 50 7000 4.1 160 11:20 06.01.2020
4803 Clouds 11 1019 53 7000 4.1 160 10:43 06.01.2020
4804 Clouds 11 1019 53 7000 4.1 160 10:43 06.01.2020
4805 Clouds 11 1019 53 7000 4.1 160 10:25 06.01.2020
4806 Clear 9 1019 41 6000 5.47 139 09:57 06.01.2020
4807 Clear 9 1019 41 6000 5.47 139 09:37 06.01.2020
4808 Clear 9 1019 41 6000 5.47 139 09:19 06.01.2020
4809 Clear 6 1019 60 7000 5.47 139 08:42 06.01.2020
4810 Clear 6 1019 60 7000 5.56 140 08:23 06.01.2020
4811 Clear 3 1019 57 6000 3.52 117 07:48 06.01.2020
4812 Clear 3 1019 57 6000 3.52 117 07:23 06.01.2020
4813 Clear 2 1018 57 6000 3.52 117 06:45 06.01.2020
4814 Clear 2 1018 57 6000 3.52 117 06:18 06.01.2020
4815 Clear 2 1017 57 6000 3.52 117 05:40 06.01.2020
4816 Clear 2 1017 80 7000 1.88 154 04:30 06.01.2020
4817 Clear 3 1017 71 7000 2.1 240 03:59 06.01.2020
4818 Clear 4 1017 80 10000 1.5 260 02:46 06.01.2020
4819 Clear 4 1017 80 10000 1.5 260 02:23 06.01.2020
4820 Clear 4 1017 75 10000 1.5 260 01:43 06.01.2020
4821 Clear 4 1017 75 10000 1.5 260 01:21 06.01.2020
4822 Clear 5 1017 75 10000 1 210 00:41 06.01.2020
4823 Clear 5 1017 75 10000 1 210 00:20 06.01.2020
4824 Clear 5 1017 70 10000 1.5 230 23:41 05.01.2020
4825 Clear 5 1017 70 10000 1.5 230 23:22 05.01.2020
4826 Clear 5 1018 75 10000 3.1 260 22:56 05.01.2020
4827 Clear 5 1018 75 10000 3.1 260 22:37 05.01.2020
4828 Clear 5 1018 75 10000 3.1 260 22:19 05.01.2020
4829 Clear 5 1018 75 10000 3.1 260 22:19 05.01.2020
4830 Clear 6 1018 70 10000 2.1 200 21:54 05.01.2020
4831 Clear 6 1018 70 10000 2.1 200 21:36 05.01.2020
4832 Clear 6 1018 70 10000 2.1 200 21:18 05.01.2020
4833 Clear 6 1017 70 10000 3.1 240 20:55 05.01.2020
4834 Clear 6 1017 70 10000 3.1 240 20:36 05.01.2020
4835 Clouds 6 1017 70 10000 3.1 240 20:18 05.01.2020
4836 Haze 7 1017 65 5000 3.1 240 19:55 05.01.2020
4837 Haze 7 1017 65 5000 3.1 240 19:37 05.01.2020
4838 Haze 7 1017 65 5000 3.1 240 19:18 05.01.2020
4839 Haze 8 1017 70 5000 2.1 220 18:54 05.01.2020
4840 Haze 8 1017 70 5000 2.1 220 18:36 05.01.2020
4841 Haze 8 1017 70 5000 2.1 220 18:18 05.01.2020
4842 Haze 8 1017 70 5000 2.1 220 18:18 05.01.2020
4843 Haze 8 1017 65 5000 4.1 240 17:55 05.01.2020
4844 Haze 8 1017 65 5000 4.1 240 17:37 05.01.2020
4845 Haze 9 1017 65 5000 4.1 240 17:18 05.01.2020
4846 Haze 9 1016 66 5000 5.1 230 16:54 05.01.2020
4847 Haze 9 1016 66 5000 5.1 230 16:36 05.01.2020
4848 Haze 9 1016 66 5000 5.1 230 16:18 05.01.2020
4849 Haze 10 1016 70 5000 6.7 240 15:36 05.01.2020
4850 Haze 10 1016 70 5000 6.7 240 15:18 05.01.2020
4851 Haze 9 1015 70 5000 7.7 240 14:54 05.01.2020
4852 Haze 9 1015 70 5000 7.7 240 14:36 05.01.2020
4853 Haze 9 1015 70 5000 7.7 240 14:18 05.01.2020
4854 Haze 9 1015 66 5000 2.6 250 13:39 05.01.2020
4855 Haze 9 1015 66 5000 2.6 250 13:21 05.01.2020
4856 Clouds 9 1015 66 7000 6.7 240 12:57 05.01.2020
4857 Clouds 9 1015 66 7000 6.7 240 12:57 05.01.2020
4858 Clouds 9 1015 66 7000 6.7 240 12:57 05.01.2020
4859 Clouds 9 1015 66 7000 6.7 240 12:39 05.01.2020
4860 Clouds 9 1015 66 7000 6.7 240 12:39 05.01.2020
4861 Clouds 9 1015 66 7000 6.7 240 12:39 05.01.2020
4862 Clouds 9 1015 66 7000 6.7 240 12:21 05.01.2020
4863 Clouds 9 1015 66 7000 6.7 240 12:21 05.01.2020
4864 Clouds 8 1015 75 6000 7.7 250 11:55 05.01.2020
4865 Clouds 8 1015 75 6000 7.7 250 11:37 05.01.2020
4866 Clouds 8 1015 75 6000 7.7 250 11:19 05.01.2020
4867 Clouds 8 1017 75 6000 7.7 240 10:55 05.01.2020
4868 Clouds 8 1017 75 6000 7.7 240 10:36 05.01.2020
4869 Clouds 8 1017 75 6000 7.7 240 10:36 05.01.2020
4870 Clouds 8 1017 75 6000 7.7 240 10:18 05.01.2020
4871 Rain 7 1017 81 4000 6.7 230 09:41 05.01.2020
4872 Rain 7 1017 81 4000 6.7 230 09:21 05.01.2020
4873 Rain 7 1016 87 4000 6.2 240 08:46 05.01.2020
4874 Rain 7 1016 87 4000 6.2 240 08:27 05.01.2020
4875 Rain 6 1016 81 4000 6.2 240 07:55 05.01.2020
4876 Rain 6 1016 81 4000 6.2 240 07:35 05.01.2020
4877 Rain 6 1016 93 3000 6.2 240 06:58 05.01.2020
4878 Rain 7 1015 93 3000 5.1 250 05:58 05.01.2020
4879 Rain 7 1015 93 3000 5.1 250 05:30 05.01.2020
4880 Rain 7 1015 93 3000 4.6 250 04:43 05.01.2020
4881 Rain 7 1015 87 4000 7.7 240 03:47 05.01.2020
4882 Rain 7 1015 87 4000 7.7 240 02:46 05.01.2020
4883 Rain 7 1015 87 4000 7.7 240 02:22 05.01.2020
4884 Mist 7 1015 93 5000 7.7 240 01:46 05.01.2020
4885 Mist 7 1015 93 5000 7.7 240 01:18 05.01.2020
4886 Rain 7 1015 93 3000 6.2 230 00:41 05.01.2020
4887 Rain 7 1015 93 3000 6.2 230 00:23 05.01.2020
4888 Drizzle 7 1016 87 5000 7.2 250 23:59 04.01.2020
4889 Drizzle 7 1016 87 5000 7.2 250 23:39 04.01.2020
4890 Rain 7 1015 93 3000 5.1 240 23:19 04.01.2020
4891 Rain 7 1015 93 4000 5.1 250 22:40 04.01.2020
4892 Rain 7 1015 93 4000 5.1 250 22:40 04.01.2020
4893 Rain 7 1015 93 4000 5.1 250 22:21 04.01.2020
4894 Rain 7 1015 93 3000 4.6 240 21:57 04.01.2020
4895 Rain 7 1015 93 3000 4.6 240 21:57 04.01.2020
4896 Rain 7 1015 93 3000 4.6 240 21:39 04.01.2020
4897 Rain 7 1015 93 3000 4.6 240 21:20 04.01.2020
4898 Rain 7 1015 93 2000 4.6 260 20:59 04.01.2020
4899 Rain 7 1015 93 2000 4.6 260 20:40 04.01.2020
4900 Rain 7 1015 93 2000 4.6 260 20:21 04.01.2020
4901 Mist 7 1014 87 5000 5.1 260 19:57 04.01.2020
4902 Mist 7 1014 87 5000 5.1 260 19:57 04.01.2020
4903 Mist 7 1014 87 5000 5.1 260 19:38 04.01.2020
4904 Mist 7 1014 87 5000 5.1 260 19:20 04.01.2020
4905 Clouds 7 1015 93 5000 5.7 250 18:55 04.01.2020
4906 Clouds 7 1015 93 5000 5.7 250 18:36 04.01.2020
4907 Clouds 7 1015 93 5000 5.7 250 18:18 04.01.2020
4908 Mist 8 1015 93 5000 4.1 240 17:41 04.01.2020
4909 Mist 8 1015 93 5000 4.1 240 17:41 04.01.2020
4910 Mist 8 1015 93 5000 4.1 240 17:23 04.01.2020
4911 Rain 7 1015 81 5000 4.6 260 16:58 04.01.2020
4912 Rain 8 1015 81 5000 4.6 260 16:39 04.01.2020
4913 Rain 8 1015 81 5000 4.6 260 16:21 04.01.2020
4914 Mist 8 1015 87 4000 5.1 260 15:55 04.01.2020
4915 Mist 8 1015 87 4000 5.1 260 15:37 04.01.2020
4916 Mist 8 1015 87 4000 5.1 260 15:18 04.01.2020
4917 Rain 8 1014 93 3000 5.7 250 14:42 04.01.2020
4918 Rain 8 1014 93 3000 5.7 250 14:42 04.01.2020
4919 Rain 8 1014 93 3000 5.7 250 14:20 04.01.2020
4920 Rain 8 1014 87 3000 6.7 250 13:59 04.01.2020
4921 Rain 8 1014 87 3000 6.7 250 13:38 04.01.2020
4922 Rain 8 1014 87 3000 6.7 250 13:19 04.01.2020
4923 Rain 8 1014 87 3000 9.3 240 12:57 04.01.2020
4924 Rain 8 1014 87 3000 9.3 240 12:39 04.01.2020
4925 Rain 8 1014 87 3000 9.3 240 12:19 04.01.2020
4926 Rain 6 1015 86 3000 9.3 230 11:57 04.01.2020
4927 Rain 6 1015 86 3000 9.3 230 11:38 04.01.2020
4928 Rain 6 1015 86 3000 9.3 230 11:38 04.01.2020
4929 Rain 6 1015 86 3000 9.3 230 11:18 04.01.2020
4930 Drizzle 7 1015 81 4000 9.3 240 10:41 04.01.2020
4931 Drizzle 7 1015 81 4000 9.3 240 10:22 04.01.2020
4932 Haze 7 1016 75 4000 6.7 250 09:50 04.01.2020
4933 Haze 7 1016 75 4000 6.7 250 09:26 04.01.2020
4934 Rain 5 1016 86 3000 6.2 230 08:57 04.01.2020
4935 Rain 5 1016 86 3000 6.2 230 08:37 04.01.2020
4936 Rain 5 1016 86 3000 6.2 230 08:19 04.01.2020
4937 Clouds 5 1016 80 3000 7.2 230 07:42 04.01.2020
4938 Rain 4 1016 75 3000 9.3 230 06:49 04.01.2020
4939 Haze 4 1015 65 5000 2.6 250 05:59 04.01.2020
4940 Haze 4 1015 65 5000 2.6 250 05:18 04.01.2020
4941 Haze 4 1015 65 5000 3.1 250 04:33 04.01.2020
4942 Haze 5 1015 60 5000 7.2 240 03:43 04.01.2020
4943 Haze 5 1015 60 5000 7.2 240 03:18 04.01.2020
4944 Haze 5 1015 70 5000 5.7 230 02:21 04.01.2020
4945 Haze 5 1015 70 5000 5.7 230 02:21 04.01.2020
4946 Haze 5 1016 60 5000 2.6 200 01:53 04.01.2020
4947 Haze 5 1016 60 5000 2.6 200 01:30 04.01.2020
4948 Haze 5 1016 70 5000 3.1 220 00:43 04.01.2020
4949 Haze 5 1016 70 5000 3.1 220 00:23 04.01.2020
4950 Haze 6 1017 70 5000 3.6 240 23:44 03.01.2020
4951 Haze 6 1017 70 5000 3.6 240 23:25 03.01.2020
4952 Haze 6 1017 65 5000 1.5 200 22:41 03.01.2020
4953 Haze 6 1017 65 5000 1.5 200 22:41 03.01.2020
4954 Haze 6 1017 65 5000 1.5 200 22:20 03.01.2020
4955 Haze 6 1018 65 5000 3.25 271 21:59 03.01.2020
4956 Haze 6 1018 65 5000 3.25 271 21:39 03.01.2020
4957 Haze 6 1018 65 5000 3.25 271 21:19 03.01.2020
4958 Haze 6 1018 65 5000 3.25 271 21:19 03.01.2020
4959 Haze 6 1018 65 5000 3.25 271 20:59 03.01.2020
4960 Haze 6 1018 65 5000 3.25 271 20:41 03.01.2020
4961 Haze 6 1018 65 5000 3.25 271 20:41 03.01.2020
4962 Haze 6 1018 65 5000 2.6 272 20:19 03.01.2020
4963 Clear 6 1018 65 6000 1 210 19:57 03.01.2020
4964 Clear 6 1018 65 6000 1 210 19:39 03.01.2020
4965 Clear 6 1018 65 6000 1 210 19:21 03.01.2020
4966 Clouds 6 1018 75 6000 3.6 230 18:44 03.01.2020
4967 Clouds 6 1018 75 6000 3.6 230 18:44 03.01.2020
4968 Clouds 6 1018 75 6000 3.6 230 18:26 03.01.2020
4969 Clouds 9 1018 61 6000 2.1 240 17:56 03.01.2020
4970 Clouds 9 1018 61 6000 2.1 240 17:38 03.01.2020
4971 Clouds 9 1018 61 6000 2.1 240 17:19 03.01.2020
4972 Clouds 9 1017 57 6000 3.6 250 16:43 03.01.2020
4973 Clouds 9 1017 57 6000 3.6 250 16:24 03.01.2020
4974 Clouds 10 1017 53 6000 5.1 250 15:58 03.01.2020
4975 Clouds 10 1017 53 6000 5.1 250 15:40 03.01.2020
4976 Clouds 10 1017 53 6000 5.1 250 15:18 03.01.2020
4977 Clouds 11 1017 50 6000 4.6 250 14:39 03.01.2020
4978 Clouds 11 1017 50 6000 4.6 250 14:20 03.01.2020
4979 Clouds 11 1018 53 6000 6.2 250 13:56 03.01.2020
4980 Clouds 11 1018 53 6000 6.2 250 13:37 03.01.2020
4981 Clouds 11 1018 53 6000 6.2 250 13:19 03.01.2020
4982 Clouds 11 1018 53 6000 8.2 230 12:40 03.01.2020
4983 Clouds 11 1018 43 6000 6.7 260 12:21 03.01.2020
4984 Clouds 10 1018 53 6000 6.7 250 11:49 03.01.2020
4985 Clouds 10 1018 53 6000 6.7 250 11:30 03.01.2020
4986 Clouds 10 1019 61 6000 3.6 240 10:48 03.01.2020
4987 Clouds 10 1019 61 6000 3.6 240 10:28 03.01.2020
4988 Haze 9 1019 61 5000 3.1 240 09:59 03.01.2020
4989 Haze 9 1019 61 5000 3.1 240 09:41 03.01.2020
4990 Haze 9 1019 61 5000 3.1 240 09:23 03.01.2020
4991 Haze 8 1019 75 5000 2.6 240 08:57 03.01.2020
4992 Haze 8 1019 75 5000 2.6 240 08:39 03.01.2020
4993 Haze 8 1019 75 5000 2.6 240 08:21 03.01.2020
4994 Haze 6 1019 81 4000 1 360 07:42 03.01.2020
4995 Haze 6 1019 81 4000 1 360 07:19 03.01.2020
4996 Haze 7 1018 87 4000 1 360 06:57 03.01.2020
4997 Haze 7 1018 87 4000 1 360 06:39 03.01.2020
4998 Clouds 8 1019 75 0 3.88 269 06:20 03.01.2020
4999 Clouds 8 1018 83 0 4.59 268 04:43 03.01.2020
5000 Haze 6 1018 93 4000 1.5 250 03:37 03.01.2020
5001 Haze 6 1018 93 4000 1 120 02:50 03.01.2020
5002 Haze 6 1018 93 4000 1 120 01:48 03.01.2020
5003 Haze 7 1018 87 4000 1 360 00:57 03.01.2020
5004 Haze 7 1018 87 4000 1 360 00:33 03.01.2020
5005 Haze 7 1018 87 4000 1.5 20 23:59 02.01.2020
5006 Haze 7 1018 87 4000 1.5 20 23:39 02.01.2020
5007 Haze 7 1018 87 4000 1.5 20 23:20 02.01.2020
5008 Haze 7 1018 87 4000 1.5 20 22:58 02.01.2020
5009 Haze 7 1018 87 4000 1.5 20 22:40 02.01.2020
5010 Haze 7 1018 87 4000 1.5 20 22:19 02.01.2020
5011 Haze 7 1018 87 4000 1 140 21:55 02.01.2020
5012 Haze 7 1018 87 4000 1 140 21:37 02.01.2020
5013 Haze 7 1018 87 4000 1 140 21:18 02.01.2020
5014 Drizzle 7 1018 87 4000 1 140 20:56 02.01.2020
5015 Drizzle 7 1018 87 4000 1 140 20:36 02.01.2020
5016 Drizzle 7 1018 87 4000 1 140 20:18 02.01.2020
5017 Dust 8 1017 87 4000 1.5 30 19:54 02.01.2020
5018 Dust 8 1017 87 4000 1.5 30 19:36 02.01.2020
5019 Dust 8 1017 87 4000 1.5 30 19:18 02.01.2020
5020 Haze 8 1017 87 4000 1.5 90 18:42 02.01.2020
5021 Haze 8 1017 87 4000 1.5 90 18:23 02.01.2020
5022 Haze 8 1017 81 4000 2.95 308 17:58 02.01.2020
5023 Haze 8 1017 81 4000 2.95 308 17:58 02.01.2020
5024 Haze 8 1017 81 4000 2.95 308 17:39 02.01.2020
5025 Haze 8 1017 81 4000 4.37 293 17:20 02.01.2020
5026 Haze 10 1017 76 4000 2.1 350 16:58 02.01.2020
5027 Haze 10 1017 76 4000 2.1 350 16:58 02.01.2020
5028 Haze 10 1017 76 4000 2.1 350 16:40 02.01.2020
5029 Haze 10 1017 76 4000 2.1 350 16:20 02.01.2020
5030 Haze 12 1016 66 5000 3.6 270 15:58 02.01.2020
5031 Haze 12 1016 66 5000 3.6 270 15:40 02.01.2020
5032 Haze 12 1016 66 5000 3.6 270 15:21 02.01.2020
5033 Haze 12 1016 62 5000 4.6 270 14:57 02.01.2020
5034 Haze 12 1016 62 5000 4.6 270 14:36 02.01.2020
5035 Haze 12 1016 62 5000 4.6 270 14:18 02.01.2020
5036 Haze 13 1015 58 5000 6.2 250 13:50 02.01.2020
5037 Haze 13 1015 58 5000 6.2 250 13:31 02.01.2020
5038 Clouds 12 1015 58 6000 5.1 280 12:46 02.01.2020
5039 Clouds 13 1016 46 6000 4.6 240 12:28 02.01.2020
5040 Clouds 13 1016 46 6000 4.6 240 11:59 02.01.2020
5041 Clouds 13 1016 46 6000 4.6 240 11:41 02.01.2020
5042 Clouds 13 1016 46 6000 4.6 240 11:20 02.01.2020
5043 Clear 12 1016 50 7000 1.5 240 10:45 02.01.2020
5044 Clear 12 1016 50 7000 1.5 240 10:26 02.01.2020
5045 Haze 11 1016 57 5000 1.91 156 09:55 02.01.2020
5046 Haze 11 1016 57 5000 1.91 156 09:34 02.01.2020
5047 Haze 7 1016 81 3000 1.91 156 08:50 02.01.2020
5048 Haze 7 1016 81 3000 1.91 156 08:28 02.01.2020
5049 Haze 5 1016 81 3000 3.02 96 07:57 02.01.2020
5050 Haze 5 1016 81 3000 3.02 96 07:31 02.01.2020
5051 Mist 4 1015 93 3000 3.02 96 06:57 02.01.2020
5052 Mist 4 1015 93 3000 3.02 96 06:57 02.01.2020
5053 Mist 4 1015 93 3000 3.02 96 06:39 02.01.2020
5054 Mist 5 1015 93 4000 3.02 96 05:37 02.01.2020
5055 Mist 5 1015 93 5000 1 89 04:34 02.01.2020
5056 Haze 5 1015 87 5000 1 89 03:23 02.01.2020
5057 Haze 5 1015 87 5000 0.25 360 02:20 02.01.2020
5058 Haze 5 1015 87 5000 0.25 360 01:48 02.01.2020
5059 Haze 5 1015 87 5000 1.07 331 01:23 02.01.2020
5060 Haze 5 1016 81 5000 1.07 331 00:38 02.01.2020
5061 Haze 5 1016 81 5000 1.07 331 00:19 02.01.2020
5062 Haze 6 1016 81 5000 1.07 331 23:41 01.01.2020
5063 Haze 6 1016 81 5000 1.06 311 23:21 01.01.2020
5064 Haze 6 1016 87 5000 1.06 311 22:39 01.01.2020
5065 Haze 6 1016 87 5000 1.06 311 22:20 01.01.2020
5066 Haze 7 1017 75 5000 1.06 311 21:58 01.01.2020
5067 Haze 7 1017 75 5000 1.06 311 21:39 01.01.2020
5068 Haze 7 1017 75 5000 1.06 311 21:20 01.01.2020
5069 Haze 7 1017 75 5000 1.06 311 20:56 01.01.2020
5070 Haze 7 1017 75 5000 1.06 311 20:38 01.01.2020
5071 Haze 7 1017 75 5000 1.06 311 20:38 01.01.2020
5072 Haze 7 1017 75 5000 2.66 332 20:19 01.01.2020
5073 Haze 8 1017 75 4000 2.66 332 19:56 01.01.2020
5074 Haze 8 1017 75 4000 2.66 332 19:37 01.01.2020
5075 Haze 8 1017 75 4000 2.66 332 19:19 01.01.2020
5076 Haze 9 1017 70 5000 2.66 332 18:56 01.01.2020
5077 Haze 9 1017 70 5000 2.66 332 18:37 01.01.2020
5078 Clouds 10 1017 66 6000 1.5 30 18:19 01.01.2020
5079 Haze 10 1017 61 5000 2.66 332 17:57 01.01.2020
5080 Haze 10 1017 61 5000 2.66 332 17:39 01.01.2020
5081 Haze 10 1017 61 5000 1.59 348 17:19 01.01.2020
5082 Haze 11 1017 50 5000 1.5 220 16:57 01.01.2020
5083 Haze 11 1017 50 5000 1.5 220 16:37 01.01.2020
5084 Haze 11 1017 50 5000 1.5 220 16:19 01.01.2020
5085 Haze 12 1016 46 5000 2.6 220 15:56 01.01.2020
5086 Haze 12 1016 46 5000 2.6 220 15:37 01.01.2020
5087 Haze 12 1016 46 5000 2.6 220 15:19 01.01.2020
5088 Haze 13 1016 43 4000 2.6 250 14:55 01.01.2020
5089 Haze 13 1016 43 4000 2.6 250 14:37 01.01.2020
5090 Haze 13 1016 43 4000 2.6 250 14:19 01.01.2020
5091 Haze 13 1016 58 4000 2.1 50 13:55 01.01.2020
5092 Haze 13 1016 58 4000 2.1 50 13:36 01.01.2020
5093 Haze 13 1016 58 4000 2.1 50 13:18 01.01.2020
5094 Haze 12 1016 50 5000 2.6 350 12:40 01.01.2020
5095 Haze 12 1016 50 5000 2.6 350 12:19 01.01.2020
5096 Haze 11 1017 54 5000 2.83 298 11:56 01.01.2020
5097 Haze 11 1017 54 5000 2.83 298 11:38 01.01.2020
5098 Haze 10 1017 54 5000 1.39 267 11:19 01.01.2020
5099 Haze 10 1018 57 4000 1.39 267 10:55 01.01.2020
5100 Haze 10 1018 57 4000 1.39 267 10:36 01.01.2020
5101 Haze 10 1018 57 4000 1.39 267 10:18 01.01.2020
5102 Haze 8 1018 76 3500 1.39 267 09:40 01.01.2020
5103 Haze 8 1018 76 3500 1.39 267 09:20 01.01.2020
5104 Haze 6 1019 81 2500 1.5 240 08:57 01.01.2020
5105 Haze 6 1019 81 2500 1.5 240 08:37 01.01.2020
5106 Haze 4 1019 81 2500 1.5 240 08:19 01.01.2020
5107 Smoke 4 1018 87 3000 1.5 240 07:57 01.01.2020
5108 Smoke 4 1018 87 3000 1.5 240 07:38 01.01.2020
5109 Mist 4 1018 87 4000 1.15 301 06:50 01.01.2020
5110 Mist 4 1018 87 4000 1.15 301 06:32 01.01.2020
5111 Mist 2 1018 86 4000 1.15 301 05:48 01.01.2020
5112 Mist 2 1018 93 4000 2.2 318 04:20 01.01.2020
5113 Mist 2 1019 86 4000 2.2 318 03:39 01.01.2020
5114 Mist 2 1019 86 4000 2.2 318 03:21 01.01.2020
5115 Mist 3 1019 86 4000 1 180 02:41 01.01.2020
5116 Mist 3 1019 86 4000 1 180 02:22 01.01.2020
5117 Mist 3 1019 86 4000 1 200 01:41 01.01.2020
5118 Mist 3 1019 86 4000 1 200 01:22 01.01.2020
5119 Mist 3 1019 86 4000 1 280 00:45 01.01.2020
5120 Mist 3 1019 86 4000 1 280 00:45 01.01.2020
5121 Mist 3 1019 86 4000 1 280 00:26 01.01.2020
5122 Mist 3 1020 93 5000 3.03 329 23:56 31.12.2019
5123 Mist 3 1020 93 5000 3.03 329 23:36 31.12.2019
5124 Mist 3 1020 93 5000 3.33 332 23:18 31.12.2019
5125 Haze 5 1020 81 5000 1 340 22:55 31.12.2019
5126 Haze 5 1020 81 5000 1 340 22:36 31.12.2019
5127 Haze 5 1020 81 5000 1 340 22:18 31.12.2019
5128 Haze 6 1021 75 5000 3.33 332 21:43 31.12.2019
5129 Haze 6 1021 75 5000 3.33 332 21:25 31.12.2019
5130 Haze 6 1021 75 5000 1.5 200 20:57 31.12.2019
5131 Haze 6 1021 75 5000 1.5 200 20:39 31.12.2019
5132 Haze 6 1021 75 5000 1.5 200 20:20 31.12.2019
5133 Haze 7 1021 70 5000 1 290 19:58 31.12.2019
5134 Haze 7 1021 70 5000 1 290 19:40 31.12.2019
5135 Haze 7 1021 70 5000 1 290 19:21 31.12.2019
5136 Haze 7 1021 70 5000 1 320 18:57 31.12.2019
5137 Haze 7 1021 70 5000 1 320 18:38 31.12.2019
5138 Haze 7 1021 70 5000 1 320 18:19 31.12.2019
5139 Haze 8 1021 57 5000 2.6 290 17:56 31.12.2019
5140 Haze 8 1021 57 5000 2.6 290 17:56 31.12.2019
5141 Haze 8 1021 57 5000 2.6 290 17:36 31.12.2019
5142 Haze 8 1021 57 5000 2.6 290 17:18 31.12.2019
5143 Haze 8 1021 57 5000 2.6 290 17:18 31.12.2019
5144 Haze 9 1021 53 5000 2.6 250 16:56 31.12.2019
5145 Haze 9 1021 53 5000 2.6 250 16:56 31.12.2019
5146 Haze 9 1021 53 5000 2.6 250 16:37 31.12.2019
5147 Haze 9 1021 53 5000 2.6 250 16:19 31.12.2019
5148 Clear 11 1020 51 6000 2.6 240 15:56 31.12.2019
5149 Clear 11 1020 51 6000 2.6 240 15:38 31.12.2019
5150 Clear 11 1020 51 6000 2.6 240 15:19 31.12.2019
5151 Clear 12 1020 34 6000 4.1 250 14:55 31.12.2019
5152 Clear 12 1020 34 6000 4.1 250 14:37 31.12.2019
5153 Clear 12 1020 34 6000 4.1 250 14:19 31.12.2019
5154 Clear 12 1020 40 7000 2.6 240 13:56 31.12.2019
5155 Clear 12 1020 40 7000 2.6 240 13:38 31.12.2019
5156 Clear 12 1020 40 7000 2.6 240 13:20 31.12.2019
5157 Clear 11 1020 43 7000 3.1 240 12:55 31.12.2019
5158 Clear 11 1020 43 7000 3.1 240 12:37 31.12.2019
5159 Clear 11 1020 43 7000 3.1 240 12:19 31.12.2019
5160 Clear 10 1021 37 7000 3.6 250 11:55 31.12.2019
5161 Clear 10 1021 37 7000 3.6 250 11:55 31.12.2019
5162 Clear 10 1021 37 7000 3.6 250 11:37 31.12.2019
5163 Clear 10 1021 37 7000 3.6 250 11:37 31.12.2019
5164 Clear 10 1021 45 7000 3.6 250 11:19 31.12.2019
5165 Clear 9 1022 53 7000 2.6 260 10:56 31.12.2019
5166 Clear 9 1022 53 7000 2.6 260 10:37 31.12.2019
5167 Clear 9 1022 53 7000 2.6 260 10:19 31.12.2019
5168 Haze 8 1023 66 5000 2.6 250 09:57 31.12.2019
5169 Haze 8 1023 66 5000 2.6 250 09:38 31.12.2019
5170 Haze 8 1023 66 5000 2.6 250 09:19 31.12.2019
5171 Haze 6 1022 65 5000 2.6 250 08:43 31.12.2019
5172 Haze 6 1022 65 5000 2.6 250 08:24 31.12.2019
5173 Haze 4 1022 75 5000 2.1 210 07:59 31.12.2019
5174 Haze 4 1022 75 5000 2.1 210 07:41 31.12.2019
5175 Haze 4 1022 75 5000 2.1 210 07:19 31.12.2019
5176 Haze 2 1021 80 4000 1.5 220 06:42 31.12.2019
5177 Mist 2 1021 86 5000 1.5 250 05:54 31.12.2019
5178 Mist 3 1020 86 5000 3.28 253 04:27 31.12.2019
5179 Clear 4 1020 81 6000 3.28 253 03:27 31.12.2019
5180 Clear 4 1020 81 7000 1.5 180 02:43 31.12.2019
5181 Clear 5 1020 87 7000 1.5 200 01:53 31.12.2019
5182 Clear 5 1020 87 7000 1.5 200 01:34 31.12.2019
5183 Clear 5 1020 81 7000 1 200 00:58 31.12.2019
5184 Clear 5 1020 81 7000 1 200 00:39 31.12.2019
5185 Clear 5 1020 81 7000 1 200 00:21 31.12.2019
5186 Clear 6 1020 81 7000 1.5 280 23:56 30.12.2019
5187 Clear 6 1020 81 7000 1.5 280 23:37 30.12.2019
5188 Clear 6 1020 81 7000 1.5 280 23:19 30.12.2019
5189 Clear 6 1020 81 6000 2.6 280 22:56 30.12.2019
5190 Clear 6 1020 81 6000 2.6 280 22:37 30.12.2019
5191 Clear 6 1020 81 6000 2.6 280 22:18 30.12.2019
5192 Clear 8 1020 75 6000 2.1 250 21:56 30.12.2019
5193 Clear 8 1020 75 6000 2.1 250 21:38 30.12.2019
5194 Clear 8 1020 75 6000 2.1 250 21:18 30.12.2019
5195 Clear 8 1020 81 7000 3.6 250 20:56 30.12.2019
5196 Clear 8 1020 81 7000 3.6 250 20:38 30.12.2019
5197 Clouds 8 1020 81 7000 3.6 250 20:19 30.12.2019
5198 Clouds 8 1019 76 7000 2.1 250 19:56 30.12.2019
5199 Clouds 8 1019 76 7000 2.1 250 19:37 30.12.2019
5200 Clouds 8 1019 76 7000 2.1 250 19:37 30.12.2019
5201 Clouds 8 1019 76 7000 2.1 250 19:19 30.12.2019
5202 Clouds 9 1019 71 7000 2.1 250 18:56 30.12.2019
5203 Clouds 9 1019 71 7000 2.1 250 18:37 30.12.2019
5204 Clouds 9 1019 71 7000 2.1 250 18:19 30.12.2019
5205 Haze 10 1018 66 5000 1.5 230 17:54 30.12.2019
5206 Haze 10 1018 66 5000 1.5 230 17:36 30.12.2019
5207 Haze 10 1018 66 5000 1.5 230 17:18 30.12.2019
5208 Haze 10 1017 62 5000 2.6 240 16:54 30.12.2019
5209 Haze 10 1017 62 5000 2.6 240 16:36 30.12.2019
5210 Haze 10 1017 62 5000 2.6 240 16:18 30.12.2019
5211 Clouds 13 1017 58 6000 3.6 240 15:54 30.12.2019
5212 Clouds 13 1017 58 6000 3.6 240 15:36 30.12.2019
5213 Clouds 13 1017 58 6000 3.6 240 15:18 30.12.2019
5214 Clouds 13 1017 54 6000 5.1 250 14:42 30.12.2019
5215 Clouds 13 1017 54 6000 5.1 250 14:19 30.12.2019
5216 Haze 13 1016 54 5000 5.1 240 13:55 30.12.2019
5217 Haze 13 1016 54 5000 5.1 240 13:37 30.12.2019
5218 Haze 13 1016 54 5000 5.1 240 13:18 30.12.2019
5219 Haze 14 1016 47 5000 4.1 230 12:42 30.12.2019
5220 Haze 14 1016 47 5000 4.1 230 12:20 30.12.2019
5221 Haze 13 1017 50 5000 3.1 220 11:59 30.12.2019
5222 Haze 13 1017 50 5000 3.1 220 11:40 30.12.2019
5223 Haze 13 1017 50 5000 3.1 220 11:19 30.12.2019
5224 Haze 12 1017 50 5000 3.6 240 10:44 30.12.2019
5225 Haze 12 1017 50 5000 3.6 240 10:22 30.12.2019
5226 Haze 9 1017 57 5000 2.1 230 09:58 30.12.2019
5227 Haze 9 1017 57 5000 2.1 230 09:40 30.12.2019
5228 Haze 9 1017 57 5000 2.1 230 09:20 30.12.2019
5229 Smoke 8 1017 61 5000 2.1 200 08:50 30.12.2019
5230 Smoke 8 1017 61 5000 2.1 200 08:23 30.12.2019
5231 Smoke 5 1017 70 5000 3.1 260 07:56 30.12.2019
5232 Smoke 5 1017 70 5000 3.1 260 07:37 30.12.2019
5233 Clouds 4 1017 70 7000 3.1 250 06:52 30.12.2019
5234 Clear 5 1016 65 10000 1.5 260 04:58 30.12.2019
5235 Haze 5 1016 87 4000 3.1 260 03:58 30.12.2019
5236 Haze 5 1016 87 4000 3.1 260 03:19 30.12.2019
5237 Haze 5 1016 75 4000 1 220 02:40 30.12.2019
5238 Haze 5 1016 75 4000 2.1 230 01:55 30.12.2019
5239 Haze 5 1016 75 4000 2.1 230 01:23 30.12.2019
5240 Haze 5 1016 87 4000 1 230 00:45 30.12.2019
5241 Haze 5 1016 87 4000 1 230 00:23 30.12.2019
5242 Haze 5 1017 81 4000 1 250 23:40 29.12.2019
5243 Haze 5 1017 81 4000 1 250 23:21 29.12.2019
5244 Haze 6 1017 70 4000 1.5 140 22:56 29.12.2019
5245 Haze 6 1017 70 4000 1.5 140 22:37 29.12.2019
5246 Haze 6 1017 70 4000 1.5 140 22:18 29.12.2019
5247 Haze 6 1017 81 4000 1 230 21:43 29.12.2019
5248 Haze 6 1017 81 4000 1 230 21:21 29.12.2019
5249 Haze 6 1017 81 4000 0.72 97 20:59 29.12.2019
5250 Haze 6 1017 81 4000 0.72 97 20:39 29.12.2019
5251 Haze 6 1017 81 4000 0.84 57 20:21 29.12.2019
5252 Haze 7 1016 81 4000 1 230 19:59 29.12.2019
5253 Haze 7 1016 81 4000 1 230 19:40 29.12.2019
5254 Haze 7 1016 81 4000 1 230 19:21 29.12.2019
5255 Haze 8 1016 70 5000 1 170 18:58 29.12.2019
5256 Haze 8 1016 70 5000 1 170 18:40 29.12.2019
5257 Haze 8 1016 70 5000 1 170 18:21 29.12.2019
5258 Haze 9 1016 61 5000 1 190 17:58 29.12.2019
5259 Haze 9 1016 61 5000 1 190 17:39 29.12.2019
5260 Haze 9 1016 61 5000 1 190 17:20 29.12.2019
5261 Haze 10 1016 61 5000 1.5 220 16:57 29.12.2019
5262 Haze 10 1016 61 5000 1.5 220 16:39 29.12.2019
5263 Haze 10 1016 61 5000 1.5 220 16:39 29.12.2019
5264 Haze 10 1016 61 5000 1.5 220 16:21 29.12.2019
5265 Clouds 13 1016 46 6000 3.1 270 15:59 29.12.2019
5266 Clouds 13 1016 46 6000 3.1 270 15:40 29.12.2019
5267 Clouds 13 1016 46 6000 3.1 270 15:20 29.12.2019
5268 Haze 13 1015 46 5000 2.6 270 14:58 29.12.2019
5269 Haze 13 1015 46 5000 2.6 270 14:39 29.12.2019
5270 Haze 13 1015 46 5000 2.6 270 14:19 29.12.2019
5271 Haze 13 1015 62 5000 3.6 230 13:59 29.12.2019
5272 Haze 13 1015 62 5000 3.6 230 13:40 29.12.2019
5273 Haze 13 1015 62 5000 3.6 230 13:22 29.12.2019
5274 Haze 13 1016 66 5000 1 200 12:57 29.12.2019
5275 Haze 13 1016 66 5000 1 200 12:38 29.12.2019
5276 Haze 13 1016 66 5000 1 200 12:20 29.12.2019
5277 Haze 13 1016 58 5000 2.1 210 11:41 29.12.2019
5278 Haze 13 1016 58 5000 2.1 210 11:21 29.12.2019
5279 Haze 12 1018 71 5000 2.6 180 10:57 29.12.2019
5280 Haze 12 1018 71 5000 2.6 180 10:39 29.12.2019
5281 Haze 12 1018 71 5000 2.6 180 10:18 29.12.2019
5282 Haze 10 1018 76 5000 2.1 150 09:46 29.12.2019
5283 Haze 10 1018 76 5000 2.1 150 09:28 29.12.2019
5284 Haze 8 1018 66 5000 2.1 240 08:56 29.12.2019
5285 Haze 8 1018 66 5000 2.1 240 08:38 29.12.2019
5286 Haze 8 1018 66 5000 2.1 240 08:20 29.12.2019
5287 Haze 5 1017 87 4000 2.1 240 07:44 29.12.2019
5288 Haze 5 1017 87 4000 2.1 240 07:25 29.12.2019
5289 Mist 4 1017 93 4000 1.5 240 06:42 29.12.2019
5290 Mist 4 1017 93 4000 1.5 240 06:19 29.12.2019
5291 Mist 4 1016 93 5000 1.63 166 05:44 29.12.2019
5292 Mist 3 1017 93 5000 1.92 179 04:33 29.12.2019
5293 Mist 4 1017 87 5000 1.92 179 03:39 29.12.2019
5294 Mist 4 1017 93 5000 1.92 179 02:36 29.12.2019
5295 Mist 4 1017 93 5000 1.22 208 02:18 29.12.2019
5296 Mist 4 1018 87 5000 1.22 208 01:31 29.12.2019
5297 Mist 5 1017 93 5000 0.8 212 00:51 29.12.2019
5298 Mist 5 1017 93 5000 0.8 212 00:25 29.12.2019
5299 Mist 5 1017 100 5000 0.8 212 23:56 28.12.2019
5300 Mist 5 1017 100 5000 0.8 212 23:37 28.12.2019
5301 Mist 5 1017 100 5000 0.56 190 23:18 28.12.2019
5302 Mist 5 1017 100 5000 0.56 190 23:18 28.12.2019
5303 Mist 5 1017 93 5000 0.56 190 22:38 28.12.2019
5304 Mist 5 1017 93 5000 0.56 190 22:38 28.12.2019
5305 Mist 5 1017 93 5000 0.56 190 22:19 28.12.2019
5306 Mist 6 1017 87 5000 0.56 190 21:57 28.12.2019
5307 Mist 6 1017 87 5000 0.56 190 21:38 28.12.2019
5308 Mist 6 1017 87 5000 0.56 190 21:38 28.12.2019
5309 Mist 6 1017 87 5000 0.56 190 21:20 28.12.2019
5310 Clear 6 1017 87 6000 0.56 190 20:55 28.12.2019
5311 Clear 6 1017 87 6000 0.56 190 20:36 28.12.2019
5312 Clouds 6 1017 87 6000 1.27 353 20:18 28.12.2019
5313 Clouds 7 1017 81 6000 2.1 250 19:54 28.12.2019
5314 Clouds 7 1017 81 6000 2.1 250 19:36 28.12.2019
5315 Clouds 7 1017 81 6000 2.1 250 19:18 28.12.2019
5316 Clouds 7 1016 75 6000 2.1 240 18:55 28.12.2019
5317 Clouds 7 1016 75 6000 2.1 240 18:37 28.12.2019
5318 Clouds 7 1016 75 6000 2.1 240 18:18 28.12.2019
5319 Clouds 9 1016 76 6000 3.1 240 17:42 28.12.2019
5320 Clouds 9 1016 76 6000 3.1 240 17:21 28.12.2019
5321 Clouds 10 1016 71 6000 5.1 240 16:58 28.12.2019
5322 Clouds 10 1016 71 6000 5.1 240 16:40 28.12.2019
5323 Clouds 10 1016 71 6000 5.1 240 16:21 28.12.2019
5324 Haze 11 1016 71 5000 6.2 230 15:43 28.12.2019
5325 Haze 11 1016 71 5000 6.2 230 15:23 28.12.2019
5326 Haze 11 1016 71 5000 5.1 240 14:56 28.12.2019
5327 Haze 11 1016 71 5000 5.1 240 14:37 28.12.2019
5328 Haze 11 1016 71 5000 5.1 240 14:19 28.12.2019
5329 Haze 11 1015 71 5000 7.2 240 13:42 28.12.2019
5330 Haze 11 1015 71 5000 7.2 240 13:21 28.12.2019
5331 Haze 11 1015 76 4000 7.2 240 12:59 28.12.2019
5332 Haze 11 1015 76 4000 7.2 240 12:40 28.12.2019
5333 Haze 11 1015 76 4000 7.2 240 12:21 28.12.2019
5334 Mist 10 1016 87 4000 4.1 230 11:54 28.12.2019
5335 Mist 10 1016 87 4000 4.1 230 11:36 28.12.2019
5336 Mist 10 1016 87 4000 4.1 230 11:18 28.12.2019
5337 Rain 9 1017 87 2000 2.6 230 10:41 28.12.2019
5338 Rain 9 1017 87 2000 2.6 230 10:20 28.12.2019
5339 Drizzle 8 1018 81 3000 2.1 200 09:56 28.12.2019
5340 Drizzle 8 1018 81 3000 2.1 200 09:38 28.12.2019
5341 Drizzle 8 1018 81 3000 2.1 200 09:18 28.12.2019
5342 Drizzle 8 1018 93 3000 2.1 200 08:43 28.12.2019
5343 Drizzle 8 1018 93 3000 2.1 200 08:25 28.12.2019
5344 Drizzle 7 1018 93 3500 2.1 210 07:49 28.12.2019
5345 Drizzle 7 1017 93 5000 2.6 220 07:27 28.12.2019
5346 Mist 6 1017 93 4000 2.1 200 05:53 28.12.2019
5347 Rain 6 1016 100 4000 2.6 250 03:59 28.12.2019
5348 Rain 6 1016 100 4000 2.6 250 03:38 28.12.2019
5349 Rain 6 1017 100 7000 2.6 240 02:48 28.12.2019
5350 Clouds 6 1017 93 7000 1 240 01:59 28.12.2019
5351 Clouds 6 1017 93 7000 1 240 01:29 28.12.2019
5352 Rain 6 1016 93 6000 3.6 240 00:54 28.12.2019
5353 Rain 6 1016 93 6000 3.6 240 00:36 28.12.2019
5354 Rain 6 1016 93 6000 3.6 240 00:18 28.12.2019
5355 Clouds 7 1016 87 6000 2.1 240 23:42 27.12.2019
5356 Clouds 7 1016 87 6000 2.1 240 23:19 27.12.2019
5357 Clouds 7 1016 87 6000 2.1 240 23:19 27.12.2019
5358 Clouds 7 1016 87 6000 2.1 240 23:19 27.12.2019
5359 Clouds 7 1016 100 6000 3.1 230 22:57 27.12.2019
5360 Clouds 7 1016 100 6000 3.1 230 22:38 27.12.2019
5361 Rain 7 1016 100 6000 3.1 240 22:20 27.12.2019
5362 Rain 7 1016 93 6000 2.6 230 21:55 27.12.2019
5363 Rain 7 1016 93 6000 2.6 230 21:37 27.12.2019
5364 Clouds 7 1016 93 6000 2.6 230 21:18 27.12.2019
5365 Clouds 7 1016 93 6000 1 230 20:41 27.12.2019
5366 Clouds 7 1016 93 6000 1 230 20:22 27.12.2019
5367 Rain 7 1016 93 6000 2.1 220 19:43 27.12.2019
5368 Rain 8 1016 93 6000 2.1 220 19:21 27.12.2019
5369 Rain 8 1016 93 4000 2.6 240 18:59 27.12.2019
5370 Rain 8 1016 93 4000 2.6 240 18:39 27.12.2019
5371 Rain 8 1016 93 4000 2.6 240 18:39 27.12.2019
5372 Rain 8 1016 93 4000 2.6 240 18:21 27.12.2019
5373 Rain 8 1016 87 4000 2.6 230 17:58 27.12.2019
5374 Rain 8 1016 87 4000 2.6 230 17:40 27.12.2019
5375 Clouds 8 1015 87 6000 2.6 240 17:19 27.12.2019
5376 Clouds 9 1014 87 6000 4.1 240 16:59 27.12.2019
5377 Clouds 9 1014 87 6000 4.1 240 16:39 27.12.2019
5378 Clouds 9 1014 87 6000 4.1 240 16:20 27.12.2019
5379 Clouds 9 1014 87 6000 3.6 250 15:45 27.12.2019
5380 Clouds 9 1014 87 6000 3.6 250 15:23 27.12.2019
5381 Clouds 8 1014 93 6000 4.6 240 14:58 27.12.2019
5382 Clouds 8 1014 93 6000 4.6 240 14:40 27.12.2019
5383 Clouds 8 1014 93 6000 4.6 240 14:21 27.12.2019
5384 Rain 9 1013 81 3000 6.2 240 13:57 27.12.2019
5385 Rain 9 1013 81 3000 6.2 240 13:39 27.12.2019
5386 Rain 9 1013 81 3000 6.2 240 13:21 27.12.2019
5387 Rain 8 1013 87 3000 4.6 250 12:44 27.12.2019
5388 Rain 8 1013 87 3000 4.6 250 12:25 27.12.2019
5389 Rain 7 1012 93 4000 12.9 250 11:55 27.12.2019
5390 Rain 7 1012 93 4000 12.9 250 11:37 27.12.2019
5391 Rain 9 1013 87 3000 7.2 250 11:18 27.12.2019
5392 Rain 8 1012 87 2000 7.2 250 10:41 27.12.2019
5393 Rain 8 1012 87 2000 7.2 250 10:23 27.12.2019
5394 Rain 7 1012 87 4000 6.2 240 09:49 27.12.2019
5395 Rain 7 1012 87 4000 6.2 240 09:22 27.12.2019
5396 Rain 7 1012 87 4000 6.2 240 09:22 27.12.2019
5397 Rain 7 1012 87 3000 10.3 250 08:59 27.12.2019
5398 Rain 7 1012 87 3000 10.3 250 08:40 27.12.2019
5399 Rain 7 1012 87 3000 10.3 250 08:18 27.12.2019
5400 Rain 6 1012 100 2000 9.3 240 07:38 27.12.2019
5401 Rain 6 1011 100 2000 8.2 240 06:59 27.12.2019
5402 Rain 6 1011 100 2000 8.2 240 06:23 27.12.2019
5403 Rain 6 1010 100 2000 8.2 240 04:37 27.12.2019
5404 Rain 6 1009 81 5000 8.7 240 02:28 27.12.2019
5405 Rain 6 1010 93 3000 8.7 240 01:44 27.12.2019
5406 Rain 6 1010 93 3000 8.7 240 01:21 27.12.2019
5407 Rain 6 1011 87 2000 9.3 290 00:47 27.12.2019
5408 Rain 7 1011 87 3000 10.3 250 00:25 27.12.2019
5409 Mist 7 1011 87 4000 10.3 240 23:56 26.12.2019
5410 Mist 7 1011 87 4000 10.3 240 23:37 26.12.2019
5411 Rain 8 1011 87 5000 6.7 240 23:19 26.12.2019
5412 Rain 8 1011 93 2000 12.9 250 22:40 26.12.2019
5413 Rain 8 1011 93 2000 12.9 250 22:18 26.12.2019
5414 Rain 9 1011 87 2000 10.3 240 21:40 26.12.2019
5415 Rain 9 1011 87 2000 11.3 250 21:21 26.12.2019
5416 Rain 9 1011 93 1000 9.3 250 20:59 26.12.2019
5417 Rain 9 1011 93 1000 9.3 250 20:40 26.12.2019
5418 Rain 9 1011 93 1000 9.3 250 20:22 26.12.2019
5419 Rain 9 1010 93 1000 8.2 250 19:56 26.12.2019
5420 Rain 9 1010 93 1000 8.2 250 19:38 26.12.2019
5421 Rain 9 1010 93 1000 8.2 250 19:20 26.12.2019
5422 Rain 9 1010 93 1000 8.2 250 18:57 26.12.2019
5423 Rain 9 1010 93 1000 8.2 250 18:37 26.12.2019
5424 Rain 9 1010 93 1000 8.2 250 18:18 26.12.2019
5425 Rain 9 1010 93 1000 9.8 250 17:42 26.12.2019
5426 Rain 9 1010 93 1000 9.8 250 17:22 26.12.2019
5427 Rain 10 1009 93 2000 7.7 270 16:54 26.12.2019
5428 Rain 10 1009 93 2000 7.7 270 16:36 26.12.2019
5429 Rain 10 1009 93 2000 7.7 270 16:18 26.12.2019
5430 Rain 10 1009 76 3000 12.9 240 15:40 26.12.2019
5431 Mist 11 1009 87 2000 8.7 250 15:19 26.12.2019
5432 Mist 11 1009 87 4000 8.2 240 14:54 26.12.2019
5433 Mist 11 1009 87 4000 8.2 240 14:36 26.12.2019
5434 Mist 11 1009 87 4000 8.2 240 14:36 26.12.2019
5435 Mist 11 1009 87 4000 8.2 240 14:18 26.12.2019
5436 Mist 11 1009 87 3000 7.2 250 13:42 26.12.2019
5437 Rain 10 1009 66 3000 15.4 240 13:20 26.12.2019
5438 Rain 11 1009 87 2000 10.3 240 12:56 26.12.2019
5439 Rain 11 1009 87 2000 10.3 240 12:37 26.12.2019
5440 Rain 11 1009 87 2000 10.3 240 12:19 26.12.2019
5441 Rain 12 1008 66 2000 12.9 240 11:56 26.12.2019
5442 Rain 12 1008 66 2000 12.9 240 11:37 26.12.2019
5443 Rain 12 1008 66 2000 12.9 240 11:19 26.12.2019
5444 Rain 10 1009 76 2500 12.9 240 10:41 26.12.2019
5445 Dust 11 1009 71 3000 10.3 240 10:18 26.12.2019
5446 Dust 11 1010 61 3000 10.3 240 09:45 26.12.2019
5447 Dust 11 1010 61 3000 10.3 240 09:26 26.12.2019
5448 Rain 10 1010 70 3000 8.2 240 08:42 26.12.2019
5449 Rain 10 1010 70 3000 8.2 240 08:24 26.12.2019
5450 Rain 10 1010 70 3000 6.2 230 07:53 26.12.2019
5451 Rain 10 1010 70 3000 6.2 230 07:27 26.12.2019
5452 Rain 9 1010 61 3000 10.3 240 06:53 26.12.2019
5453 Rain 9 1010 61 3000 10.3 240 06:32 26.12.2019
5454 Dust 9 1009 70 4000 9.3 240 05:45 26.12.2019
5455 Rain 9 1009 81 3000 9.3 230 04:59 26.12.2019
5456 Rain 9 1009 81 3000 9.3 230 04:30 26.12.2019
5457 Rain 10 1011 61 4000 5.1 250 02:58 26.12.2019
5458 Rain 10 1011 61 4000 5.1 250 02:38 26.12.2019
5459 Rain 10 1011 61 4000 5.1 250 02:19 26.12.2019
5460 Dust 10 1010 61 3000 10.3 250 01:41 26.12.2019
5461 Dust 10 1010 61 3000 10.3 250 01:22 26.12.2019
5462 Rain 10 1010 61 4000 11.8 240 00:41 26.12.2019
5463 Rain 10 1010 61 4000 6.2 240 00:22 26.12.2019
5464 Dust 10 1011 57 4000 5.1 220 23:42 25.12.2019
5465 Dust 10 1011 57 4000 5.1 220 23:21 25.12.2019
5466 Rain 10 1012 66 4000 5.1 240 22:59 25.12.2019
5467 Rain 10 1012 66 4000 5.1 240 22:40 25.12.2019
5468 Rain 10 1012 66 4000 5.1 240 22:22 25.12.2019
5469 Rain 10 1012 66 4000 5.1 230 21:59 25.12.2019
5470 Rain 10 1012 66 4000 5.1 230 21:40 25.12.2019
5471 Dust 10 1012 57 2500 5.1 230 21:21 25.12.2019
5472 Dust 10 1012 57 2500 5.1 230 21:21 25.12.2019
5473 Rain 10 1012 57 2500 7.7 230 20:57 25.12.2019
5474 Rain 10 1012 57 2500 7.7 230 20:39 25.12.2019
5475 Rain 10 1012 57 2500 7.7 230 20:18 25.12.2019
5476 Dust 11 1012 57 2500 7.7 230 19:44 25.12.2019
5477 Dust 11 1012 57 2500 7.7 230 19:25 25.12.2019
5478 Dust 12 1012 53 2000 6.2 230 18:59 25.12.2019
5479 Dust 12 1012 53 2000 6.2 230 18:38 25.12.2019
5480 Dust 12 1012 53 2000 6.2 230 18:20 25.12.2019
5481 Dust 12 1012 53 1500 6.7 240 17:43 25.12.2019
5482 Dust 12 1012 53 1500 6.7 240 17:21 25.12.2019
5483 Dust 12 1012 53 1500 7.7 250 16:59 25.12.2019
5484 Dust 12 1012 53 1500 7.7 250 16:39 25.12.2019
5485 Dust 12 1012 53 1500 7.7 250 16:19 25.12.2019
5486 Dust 12 1011 50 1500 7.7 250 15:57 25.12.2019
5487 Dust 12 1011 50 1500 7.7 250 15:57 25.12.2019
5488 Dust 12 1011 50 1500 7.7 250 15:39 25.12.2019
5489 Dust 12 1011 50 1500 7.7 250 15:39 25.12.2019
5490 Dust 12 1011 50 1500 7.7 250 15:21 25.12.2019
5491 Dust 12 1011 46 2500 8.2 250 14:58 25.12.2019
5492 Dust 12 1011 46 2500 8.2 250 14:40 25.12.2019
5493 Dust 12 1011 46 2500 8.2 250 14:21 25.12.2019
5494 Dust 12 1011 46 2500 8.2 250 14:21 25.12.2019
5495 Dust 12 1011 46 2500 8.2 250 14:21 25.12.2019
5496 Dust 12 1011 46 2500 8.2 250 14:21 25.12.2019
5497 Dust 13 1011 46 2000 7.7 230 13:57 25.12.2019
5498 Dust 13 1011 46 2000 7.7 230 13:38 25.12.2019
5499 Dust 13 1011 46 2000 7.7 230 13:19 25.12.2019
5500 Dust 13 1011 38 1000 8.7 230 12:40 25.12.2019
5501 Dust 13 1011 38 1000 8.7 230 12:20 25.12.2019
5502 Dust 13 1011 46 1500 8.2 230 11:56 25.12.2019
5503 Dust 13 1011 46 1500 8.2 230 11:56 25.12.2019
5504 Dust 13 1011 46 1500 8.2 230 11:38 25.12.2019
5505 Dust 13 1011 46 1500 8.2 230 11:18 25.12.2019
5506 Dust 13 1012 46 1500 8.2 230 10:38 25.12.2019
5507 Dust 13 1012 46 1500 8.2 230 10:20 25.12.2019
5508 Dust 12 1012 43 1500 8.7 230 09:51 25.12.2019
5509 Dust 12 1012 43 1500 8.7 230 09:32 25.12.2019
5510 Dust 11 1012 43 1500 8.2 230 08:51 25.12.2019
5511 Dust 11 1012 53 3000 7.7 240 08:31 25.12.2019
5512 Dust 10 1012 53 3000 7.7 240 07:52 25.12.2019
5513 Dust 10 1012 53 3000 7.7 240 07:34 25.12.2019
5514 Dust 9 1012 61 2000 7.7 240 06:58 25.12.2019
5515 Dust 9 1012 61 2000 7.7 240 06:23 25.12.2019
5516 Dust 8 1011 61 2000 8.7 240 05:31 25.12.2019
5517 Dust 9 1011 61 2000 8.7 240 04:39 25.12.2019
5518 Dust 9 1011 61 2000 8.7 240 04:39 25.12.2019
5519 Dust 9 1011 61 2000 8.7 240 04:20 25.12.2019
5520 Dust 9 1011 61 2000 8.7 240 04:20 25.12.2019
5521 Dust 9 1011 61 3000 8.2 240 03:43 25.12.2019
5522 Dust 10 1012 61 3000 9.3 240 02:57 25.12.2019
5523 Dust 10 1012 61 3000 9.3 240 02:28 25.12.2019
5524 Dust 10 1012 61 3000 9.3 240 01:36 25.12.2019
5525 Haze 10 1012 50 4000 5.7 240 01:18 25.12.2019
5526 Dust 11 1012 53 4000 8.2 250 00:40 25.12.2019
5527 Dust 11 1012 53 4000 8.2 250 00:22 25.12.2019
5528 Dust 11 1012 53 4000 8.2 240 23:39 24.12.2019
5529 Dust 11 1012 53 4000 8.2 240 23:20 24.12.2019
5530 Dust 9 1013 53 4000 8.2 240 22:42 24.12.2019
5531 Dust 9 1013 53 4000 8.2 240 22:23 24.12.2019
5532 Dust 10 1012 50 4000 7.7 240 21:57 24.12.2019
5533 Dust 10 1012 50 4000 7.7 240 21:37 24.12.2019
5534 Dust 10 1012 50 4000 7.7 240 21:19 24.12.2019
5535 Haze 11 1012 46 5000 3.6 240 20:42 24.12.2019
5536 Haze 11 1012 46 5000 3.6 240 20:22 24.12.2019
5537 Haze 11 1012 47 5000 3.1 230 19:49 24.12.2019
5538 Haze 11 1012 47 5000 3.1 230 19:22 24.12.2019
5539 Haze 12 1012 44 4000 5.1 240 18:59 24.12.2019
5540 Haze 12 1012 44 4000 5.1 240 18:40 24.12.2019
5541 Haze 12 1012 44 4000 5.1 240 18:18 24.12.2019
5542 Haze 13 1012 43 4000 5.1 240 17:44 24.12.2019
5543 Haze 13 1012 43 4000 5.1 240 17:22 24.12.2019
5544 Haze 15 1012 38 4000 6.2 240 16:58 24.12.2019
5545 Haze 15 1012 38 4000 6.2 240 16:39 24.12.2019
5546 Haze 15 1012 38 4000 6.2 240 16:21 24.12.2019
5547 Dust 16 1012 37 4000 6.2 240 15:57 24.12.2019
5548 Dust 16 1012 37 4000 6.2 240 15:37 24.12.2019
5549 Dust 16 1012 37 4000 6.2 240 15:19 24.12.2019
5550 Dust 16 1012 37 4000 8.2 240 14:58 24.12.2019
5551 Dust 16 1012 37 4000 8.2 240 14:40 24.12.2019
5552 Dust 16 1012 37 4000 8.2 240 14:40 24.12.2019
5553 Dust 16 1012 28 4000 8.2 240 14:21 24.12.2019
5554 Dust 17 1012 28 5000 8.2 190 13:56 24.12.2019
5555 Dust 17 1012 28 5000 8.2 190 13:38 24.12.2019
5556 Dust 17 1012 28 5000 8.2 190 13:20 24.12.2019
5557 Dust 17 1013 36 5000 7.7 240 12:56 24.12.2019
5558 Dust 17 1013 36 5000 7.7 240 12:38 24.12.2019
5559 Dust 17 1013 36 5000 7.7 240 12:19 24.12.2019
5560 Dust 16 1013 38 5000 7.7 240 11:56 24.12.2019
5561 Dust 16 1013 38 5000 7.7 240 11:37 24.12.2019
5562 Dust 16 1013 38 5000 7.7 240 11:19 24.12.2019
5563 Clear 14 1014 26 6000 4.1 220 10:56 24.12.2019
5564 Clear 14 1014 26 6000 4.1 220 10:38 24.12.2019
5565 Clear 14 1014 26 6000 4.1 220 10:20 24.12.2019
5566 Clear 14 1014 26 6000 4.1 220 10:19 24.12.2019
5567 Clear 14 1015 41 6000 2.1 210 09:56 24.12.2019
5568 Clear 14 1015 41 6000 2.1 210 09:38 24.12.2019
5569 Clear 14 1015 41 6000 2.1 210 09:20 24.12.2019
5570 Haze 11 1015 46 5000 1 170 08:47 24.12.2019
5571 Haze 11 1015 46 5000 1 170 08:24 24.12.2019
5572 Haze 7 1014 36 5000 2.49 220 07:56 24.12.2019
5573 Haze 7 1014 36 5000 2.49 220 07:38 24.12.2019
5574 Haze 7 1014 36 5000 2.49 220 07:20 24.12.2019
5575 Haze 4 1014 56 5000 2.49 220 06:39 24.12.2019
5576 Haze 4 1014 56 5000 2.49 220 06:19 24.12.2019
5577 Haze 5 1014 49 5000 1.5 240 05:51 24.12.2019
5578 Haze 5 1014 49 5000 1.5 240 05:19 24.12.2019
5579 Clear 4 1014 48 6000 2.21 218 04:21 24.12.2019
5580 Clear 5 1014 52 6000 2.21 218 03:46 24.12.2019
5581 Clear 6 1014 42 6000 2.21 218 02:29 24.12.2019
5582 Clear 5 1014 42 7000 1 310 01:55 24.12.2019
5583 Clear 5 1014 42 7000 1 310 01:26 24.12.2019
5584 Clear 6 1014 42 7000 2.93 245 00:58 24.12.2019
5585 Clear 6 1014 42 7000 2.93 245 00:39 24.12.2019
5586 Clear 6 1014 42 7000 2.93 245 00:20 24.12.2019
5587 Clear 6 1014 39 7000 2.6 270 23:43 23.12.2019
5588 Clear 6 1014 39 7000 2.6 270 23:24 23.12.2019
5589 Clear 7 1014 37 6000 1.5 260 22:57 23.12.2019
5590 Clear 7 1014 37 6000 1.5 260 22:38 23.12.2019
5591 Clear 7 1014 37 6000 1.5 260 22:20 23.12.2019
5592 Clear 9 1015 34 6000 1.5 210 21:57 23.12.2019
5593 Clear 9 1015 34 6000 1.5 210 21:37 23.12.2019
5594 Clear 9 1015 34 6000 1.5 210 21:19 23.12.2019
5595 Haze 9 1015 32 5000 2.6 260 20:59 23.12.2019
5596 Haze 9 1015 32 5000 2.6 260 20:40 23.12.2019
5597 Haze 9 1015 32 5000 2.6 260 20:19 23.12.2019
5598 Haze 10 1015 32 5000 2.1 220 19:58 23.12.2019
5599 Haze 10 1015 32 5000 2.1 220 19:40 23.12.2019
5600 Haze 10 1015 32 5000 2.1 220 19:21 23.12.2019
5601 Haze 11 1015 37 5000 2.51 246 18:58 23.12.2019
5602 Haze 11 1015 37 5000 2.51 246 18:39 23.12.2019
5603 Haze 11 1015 37 5000 2.51 246 18:21 23.12.2019
5604 Clear 12 1014 50 6000 2.51 246 17:59 23.12.2019
5605 Clear 12 1014 50 6000 2.51 246 17:40 23.12.2019
5606 Clear 12 1014 50 6000 3.52 250 17:19 23.12.2019
5607 Haze 13 1015 31 5000 3.1 250 16:58 23.12.2019
5608 Haze 13 1015 31 5000 3.1 250 16:40 23.12.2019
5609 Haze 13 1015 31 5000 3.1 250 16:19 23.12.2019
5610 Haze 16 1014 31 5000 5.7 280 15:58 23.12.2019
5611 Haze 16 1014 31 5000 5.7 280 15:37 23.12.2019
5612 Haze 16 1014 31 5000 5.7 280 15:19 23.12.2019
5613 Clear 18 1014 22 6000 4.1 240 14:57 23.12.2019
5614 Clear 18 1014 22 6000 4.1 240 14:39 23.12.2019
5615 Clear 18 1014 22 6000 4.1 240 14:19 23.12.2019
5616 Clear 20 1014 22 6000 6.7 260 13:57 23.12.2019
5617 Clear 20 1014 22 6000 6.7 260 13:39 23.12.2019
5618 Clear 20 1014 22 6000 6.7 260 13:39 23.12.2019
5619 Clear 20 1014 22 6000 6.7 260 13:20 23.12.2019
5620 Clear 20 1014 22 6000 6.7 260 13:20 23.12.2019
5621 Clear 20 1015 24 6000 3.6 210 12:55 23.12.2019
5622 Clear 20 1015 24 6000 3.6 210 12:36 23.12.2019
5623 Clear 20 1015 24 6000 3.6 210 12:18 23.12.2019
5624 Dust 17 1015 31 5000 3.1 230 11:42 23.12.2019
5625 Dust 17 1016 31 4000 1.5 60 11:24 23.12.2019
5626 Dust 16 1017 35 3000 1.5 80 10:56 23.12.2019
5627 Dust 16 1017 35 3000 1.5 80 10:38 23.12.2019
5628 Dust 16 1017 35 3000 1.5 80 10:38 23.12.2019
5629 Dust 16 1017 35 3000 1.5 80 10:20 23.12.2019
5630 Dust 13 1018 40 3000 1.5 70 09:58 23.12.2019
5631 Dust 13 1018 40 3000 1.5 70 09:39 23.12.2019
5632 Dust 13 1018 40 3000 1.5 70 09:39 23.12.2019
5633 Dust 13 1018 40 3000 1.5 70 09:20 23.12.2019
5634 Smoke 10 1018 45 4000 1 70 08:55 23.12.2019
5635 Smoke 10 1018 45 4000 1 70 08:37 23.12.2019
5636 Smoke 10 1018 45 4000 1 70 08:18 23.12.2019
5637 Smoke 7 1018 56 4000 4.45 117 07:43 23.12.2019
5638 Smoke 7 1018 56 4000 4.45 117 07:19 23.12.2019
5639 Smoke 5 1018 56 5000 4.45 117 06:50 23.12.2019
5640 Smoke 5 1018 56 5000 4.45 117 06:23 23.12.2019
5641 Clear 4 1018 60 8000 4.45 117 05:49 23.12.2019
5642 Clear 4 1018 60 8000 4.74 110 05:19 23.12.2019
5643 Clear 5 1018 52 8000 4.74 110 04:20 23.12.2019
5644 Clear 7 1019 49 6000 4.74 110 02:55 23.12.2019
5645 Clear 7 1019 49 6000 4.74 110 02:25 23.12.2019
5646 Clear 8 1019 39 6000 1 30 01:55 23.12.2019
5647 Clear 8 1019 39 6000 1 30 01:36 23.12.2019
5648 Clear 8 1019 39 6000 1 30 01:18 23.12.2019
5649 Clear 8 1019 32 6000 3.1 130 00:35 23.12.2019
5650 Haze 8 1020 45 5000 3.65 114 23:58 22.12.2019
5651 Haze 8 1020 45 5000 3.65 114 23:39 22.12.2019
5652 Haze 8 1020 45 5000 3.22 120 23:20 22.12.2019
5653 Haze 8 1020 49 5000 1 280 22:58 22.12.2019
5654 Haze 8 1020 49 5000 1 280 22:38 22.12.2019
5655 Haze 8 1020 49 5000 1 280 22:19 22.12.2019
5656 Haze 9 1021 45 5000 1 280 21:57 22.12.2019
5657 Haze 9 1021 45 5000 1 280 21:39 22.12.2019
5658 Haze 9 1021 45 5000 1 280 21:20 22.12.2019
5659 Haze 9 1021 46 5000 1 220 20:56 22.12.2019
5660 Haze 9 1021 46 5000 1 220 20:38 22.12.2019
5661 Haze 9 1021 46 5000 1 220 20:18 22.12.2019
5662 Haze 10 1021 40 5000 1 310 19:55 22.12.2019
5663 Haze 10 1021 40 5000 1 310 19:37 22.12.2019
5664 Haze 10 1021 40 5000 1 310 19:18 22.12.2019
5665 Haze 10 1021 43 5000 2.33 127 18:40 22.12.2019
5666 Haze 10 1021 43 5000 2.33 127 18:22 22.12.2019
5667 Haze 11 1021 37 5000 2.33 127 17:55 22.12.2019
5668 Haze 11 1021 37 5000 2.33 127 17:37 22.12.2019
5669 Haze 11 1021 37 5000 2.66 131 17:18 22.12.2019
5670 Haze 13 1021 28 4000 2.1 110 16:56 22.12.2019
5671 Haze 13 1021 28 4000 2.1 110 16:37 22.12.2019
5672 Haze 13 1021 28 4000 2.1 110 16:19 22.12.2019
5673 Haze 17 1020 25 4000 2.6 70 15:56 22.12.2019
5674 Haze 17 1020 25 4000 2.6 70 15:36 22.12.2019
5675 Haze 17 1020 25 4000 2.6 70 15:36 22.12.2019
5676 Haze 17 1020 25 4000 2.6 70 15:18 22.12.2019
5677 Haze 17 1020 23 5000 3.6 30 14:54 22.12.2019
5678 Haze 17 1020 23 5000 3.6 30 14:36 22.12.2019
5679 Haze 17 1020 23 5000 3.6 30 14:36 22.12.2019
5680 Haze 17 1020 23 5000 3.6 30 14:18 22.12.2019
5681 Clear 18 1020 23 7000 3.1 50 13:55 22.12.2019
5682 Clear 18 1020 23 7000 3.1 50 13:36 22.12.2019
5683 Clear 18 1020 23 7000 3.1 50 13:18 22.12.2019
5684 Clear 18 1020 23 7000 3.1 50 13:18 22.12.2019
5685 Haze 17 1021 26 5000 3.1 50 12:54 22.12.2019
5686 Haze 17 1021 26 5000 3.1 50 12:54 22.12.2019
5687 Haze 17 1021 26 5000 3.1 50 12:36 22.12.2019
5688 Haze 17 1021 26 5000 3.1 50 12:18 22.12.2019
5689 Haze 17 1021 26 5000 3.1 50 11:39 22.12.2019
5690 Haze 17 1021 26 5000 3.1 50 11:21 22.12.2019
5691 Haze 17 1022 26 5000 2.1 60 10:59 22.12.2019
5692 Haze 17 1022 26 5000 2.1 60 10:40 22.12.2019
5693 Haze 17 1022 26 5000 2.1 60 10:21 22.12.2019
5694 Smoke 13 1023 37 4000 1.5 30 09:59 22.12.2019
5695 Smoke 13 1023 37 4000 1.5 30 09:40 22.12.2019
5696 Smoke 13 1023 37 4000 1.5 30 09:22 22.12.2019
5697 Smoke 11 1023 43 3000 3.37 125 08:59 22.12.2019
5698 Smoke 11 1023 43 3000 3.37 125 08:38 22.12.2019
5699 Smoke 8 1023 43 3000 2.14 119 08:20 22.12.2019
5700 Haze 6 1023 56 3000 2.1 220 07:39 22.12.2019
5701 Haze 6 1023 56 3000 2.1 220 07:20 22.12.2019
5702 Haze 4 1023 65 4000 1.5 200 06:41 22.12.2019
5703 Haze 4 1022 56 5000 2.14 119 05:54 22.12.2019
5704 Haze 4 1022 56 5000 2.14 119 05:23 22.12.2019
5705 Haze 4 1022 60 5000 2.17 125 04:30 22.12.2019
5706 Haze 5 1022 40 5000 2.17 125 03:56 22.12.2019
5707 Haze 5 1022 60 5000 2.17 125 02:42 22.12.2019
5708 Haze 5 1022 60 5000 2.17 125 02:42 22.12.2019
5709 Haze 5 1022 56 5000 2.13 127 01:51 22.12.2019
5710 Haze 5 1022 56 5000 1.98 127 01:30 22.12.2019
5711 Haze 5 1022 70 4000 1.98 127 00:48 22.12.2019
5712 Haze 5 1022 70 4000 1.98 127 00:26 22.12.2019
5713 Haze 6 1023 39 4000 1.98 127 23:57 21.12.2019
5714 Haze 6 1023 39 4000 1.98 127 23:38 21.12.2019
5715 Haze 6 1023 35 4000 2.61 128 23:19 21.12.2019
5716 Haze 7 1022 52 4000 2.61 128 22:46 21.12.2019
5717 Haze 7 1022 52 4000 2.61 128 22:20 21.12.2019
5718 Haze 7 1023 49 4000 2.61 128 21:58 21.12.2019
5719 Haze 7 1023 49 4000 2.61 128 21:39 21.12.2019
5720 Haze 7 1023 49 4000 2.61 128 21:20 21.12.2019
5721 Haze 8 1023 52 4000 2.61 128 20:59 21.12.2019
5722 Haze 8 1023 52 4000 2.61 128 20:41 21.12.2019
5723 Haze 8 1023 52 4000 2.76 110 20:22 21.12.2019
5724 Haze 9 1022 49 5000 2.76 110 19:59 21.12.2019
5725 Haze 9 1022 49 5000 2.76 110 19:59 21.12.2019
5726 Haze 9 1022 49 5000 2.76 110 19:40 21.12.2019
5727 Haze 9 1022 49 5000 2.76 110 19:20 21.12.2019
5728 Clouds 10 1022 39 6000 2.76 110 18:56 21.12.2019
5729 Clouds 10 1022 39 6000 2.76 110 18:38 21.12.2019
5730 Clouds 10 1022 39 6000 2.76 110 18:20 21.12.2019
5731 Clouds 11 1022 34 6000 2.76 110 17:55 21.12.2019
5732 Clouds 11 1022 34 6000 2.76 110 17:37 21.12.2019
5733 Clouds 11 1022 34 6000 4.01 93 17:18 21.12.2019
5734 Haze 13 1021 28 5000 3.1 140 16:54 21.12.2019
5735 Haze 13 1021 28 5000 3.1 140 16:36 21.12.2019
5736 Haze 13 1021 28 5000 3.1 140 16:36 21.12.2019
5737 Haze 13 1021 28 5000 3.1 140 16:18 21.12.2019
5738 Haze 17 1021 23 5000 2.6 130 15:54 21.12.2019
5739 Haze 17 1021 23 5000 2.6 130 15:36 21.12.2019
5740 Haze 17 1021 23 5000 2.6 130 15:18 21.12.2019
5741 Haze 19 1021 20 5000 2.1 140 14:40 21.12.2019
5742 Haze 19 1021 20 5000 2.1 140 14:22 21.12.2019
5743 Clear 19 1022 20 7000 2.1 140 13:57 21.12.2019
5744 Clear 19 1022 20 7000 2.1 140 13:39 21.12.2019
5745 Clear 19 1022 20 7000 2.1 140 13:19 21.12.2019
5746 Clear 17 1022 20 7000 2.1 150 12:56 21.12.2019
5747 Clear 17 1022 20 7000 2.1 150 12:37 21.12.2019
5748 Clear 17 1022 20 7000 2.1 150 12:19 21.12.2019
5749 Haze 16 1023 28 5000 1.5 80 11:45 21.12.2019
5750 Haze 16 1023 28 5000 1.5 80 11:26 21.12.2019
5751 Haze 14 1024 30 5000 1.5 60 10:57 21.12.2019
5752 Haze 14 1024 30 5000 1.5 60 10:39 21.12.2019
5753 Smoke 14 1024 35 4000 2.1 70 10:21 21.12.2019
5754 Smoke 13 1024 34 4000 2.1 90 09:57 21.12.2019
5755 Smoke 13 1024 34 4000 2.1 90 09:39 21.12.2019
5756 Smoke 13 1024 34 4000 2.1 90 09:19 21.12.2019
5757 Haze 11 1024 43 4000 1 70 08:47 21.12.2019
5758 Haze 11 1024 43 4000 1 70 08:27 21.12.2019
5759 Haze 7 1025 60 5000 3.55 113 07:47 21.12.2019
5760 Haze 4 1025 60 5000 3.55 113 07:23 21.12.2019
5761 Clear 4 1024 56 7000 3.55 113 06:58 21.12.2019
5762 Clear 4 1024 56 7000 3.55 113 06:40 21.12.2019
5763 Clear 4 1024 56 7000 3.55 113 06:21 21.12.2019
5764 Clear 4 1024 60 6000 3.55 113 05:25 21.12.2019
5765 Clear 5 1023 56 6000 1.5 270 04:34 21.12.2019
5766 Clear 6 1023 65 7000 3.88 111 03:56 21.12.2019
5767 Clear 5 1023 60 8000 1.5 270 02:25 21.12.2019
5768 Clear 5 1023 60 8000 1.5 270 02:25 21.12.2019
5769 Clear 6 1024 52 8000 1 170 01:48 21.12.2019
5770 Clear 6 1024 52 8000 1 170 01:25 21.12.2019
5771 Clear 6 1024 56 8000 1.5 180 00:45 21.12.2019
5772 Clear 6 1024 56 8000 1.5 180 00:26 21.12.2019
5773 Clear 7 1024 52 8000 3.22 119 23:39 20.12.2019
5774 Clear 7 1024 52 8000 2.91 126 23:21 20.12.2019
5775 Clear 7 1024 36 7000 2.91 126 22:59 20.12.2019
5776 Clear 7 1024 36 7000 2.91 126 22:39 20.12.2019
5777 Clear 7 1024 36 7000 2.91 126 22:19 20.12.2019
5778 Clear 8 1024 49 7000 1 50 21:42 20.12.2019
5779 Clear 8 1024 49 7000 1 50 21:21 20.12.2019
5780 Clear 8 1025 49 7000 1.5 60 20:59 20.12.2019
5781 Clear 8 1025 49 7000 1.5 60 20:38 20.12.2019
5782 Clear 8 1025 49 7000 1.5 60 20:19 20.12.2019
5783 Clear 9 1025 46 7000 1 80 19:57 20.12.2019
5784 Clear 9 1025 46 7000 1 80 19:38 20.12.2019
5785 Clear 9 1025 46 7000 1 80 19:19 20.12.2019
5786 Clear 10 1025 46 7000 2.1 80 18:42 20.12.2019
5787 Clear 10 1025 46 7000 2.1 80 18:23 20.12.2019
5788 Clear 12 1024 40 7000 2.1 90 17:58 20.12.2019
5789 Clear 12 1024 40 7000 2.1 90 17:40 20.12.2019
5790 Clear 12 1024 40 7000 2.1 90 17:20 20.12.2019
5791 Clear 14 1024 35 7000 2.1 80 16:59 20.12.2019
5792 Clear 14 1024 35 7000 2.1 80 16:59 20.12.2019
5793 Clear 14 1024 35 7000 2.1 80 16:38 20.12.2019
5794 Clear 14 1024 35 7000 2.1 80 16:20 20.12.2019
5795 Clear 14 1024 35 7000 2.1 80 16:20 20.12.2019
5796 Clear 17 1024 29 7000 1.5 100 15:56 20.12.2019
5797 Clear 17 1024 29 7000 1.5 100 15:38 20.12.2019
5798 Clear 17 1024 29 7000 1.5 100 15:19 20.12.2019
5799 Clear 18 1024 29 7000 2.6 130 14:43 20.12.2019
5800 Clear 18 1024 29 7000 2.6 130 14:25 20.12.2019
5801 Clear 18 1024 22 7000 3.1 140 13:59 20.12.2019
5802 Clear 18 1024 22 7000 3.1 140 13:41 20.12.2019
5803 Clear 18 1024 22 7000 3.1 140 13:20 20.12.2019
5804 Clear 18 1024 23 7000 3.1 130 12:57 20.12.2019
5805 Clear 18 1024 23 7000 3.1 130 12:38 20.12.2019
5806 Clear 18 1024 23 7000 3.1 130 12:19 20.12.2019
5807 Clear 16 1025 26 8000 3.1 130 11:58 20.12.2019
5808 Clear 16 1025 29 7000 7.7 140 11:39 20.12.2019
5809 Clear 15 1025 29 7000 7.7 140 11:19 20.12.2019
5810 Clear 15 1026 28 8000 3.6 120 10:57 20.12.2019
5811 Clear 15 1026 28 8000 3.6 120 10:39 20.12.2019
5812 Clear 15 1026 28 8000 3.6 120 10:39 20.12.2019
5813 Clear 15 1026 28 8000 3.6 120 10:20 20.12.2019
5814 Clear 13 1027 47 8000 1.5 50 09:54 20.12.2019
5815 Clear 13 1027 47 8000 1.5 50 09:36 20.12.2019
5816 Clear 13 1027 47 8000 1.5 50 09:18 20.12.2019
5817 Clear 10 1027 61 8000 4.1 130 08:42 20.12.2019
5818 Clear 10 1027 61 8000 4.1 130 08:22 20.12.2019
5819 Clear 7 1027 60 8000 4.1 130 07:58 20.12.2019
5820 Clear 7 1027 60 8000 4.1 130 07:40 20.12.2019
5821 Clear 7 1027 60 8000 4.1 130 07:19 20.12.2019
5822 Clear 4 1027 60 8000 4.1 130 06:50 20.12.2019
5823 Clear 4 1027 65 8000 2.1 130 06:31 20.12.2019
5824 Clear 5 1027 60 8000 2.1 130 05:52 20.12.2019
5825 Clear 5 1027 60 8000 2.1 130 05:34 20.12.2019
5826 Clear 7 1027 39 8000 2.6 130 03:57 20.12.2019
5827 Clear 9 1027 39 8000 2.6 130 03:29 20.12.2019
5828 Clear 9 1027 39 8000 2.6 130 02:41 20.12.2019
5829 Clear 7 1027 39 8000 2.6 130 01:47 20.12.2019
5830 Clear 7 1027 39 8000 2.6 130 01:29 20.12.2019
5831 Clear 7 1028 36 8000 2.6 130 00:42 20.12.2019
5832 Clear 7 1028 36 8000 2.6 130 00:20 20.12.2019
5833 Clear 7 1028 36 8000 2.6 130 23:43 19.12.2019
5834 Clear 7 1028 49 8000 1.5 100 23:24 19.12.2019
5835 Clear 7 1028 49 8000 1.5 100 22:59 19.12.2019
5836 Clear 8 1028 49 8000 1.5 100 22:36 19.12.2019
5837 Clear 7 1028 49 8000 1.5 100 22:18 19.12.2019
5838 Clear 7 1028 49 8000 1.5 100 22:18 19.12.2019
5839 Clear 7 1028 49 8000 1.5 100 21:55 19.12.2019
5840 Clear 7 1028 49 8000 1.5 100 21:37 19.12.2019
5841 Clear 7 1028 49 8000 1.5 100 21:18 19.12.2019
5842 Clear 8 1029 45 8000 2.1 110 20:55 19.12.2019
5843 Clear 8 1029 45 8000 2.1 110 20:36 19.12.2019
5844 Clear 8 1029 45 8000 2.1 110 20:18 19.12.2019
5845 Clear 8 1028 48 6000 3.6 80 19:54 19.12.2019
5846 Clear 8 1028 48 6000 3.6 80 19:54 19.12.2019
5847 Clear 9 1029 49 8000 2.1 110 19:36 19.12.2019
5848 Clear 9 1029 49 8000 2.1 110 19:18 19.12.2019
5849 Clear 9 1029 35 7000 2.1 110 18:41 19.12.2019
5850 Clear 9 1029 35 7000 2.1 110 18:22 19.12.2019
5851 Clear 12 1028 39 6000 4.1 70 17:57 19.12.2019
5852 Clear 11 1028 43 7000 2.1 110 17:39 19.12.2019
5853 Clear 11 1028 43 7000 2.1 110 17:19 19.12.2019
5854 Clear 13 1028 31 7000 2.1 110 16:57 19.12.2019
5855 Clear 13 1028 31 7000 2.1 110 16:39 19.12.2019
5856 Clear 13 1028 31 7000 2.1 110 16:21 19.12.2019
5857 Clear 17 1028 31 7000 2.1 110 15:59 19.12.2019
5858 Clear 17 1028 31 7000 2.1 110 15:39 19.12.2019
5859 Clear 17 1028 31 7000 2.1 110 15:20 19.12.2019
5860 Clear 17 1028 31 7000 2.1 110 15:20 19.12.2019
5861 Clear 17 1028 29 7000 2.6 110 14:59 19.12.2019
5862 Clear 17 1028 29 7000 2.6 110 14:41 19.12.2019
5863 Clear 17 1028 29 7000 2.6 110 14:19 19.12.2019
5864 Clear 17 1028 25 7000 3.6 100 13:57 19.12.2019
5865 Clear 17 1028 25 7000 3.6 100 13:37 19.12.2019
5866 Clear 17 1028 25 7000 3.6 100 13:18 19.12.2019
5867 Clear 17 1029 31 7000 3.6 100 12:55 19.12.2019
5868 Clear 17 1029 31 7000 3.6 100 12:55 19.12.2019
5869 Clear 17 1029 31 7000 3.6 100 12:37 19.12.2019
5870 Clear 17 1029 31 7000 3.6 100 12:18 19.12.2019
5871 Clear 17 1029 31 7000 3.6 100 12:18 19.12.2019
5872 Clear 17 1029 31 7000 3.6 100 12:18 19.12.2019
5873 Clear 16 1029 33 7000 3.6 100 11:57 19.12.2019
5874 Clear 16 1029 33 7000 3.6 100 11:38 19.12.2019
5875 Clear 16 1029 33 7000 3.6 100 11:18 19.12.2019
5876 Clear 16 1030 30 6000 4.1 100 10:55 19.12.2019
5877 Clear 16 1030 30 6000 4.1 100 10:36 19.12.2019
5878 Clear 16 1030 30 6000 4.1 100 10:18 19.12.2019
5879 Clear 16 1030 30 6000 4.1 100 10:18 19.12.2019
5880 Clear 16 1030 30 6000 4.1 100 10:18 19.12.2019
5881 Dust 12 1031 53 3000 1.5 50 09:38 19.12.2019
5882 Dust 12 1031 53 3000 1.5 50 09:20 19.12.2019
5883 Dust 12 1031 53 3000 1.5 50 09:20 19.12.2019
5884 Dust 12 1031 53 3000 1.5 50 09:20 19.12.2019
5885 Dust 12 1031 53 3000 1.5 50 09:20 19.12.2019
5886 Haze 10 1031 61 3000 4.18 125 08:58 19.12.2019
5887 Haze 10 1031 61 3000 4.18 125 08:40 19.12.2019
5888 Haze 10 1031 61 3000 2.43 119 08:19 19.12.2019
5889 Haze 7 1031 70 2000 1.5 70 07:57 19.12.2019
5890 Haze 7 1031 70 2000 1.5 70 07:38 19.12.2019
5891 Haze 7 1031 70 2000 1.5 70 07:19 19.12.2019
5892 Haze 5 1030 70 3000 2.43 119 06:49 19.12.2019
5893 Haze 5 1030 70 3000 2.43 119 06:29 19.12.2019
5894 Haze 4 1030 75 3000 2.43 119 05:55 19.12.2019
5895 Haze 4 1030 75 5000 2.43 119 05:33 19.12.2019
5896 Haze 5 1030 75 5000 2.44 125 04:51 19.12.2019
5897 Haze 5 1029 81 5000 1 260 03:21 19.12.2019
5898 Haze 5 1029 75 5000 2.87 117 02:22 19.12.2019
5899 Haze 6 1030 70 4000 2.87 117 01:22 19.12.2019
5900 Haze 5 1029 70 4000 2.96 120 00:43 19.12.2019
5901 Haze 5 1029 70 4000 2.96 120 00:24 19.12.2019
5902 Haze 6 1030 70 4000 2.96 120 23:57 18.12.2019
5903 Haze 6 1030 70 4000 2.96 120 23:38 18.12.2019
5904 Haze 6 1030 70 4000 2.92 86 23:18 18.12.2019
5905 Haze 7 1030 70 4000 2.92 86 22:55 18.12.2019
5906 Haze 7 1030 70 4000 2.92 86 22:37 18.12.2019
5907 Haze 7 1030 70 4000 2.92 86 22:19 18.12.2019
5908 Haze 7 1030 61 4000 2.92 86 21:56 18.12.2019
5909 Haze 7 1030 61 4000 2.92 86 21:38 18.12.2019
5910 Haze 7 1030 61 4000 2.92 86 21:19 18.12.2019
5911 Haze 8 1030 61 5000 1 160 20:55 18.12.2019
5912 Haze 8 1030 61 5000 1 160 20:37 18.12.2019
5913 Haze 8 1030 61 5000 1 160 20:19 18.12.2019
5914 Haze 10 1030 57 5000 0.5 180 19:55 18.12.2019
5915 Haze 10 1030 57 5000 0.5 180 19:37 18.12.2019
5916 Haze 10 1030 57 5000 0.5 180 19:18 18.12.2019
5917 Haze 10 1030 57 5000 0.5 180 19:18 18.12.2019
5918 Haze 10 1029 53 5000 0.97 165 18:44 18.12.2019
5919 Haze 10 1029 53 5000 0.97 165 18:25 18.12.2019
5920 Haze 12 1029 54 5000 1.5 150 17:57 18.12.2019
5921 Haze 12 1029 54 5000 1.5 150 17:39 18.12.2019
5922 Haze 12 1029 54 5000 1.5 150 17:19 18.12.2019
5923 Haze 12 1029 54 5000 1.5 150 17:19 18.12.2019
5924 Clear 13 1029 54 6000 2.1 80 16:57 18.12.2019
5925 Haze 14 1029 50 4000 1.5 70 16:38 18.12.2019
5926 Haze 14 1029 50 4000 1.5 70 16:20 18.12.2019
5927 Haze 16 1029 38 5000 2.1 60 15:55 18.12.2019
5928 Haze 16 1029 38 5000 2.1 60 15:37 18.12.2019
5929 Haze 16 1029 38 5000 2.1 60 15:37 18.12.2019
5930 Haze 16 1029 38 5000 2.1 60 15:19 18.12.2019
5931 Haze 17 1028 38 5000 0.88 19 14:42 18.12.2019
5932 Haze 17 1028 38 5000 0.67 149 14:22 18.12.2019
5933 Haze 17 1028 36 5000 0.67 149 13:57 18.12.2019
5934 Haze 17 1028 36 5000 0.67 149 13:39 18.12.2019
5935 Haze 17 1028 36 5000 0.67 149 13:20 18.12.2019
5936 Haze 17 1028 45 5000 0.44 180 12:59 18.12.2019
5937 Haze 17 1028 45 5000 0.44 180 12:39 18.12.2019
5938 Haze 17 1028 45 5000 0.44 180 12:20 18.12.2019
5939 Haze 15 1029 51 5000 2.6 50 11:56 18.12.2019
5940 Haze 15 1029 51 5000 2.6 50 11:38 18.12.2019
5941 Haze 15 1029 51 5000 2.6 50 11:20 18.12.2019
5942 Haze 14 1029 51 5000 1.81 152 10:57 18.12.2019
5943 Haze 14 1029 51 5000 1.81 152 10:39 18.12.2019
5944 Haze 14 1029 51 5000 1.81 152 10:20 18.12.2019
5945 Haze 11 1030 62 5000 2.1 60 09:57 18.12.2019
5946 Haze 11 1030 62 5000 2.1 60 09:19 18.12.2019
5947 Smoke 8 1030 66 5000 1.5 40 08:42 18.12.2019
5948 Smoke 8 1030 66 5000 1.5 40 08:42 18.12.2019
5949 Smoke 7 1030 76 3000 1.81 152 08:24 18.12.2019
5950 Smoke 5 1029 87 2500 1.5 240 07:57 18.12.2019
5951 Smoke 5 1029 87 2500 1.5 240 07:39 18.12.2019
5952 Smoke 5 1029 87 2500 1.5 240 07:19 18.12.2019
5953 Mist 4 1028 93 3000 1.08 125 06:51 18.12.2019
5954 Mist 4 1028 93 3000 1.08 125 06:23 18.12.2019
5955 Mist 4 1028 93 3000 1.5 220 05:34 18.12.2019
5956 Mist 4 1027 93 4000 0.95 298 03:49 18.12.2019
5957 Mist 5 1027 93 4000 0.95 298 02:46 18.12.2019
5958 Mist 5 1027 93 4000 0.95 298 02:27 18.12.2019
5959 Mist 6 1027 93 4000 1.82 319 01:44 18.12.2019
5960 Mist 6 1027 93 4000 1.86 319 01:25 18.12.2019
5961 Mist 6 1027 93 4000 1.86 319 00:55 18.12.2019
5962 Mist 6 1027 93 4000 1.86 319 00:36 18.12.2019
5963 Mist 6 1027 93 4000 1.86 319 00:18 18.12.2019
5964 Mist 6 1027 87 4000 1.86 319 23:43 17.12.2019
5965 Mist 6 1027 87 4000 1.86 319 23:23 17.12.2019
5966 Haze 7 1027 81 4000 2.6 130 22:57 17.12.2019
5967 Haze 7 1027 81 4000 2.6 130 22:39 17.12.2019
5968 Haze 7 1027 81 4000 2.6 130 22:20 17.12.2019
5969 Haze 7 1027 81 4000 3.09 329 21:57 17.12.2019
5970 Haze 7 1027 81 4000 3.09 329 21:39 17.12.2019
5971 Haze 7 1027 81 4000 3.09 329 21:20 17.12.2019
5972 Haze 7 1027 81 4000 3.09 329 21:20 17.12.2019
5973 Haze 7 1027 81 4000 3.09 329 21:20 17.12.2019
5974 Haze 9 1027 81 4000 3.09 329 20:59 17.12.2019
5975 Haze 9 1027 81 4000 3.09 329 20:40 17.12.2019
5976 Haze 9 1027 81 4000 3.75 336 20:19 17.12.2019
5977 Haze 10 1027 76 5000 2.1 290 19:59 17.12.2019
5978 Haze 10 1027 76 5000 2.1 290 19:41 17.12.2019
5979 Haze 10 1027 76 5000 2.1 290 19:20 17.12.2019
5980 Haze 10 1027 76 5000 2.1 290 18:57 17.12.2019
5981 Haze 10 1027 76 5000 2.1 290 18:39 17.12.2019
5982 Haze 10 1027 76 5000 2.1 290 18:20 17.12.2019
5983 Haze 11 1026 71 5000 2.1 290 17:55 17.12.2019
5984 Haze 11 1026 71 5000 2.1 290 17:37 17.12.2019
5985 Haze 11 1026 71 5000 2.1 290 17:18 17.12.2019
5986 Haze 13 1025 50 5000 2.6 310 16:55 17.12.2019
5987 Haze 13 1025 50 5000 2.6 310 16:55 17.12.2019
5988 Haze 13 1025 50 5000 2.6 310 16:37 17.12.2019
5989 Haze 13 1025 50 5000 2.6 310 16:18 17.12.2019
5990 Haze 13 1025 50 5000 2.6 310 16:18 17.12.2019
5991 Haze 15 1025 44 5000 2.6 280 15:54 17.12.2019
5992 Haze 15 1025 44 5000 2.6 280 15:36 17.12.2019
5993 Haze 15 1025 44 5000 2.6 280 15:18 17.12.2019
5994 Haze 15 1024 41 5000 3.6 340 14:54 17.12.2019
5995 Haze 15 1024 41 5000 3.6 340 14:36 17.12.2019
5996 Haze 15 1024 41 5000 3.6 340 14:18 17.12.2019
5997 Haze 17 1025 33 5000 3.6 260 13:54 17.12.2019
5998 Haze 17 1025 33 5000 3.6 260 13:36 17.12.2019
5999 Haze 17 1025 34 5000 3.6 260 13:18 17.12.2019
6000 Haze 16 1024 34 5000 3.14 306 12:39 17.12.2019
6001 Haze 16 1024 34 5000 3.14 306 12:19 17.12.2019
6002 Haze 14 1025 47 5000 3.14 306 11:59 17.12.2019
6003 Haze 14 1025 47 5000 3.14 306 11:37 17.12.2019
6004 Haze 14 1025 47 5000 3.14 306 11:37 17.12.2019
6005 Haze 14 1025 47 5000 2.77 302 11:19 17.12.2019
6006 Haze 13 1025 44 5000 2.77 302 10:59 17.12.2019
6007 Haze 13 1025 44 5000 2.77 302 10:40 17.12.2019
6008 Haze 13 1025 44 5000 2.77 302 10:21 17.12.2019
6009 Haze 11 1026 50 5000 2.77 302 09:59 17.12.2019
6010 Haze 11 1026 50 5000 2.77 302 09:41 17.12.2019
6011 Haze 11 1026 50 5000 2.77 302 09:20 17.12.2019
6012 Haze 8 1026 61 4000 2.77 302 08:56 17.12.2019
6013 Haze 8 1026 61 4000 2.77 302 08:38 17.12.2019
6014 Haze 8 1026 61 4000 1.59 325 08:19 17.12.2019
6015 Smoke 6 1025 75 4000 1.59 325 07:46 17.12.2019
6016 Smoke 6 1025 75 4000 1.59 325 07:26 17.12.2019
6017 Haze 5 1024 70 4000 2.1 240 06:56 17.12.2019
6018 Haze 5 1024 70 5000 2.1 230 06:35 17.12.2019
6019 Haze 5 1024 61 5000 1.5 210 05:53 17.12.2019
6020 Haze 8 1024 61 5000 1.5 210 05:35 17.12.2019
6021 Haze 5 1023 66 5000 2.1 230 04:30 17.12.2019
6022 Haze 8 1023 75 5000 1.72 316 02:34 17.12.2019
6023 Haze 8 1023 81 5000 1.81 297 01:55 17.12.2019
6024 Haze 7 1023 81 5000 1.8 303 00:59 17.12.2019
6025 Haze 7 1023 81 5000 1.8 303 00:38 17.12.2019
6026 Haze 7 1023 81 5000 1.8 303 00:19 17.12.2019
6027 Haze 7 1023 81 5000 1.8 303 23:41 16.12.2019
6028 Haze 7 1023 81 5000 1.31 342 23:19 16.12.2019
6029 Haze 7 1023 81 5000 1.31 342 23:19 16.12.2019
6030 Haze 7 1023 81 5000 1.31 342 23:19 16.12.2019
6031 Haze 8 1023 76 5000 1.31 342 22:56 16.12.2019
6032 Haze 8 1023 76 5000 1.31 342 22:37 16.12.2019
6033 Haze 8 1023 76 5000 1.31 342 22:19 16.12.2019
6034 Haze 8 1023 76 5000 1.31 342 22:19 16.12.2019
6035 Haze 8 1023 76 5000 1.31 342 22:19 16.12.2019
6036 Haze 8 1023 76 5000 1.31 342 21:55 16.12.2019
6037 Haze 8 1023 76 5000 1.31 342 21:55 16.12.2019
6038 Haze 8 1023 76 5000 1.31 342 21:37 16.12.2019
6039 Haze 8 1023 76 5000 1.31 342 21:19 16.12.2019
6040 Haze 9 1023 71 5000 1.31 342 20:57 16.12.2019
6041 Haze 9 1023 71 5000 1.31 342 20:37 16.12.2019
6042 Haze 9 1023 71 5000 1.81 53 20:19 16.12.2019
6043 Haze 10 1023 66 5000 1.81 53 19:56 16.12.2019
6044 Haze 10 1023 66 5000 1.81 53 19:37 16.12.2019
6045 Haze 10 1023 66 5000 1.81 53 19:19 16.12.2019
6046 Haze 10 1023 66 5000 2.1 30 18:56 16.12.2019
6047 Haze 10 1023 66 5000 2.1 30 18:56 16.12.2019
6048 Haze 10 1023 66 5000 2.1 30 18:38 16.12.2019
6049 Haze 10 1023 66 5000 2.1 30 18:19 16.12.2019
6050 Haze 11 1022 62 5000 2.1 30 17:57 16.12.2019
6051 Haze 11 1022 62 5000 2.1 30 17:38 16.12.2019
6052 Haze 11 1022 62 5000 2.1 30 17:20 16.12.2019
6053 Haze 13 1022 50 5000 0.38 327 16:57 16.12.2019
6054 Haze 13 1022 50 5000 0.38 327 16:38 16.12.2019
6055 Haze 13 1022 50 5000 0.38 327 16:19 16.12.2019
6056 Haze 14 1022 47 5000 2.1 300 15:57 16.12.2019
6057 Haze 14 1022 47 5000 2.1 300 15:38 16.12.2019
6058 Haze 14 1022 47 5000 2.1 300 15:20 16.12.2019
6059 Haze 15 1022 47 5000 1.5 360 14:55 16.12.2019
6060 Haze 15 1022 47 5000 1.5 360 14:37 16.12.2019
6061 Haze 15 1022 47 5000 1.5 360 14:19 16.12.2019
6062 Haze 15 1021 51 5000 2.54 283 13:56 16.12.2019
6063 Haze 15 1021 51 5000 2.54 283 13:37 16.12.2019
6064 Haze 15 1021 51 5000 2.51 308 13:19 16.12.2019
6065 Haze 14 1021 50 5000 1 300 12:57 16.12.2019
6066 Haze 14 1021 50 5000 1 300 12:39 16.12.2019
6067 Haze 14 1021 50 5000 1 300 12:18 16.12.2019
6068 Clouds 13 1022 50 6000 2.16 349 11:58 16.12.2019
6069 Clouds 13 1022 50 6000 2.51 308 11:40 16.12.2019
6070 Haze 14 1022 50 5000 2.1 80 11:19 16.12.2019
6071 Haze 14 1022 50 5000 2.1 80 11:19 16.12.2019
6072 Haze 13 1023 54 5000 1 60 10:56 16.12.2019
6073 Haze 13 1023 54 5000 1 60 10:37 16.12.2019
6074 Haze 13 1023 54 5000 1 60 10:19 16.12.2019
6075 Haze 12 1022 62 5000 1.5 70 09:45 16.12.2019
6076 Haze 12 1022 62 5000 1.5 70 09:26 16.12.2019
6077 Haze 10 1022 61 5000 0.82 170 08:41 16.12.2019
6078 Haze 10 1022 61 5000 1 293 08:21 16.12.2019
6079 Smoke 9 1021 70 5000 1 293 07:59 16.12.2019
6080 Smoke 9 1021 70 5000 1 293 07:41 16.12.2019
6081 Smoke 9 1021 70 5000 1 293 07:20 16.12.2019
6082 Haze 4 1021 59 5000 1 293 06:41 16.12.2019
6083 Haze 6 1021 59 5000 1 293 06:22 16.12.2019
6084 Haze 5 1021 75 5000 1 293 05:47 16.12.2019
6085 Haze 5 1021 75 5000 1 293 05:29 16.12.2019
6086 Haze 6 1020 61 5000 1.5 260 04:21 16.12.2019
6087 Haze 8 1019 61 5000 2.48 354 01:58 16.12.2019
6088 Haze 8 1019 61 5000 2.48 354 01:40 16.12.2019
6089 Haze 8 1019 65 5000 2.75 339 00:42 16.12.2019
6090 Haze 8 1019 65 5000 2.75 339 00:24 16.12.2019
6091 Haze 8 1019 61 5000 1.5 200 23:58 15.12.2019
6092 Haze 8 1019 61 5000 1.5 200 23:38 15.12.2019
6093 Haze 8 1019 61 5000 1.5 200 23:19 15.12.2019
6094 Haze 9 1019 61 5000 1 280 22:55 15.12.2019
6095 Haze 9 1019 61 5000 1 280 22:37 15.12.2019
6096 Haze 9 1019 61 5000 1 280 22:18 15.12.2019
6097 Haze 9 1019 61 5000 1 280 22:18 15.12.2019
6098 Haze 9 1019 57 5000 3.84 26 21:55 15.12.2019
6099 Haze 9 1019 57 5000 3.84 26 21:37 15.12.2019
6100 Haze 9 1019 57 5000 3.84 26 21:19 15.12.2019
6101 Haze 10 1019 61 5000 3.84 26 20:56 15.12.2019
6102 Haze 10 1019 61 5000 3.84 26 20:37 15.12.2019
6103 Haze 10 1019 61 5000 0.48 75 20:18 15.12.2019
6104 Haze 11 1019 61 4000 1.5 210 19:56 15.12.2019
6105 Haze 11 1019 61 4000 1.5 210 19:38 15.12.2019
6106 Haze 11 1019 61 4000 1.5 210 19:18 15.12.2019
6107 Haze 10 1018 57 4000 3.13 334 18:56 15.12.2019
6108 Haze 10 1018 57 4000 0.48 75 18:56 15.12.2019
6109 Haze 10 1018 57 4000 0.48 75 18:38 15.12.2019
6110 Haze 10 1018 57 4000 0.48 75 18:18 15.12.2019
6111 Haze 10 1018 57 4000 0.48 75 18:18 15.12.2019
6112 Haze 11 1018 57 4000 3.13 334 17:56 15.12.2019
6113 Haze 11 1018 57 4000 0.48 75 17:37 15.12.2019
6114 Haze 11 1018 57 4000 1.35 2 17:18 15.12.2019
6115 Haze 12 1017 57 3000 1.5 360 16:55 15.12.2019
6116 Haze 12 1017 57 3000 1.5 360 16:55 15.12.2019
6117 Haze 12 1017 57 3000 1.5 360 16:37 15.12.2019
6118 Clouds 13 1017 54 6000 2.1 350 16:19 15.12.2019
6119 Haze 14 1017 47 3000 1.5 60 15:54 15.12.2019
6120 Haze 14 1017 47 3000 1.5 60 15:36 15.12.2019
6121 Haze 14 1017 47 3000 1.5 60 15:18 15.12.2019
6122 Haze 15 1017 50 3000 1.5 360 14:55 15.12.2019
6123 Haze 15 1017 50 3000 1.5 360 14:36 15.12.2019
6124 Haze 15 1017 50 3000 1.5 360 14:18 15.12.2019
6125 Haze 14 1016 54 3000 0.32 94 13:54 15.12.2019
6126 Haze 14 1016 54 3000 0.31 66 13:36 15.12.2019
6127 Haze 14 1016 54 3000 0.31 66 13:18 15.12.2019
6128 Haze 14 1016 54 3000 0.31 66 13:18 15.12.2019
6129 Haze 13 1017 53 3000 2.6 50 12:55 15.12.2019
6130 Haze 13 1017 53 3000 2.6 50 12:37 15.12.2019
6131 Haze 13 1017 53 3000 2.6 50 12:19 15.12.2019
6132 Haze 14 1016 46 3000 2.6 60 11:38 15.12.2019
6133 Haze 14 1016 46 3000 2.6 60 11:19 15.12.2019
6134 Haze 14 1017 30 5000 2.6 180 10:58 15.12.2019
6135 Haze 14 1017 30 5000 2.6 180 10:40 15.12.2019
6136 Haze 14 1017 30 5000 2.6 180 10:19 15.12.2019
6137 Haze 13 1017 33 4000 3.28 131 09:58 15.12.2019
6138 Haze 13 1017 33 4000 3.28 131 09:37 15.12.2019
6139 Haze 13 1017 33 4000 3.28 131 09:37 15.12.2019
6140 Haze 13 1017 33 4000 3.28 131 09:19 15.12.2019
6141 Haze 10 1017 57 3000 3.28 131 08:55 15.12.2019
6142 Haze 10 1017 57 3000 3.28 131 08:37 15.12.2019
6143 Haze 10 1017 57 3000 1.23 131 08:19 15.12.2019
6144 Haze 7 1017 44 5000 1.23 131 07:53 15.12.2019
6145 Haze 6 1017 70 2000 1.23 131 07:31 15.12.2019
6146 Haze 3 1017 75 3000 1.23 131 06:30 15.12.2019
6147 Haze 3 1016 75 4000 1.23 131 05:49 15.12.2019
6148 Haze 3 1016 75 4000 0.96 156 05:22 15.12.2019
6149 Haze 4 1016 65 4000 0.96 156 04:22 15.12.2019
6150 Haze 5 1016 70 5000 0.96 156 02:59 15.12.2019
6151 Haze 5 1016 70 5000 0.96 156 02:32 15.12.2019
6152 Haze 4 1017 70 5000 2.6 250 01:42 15.12.2019
6153 Haze 6 1017 70 5000 2.6 250 01:19 15.12.2019
6154 Haze 6 1017 58 5000 0.46 234 00:51 15.12.2019
6155 Haze 6 1017 58 5000 0.46 234 00:33 15.12.2019
6156 Haze 6 1017 58 5000 0.46 234 23:56 14.12.2019
6157 Haze 7 1018 52 5000 0.46 234 23:38 14.12.2019
6158 Haze 7 1018 52 5000 1.73 246 23:18 14.12.2019
6159 Haze 7 1018 58 5000 1.73 246 22:56 14.12.2019
6160 Haze 7 1018 58 5000 1.73 246 22:37 14.12.2019
6161 Haze 7 1018 58 5000 1.73 246 22:18 14.12.2019
6162 Haze 7 1018 61 5000 1.73 246 21:55 14.12.2019
6163 Haze 7 1018 61 5000 1.73 246 21:37 14.12.2019
6164 Haze 7 1018 61 5000 1.73 246 21:18 14.12.2019
6165 Haze 8 1018 57 5000 1.73 246 20:42 14.12.2019
6166 Haze 8 1018 57 5000 2.79 262 20:21 14.12.2019
6167 Haze 10 1017 57 5000 2.1 200 19:59 14.12.2019
6168 Haze 10 1017 57 5000 2.1 200 19:39 14.12.2019
6169 Haze 10 1017 57 5000 2.1 200 19:21 14.12.2019
6170 Haze 10 1017 57 5000 2.1 200 19:21 14.12.2019
6171 Haze 11 1017 54 5000 2.1 200 18:57 14.12.2019
6172 Haze 11 1017 54 5000 2.1 200 18:39 14.12.2019
6173 Haze 11 1017 54 5000 2.1 200 18:21 14.12.2019
6174 Haze 11 1016 50 5000 2.6 220 17:58 14.12.2019
6175 Haze 11 1016 50 5000 2.6 220 17:40 14.12.2019
6176 Haze 11 1016 50 5000 2.6 220 17:21 14.12.2019
6177 Haze 12 1016 50 5000 2.6 230 16:41 14.12.2019
6178 Haze 12 1016 50 5000 2.6 230 16:19 14.12.2019
6179 Haze 14 1016 47 5000 4.6 240 15:56 14.12.2019
6180 Haze 14 1016 47 5000 4.6 240 15:38 14.12.2019
6181 Haze 14 1016 47 5000 4.6 240 15:19 14.12.2019
6182 Haze 14 1016 44 4000 5.1 220 14:57 14.12.2019
6183 Haze 14 1016 44 4000 5.1 220 14:37 14.12.2019
6184 Haze 14 1016 44 4000 5.1 220 14:18 14.12.2019
6185 Clouds 15 1016 38 6000 4.1 220 13:44 14.12.2019
6186 Clouds 15 1016 36 6000 4.1 220 13:19 14.12.2019
6187 Haze 15 1016 44 5000 4.1 200 12:58 14.12.2019
6188 Haze 15 1016 44 5000 4.1 200 12:40 14.12.2019
6189 Haze 15 1016 44 5000 4.1 200 12:20 14.12.2019
6190 Haze 14 1017 47 5000 4.6 170 11:58 14.12.2019
6191 Haze 14 1017 47 5000 4.6 170 11:58 14.12.2019
6192 Haze 14 1017 47 5000 4.6 170 11:39 14.12.2019
6193 Haze 14 1017 47 5000 4.6 170 11:19 14.12.2019
6194 Dust 14 1018 58 4000 3.6 200 10:57 14.12.2019
6195 Dust 14 1018 58 4000 3.6 200 10:39 14.12.2019
6196 Dust 14 1018 58 4000 3.6 200 10:20 14.12.2019
6197 Dust 11 1018 58 3500 3.6 200 09:55 14.12.2019
6198 Dust 11 1018 58 3500 3.6 200 09:37 14.12.2019
6199 Dust 11 1018 58 3500 3.6 200 09:18 14.12.2019
6200 Dust 10 1018 62 3000 3.09 216 08:42 14.12.2019
6201 Dust 10 1018 62 3000 1.63 149 08:19 14.12.2019
6202 Dust 6 1018 87 3000 1.63 149 07:44 14.12.2019
6203 Dust 6 1018 87 3000 1.63 149 07:23 14.12.2019
6204 Dust 6 1018 81 3000 1.63 149 06:56 14.12.2019
6205 Dust 6 1018 81 3000 1.63 149 06:37 14.12.2019
6206 Dust 5 1017 87 3000 1.63 149 05:57 14.12.2019
6207 Mist 5 1017 87 4000 1.26 240 04:47 14.12.2019
6208 Mist 6 1016 87 4000 1.26 240 02:31 14.12.2019
6209 Dust 7 1016 81 4000 1.5 230 01:56 14.12.2019
6210 Dust 7 1016 81 4000 1.5 230 01:37 14.12.2019
6211 Dust 8 1016 76 3500 1 220 00:47 14.12.2019
6212 Dust 8 1016 76 3500 1 220 00:27 14.12.2019
6213 Dust 8 1017 81 3500 1.5 170 23:56 13.12.2019
6214 Dust 8 1017 81 3500 1.5 170 23:37 13.12.2019
6215 Dust 8 1017 81 3500 1.5 170 23:18 13.12.2019
6216 Dust 9 1017 76 3000 1.5 240 22:40 13.12.2019
6217 Dust 9 1017 76 3000 1.5 240 22:19 13.12.2019
6218 Dust 9 1017 76 3000 2.1 280 21:56 13.12.2019
6219 Dust 9 1017 76 3000 2.1 280 21:38 13.12.2019
6220 Dust 9 1017 76 3000 2.1 280 21:20 13.12.2019
6221 Dust 10 1017 66 3000 3.1 250 20:43 13.12.2019
6222 Dust 10 1017 66 3000 2.6 230 20:24 13.12.2019
6223 Dust 10 1017 66 3000 2.6 230 19:59 13.12.2019
6224 Dust 10 1017 66 3000 2.6 230 19:41 13.12.2019
6225 Dust 10 1017 66 3000 2.6 230 19:41 13.12.2019
6226 Dust 10 1017 66 3000 2.6 230 19:23 13.12.2019
6227 Dust 10 1016 71 3000 2.1 200 18:59 13.12.2019
6228 Dust 10 1016 71 3000 2.1 200 18:41 13.12.2019
6229 Dust 10 1016 71 3000 2.1 200 18:19 13.12.2019
6230 Dust 11 1016 66 3000 2.6 240 17:57 13.12.2019
6231 Dust 11 1016 66 3000 2.6 240 17:39 13.12.2019
6232 Dust 11 1016 66 3000 2.6 240 17:18 13.12.2019
6233 Haze 12 1016 66 5000 5.1 240 16:54 13.12.2019
6234 Dust 12 1015 66 3000 4.1 250 16:36 13.12.2019
6235 Dust 12 1015 66 3000 4.1 250 16:18 13.12.2019
6236 Dust 13 1015 62 3000 3.6 260 15:40 13.12.2019
6237 Dust 13 1015 62 3000 3.6 260 15:20 13.12.2019
6238 Dust 13 1015 62 2000 6.7 240 14:56 13.12.2019
6239 Dust 13 1015 62 2000 6.7 240 14:36 13.12.2019
6240 Dust 13 1015 62 2000 6.7 240 14:18 13.12.2019
6241 Dust 13 1015 62 4000 7.7 250 13:43 13.12.2019
6242 Dust 13 1015 66 2000 4.1 230 13:23 13.12.2019
6243 Dust 13 1015 66 2000 4.1 230 12:54 13.12.2019
6244 Dust 13 1015 62 3000 6.2 230 12:36 13.12.2019
6245 Dust 13 1015 62 3000 6.2 230 12:18 13.12.2019
6246 Dust 13 1015 62 3000 6.2 230 12:18 13.12.2019
6247 Dust 12 1015 66 4000 7.7 50 11:42 13.12.2019
6248 Dust 12 1015 66 4000 7.7 50 11:24 13.12.2019
6249 Haze 11 1016 62 4000 6.2 230 10:56 13.12.2019
6250 Haze 11 1016 62 4000 6.2 230 10:38 13.12.2019
6251 Haze 11 1016 62 4000 6.2 230 10:19 13.12.2019
6252 Haze 11 1016 62 4000 5.7 230 09:42 13.12.2019
6253 Haze 11 1016 62 4000 5.7 230 09:21 13.12.2019
6254 Haze 9 1016 61 4000 5.1 240 08:45 13.12.2019
6255 Haze 9 1016 61 4000 5.1 240 08:45 13.12.2019
6256 Haze 9 1016 61 4000 5.1 240 08:26 13.12.2019
6257 Haze 9 1015 66 4000 4.1 230 07:50 13.12.2019
6258 Haze 9 1015 66 4000 4.1 230 07:26 13.12.2019
6259 Haze 9 1014 76 4000 4.1 240 06:57 13.12.2019
6260 Haze 9 1014 76 4000 4.1 240 06:32 13.12.2019
6261 Haze 9 1014 66 5000 6.2 240 05:52 13.12.2019
6262 Haze 9 1013 76 4000 5.1 240 05:33 13.12.2019
6263 Haze 9 1013 76 4000 5.1 240 04:54 13.12.2019
6264 Rain 9 1012 81 4000 6.7 240 03:52 13.12.2019
6265 Rain 9 1012 76 5000 5.1 240 02:35 13.12.2019
6266 Rain 9 1012 71 5000 5.1 240 01:54 13.12.2019
6267 Rain 9 1012 71 5000 5.1 240 01:27 13.12.2019
6268 Rain 9 1011 76 5000 8.2 240 00:47 13.12.2019
6269 Rain 9 1011 76 5000 8.2 240 00:26 13.12.2019
6270 Rain 9 1012 71 5000 7.2 240 23:42 12.12.2019
6271 Rain 9 1012 71 5000 7.2 240 23:24 12.12.2019
6272 Rain 10 1012 71 5000 6.2 250 22:56 12.12.2019
6273 Rain 10 1012 71 5000 6.2 250 22:38 12.12.2019
6274 Rain 10 1012 71 5000 6.2 250 22:38 12.12.2019
6275 Rain 10 1012 71 5000 6.2 250 22:20 12.12.2019
6276 Haze 9 1012 71 5000 6.2 250 21:56 12.12.2019
6277 Haze 9 1012 71 5000 6.2 250 21:37 12.12.2019
6278 Haze 9 1012 71 5000 6.2 250 21:19 12.12.2019
6279 Haze 9 1012 71 5000 5.1 280 20:59 12.12.2019
6280 Haze 9 1012 71 5000 5.1 280 20:40 12.12.2019
6281 Haze 9 1012 71 5000 5.1 280 20:21 12.12.2019
6282 Haze 10 1012 76 5000 5.1 250 19:56 12.12.2019
6283 Dust 10 1012 71 5000 8.2 280 19:37 12.12.2019
6284 Dust 10 1012 71 5000 8.2 280 19:18 12.12.2019
6285 Dust 11 1012 71 5000 8.2 280 18:56 12.12.2019
6286 Dust 11 1011 71 4000 8.7 280 18:37 12.12.2019
6287 Dust 11 1011 71 4000 8.7 280 18:37 12.12.2019
6288 Dust 11 1011 71 4000 8.7 280 18:19 12.12.2019
6289 Haze 11 1010 81 3000 6.7 250 17:56 12.12.2019
6290 Haze 11 1010 81 3000 6.7 250 17:38 12.12.2019
6291 Haze 11 1010 81 3000 6.7 250 17:19 12.12.2019
6292 Haze 11 1010 76 3000 6.2 280 16:55 12.12.2019
6293 Haze 11 1010 76 3000 6.2 280 16:36 12.12.2019
6294 Haze 11 1010 76 3000 6.2 280 16:18 12.12.2019
6295 Haze 13 1010 66 3000 9.3 250 15:42 12.12.2019
6296 Haze 13 1010 66 3000 9.3 250 15:20 12.12.2019
6297 Dust 15 1009 67 4000 7.2 230 14:59 12.12.2019
6298 Dust 15 1009 67 4000 7.2 230 14:38 12.12.2019
6299 Dust 15 1009 67 4000 7.2 230 14:19 12.12.2019
6300 Dust 16 1009 55 4000 8.2 230 13:57 12.12.2019
6301 Clouds 16 1009 55 6000 5.1 230 13:38 12.12.2019
6302 Clouds 16 1009 55 6000 5.1 230 13:20 12.12.2019
6303 Haze 17 1009 48 4000 2.1 210 12:57 12.12.2019
6304 Haze 17 1009 48 4000 2.1 210 12:38 12.12.2019
6305 Haze 17 1009 48 4000 2.1 210 12:38 12.12.2019
6306 Haze 17 1009 48 4000 2.1 210 12:19 12.12.2019
6307 Haze 17 1009 48 4000 2.1 210 12:19 12.12.2019
6308 Haze 16 1009 44 4000 3.1 170 11:55 12.12.2019
6309 Haze 16 1009 44 4000 3.1 170 11:37 12.12.2019
6310 Haze 16 1009 44 4000 3.1 170 11:19 12.12.2019
6311 Smoke 15 1011 62 4000 2.6 80 10:42 12.12.2019
6312 Smoke 15 1011 62 4000 2.6 80 10:24 12.12.2019
6313 Smoke 13 1012 67 3000 2.1 40 09:59 12.12.2019
6314 Smoke 13 1012 67 3000 2.1 40 09:41 12.12.2019
6315 Smoke 13 1012 67 3000 2.1 40 09:23 12.12.2019
6316 Smoke 12 1012 71 3000 1.43 174 08:56 12.12.2019
6317 Smoke 12 1012 71 3000 1.43 174 08:38 12.12.2019
6318 Smoke 12 1012 71 3000 1.43 174 08:38 12.12.2019
6319 Smoke 12 1012 71 3000 3.03 113 08:19 12.12.2019
6320 Mist 9 1012 81 3000 3.03 113 07:42 12.12.2019
6321 Mist 9 1012 81 3000 3.03 113 07:24 12.12.2019
6322 Mist 8 1012 87 3000 3.03 113 06:48 12.12.2019
6323 Mist 8 1012 87 3000 3.03 113 06:48 12.12.2019
6324 Mist 8 1012 87 3000 3.03 113 06:30 12.12.2019
6325 Mist 7 1012 87 3000 1.5 110 05:36 12.12.2019
6326 Mist 7 1012 93 3000 2.18 132 04:51 12.12.2019
6327 Mist 7 1012 93 3000 2.18 132 04:51 12.12.2019
6328 Mist 8 1013 87 4000 2.1 260 03:24 12.12.2019
6329 Mist 8 1014 87 3000 2.1 240 02:38 12.12.2019
6330 Mist 8 1014 87 3000 2.1 240 02:19 12.12.2019
6331 Mist 8 1014 93 3000 1 280 01:37 12.12.2019
6332 Mist 8 1014 93 3000 1 280 01:19 12.12.2019
6333 Mist 9 1014 93 2000 1 210 00:46 12.12.2019
6334 Mist 9 1014 93 2000 1 210 00:19 12.12.2019
6335 Mist 9 1015 93 2000 1.35 138 23:44 11.12.2019
6336 Mist 9 1015 93 2000 1.03 97 23:21 11.12.2019
6337 Mist 10 1015 87 2000 1.03 97 22:57 11.12.2019
6338 Mist 10 1015 87 2000 1.03 97 22:38 11.12.2019
6339 Mist 10 1015 87 2000 1.03 97 22:20 11.12.2019
6340 Mist 10 1016 87 2000 1.03 97 21:57 11.12.2019
6341 Mist 10 1016 87 2000 1.03 97 21:38 11.12.2019
6342 Mist 10 1016 87 2000 1.03 97 21:19 11.12.2019
6343 Dust 11 1016 81 3000 0.5 200 20:56 11.12.2019
6344 Dust 11 1016 81 3000 0.5 200 20:37 11.12.2019
6345 Dust 11 1016 81 3000 0.5 200 20:37 11.12.2019
6346 Dust 11 1016 81 3000 0.5 200 20:19 11.12.2019
6347 Dust 11 1016 93 3000 1.5 50 19:58 11.12.2019
6348 Dust 11 1016 93 3000 1.5 50 19:39 11.12.2019
6349 Dust 11 1016 93 3000 1.5 50 19:19 11.12.2019
6350 Dust 12 1016 87 3000 1.39 134 18:42 11.12.2019
6351 Dust 12 1016 87 3000 1.39 134 18:22 11.12.2019
6352 Dust 13 1015 76 3000 1.39 134 17:57 11.12.2019
6353 Dust 13 1015 76 3000 1.39 134 17:39 11.12.2019
6354 Dust 13 1015 76 3000 1.63 77 17:19 11.12.2019
6355 Dust 14 1015 71 3000 1.5 70 16:58 11.12.2019
6356 Dust 14 1015 71 3000 1.5 70 16:40 11.12.2019
6357 Dust 14 1015 71 3000 1.5 70 16:22 11.12.2019
6358 Haze 16 1015 67 3000 1.5 50 15:59 11.12.2019
6359 Haze 16 1015 67 3000 1.5 50 15:41 11.12.2019
6360 Haze 16 1015 67 3000 1.5 50 15:23 11.12.2019
6361 Haze 16 1015 67 3000 2.1 60 14:56 11.12.2019
6362 Haze 16 1015 67 3000 2.1 60 14:38 11.12.2019
6363 Haze 16 1015 67 3000 2.1 60 14:20 11.12.2019
6364 Dust 16 1015 67 3000 2.1 50 13:56 11.12.2019
6365 Dust 16 1015 67 3000 2.1 50 13:38 11.12.2019
6366 Dust 16 1015 67 3000 2.1 50 13:19 11.12.2019
6367 Clouds 15 1015 72 6000 3.1 80 12:56 11.12.2019
6368 Haze 15 1015 71 4000 2.1 40 12:38 11.12.2019
6369 Haze 15 1015 71 4000 2.1 40 12:19 11.12.2019
6370 Haze 15 1015 71 4000 2.1 40 12:19 11.12.2019
6371 Haze 15 1016 71 4000 2.1 50 11:57 11.12.2019
6372 Haze 15 1016 71 4000 2.1 50 11:38 11.12.2019
6373 Haze 15 1016 71 4000 2.1 50 11:38 11.12.2019
6374 Haze 15 1016 71 4000 2.1 50 11:18 11.12.2019
6375 Haze 15 1016 71 4000 2.1 50 11:18 11.12.2019
6376 Haze 15 1016 71 4000 2.1 50 10:55 11.12.2019
6377 Haze 15 1017 76 4000 1.5 50 10:37 11.12.2019
6378 Haze 15 1017 76 4000 1.5 50 10:19 11.12.2019
6379 Haze 13 1017 76 5000 4.85 126 09:40 11.12.2019
6380 Haze 12 1017 76 5000 4.85 126 09:21 11.12.2019
6381 Mist 11 1018 87 3000 4.85 126 08:58 11.12.2019
6382 Mist 11 1018 87 3000 4.85 126 08:38 11.12.2019
6383 Mist 11 1018 87 3000 4.01 112 08:19 11.12.2019
6384 Mist 9 1018 87 3000 4.01 112 07:55 11.12.2019
6385 Mist 9 1017 87 3000 4.01 112 07:37 11.12.2019
6386 Mist 9 1017 87 3000 4.01 112 07:18 11.12.2019
6387 Mist 6 1017 100 3000 4.01 112 06:44 11.12.2019
6388 Mist 6 1017 100 3000 4.01 112 06:22 11.12.2019
6389 Mist 7 1017 93 4000 4.01 112 05:41 11.12.2019
6390 Mist 7 1017 93 4000 3.03 118 05:20 11.12.2019
6391 Mist 7 1017 93 4000 3.03 118 04:38 11.12.2019
6392 Mist 8 1017 93 4000 3.03 118 02:49 11.12.2019
6393 Mist 8 1017 93 4000 2.49 114 01:26 11.12.2019
6394 Mist 8 1017 93 4000 2.49 114 00:49 11.12.2019
6395 Mist 8 1017 93 4000 2.49 114 00:23 11.12.2019
6396 Mist 8 1017 93 4000 2.49 114 23:58 10.12.2019
6397 Mist 8 1017 93 4000 2.49 114 23:39 10.12.2019
6398 Mist 8 1017 93 4000 1.28 113 23:21 10.12.2019
6399 Mist 9 1017 93 4000 1.28 113 22:41 10.12.2019
6400 Mist 9 1017 93 4000 1.28 113 22:22 10.12.2019
6401 Mist 9 1018 87 4000 1.28 113 21:57 10.12.2019
6402 Mist 9 1018 87 4000 1.28 113 21:39 10.12.2019
6403 Mist 9 1018 87 4000 1.28 113 21:21 10.12.2019
6404 Clouds 10 1017 93 6000 2.1 90 20:57 10.12.2019
6405 Mist 10 1017 81 4000 1.28 113 20:38 10.12.2019
6406 Mist 10 1017 81 4000 1.55 309 20:19 10.12.2019
6407 Mist 10 1017 81 4000 1.55 309 20:19 10.12.2019
6408 Mist 10 1017 81 4000 1 317 20:19 10.12.2019
6409 Mist 10 1017 81 4000 1 317 19:55 10.12.2019
6410 Haze 10 1017 81 5000 1 317 19:37 10.12.2019
6411 Haze 10 1017 81 5000 1 317 19:19 10.12.2019
6412 Haze 11 1017 81 5000 1 317 18:42 10.12.2019
6413 Haze 11 1017 81 5000 1 317 18:21 10.12.2019
6414 Haze 12 1017 76 5000 1 317 17:59 10.12.2019
6415 Haze 12 1017 76 5000 1 317 17:41 10.12.2019
6416 Haze 12 1017 76 5000 0.98 319 17:22 10.12.2019
6417 Haze 12 1016 71 5000 2.1 230 16:57 10.12.2019
6418 Haze 12 1016 71 5000 2.1 230 16:39 10.12.2019
6419 Haze 12 1016 71 5000 2.1 230 16:19 10.12.2019
6420 Haze 15 1016 62 5000 3.1 230 15:39 10.12.2019
6421 Haze 15 1016 62 5000 3.1 230 15:18 10.12.2019
6422 Clouds 15 1015 67 6000 3.1 270 14:56 10.12.2019
6423 Haze 15 1016 62 5000 2.1 260 14:38 10.12.2019
6424 Haze 15 1016 62 5000 2.1 260 14:20 10.12.2019
6425 Clouds 15 1015 62 6000 3.1 220 13:58 10.12.2019
6426 Haze 16 1015 67 5000 3.1 230 13:40 10.12.2019
6427 Haze 16 1015 67 5000 3.1 230 13:20 10.12.2019
6428 Haze 15 1015 62 5000 4.6 230 12:49 10.12.2019
6429 Haze 15 1015 62 5000 4.6 230 12:28 10.12.2019
6430 Haze 15 1016 71 5000 4.6 240 11:58 10.12.2019
6431 Haze 15 1016 71 5000 4.6 240 11:40 10.12.2019
6432 Haze 15 1016 71 5000 4.6 240 11:21 10.12.2019
6433 Clouds 14 1016 71 6000 4.6 240 10:43 10.12.2019
6434 Mist 13 1017 87 5000 5.1 210 10:24 10.12.2019
6435 Mist 12 1017 87 3000 2.1 220 09:57 10.12.2019
6436 Mist 12 1017 87 3000 2.1 220 09:39 10.12.2019
6437 Mist 12 1017 87 3000 2.1 220 09:20 10.12.2019
6438 Mist 11 1017 87 3000 1.5 200 08:58 10.12.2019
6439 Mist 11 1017 87 3000 1.5 200 08:39 10.12.2019
6440 Mist 11 1017 87 3000 1.5 200 08:21 10.12.2019
6441 Rain 11 1017 100 2000 2.6 220 07:54 10.12.2019
6442 Mist 10 1016 87 3500 1 230 07:36 10.12.2019
6443 Mist 10 1016 87 3500 1 230 07:18 10.12.2019
6444 Mist 10 1016 93 3000 2.44 232 06:42 10.12.2019
6445 Mist 10 1016 93 3000 2.44 232 06:19 10.12.2019
6446 Mist 10 1016 93 4000 2.44 232 05:51 10.12.2019
6447 Mist 10 1015 87 5000 2.6 240 04:50 10.12.2019
6448 Rain 10 1015 93 5000 1.5 220 03:31 10.12.2019
6449 Rain 11 1016 93 5000 1 250 02:36 10.12.2019
6450 Rain 11 1016 87 6000 3.6 240 01:42 10.12.2019
6451 Rain 11 1016 87 6000 3.6 240 01:19 10.12.2019
6452 Rain 11 1015 93 6000 2.6 240 00:40 10.12.2019
6453 Rain 10 1015 93 6000 2.6 240 00:19 10.12.2019
6454 Rain 10 1016 93 6000 2.6 240 23:41 09.12.2019
6455 Rain 10 1016 93 6000 2.6 240 23:41 09.12.2019
6456 Rain 10 1016 93 6000 2.6 240 23:22 09.12.2019
6457 Rain 10 1016 93 4000 1.5 220 22:58 09.12.2019
6458 Rain 11 1016 93 4000 1.5 220 22:39 09.12.2019
6459 Rain 10 1016 93 4000 1.5 220 22:19 09.12.2019
6460 Rain 10 1016 87 4000 4.1 240 21:56 09.12.2019
6461 Rain 10 1016 87 4000 4.1 240 21:38 09.12.2019
6462 Rain 10 1016 87 4000 4.1 240 21:18 09.12.2019
6463 Rain 10 1016 87 4000 5.7 280 20:56 09.12.2019
6464 Rain 10 1016 87 4000 5.7 280 20:38 09.12.2019
6465 Rain 10 1016 87 4000 5.7 280 20:20 09.12.2019
6466 Rain 11 1016 93 4000 5.7 240 19:55 09.12.2019
6467 Rain 11 1016 93 4000 5.7 240 19:37 09.12.2019
6468 Rain 11 1016 93 4000 5.7 240 19:19 09.12.2019
6469 Rain 11 1016 87 4000 7.2 260 18:56 09.12.2019
6470 Rain 11 1016 87 4000 7.2 260 18:37 09.12.2019
6471 Rain 11 1016 87 4000 7.2 260 18:19 09.12.2019
6472 Rain 11 1015 87 4000 3.1 260 17:57 09.12.2019
6473 Rain 11 1015 87 4000 3.1 260 17:38 09.12.2019
6474 Rain 11 1015 87 4000 3.1 260 17:20 09.12.2019
6475 Drizzle 10 1014 87 3500 4.1 240 16:56 09.12.2019
6476 Drizzle 10 1014 87 3500 4.1 240 16:37 09.12.2019
6477 Drizzle 10 1014 87 3500 4.1 240 16:19 09.12.2019
6478 Drizzle 11 1014 81 4000 6.7 250 15:55 09.12.2019
6479 Drizzle 11 1014 81 4000 6.7 250 15:37 09.12.2019
6480 Drizzle 11 1014 81 4000 6.7 250 15:19 09.12.2019
6481 Rain 13 1015 76 4000 6.2 250 14:42 09.12.2019
6482 Drizzle 14 1014 76 4000 5.1 250 14:19 09.12.2019
6483 Haze 14 1014 82 4000 5.1 250 13:59 09.12.2019
6484 Haze 14 1014 82 4000 5.1 250 13:39 09.12.2019
6485 Haze 14 1014 82 4000 5.1 250 13:20 09.12.2019
6486 Haze 14 1014 76 5000 7.2 220 12:58 09.12.2019
6487 Haze 14 1014 76 5000 5.1 260 12:39 09.12.2019
6488 Haze 14 1014 76 5000 5.1 260 12:21 09.12.2019
6489 Haze 14 1014 76 5000 5.1 260 11:59 09.12.2019
6490 Rain 14 1015 76 5000 4.1 240 11:39 09.12.2019
6491 Rain 14 1015 76 5000 4.1 240 11:39 09.12.2019
6492 Rain 14 1015 76 5000 4.1 240 11:21 09.12.2019
6493 Rain 13 1015 76 5000 5.1 250 10:56 09.12.2019
6494 Clouds 13 1015 76 6000 5.1 250 10:38 09.12.2019
6495 Clouds 13 1015 76 6000 5.1 250 10:19 09.12.2019
6496 Mist 13 1016 87 5000 5.1 230 09:41 09.12.2019
6497 Mist 13 1016 87 5000 5.1 230 09:23 09.12.2019
6498 Haze 12 1015 87 4000 4.1 240 08:55 09.12.2019
6499 Haze 12 1015 87 4000 4.1 240 08:37 09.12.2019
6500 Haze 12 1015 87 4000 4.1 240 08:19 09.12.2019
6501 Drizzle 11 1015 87 5000 2.6 240 07:48 09.12.2019
6502 Drizzle 11 1015 87 5000 2.6 240 07:30 09.12.2019
6503 Clouds 10 1015 87 6000 3.1 240 06:55 09.12.2019
6504 Clouds 10 1015 87 6000 3.1 240 06:29 09.12.2019
6505 Mist 10 1015 93 5000 1.5 230 05:31 09.12.2019
6506 Mist 9 1015 93 5000 2.6 240 04:58 09.12.2019
6507 Mist 9 1015 93 5000 2.6 240 04:25 09.12.2019
6508 Mist 10 1015 93 5000 3.1 240 02:28 09.12.2019
6509 Mist 11 1015 93 4000 3.1 210 01:46 09.12.2019
6510 Mist 9 1015 93 5000 3.6 260 00:57 09.12.2019
6511 Mist 9 1015 93 5000 3.6 260 00:33 09.12.2019
6512 Mist 9 1016 93 5000 1.5 180 23:55 08.12.2019
6513 Mist 9 1016 93 5000 1.5 180 23:55 08.12.2019
6514 Rain 9 1016 93 2000 1.5 180 23:37 08.12.2019
6515 Rain 9 1016 93 2000 1.5 180 23:19 08.12.2019
6516 Rain 9 1016 93 2000 2.6 290 22:56 08.12.2019
6517 Rain 9 1016 93 2000 2.6 290 22:38 08.12.2019
6518 Rain 9 1016 93 2000 2.6 290 22:18 08.12.2019
6519 Rain 9 1016 93 2000 2.6 290 21:56 08.12.2019
6520 Rain 9 1016 93 5000 2.6 220 21:37 08.12.2019
6521 Rain 9 1016 93 5000 2.6 220 21:19 08.12.2019
6522 Rain 9 1016 93 5000 2.6 220 21:19 08.12.2019
6523 Clouds 9 1016 93 6000 2.73 248 20:55 08.12.2019
6524 Clouds 9 1016 93 6000 2.73 248 20:37 08.12.2019
6525 Clouds 9 1016 93 6000 2.54 262 20:19 08.12.2019
6526 Drizzle 10 1017 93 4000 3.1 250 19:55 08.12.2019
6527 Drizzle 10 1017 93 4000 3.1 250 19:36 08.12.2019
6528 Drizzle 10 1017 93 4000 3.1 250 19:18 08.12.2019
6529 Drizzle 10 1017 93 4000 3.1 250 19:18 08.12.2019
6530 Drizzle 10 1017 93 4000 4.6 260 18:54 08.12.2019
6531 Drizzle 10 1017 93 4000 4.6 260 18:54 08.12.2019
6532 Drizzle 10 1017 93 4000 4.6 260 18:36 08.12.2019
6533 Drizzle 10 1017 93 4000 4.6 260 18:18 08.12.2019
6534 Rain 11 1017 93 5000 3.1 250 17:55 08.12.2019
6535 Rain 10 1016 81 3000 5.1 240 17:36 08.12.2019
6536 Rain 10 1016 81 3000 5.1 240 17:18 08.12.2019
6537 Haze 11 1016 81 4000 5.7 250 16:55 08.12.2019
6538 Haze 11 1016 81 4000 5.7 250 16:37 08.12.2019
6539 Haze 11 1016 81 4000 5.7 250 16:18 08.12.2019
6540 Haze 12 1016 81 4000 5.7 240 15:38 08.12.2019
6541 Haze 12 1016 81 4000 5.7 240 15:19 08.12.2019
6542 Haze 12 1016 81 4000 5.1 240 14:58 08.12.2019
6543 Haze 12 1016 81 4000 5.1 240 14:39 08.12.2019
6544 Haze 12 1016 81 4000 5.1 240 14:20 08.12.2019
6545 Mist 12 1016 87 4000 5.7 240 13:54 08.12.2019
6546 Mist 12 1016 87 4000 5.7 240 13:36 08.12.2019
6547 Mist 12 1016 87 4000 5.7 240 13:18 08.12.2019
6548 Mist 12 1016 87 4000 4.1 240 12:41 08.12.2019
6549 Mist 12 1016 87 4000 4.1 240 12:23 08.12.2019
6550 Mist 10 1017 87 3000 4.1 240 12:00 08.12.2019
6551 Mist 10 1017 87 3000 4.1 240 11:38 08.12.2019
6552 Mist 10 1017 87 3000 4.1 240 11:19 08.12.2019
6553 Drizzle 9 1018 87 2600 4.1 240 10:58 08.12.2019
6554 Drizzle 9 1018 87 2600 4.1 240 10:38 08.12.2019
6555 Drizzle 9 1018 87 2600 4.1 240 10:19 08.12.2019
6556 Rain 9 1018 87 3500 3.1 200 09:56 08.12.2019
6557 Rain 9 1018 87 3500 3.1 200 09:37 08.12.2019
6558 Rain 9 1018 87 3500 3.1 200 09:19 08.12.2019
6559 Drizzle 9 1019 93 1500 2.1 50 08:57 08.12.2019
6560 Rain 8 1018 93 2000 2.1 190 08:37 08.12.2019
6561 Rain 8 1018 93 2000 2.1 190 08:19 08.12.2019
6562 Rain 8 1018 100 1500 2.6 260 07:43 08.12.2019
6563 Rain 7 1018 87 2000 4.6 230 07:20 08.12.2019
6564 Mist 5 1018 93 2000 2.6 260 06:50 08.12.2019
6565 Mist 6 1018 93 2000 2.6 260 06:22 08.12.2019
6566 Mist 5 1017 93 3000 3.1 220 05:48 08.12.2019
6567 Mist 5 1017 93 3000 3.1 220 05:18 08.12.2019
6568 Mist 6 1017 93 4000 2.43 278 03:50 08.12.2019
6569 Mist 5 1017 93 4000 2.43 278 03:23 08.12.2019
6570 Mist 6 1017 81 4000 2.43 278 02:39 08.12.2019
6571 Mist 6 1018 87 3500 2.63 287 01:56 08.12.2019
6572 Mist 6 1018 87 3500 2.63 287 01:23 08.12.2019
6573 Mist 8 1019 87 5000 2.72 287 00:40 08.12.2019
6574 Mist 8 1019 87 5000 2.72 287 00:20 08.12.2019
6575 Mist 8 1019 87 5000 2.72 287 00:20 08.12.2019
6576 Mist 8 1019 93 5000 2.72 287 23:41 07.12.2019
6577 Mist 8 1019 93 5000 3.79 286 23:21 07.12.2019
6578 Haze 8 1019 76 5000 3.79 286 22:58 07.12.2019
6579 Haze 8 1019 76 5000 3.79 286 22:40 07.12.2019
6580 Haze 8 1019 76 5000 3.79 286 22:40 07.12.2019
6581 Haze 8 1019 76 5000 3.79 286 22:40 07.12.2019
6582 Haze 8 1019 76 5000 3.79 286 22:40 07.12.2019
6583 Haze 8 1019 76 5000 3.79 286 22:40 07.12.2019
6584 Haze 8 1019 76 5000 3.79 286 22:22 07.12.2019
6585 Haze 7 1019 81 5000 3.79 286 21:56 07.12.2019
6586 Haze 9 1019 81 5000 3.79 286 21:38 07.12.2019
6587 Haze 9 1019 81 5000 3.79 286 21:38 07.12.2019
6588 Haze 8 1019 81 5000 3.79 286 21:20 07.12.2019
6589 Haze 8 1019 87 5000 1.5 230 20:59 07.12.2019
6590 Haze 8 1019 87 5000 1.5 230 20:37 07.12.2019
6591 Haze 8 1019 87 5000 1.5 230 20:19 07.12.2019
6592 Haze 8 1019 81 5000 3.1 240 19:56 07.12.2019
6593 Haze 8 1019 81 5000 3.1 240 19:38 07.12.2019
6594 Haze 8 1019 81 5000 3.1 240 19:20 07.12.2019
6595 Haze 9 1019 76 5000 3.6 260 18:55 07.12.2019
6596 Haze 9 1019 76 5000 3.6 260 18:36 07.12.2019
6597 Haze 9 1019 76 5000 3.6 260 18:18 07.12.2019
6598 Clouds 10 1019 65 6000 3.57 291 17:55 07.12.2019
6599 Haze 10 1018 66 5000 3.6 260 17:36 07.12.2019
6600 Haze 10 1018 66 5000 3.6 260 17:18 07.12.2019
6601 Haze 12 1018 62 5000 3.1 300 16:54 07.12.2019
6602 Haze 12 1018 62 5000 3.1 300 16:36 07.12.2019
6603 Haze 12 1018 62 5000 3.1 300 16:18 07.12.2019
6604 Haze 13 1018 54 5000 5.1 310 15:40 07.12.2019
6605 Haze 13 1018 54 5000 5.1 310 15:22 07.12.2019
6606 Clouds 14 1018 58 6000 7.7 300 14:43 07.12.2019
6607 Clouds 14 1018 58 6000 7.7 300 14:19 07.12.2019
6608 Clouds 15 1018 47 6000 7.7 300 13:59 07.12.2019
6609 Clouds 15 1018 47 6000 7.7 300 13:39 07.12.2019
6610 Clouds 15 1018 47 6000 7.7 300 13:39 07.12.2019
6611 Clouds 15 1018 47 6000 7.7 300 13:39 07.12.2019
6612 Clouds 15 1018 47 6000 7.7 300 13:19 07.12.2019
6613 Clouds 14 1018 50 6000 7.2 300 12:55 07.12.2019
6614 Clouds 14 1018 50 6000 7.2 300 12:36 07.12.2019
6615 Clouds 14 1018 50 6000 7.2 300 12:18 07.12.2019
6616 Haze 14 1018 50 5000 7.2 300 11:41 07.12.2019
6617 Haze 14 1018 50 5000 7.2 300 11:41 07.12.2019
6618 Haze 14 1018 50 5000 7.2 300 11:23 07.12.2019
6619 Clouds 13 1019 47 6000 7.2 300 10:56 07.12.2019
6620 Clouds 13 1019 47 6000 7.2 300 10:36 07.12.2019
6621 Clouds 13 1019 47 6000 7.2 300 10:18 07.12.2019
6622 Haze 12 1019 58 5000 5.1 300 09:39 07.12.2019
6623 Haze 12 1019 58 5000 5.1 300 09:21 07.12.2019
6624 Haze 12 1019 58 5000 5.1 300 08:46 07.12.2019
6625 Haze 12 1019 58 5000 5.1 300 08:46 07.12.2019
6626 Haze 11 1019 62 5000 4.6 270 08:25 07.12.2019
6627 Haze 11 1019 62 5000 4.6 270 08:25 07.12.2019
6628 Haze 11 1019 62 5000 4.6 270 08:25 07.12.2019
6629 Haze 11 1019 62 5000 4.6 270 08:25 07.12.2019
6630 Haze 8 1019 76 5000 3.1 250 07:53 07.12.2019
6631 Haze 8 1019 76 5000 3.1 250 07:53 07.12.2019
6632 Mist 8 1019 93 5000 0.98 295 07:29 07.12.2019
6633 Haze 6 1019 75 5000 3.1 260 06:53 07.12.2019
6634 Haze 6 1019 75 5000 3.1 260 06:53 07.12.2019
6635 Haze 6 1019 75 5000 3.1 260 06:28 07.12.2019
6636 Haze 6 1018 75 5000 1 280 05:50 07.12.2019
6637 Haze 6 1018 81 5000 1.5 350 04:48 07.12.2019
6638 Haze 6 1018 81 5000 1.5 350 04:48 07.12.2019
6639 Haze 7 1018 75 5000 1.5 350 03:51 07.12.2019
6640 Haze 7 1018 75 5000 1.5 340 02:47 07.12.2019
6641 Haze 7 1018 75 5000 1.5 340 02:18 07.12.2019
6642 Clear 7 1018 81 6000 2.6 300 01:25 07.12.2019
6643 Clear 8 1018 76 6000 4.1 290 00:42 07.12.2019
6644 Clear 8 1018 76 6000 4.1 290 00:18 07.12.2019
6645 Clear 8 1019 76 6000 4.6 290 23:45 06.12.2019
6646 Clear 8 1019 76 6000 4.6 290 23:23 06.12.2019
6647 Clouds 9 1018 87 6000 4.1 270 22:58 06.12.2019
6648 Clouds 9 1018 87 6000 4.1 270 22:58 06.12.2019
6649 Clouds 9 1019 71 6000 3.6 290 22:37 06.12.2019
6650 Clouds 9 1019 71 6000 3.6 290 22:18 06.12.2019
6651 Clear 9 1019 76 6000 4.1 300 21:56 06.12.2019
6652 Clear 9 1019 76 6000 4.1 300 21:37 06.12.2019
6653 Clear 9 1019 76 6000 4.1 300 21:19 06.12.2019
6654 Clear 10 1019 66 6000 3.1 300 20:42 06.12.2019
6655 Clear 10 1019 66 6000 3.1 300 20:22 06.12.2019
6656 Clear 10 1019 76 8000 3.1 280 19:57 06.12.2019
6657 Clear 10 1019 76 8000 3.1 280 19:38 06.12.2019
6658 Clear 10 1019 76 8000 3.1 280 19:20 06.12.2019
6659 Clouds 10 1019 87 6000 3.1 280 18:44 06.12.2019
6660 Clouds 11 1019 76 7000 2.1 290 18:23 06.12.2019
6661 Clouds 11 1019 71 6000 3.1 300 17:58 06.12.2019
6662 Clouds 12 1018 76 7000 3.1 320 17:40 06.12.2019
6663 Clouds 12 1018 76 7000 3.1 320 17:22 06.12.2019
6664 Clouds 12 1018 66 7000 6.2 270 16:59 06.12.2019
6665 Clouds 12 1018 66 7000 6.2 270 16:40 06.12.2019
6666 Clouds 12 1018 66 7000 6.2 270 16:21 06.12.2019
6667 Clouds 13 1018 54 7000 7.2 290 15:56 06.12.2019
6668 Clouds 13 1018 54 7000 7.2 290 15:38 06.12.2019
6669 Clouds 13 1018 54 7000 7.2 290 15:38 06.12.2019
6670 Clouds 13 1018 54 7000 7.2 290 15:18 06.12.2019
6671 Clouds 13 1018 54 7000 7.2 290 15:18 06.12.2019
6672 Clouds 14 1018 50 7000 6.2 290 14:41 06.12.2019
6673 Clouds 14 1018 50 7000 6.2 290 14:20 06.12.2019
6674 Clouds 13 1018 62 6000 5.1 290 13:58 06.12.2019
6675 Haze 13 1018 66 5000 1.5 340 13:40 06.12.2019
6676 Haze 13 1018 66 5000 1.5 340 13:22 06.12.2019
6677 Haze 13 1018 66 5000 3.1 240 12:41 06.12.2019
6678 Haze 13 1018 66 5000 3.1 240 12:22 06.12.2019
6679 Rain 12 1019 87 5000 4.1 300 11:56 06.12.2019
6680 Rain 12 1019 87 5000 4.1 300 11:37 06.12.2019
6681 Rain 12 1019 87 5000 4.1 300 11:19 06.12.2019
6682 Rain 14 1019 66 5000 5.1 240 10:42 06.12.2019
6683 Rain 14 1019 66 5000 5.1 240 10:21 06.12.2019
6684 Clouds 14 1020 66 7000 3.1 240 09:57 06.12.2019
6685 Clouds 14 1020 66 7000 3.1 240 09:37 06.12.2019
6686 Clouds 14 1020 66 7000 3.1 240 09:19 06.12.2019
6687 Clouds 13 1019 76 7000 3.1 240 08:45 06.12.2019
6688 Clouds 13 1019 76 7000 3.1 240 08:26 06.12.2019
6689 Clouds 12 1019 81 6000 3.1 240 07:44 06.12.2019
6690 Clouds 12 1019 81 6000 3.1 240 07:23 06.12.2019
6691 Mist 11 1019 81 4000 5.1 240 06:58 06.12.2019
6692 Mist 11 1019 81 4000 5.1 240 06:26 06.12.2019
6693 Mist 12 1018 81 4000 5.1 240 05:52 06.12.2019
6694 Mist 12 1018 81 4000 5.1 240 05:21 06.12.2019
6695 Haze 11 1018 76 5000 7.7 240 02:19 06.12.2019
6696 Haze 11 1018 76 5000 8.2 230 01:29 06.12.2019
6697 Haze 12 1018 66 5000 8.2 240 00:40 06.12.2019
6698 Haze 12 1018 66 5000 8.2 240 00:20 06.12.2019
6699 Haze 12 1018 71 5000 8.2 240 23:45 05.12.2019
6700 Haze 12 1018 71 5000 8.2 240 23:19 05.12.2019
6701 Haze 13 1018 71 5000 7.7 260 22:57 05.12.2019
6702 Haze 13 1018 71 5000 7.7 260 22:37 05.12.2019
6703 Haze 13 1018 71 5000 7.7 260 22:18 05.12.2019
6704 Haze 14 1019 71 5000 8.2 260 21:44 05.12.2019
6705 Haze 14 1019 71 5000 8.2 260 21:25 05.12.2019
6706 Haze 14 1019 71 5000 8.2 260 20:59 05.12.2019
6707 Haze 14 1018 76 5000 8.7 250 20:40 05.12.2019
6708 Haze 14 1018 76 5000 8.7 250 20:21 05.12.2019
6709 Haze 14 1018 76 5000 3.6 250 19:58 05.12.2019
6710 Haze 14 1018 76 5000 3.6 250 19:58 05.12.2019
6711 Haze 14 1018 76 5000 3.6 250 19:40 05.12.2019
6712 Haze 14 1018 76 5000 3.6 250 19:20 05.12.2019
6713 Haze 14 1018 71 5000 3.6 220 18:57 05.12.2019
6714 Haze 14 1018 71 5000 3.6 220 18:38 05.12.2019
6715 Haze 14 1018 71 5000 3.6 220 18:20 05.12.2019
6716 Haze 14 1018 67 5000 5.1 250 17:39 05.12.2019
6717 Haze 14 1018 67 5000 5.1 250 17:20 05.12.2019
6718 Haze 15 1017 67 5000 7.2 230 16:57 05.12.2019
6719 Haze 15 1017 67 5000 7.2 230 16:39 05.12.2019
6720 Haze 15 1017 67 5000 7.2 230 16:21 05.12.2019
6721 Haze 16 1018 62 4500 7.2 240 15:58 05.12.2019
6722 Haze 16 1018 62 4500 7.2 240 15:38 05.12.2019
6723 Haze 16 1018 62 4500 7.2 240 15:20 05.12.2019
6724 Haze 17 1018 59 5000 7.2 270 14:56 05.12.2019
6725 Haze 17 1018 59 5000 7.2 270 14:37 05.12.2019
6726 Haze 17 1018 59 5000 7.2 270 14:19 05.12.2019
6727 Haze 17 1018 59 5000 7.2 270 14:19 05.12.2019
6728 Haze 18 1017 59 3500 7.2 260 13:56 05.12.2019
6729 Haze 18 1017 59 3500 7.2 260 13:38 05.12.2019
6730 Haze 18 1018 55 5000 5.1 270 13:19 05.12.2019
6731 Clouds 18 1018 55 7000 4.6 270 12:57 05.12.2019
6732 Clouds 18 1018 55 7000 4.6 270 12:38 05.12.2019
6733 Clouds 18 1018 55 7000 4.6 270 12:20 05.12.2019
6734 Clouds 18 1018 55 7000 4.6 270 12:20 05.12.2019
6735 Haze 17 1019 55 5000 4.1 250 11:39 05.12.2019
6736 Haze 17 1019 55 5000 4.1 250 11:21 05.12.2019
6737 Haze 16 1020 62 5000 3.1 240 10:58 05.12.2019
6738 Haze 16 1020 62 5000 3.1 240 10:40 05.12.2019
6739 Haze 16 1020 62 5000 3.1 240 10:40 05.12.2019
6740 Haze 16 1020 62 5000 3.1 240 10:19 05.12.2019
6741 Haze 13 1021 62 5000 2.6 230 09:55 05.12.2019
6742 Haze 13 1021 62 5000 2.6 230 09:37 05.12.2019
6743 Haze 13 1021 62 5000 2.6 230 09:18 05.12.2019
6744 Haze 11 1021 71 5000 1.5 230 08:39 05.12.2019
6745 Haze 11 1021 71 5000 1.5 230 08:21 05.12.2019
6746 Haze 11 1021 71 5000 1.5 230 08:21 05.12.2019
6747 Haze 9 1021 76 4000 2.1 170 07:59 05.12.2019
6748 Haze 9 1021 76 4000 2.1 170 07:40 05.12.2019
6749 Haze 9 1021 76 4000 2.1 170 07:21 05.12.2019
6750 Haze 7 1020 81 4000 1.24 306 06:47 05.12.2019
6751 Haze 7 1020 81 4000 1.24 306 06:23 05.12.2019
6752 Mist 6 1021 93 3000 1.24 306 05:53 05.12.2019
6753 Mist 6 1020 87 4000 1.24 306 05:24 05.12.2019
6754 Mist 7 1021 87 4000 2.17 320 04:37 05.12.2019
6755 Mist 6 1020 87 4000 2.17